<?xml version="1.0" encoding="UTF-8"?>
<gpx version="1.1" creator="Garmin Connect"
  xsi:schemaLocation="http://www.topografix.com/GPX/1/1 http://www.topografix.com/GPX/1/1/gpx.xsd http://www.garmin.com/xmlschemas/GpxExtensions/v3 http://www.garmin.com/xmlschemas/GpxExtensionsv3.xsd http://www.garmin.com/xmlschemas/TrackPointExtension/v1 http://www.garmin.com/xmlschemas/TrackPointExtensionv1.xsd"
  xmlns="http://www.topografix.com/GPX/1/1"
  xmlns:gpxtpx="http://www.garmin.com/xmlschemas/TrackPointExtension/v1"
  xmlns:gpxx="http://www.garmin.com/xmlschemas/GpxExtensions/v3" xmlns:xsi="http://www.w3.org/2001/XMLSchema-instance">
  <metadata>
    <link href="connect.garmin.com">
      <text>Garmin Connect</text>
    </link>
    <time>2003-04-18T05:51:51.000Z</time>
  </metadata>
  <trk>
    <name>Untitled</name>
    <trkseg>
      <trkpt lon="-2.194587104022503" lat="43.047186797484756">
        <ele>156.39999389648438</ele>
        <time>2003-04-18T05:51:51.000Z</time>
      </trkpt>
      <trkpt lon="-2.1945559233427048" lat="43.046754375100136">
        <ele>156.0</ele>
        <time>2003-04-18T05:52:18.000Z</time>
      </trkpt>
      <trkpt lon="-2.1950586698949337" lat="43.046793937683105">
        <ele>157.0</ele>
        <time>2003-04-18T05:52:19.000Z</time>
      </trkpt>
      <trkpt lon="-2.1953903418034315" lat="43.046778263524175">
        <ele>157.39999389648438</ele>
        <time>2003-04-18T05:52:22.000Z</time>
      </trkpt>
      <trkpt lon="-2.1954781003296375" lat="43.0466438177973">
        <ele>157.0</ele>
        <time>2003-04-18T05:52:45.000Z</time>
      </trkpt>
      <trkpt lon="-2.1943783946335316" lat="43.04624886251986">
        <ele>158.1999969482422</ele>
        <time>2003-04-18T05:53:17.000Z</time>
      </trkpt>
      <trkpt lon="-2.1936211735010147" lat="43.0459463596344">
        <ele>158.0</ele>
        <time>2003-04-18T05:53:35.000Z</time>
      </trkpt>
      <trkpt lon="-2.1929300017654896" lat="43.04541997611523">
        <ele>156.1999969482422</ele>
        <time>2003-04-18T05:53:56.000Z</time>
      </trkpt>
      <trkpt lon="-2.192999990656972" lat="43.045159969478846">
        <ele>157.0</ele>
        <time>2003-04-18T05:54:11.000Z</time>
      </trkpt>
      <trkpt lon="-2.1930399723351" lat="43.04484003223479">
        <ele>157.60000610351562</ele>
        <time>2003-04-18T05:54:31.000Z</time>
      </trkpt>
      <trkpt lon="-2.193209957331419" lat="43.04458002559841">
        <ele>159.1999969482422</ele>
        <time>2003-04-18T05:54:50.000Z</time>
      </trkpt>
      <trkpt lon="-2.193450015038252" lat="43.04449997842312">
        <ele>162.0</ele>
        <time>2003-04-18T05:55:03.000Z</time>
      </trkpt>
      <trkpt lon="-2.1936200000345707" lat="43.04449997842312">
        <ele>164.1999969482422</ele>
        <time>2003-04-18T05:55:11.000Z</time>
      </trkpt>
      <trkpt lon="-2.1939598862081766" lat="43.04449997842312">
        <ele>168.8000030517578</ele>
        <time>2003-04-18T05:55:28.000Z</time>
      </trkpt>
      <trkpt lon="-2.194200027734041" lat="43.0445200111717">
        <ele>171.8000030517578</ele>
        <time>2003-04-18T05:55:41.000Z</time>
      </trkpt>
      <trkpt lon="-2.1943000238388777" lat="43.04449997842312">
        <ele>172.8000030517578</ele>
        <time>2003-04-18T05:55:50.000Z</time>
      </trkpt>
      <trkpt lon="-2.1944649796932936" lat="43.044313564896584">
        <ele>175.60000610351562</ele>
        <time>2003-04-18T05:56:01.000Z</time>
      </trkpt>
      <trkpt lon="-2.1945780515670776" lat="43.04412530735135">
        <ele>178.39999389648438</ele>
        <time>2003-04-18T05:56:16.000Z</time>
      </trkpt>
      <trkpt lon="-2.194700175896287" lat="43.0441711563617">
        <ele>179.0</ele>
        <time>2003-04-18T05:56:23.000Z</time>
      </trkpt>
      <trkpt lon="-2.1949447598308325" lat="43.04424491710961">
        <ele>180.8000030517578</ele>
        <time>2003-04-18T05:56:32.000Z</time>
      </trkpt>
      <trkpt lon="-2.195141650736332" lat="43.04421029984951">
        <ele>184.39999389648438</ele>
        <time>2003-04-18T05:56:45.000Z</time>
      </trkpt>
      <trkpt lon="-2.195179956033826" lat="43.04406998679042">
        <ele>187.0</ele>
        <time>2003-04-18T05:56:55.000Z</time>
      </trkpt>
      <trkpt lon="-2.19525002874434" lat="43.04392003454268">
        <ele>190.8000030517578</ele>
        <time>2003-04-18T05:57:08.000Z</time>
      </trkpt>
      <trkpt lon="-2.1953299082815647" lat="43.04373001679778">
        <ele>195.1999969482422</ele>
        <time>2003-04-18T05:57:24.000Z</time>
      </trkpt>
      <trkpt lon="-2.1954200137406588" lat="43.043549973517656">
        <ele>199.8000030517578</ele>
        <time>2003-04-18T05:57:37.000Z</time>
      </trkpt>
      <trkpt lon="-2.195459995418787" lat="43.04349004290998">
        <ele>201.60000610351562</ele>
        <time>2003-04-18T05:57:47.000Z</time>
      </trkpt>
      <trkpt lon="-2.195459995418787" lat="43.04334000684321">
        <ele>203.8000030517578</ele>
        <time>2003-04-18T05:57:57.000Z</time>
      </trkpt>
      <trkpt lon="-2.1955098677426577" lat="43.04310003295541">
        <ele>210.60000610351562</ele>
        <time>2003-04-18T05:58:12.000Z</time>
      </trkpt>
      <trkpt lon="-2.1955299004912376" lat="43.04300003685057">
        <ele>213.60000610351562</ele>
        <time>2003-04-18T05:58:23.000Z</time>
      </trkpt>
      <trkpt lon="-2.1955098677426577" lat="43.04287003353238">
        <ele>216.1999969482422</ele>
        <time>2003-04-18T05:58:38.000Z</time>
      </trkpt>
      <trkpt lon="-2.1955098677426577" lat="43.04281999357045">
        <ele>217.39999389648438</ele>
        <time>2003-04-18T05:58:43.000Z</time>
      </trkpt>
      <trkpt lon="-2.195480028167367" lat="43.04278001189232">
        <ele>217.8000030517578</ele>
        <time>2003-04-18T05:58:57.000Z</time>
      </trkpt>
      <trkpt lon="-2.195480028167367" lat="43.04274003021419">
        <ele>218.8000030517578</ele>
        <time>2003-04-18T05:59:04.000Z</time>
      </trkpt>
      <trkpt lon="-2.195439962670207" lat="43.042610026896">
        <ele>221.0</ele>
        <time>2003-04-18T05:59:20.000Z</time>
      </trkpt>
      <trkpt lon="-2.195459995418787" lat="43.04255001246929">
        <ele>222.8000030517578</ele>
        <time>2003-04-18T05:59:29.000Z</time>
      </trkpt>
      <trkpt lon="-2.1955098677426577" lat="43.04245999082923">
        <ele>226.0</ele>
        <time>2003-04-18T05:59:38.000Z</time>
      </trkpt>
      <trkpt lon="-2.1955499332398176" lat="43.04232998751104">
        <ele>229.39999389648438</ele>
        <time>2003-04-18T05:59:50.000Z</time>
      </trkpt>
      <trkpt lon="-2.1955899987369776" lat="43.04219998419285">
        <ele>232.8000030517578</ele>
        <time>2003-04-18T06:00:03.000Z</time>
      </trkpt>
      <trkpt lon="-2.19565998762846" lat="43.04212002083659">
        <ele>236.0</ele>
        <time>2003-04-18T06:00:16.000Z</time>
      </trkpt>
      <trkpt lon="-2.19568002037704" lat="43.04189999587834">
        <ele>240.60000610351562</ele>
        <time>2003-04-18T06:00:30.000Z</time>
      </trkpt>
      <trkpt lon="-2.1957398671656847" lat="43.04179002530873">
        <ele>244.1999969482422</ele>
        <time>2003-04-18T06:00:43.000Z</time>
      </trkpt>
      <trkpt lon="-2.1957598999142647" lat="43.04169002920389">
        <ele>246.60000610351562</ele>
        <time>2003-04-18T06:00:52.000Z</time>
      </trkpt>
      <trkpt lon="-2.1958100236952305" lat="43.0415600258857">
        <ele>249.1999969482422</ele>
        <time>2003-04-18T06:01:06.000Z</time>
      </trkpt>
      <trkpt lon="-2.1958100236952305" lat="43.04117001593113">
        <ele>252.1999969482422</ele>
        <time>2003-04-18T06:01:20.000Z</time>
      </trkpt>
      <trkpt lon="-2.1957398671656847" lat="43.04105996154249">
        <ele>252.1999969482422</ele>
        <time>2003-04-18T06:01:31.000Z</time>
      </trkpt>
      <trkpt lon="-2.195699969306588" lat="43.04088997654617">
        <ele>253.39999389648438</ele>
        <time>2003-04-18T06:01:48.000Z</time>
      </trkpt>
      <trkpt lon="-2.195699969306588" lat="43.04064002819359">
        <ele>255.60000610351562</ele>
        <time>2003-04-18T06:02:06.000Z</time>
      </trkpt>
      <trkpt lon="-2.19568002037704" lat="43.04031003266573">
        <ele>258.3999938964844</ele>
        <time>2003-04-18T06:02:28.000Z</time>
      </trkpt>
      <trkpt lon="-2.195699969306588" lat="43.03992999717593">
        <ele>261.79998779296875</ele>
        <time>2003-04-18T06:02:48.000Z</time>
      </trkpt>
      <trkpt lon="-2.1957398671656847" lat="43.03960997611284">
        <ele>264.3999938964844</ele>
        <time>2003-04-18T06:03:10.000Z</time>
      </trkpt>
      <trkpt lon="-2.1958500053733587" lat="43.03921996615827">
        <ele>268.6000061035156</ele>
        <time>2003-04-18T06:03:34.000Z</time>
      </trkpt>
      <trkpt lon="-2.1960199903696775" lat="43.03887999616563">
        <ele>269.3999938964844</ele>
        <time>2003-04-18T06:03:59.000Z</time>
      </trkpt>
      <trkpt lon="-2.196149993687868" lat="43.038730043917894">
        <ele>270.6000061035156</ele>
        <time>2003-04-18T06:04:09.000Z</time>
      </trkpt>
      <trkpt lon="-2.1963898837566376" lat="43.03848998621106">
        <ele>273.6000061035156</ele>
        <time>2003-04-18T06:04:28.000Z</time>
      </trkpt>
      <trkpt lon="-2.196559952571988" lat="43.03832000121474">
        <ele>276.3999938964844</ele>
        <time>2003-04-18T06:04:44.000Z</time>
      </trkpt>
      <trkpt lon="-2.196749970316887" lat="43.0379699729383">
        <ele>279.79998779296875</ele>
        <time>2003-04-18T06:05:06.000Z</time>
      </trkpt>
      <trkpt lon="-2.196770003065467" lat="43.03782002069056">
        <ele>280.3999938964844</ele>
        <time>2003-04-18T06:05:17.000Z</time>
      </trkpt>
      <trkpt lon="-2.196749970316887" lat="43.03763000294566">
        <ele>280.6000061035156</ele>
        <time>2003-04-18T06:05:31.000Z</time>
      </trkpt>
      <trkpt lon="-2.196749970316887" lat="43.03756998851895">
        <ele>280.79998779296875</ele>
        <time>2003-04-18T06:05:36.000Z</time>
      </trkpt>
      <trkpt lon="-2.196860443800688" lat="43.03761332295835">
        <ele>282.0</ele>
        <time>2003-04-18T06:05:45.000Z</time>
      </trkpt>
      <trkpt lon="-2.1969582606106997" lat="43.037640983238816">
        <ele>283.20001220703125</ele>
        <time>2003-04-18T06:05:47.000Z</time>
      </trkpt>
      <trkpt lon="-2.1971178520470858" lat="43.03764215670526">
        <ele>285.0</ele>
        <time>2003-04-18T06:06:00.000Z</time>
      </trkpt>
      <trkpt lon="-2.19730275683105" lat="43.037580382078886">
        <ele>287.3999938964844</ele>
        <time>2003-04-18T06:06:13.000Z</time>
      </trkpt>
      <trkpt lon="-2.1974503621459007" lat="43.037554398179054">
        <ele>289.20001220703125</ele>
        <time>2003-04-18T06:06:14.000Z</time>
      </trkpt>
      <trkpt lon="-2.1975699719041586" lat="43.03746001794934">
        <ele>291.3999938964844</ele>
        <time>2003-04-18T06:06:28.000Z</time>
      </trkpt>
      <trkpt lon="-2.1977593190968037" lat="43.03740352392197">
        <ele>294.3999938964844</ele>
        <time>2003-04-18T06:06:41.000Z</time>
      </trkpt>
      <trkpt lon="-2.1981277875602245" lat="43.037379048764706">
        <ele>299.0</ele>
        <time>2003-04-18T06:07:05.000Z</time>
      </trkpt>
      <trkpt lon="-2.1982756443321705" lat="43.03734409622848">
        <ele>300.3999938964844</ele>
        <time>2003-04-18T06:07:12.000Z</time>
      </trkpt>
      <trkpt lon="-2.1979583892971277" lat="43.03719783201814">
        <ele>296.3999938964844</ele>
        <time>2003-04-18T06:07:31.000Z</time>
      </trkpt>
      <trkpt lon="-2.197703579440713" lat="43.03697093389928">
        <ele>295.3999938964844</ele>
        <time>2003-04-18T06:07:50.000Z</time>
      </trkpt>
      <trkpt lon="-2.197485314682126" lat="43.036762308329344">
        <ele>297.0</ele>
        <time>2003-04-18T06:08:10.000Z</time>
      </trkpt>
      <trkpt lon="-2.1973900124430656" lat="43.03642996586859">
        <ele>298.0</ele>
        <time>2003-04-18T06:08:32.000Z</time>
      </trkpt>
      <trkpt lon="-2.1973499469459057" lat="43.03618999198079">
        <ele>298.3999938964844</ele>
        <time>2003-04-18T06:08:49.000Z</time>
      </trkpt>
      <trkpt lon="-2.1973299141973257" lat="43.03589000366628">
        <ele>298.79998779296875</ele>
        <time>2003-04-18T06:09:07.000Z</time>
      </trkpt>
      <trkpt lon="-2.1973098814487457" lat="43.035509968176484">
        <ele>302.0</ele>
        <time>2003-04-18T06:09:32.000Z</time>
      </trkpt>
      <trkpt lon="-2.197290016338229" lat="43.03513999097049">
        <ele>305.79998779296875</ele>
        <time>2003-04-18T06:09:55.000Z</time>
      </trkpt>
      <trkpt lon="-2.1970899403095245" lat="43.034930024296045">
        <ele>306.0</ele>
        <time>2003-04-18T06:10:13.000Z</time>
      </trkpt>
      <trkpt lon="-2.1968198753893375" lat="43.03476003929973">
        <ele>305.20001220703125</ele>
        <time>2003-04-18T06:10:32.000Z</time>
      </trkpt>
      <trkpt lon="-2.1966599486768246" lat="43.034500032663345">
        <ele>306.79998779296875</ele>
        <time>2003-04-18T06:10:52.000Z</time>
      </trkpt>
      <trkpt lon="-2.196559952571988" lat="43.034159978851676">
        <ele>309.6000061035156</ele>
        <time>2003-04-18T06:11:15.000Z</time>
      </trkpt>
      <trkpt lon="-2.1966198831796646" lat="43.03382998332381">
        <ele>312.20001220703125</ele>
        <time>2003-04-18T06:11:37.000Z</time>
      </trkpt>
      <trkpt lon="-2.1968198753893375" lat="43.03358003497124">
        <ele>314.0</ele>
        <time>2003-04-18T06:11:55.000Z</time>
      </trkpt>
      <trkpt lon="-2.1971199475228786" lat="43.033209973946214">
        <ele>316.79998779296875</ele>
        <time>2003-04-18T06:12:21.000Z</time>
      </trkpt>
      <trkpt lon="-2.197290016338229" lat="43.033039988949895">
        <ele>319.0</ele>
        <time>2003-04-18T06:12:35.000Z</time>
      </trkpt>
      <trkpt lon="-2.1974798664450645" lat="43.032849971204996">
        <ele>321.6000061035156</ele>
        <time>2003-04-18T06:12:51.000Z</time>
      </trkpt>
      <trkpt lon="-2.1975900046527386" lat="43.03264997899532">
        <ele>324.20001220703125</ele>
        <time>2003-04-18T06:13:06.000Z</time>
      </trkpt>
      <trkpt lon="-2.1975900046527386" lat="43.032630030065775">
        <ele>324.3999938964844</ele>
        <time>2003-04-18T06:13:08.000Z</time>
      </trkpt>
      <trkpt lon="-2.197629986330867" lat="43.03257001563907">
        <ele>325.20001220703125</ele>
        <time>2003-04-18T06:13:13.000Z</time>
      </trkpt>
      <trkpt lon="-2.197669968008995" lat="43.03254998289049">
        <ele>325.20001220703125</ele>
        <time>2003-04-18T06:13:15.000Z</time>
      </trkpt>
      <trkpt lon="-2.197910025715828" lat="43.03227002732456">
        <ele>327.79998779296875</ele>
        <time>2003-04-18T06:13:39.000Z</time>
      </trkpt>
      <trkpt lon="-2.1980800107121468" lat="43.03197003901005">
        <ele>331.20001220703125</ele>
        <time>2003-04-18T06:14:01.000Z</time>
      </trkpt>
      <trkpt lon="-2.1981698647141457" lat="43.031599977985024">
        <ele>335.3999938964844</ele>
        <time>2003-04-18T06:14:27.000Z</time>
      </trkpt>
      <trkpt lon="-2.198359966278076" lat="43.031150037422776">
        <ele>336.20001220703125</ele>
        <time>2003-04-18T06:14:55.000Z</time>
      </trkpt>
      <trkpt lon="-2.198549984022975" lat="43.030849965289235">
        <ele>335.3999938964844</ele>
        <time>2003-04-18T06:15:12.000Z</time>
      </trkpt>
      <trkpt lon="-2.198770008981228" lat="43.03048996254802">
        <ele>332.79998779296875</ele>
        <time>2003-04-18T06:15:37.000Z</time>
      </trkpt>
      <trkpt lon="-2.199239982292056" lat="43.03005997091532">
        <ele>332.0</ele>
        <time>2003-04-18T06:16:09.000Z</time>
      </trkpt>
      <trkpt lon="-2.1997299045324326" lat="43.029689993709326">
        <ele>326.79998779296875</ele>
        <time>2003-04-18T06:16:39.000Z</time>
      </trkpt>
      <trkpt lon="-2.199880024418235" lat="43.029559990391135">
        <ele>324.6000061035156</ele>
        <time>2003-04-18T06:16:49.000Z</time>
      </trkpt>
      <trkpt lon="-2.2003998700529337" lat="43.02916000597179">
        <ele>322.79998779296875</ele>
        <time>2003-04-18T06:17:21.000Z</time>
      </trkpt>
      <trkpt lon="-2.200719974935055" lat="43.02886001765728">
        <ele>321.0</ele>
        <time>2003-04-18T06:17:45.000Z</time>
      </trkpt>
      <trkpt lon="-2.201039995998144" lat="43.02849004045129">
        <ele>319.6000061035156</ele>
        <time>2003-04-18T06:18:11.000Z</time>
      </trkpt>
      <trkpt lon="-2.2013199515640736" lat="43.02830002270639">
        <ele>320.3999938964844</ele>
        <time>2003-04-18T06:18:29.000Z</time>
      </trkpt>
      <trkpt lon="-2.2017499431967735" lat="43.0279800016433">
        <ele>322.79998779296875</ele>
        <time>2003-04-18T06:18:56.000Z</time>
      </trkpt>
      <trkpt lon="-2.202069964259863" lat="43.02769996225834">
        <ele>322.3999938964844</ele>
        <time>2003-04-18T06:19:18.000Z</time>
      </trkpt>
      <trkpt lon="-2.202310021966696" lat="43.02742000669241">
        <ele>323.20001220703125</ele>
        <time>2003-04-18T06:19:38.000Z</time>
      </trkpt>
      <trkpt lon="-2.2026499081403017" lat="43.02705002948642">
        <ele>323.6000061035156</ele>
        <time>2003-04-18T06:20:04.000Z</time>
      </trkpt>
      <trkpt lon="-2.202989961951971" lat="43.02676999010146">
        <ele>321.79998779296875</ele>
        <time>2003-04-18T06:20:27.000Z</time>
      </trkpt>
      <trkpt lon="-2.203209986910224" lat="43.02662003785372">
        <ele>318.79998779296875</ele>
        <time>2003-04-18T06:20:40.000Z</time>
      </trkpt>
      <trkpt lon="-2.2035499569028616" lat="43.02652004174888">
        <ele>314.20001220703125</ele>
        <time>2003-04-18T06:20:58.000Z</time>
      </trkpt>
      <trkpt lon="-2.203920017927885" lat="43.02649003453553">
        <ele>311.6000061035156</ele>
        <time>2003-04-18T06:21:14.000Z</time>
      </trkpt>
      <trkpt lon="-2.204329976812005" lat="43.02644996903837">
        <ele>309.0</ele>
        <time>2003-04-18T06:21:33.000Z</time>
      </trkpt>
      <trkpt lon="-2.2044500056654215" lat="43.02637000568211">
        <ele>307.79998779296875</ele>
        <time>2003-04-18T06:21:41.000Z</time>
      </trkpt>
      <trkpt lon="-2.2046298813074827" lat="43.02627998404205">
        <ele>306.79998779296875</ele>
        <time>2003-04-18T06:21:50.000Z</time>
      </trkpt>
      <trkpt lon="-2.204840015619993" lat="43.02617001347244">
        <ele>306.6000061035156</ele>
        <time>2003-04-18T06:22:08.000Z</time>
      </trkpt>
      <trkpt lon="-2.2050799056887627" lat="43.0260700173676">
        <ele>307.3999938964844</ele>
        <time>2003-04-18T06:22:21.000Z</time>
      </trkpt>
      <trkpt lon="-2.2054798901081085" lat="43.02597999572754">
        <ele>309.0</ele>
        <time>2003-04-18T06:22:41.000Z</time>
      </trkpt>
      <trkpt lon="-2.205869983881712" lat="43.02588997408748">
        <ele>311.3999938964844</ele>
        <time>2003-04-18T06:23:01.000Z</time>
      </trkpt>
      <trkpt lon="-2.20633995719254" lat="43.02570004016161">
        <ele>312.6000061035156</ele>
        <time>2003-04-18T06:23:26.000Z</time>
      </trkpt>
      <trkpt lon="-2.2066899854689837" lat="43.02548998966813">
        <ele>313.20001220703125</ele>
        <time>2003-04-18T06:23:49.000Z</time>
      </trkpt>
      <trkpt lon="-2.206989973783493" lat="43.0252100341022">
        <ele>315.6000061035156</ele>
        <time>2003-04-18T06:24:11.000Z</time>
      </trkpt>
      <trkpt lon="-2.207179991528392" lat="43.02486000582576">
        <ele>317.3999938964844</ele>
        <time>2003-04-18T06:24:36.000Z</time>
      </trkpt>
      <trkpt lon="-2.2073700092732906" lat="43.02463000640273">
        <ele>317.6000061035156</ele>
        <time>2003-04-18T06:24:55.000Z</time>
      </trkpt>
      <trkpt lon="-2.20764996483922" lat="43.02446002140641">
        <ele>318.20001220703125</ele>
        <time>2003-04-18T06:25:12.000Z</time>
      </trkpt>
      <trkpt lon="-2.2080600075423717" lat="43.02427997812629">
        <ele>317.3999938964844</ele>
        <time>2003-04-18T06:25:33.000Z</time>
      </trkpt>
      <trkpt lon="-2.208359995856881" lat="43.0241600330919">
        <ele>316.79998779296875</ele>
        <time>2003-04-18T06:25:48.000Z</time>
      </trkpt>
      <trkpt lon="-2.2086599841713905" lat="43.02386004477739">
        <ele>311.3999938964844</ele>
        <time>2003-04-18T06:26:10.000Z</time>
      </trkpt>
      <trkpt lon="-2.208789987489581" lat="43.02347003482282">
        <ele>306.79998779296875</ele>
        <time>2003-04-18T06:26:34.000Z</time>
      </trkpt>
      <trkpt lon="-2.209199946373701" lat="43.02322997711599">
        <ele>305.79998779296875</ele>
        <time>2003-04-18T06:26:56.000Z</time>
      </trkpt>
      <trkpt lon="-2.209449978545308" lat="43.02308002486825">
        <ele>303.20001220703125</ele>
        <time>2003-04-18T06:27:11.000Z</time>
      </trkpt>
      <trkpt lon="-2.2096000146120787" lat="43.02295002155006">
        <ele>302.0</ele>
        <time>2003-04-18T06:27:21.000Z</time>
      </trkpt>
      <trkpt lon="-2.209900002926588" lat="43.02260996773839">
        <ele>300.20001220703125</ele>
        <time>2003-04-18T06:27:46.000Z</time>
      </trkpt>
      <trkpt lon="-2.21026998013258" lat="43.02220000885427">
        <ele>297.6000061035156</ele>
        <time>2003-04-18T06:28:14.000Z</time>
      </trkpt>
      <trkpt lon="-2.2106999717652798" lat="43.02203002385795">
        <ele>297.20001220703125</ele>
        <time>2003-04-18T06:28:36.000Z</time>
      </trkpt>
      <trkpt lon="-2.2110598906874657" lat="43.02207000553608">
        <ele>298.0</ele>
        <time>2003-04-18T06:28:53.000Z</time>
      </trkpt>
      <trkpt lon="-2.2112999483942986" lat="43.02207000553608">
        <ele>298.6000061035156</ele>
        <time>2003-04-18T06:29:08.000Z</time>
      </trkpt>
      <trkpt lon="-2.2117099072784185" lat="43.02203002385795">
        <ele>299.79998779296875</ele>
        <time>2003-04-18T06:29:27.000Z</time>
      </trkpt>
      <trkpt lon="-2.2121398989111185" lat="43.02199004217982">
        <ele>303.0</ele>
        <time>2003-04-18T06:29:49.000Z</time>
      </trkpt>
      <trkpt lon="-2.2128399554640055" lat="43.02177001722157">
        <ele>308.6000061035156</ele>
        <time>2003-04-18T06:30:25.000Z</time>
      </trkpt>
      <trkpt lon="-2.213419983163476" lat="43.02151998504996">
        <ele>312.20001220703125</ele>
        <time>2003-04-18T06:30:56.000Z</time>
      </trkpt>
      <trkpt lon="-2.2137700114399195" lat="43.02117004059255">
        <ele>311.0</ele>
        <time>2003-04-18T06:31:23.000Z</time>
      </trkpt>
      <trkpt lon="-2.214130014181137" lat="43.02069998346269">
        <ele>310.6000061035156</ele>
        <time>2003-04-18T06:31:55.000Z</time>
      </trkpt>
      <trkpt lon="-2.2143699042499065" lat="43.020320031791925">
        <ele>305.6000061035156</ele>
        <time>2003-04-18T06:32:19.000Z</time>
      </trkpt>
      <trkpt lon="-2.2145999036729336" lat="43.019890040159225">
        <ele>302.6000061035156</ele>
        <time>2003-04-18T06:32:46.000Z</time>
      </trkpt>
      <trkpt lon="-2.214929983019829" lat="43.0195199791342">
        <ele>304.6000061035156</ele>
        <time>2003-04-18T06:33:11.000Z</time>
      </trkpt>
      <trkpt lon="-2.2151200007647276" lat="43.01912996917963">
        <ele>302.3999938964844</ele>
        <time>2003-04-18T06:33:37.000Z</time>
      </trkpt>
      <trkpt lon="-2.2152698691934347" lat="43.01868002861738">
        <ele>300.79998779296875</ele>
        <time>2003-04-18T06:34:04.000Z</time>
      </trkpt>
      <trkpt lon="-2.2153800074011087" lat="43.01833997480571">
        <ele>299.79998779296875</ele>
        <time>2003-04-18T06:34:27.000Z</time>
      </trkpt>
      <trkpt lon="-2.215399956330657" lat="43.018320025876164">
        <ele>300.0</ele>
        <time>2003-04-18T06:34:42.000Z</time>
      </trkpt>
      <trkpt lon="-2.2153299674391747" lat="43.018280044198036">
        <ele>300.0</ele>
        <time>2003-04-18T06:36:13.000Z</time>
      </trkpt>
      <trkpt lon="-2.2153299674391747" lat="43.017979972064495">
        <ele>303.79998779296875</ele>
        <time>2003-04-18T06:36:34.000Z</time>
      </trkpt>
      <trkpt lon="-2.215250004082918" lat="43.01758996210992">
        <ele>308.6000061035156</ele>
        <time>2003-04-18T06:37:00.000Z</time>
      </trkpt>
      <trkpt lon="-2.214969964697957" lat="43.01723004318774">
        <ele>312.20001220703125</ele>
        <time>2003-04-18T06:37:29.000Z</time>
      </trkpt>
      <trkpt lon="-2.214729990810156" lat="43.016989985480905">
        <ele>312.79998779296875</ele>
        <time>2003-04-18T06:37:48.000Z</time>
      </trkpt>
      <trkpt lon="-2.214520024135709" lat="43.016669964417815">
        <ele>315.6000061035156</ele>
        <time>2003-04-18T06:38:11.000Z</time>
      </trkpt>
      <trkpt lon="-2.2143899369984865" lat="43.016450023278594">
        <ele>318.3999938964844</ele>
        <time>2003-04-18T06:38:29.000Z</time>
      </trkpt>
      <trkpt lon="-2.214319948107004" lat="43.01629998721182">
        <ele>320.3999938964844</ele>
        <time>2003-04-18T06:38:40.000Z</time>
      </trkpt>
      <trkpt lon="-2.214319948107004" lat="43.016150034964085">
        <ele>322.79998779296875</ele>
        <time>2003-04-18T06:38:53.000Z</time>
      </trkpt>
      <trkpt lon="-2.2143899369984865" lat="43.016020031645894">
        <ele>325.20001220703125</ele>
        <time>2003-04-18T06:39:05.000Z</time>
      </trkpt>
      <trkpt lon="-2.214499991387129" lat="43.01586999557912">
        <ele>328.0</ele>
        <time>2003-04-18T06:39:19.000Z</time>
      </trkpt>
      <trkpt lon="-2.214539973065257" lat="43.01576999947429">
        <ele>329.79998779296875</ele>
        <time>2003-04-18T06:39:28.000Z</time>
      </trkpt>
      <trkpt lon="-2.2145798709243536" lat="43.015549974516034">
        <ele>334.0</ele>
        <time>2003-04-18T06:39:46.000Z</time>
      </trkpt>
      <trkpt lon="-2.2146199364215136" lat="43.015400022268295">
        <ele>336.79998779296875</ele>
        <time>2003-04-18T06:40:00.000Z</time>
      </trkpt>
      <trkpt lon="-2.2146699763834476" lat="43.01518997177482">
        <ele>340.6000061035156</ele>
        <time>2003-04-18T06:40:16.000Z</time>
      </trkpt>
      <trkpt lon="-2.2146699763834476" lat="43.01517002284527">
        <ele>341.0</ele>
        <time>2003-04-18T06:40:18.000Z</time>
      </trkpt>
      <trkpt lon="-2.214750023558736" lat="43.01491001620889">
        <ele>346.0</ele>
        <time>2003-04-18T06:40:38.000Z</time>
      </trkpt>
      <trkpt lon="-2.2147798631340265" lat="43.01475998014212">
        <ele>348.79998779296875</ele>
        <time>2003-04-18T06:40:51.000Z</time>
      </trkpt>
      <trkpt lon="-2.2147798631340265" lat="43.01461002789438">
        <ele>351.3999938964844</ele>
        <time>2003-04-18T06:41:03.000Z</time>
      </trkpt>
      <trkpt lon="-2.214750023558736" lat="43.01444004289806">
        <ele>354.0</ele>
        <time>2003-04-18T06:41:17.000Z</time>
      </trkpt>
      <trkpt lon="-2.214750023558736" lat="43.014390002936125">
        <ele>354.79998779296875</ele>
        <time>2003-04-18T06:41:20.000Z</time>
      </trkpt>
      <trkpt lon="-2.214750023558736" lat="43.01432998850942">
        <ele>355.79998779296875</ele>
        <time>2003-04-18T06:41:26.000Z</time>
      </trkpt>
      <trkpt lon="-2.214750023558736" lat="43.014199985191226">
        <ele>358.0</ele>
        <time>2003-04-18T06:41:36.000Z</time>
      </trkpt>
      <trkpt lon="-2.214741725474596" lat="43.01406763494015">
        <ele>360.3999938964844</ele>
        <time>2003-04-18T06:41:55.000Z</time>
      </trkpt>
      <trkpt lon="-2.214820012450218" lat="43.01400996744633">
        <ele>363.20001220703125</ele>
        <time>2003-04-18T06:42:28.000Z</time>
      </trkpt>
      <trkpt lon="-2.2148399613797665" lat="43.01400996744633">
        <ele>363.6000061035156</ele>
        <time>2003-04-18T06:42:32.000Z</time>
      </trkpt>
      <trkpt lon="-2.215139949694276" lat="43.01389999687672">
        <ele>369.0</ele>
        <time>2003-04-18T06:42:51.000Z</time>
      </trkpt>
      <trkpt lon="-2.2153500001877546" lat="43.013809975236654">
        <ele>372.0</ele>
        <time>2003-04-18T06:43:14.000Z</time>
      </trkpt>
      <trkpt lon="-2.2155682649463415" lat="43.01371316425502">
        <ele>375.3999938964844</ele>
        <time>2003-04-18T06:43:37.000Z</time>
      </trkpt>
      <trkpt lon="-2.215644121170044" lat="43.01354259252548">
        <ele>381.0</ele>
        <time>2003-04-18T06:43:53.000Z</time>
      </trkpt>
      <trkpt lon="-2.2160000167787075" lat="43.013360034674406">
        <ele>386.20001220703125</ele>
        <time>2003-04-18T06:44:14.000Z</time>
      </trkpt>
      <trkpt lon="-2.216059947386384" lat="43.0133000202477">
        <ele>387.3999938964844</ele>
        <time>2003-04-18T06:44:19.000Z</time>
      </trkpt>
      <trkpt lon="-2.216109987348318" lat="43.01327998749912">
        <ele>387.6000061035156</ele>
        <time>2003-04-18T06:44:22.000Z</time>
      </trkpt>
      <trkpt lon="-2.216279972344637" lat="43.01313003525138">
        <ele>390.3999938964844</ele>
        <time>2003-04-18T06:44:37.000Z</time>
      </trkpt>
      <trkpt lon="-2.2164099756628275" lat="43.01300003193319">
        <ele>392.79998779296875</ele>
        <time>2003-04-18T06:44:49.000Z</time>
      </trkpt>
      <trkpt lon="-2.2165798768401146" lat="43.01282996311784">
        <ele>395.6000061035156</ele>
        <time>2003-04-18T06:45:04.000Z</time>
      </trkpt>
      <trkpt lon="-2.2164900228381157" lat="43.0126800108701">
        <ele>401.79998779296875</ele>
        <time>2003-04-18T06:45:25.000Z</time>
      </trkpt>
      <trkpt lon="-2.2164900228381157" lat="43.01261002197862">
        <ele>404.0</ele>
        <time>2003-04-18T06:45:31.000Z</time>
      </trkpt>
      <trkpt lon="-2.216530004516244" lat="43.012459985911846">
        <ele>408.0</ele>
        <time>2003-04-18T06:45:43.000Z</time>
      </trkpt>
      <trkpt lon="-2.2166600078344345" lat="43.0122500192374">
        <ele>412.6000061035156</ele>
        <time>2003-04-18T06:46:01.000Z</time>
      </trkpt>
      <trkpt lon="-2.2166600078344345" lat="43.0122500192374">
        <ele>412.6000061035156</ele>
        <time>2003-04-18T06:46:02.000Z</time>
      </trkpt>
      <trkpt lon="-2.216709963977337" lat="43.01212001591921">
        <ele>416.0</ele>
        <time>2003-04-18T06:46:14.000Z</time>
      </trkpt>
      <trkpt lon="-2.216769978404045" lat="43.01196997985244">
        <ele>419.79998779296875</ele>
        <time>2003-04-18T06:46:27.000Z</time>
      </trkpt>
      <trkpt lon="-2.216790011152625" lat="43.01186000928283">
        <ele>423.0</ele>
        <time>2003-04-18T06:46:38.000Z</time>
      </trkpt>
      <trkpt lon="-2.216790011152625" lat="43.01186000928283">
        <ele>423.0</ele>
        <time>2003-04-18T06:46:39.000Z</time>
      </trkpt>
      <trkpt lon="-2.2168399672955275" lat="43.01175003871322">
        <ele>425.6000061035156</ele>
        <time>2003-04-18T06:46:48.000Z</time>
      </trkpt>
      <trkpt lon="-2.2168799489736557" lat="43.01156002096832">
        <ele>430.6000061035156</ele>
        <time>2003-04-18T06:47:06.000Z</time>
      </trkpt>
      <trkpt lon="-2.2168799489736557" lat="43.01143001765013">
        <ele>434.3999938964844</ele>
        <time>2003-04-18T06:47:15.000Z</time>
      </trkpt>
      <trkpt lon="-2.2168599162250757" lat="43.011319963261485">
        <ele>438.0</ele>
        <time>2003-04-18T06:47:23.000Z</time>
      </trkpt>
      <trkpt lon="-2.2168599162250757" lat="43.01121996715665">
        <ele>440.79998779296875</ele>
        <time>2003-04-18T06:47:33.000Z</time>
      </trkpt>
      <trkpt lon="-2.2168599162250757" lat="43.01108996383846">
        <ele>444.3999938964844</ele>
        <time>2003-04-18T06:47:48.000Z</time>
      </trkpt>
      <trkpt lon="-2.2168599162250757" lat="43.01090002991259">
        <ele>449.79998779296875</ele>
        <time>2003-04-18T06:48:06.000Z</time>
      </trkpt>
      <trkpt lon="-2.216790011152625" lat="43.01061999052763">
        <ele>456.3999938964844</ele>
        <time>2003-04-18T06:48:26.000Z</time>
      </trkpt>
      <trkpt lon="-2.216749945655465" lat="43.01044003106654">
        <ele>459.79998779296875</ele>
        <time>2003-04-18T06:48:39.000Z</time>
      </trkpt>
      <trkpt lon="-2.216709963977337" lat="43.01032000221312">
        <ele>462.6000061035156</ele>
        <time>2003-04-18T06:48:50.000Z</time>
      </trkpt>
      <trkpt lon="-2.2166600078344345" lat="43.01022998057306">
        <ele>465.3999938964844</ele>
        <time>2003-04-18T06:49:00.000Z</time>
      </trkpt>
      <trkpt lon="-2.216560011729598" lat="43.01021003164351">
        <ele>467.6000061035156</ele>
        <time>2003-04-18T06:49:12.000Z</time>
      </trkpt>
      <trkpt lon="-2.216530004516244" lat="43.01021003164351">
        <ele>468.20001220703125</ele>
        <time>2003-04-18T06:49:13.000Z</time>
      </trkpt>
      <trkpt lon="-2.2164099756628275" lat="43.01025001332164">
        <ele>470.0</ele>
        <time>2003-04-18T06:49:27.000Z</time>
      </trkpt>
      <trkpt lon="-2.2162099834531546" lat="43.01039996556938">
        <ele>471.20001220703125</ele>
        <time>2003-04-18T06:49:41.000Z</time>
      </trkpt>
      <trkpt lon="-2.2160399984568357" lat="43.01048998720944">
        <ele>472.3999938964844</ele>
        <time>2003-04-18T06:49:53.000Z</time>
      </trkpt>
      <trkpt lon="-2.215889962390065" lat="43.01048998720944">
        <ele>474.79998779296875</ele>
        <time>2003-04-18T06:50:02.000Z</time>
      </trkpt>
      <trkpt lon="-2.215679995715618" lat="43.01038001663983">
        <ele>477.79998779296875</ele>
        <time>2003-04-18T06:50:21.000Z</time>
      </trkpt>
      <trkpt lon="-2.215629955753684" lat="43.0103400349617">
        <ele>478.3999938964844</ele>
        <time>2003-04-18T06:50:26.000Z</time>
      </trkpt>
      <trkpt lon="-2.215610006824136" lat="43.01032000221312">
        <ele>478.79998779296875</ele>
        <time>2003-04-18T06:50:29.000Z</time>
      </trkpt>
      <trkpt lon="-2.215700028464198" lat="43.01009997725487">
        <ele>484.20001220703125</ele>
        <time>2003-04-18T06:50:49.000Z</time>
      </trkpt>
      <trkpt lon="-2.2157399263232946" lat="43.01003996282816">
        <ele>485.6000061035156</ele>
        <time>2003-04-18T06:50:58.000Z</time>
      </trkpt>
      <trkpt lon="-2.2158099990338087" lat="43.009910043329">
        <ele>488.3999938964844</ele>
        <time>2003-04-18T06:51:12.000Z</time>
      </trkpt>
      <trkpt lon="-2.215870013460517" lat="43.0097200255841">
        <ele>490.79998779296875</ele>
        <time>2003-04-18T06:51:31.000Z</time>
      </trkpt>
      <trkpt lon="-2.215889962390065" lat="43.00952003337443">
        <ele>493.6000061035156</ele>
        <time>2003-04-18T06:51:49.000Z</time>
      </trkpt>
      <trkpt lon="-2.215889962390065" lat="43.00952003337443">
        <ele>493.6000061035156</ele>
        <time>2003-04-18T06:51:50.000Z</time>
      </trkpt>
      <trkpt lon="-2.215870013460517" lat="43.00939003005624">
        <ele>496.20001220703125</ele>
        <time>2003-04-18T06:52:04.000Z</time>
      </trkpt>
      <trkpt lon="-2.215909995138645" lat="43.00930998288095">
        <ele>496.3999938964844</ele>
        <time>2003-04-18T06:52:19.000Z</time>
      </trkpt>
      <trkpt lon="-2.215909995138645" lat="43.00930998288095">
        <ele>496.3999938964844</ele>
        <time>2003-04-18T06:52:20.000Z</time>
      </trkpt>
      <trkpt lon="-2.215909995138645" lat="43.00917997956276">
        <ele>498.6000061035156</ele>
        <time>2003-04-18T06:52:37.000Z</time>
      </trkpt>
      <trkpt lon="-2.215909995138645" lat="43.00916003063321">
        <ele>498.79998779296875</ele>
        <time>2003-04-18T06:52:38.000Z</time>
      </trkpt>
      <trkpt lon="-2.215849980711937" lat="43.00891997292638">
        <ele>500.0</ele>
        <time>2003-04-18T06:52:59.000Z</time>
      </trkpt>
      <trkpt lon="-2.215700028464198" lat="43.00865996629">
        <ele>501.20001220703125</ele>
        <time>2003-04-18T06:53:14.000Z</time>
      </trkpt>
      <trkpt lon="-2.2155700251460075" lat="43.00847003236413">
        <ele>503.3999938964844</ele>
        <time>2003-04-18T06:53:25.000Z</time>
      </trkpt>
      <trkpt lon="-2.2154999524354935" lat="43.00834002904594">
        <ele>505.3999938964844</ele>
        <time>2003-04-18T06:53:34.000Z</time>
      </trkpt>
      <trkpt lon="-2.2153500001877546" lat="43.00815001130104">
        <ele>509.3999938964844</ele>
        <time>2003-04-18T06:53:46.000Z</time>
      </trkpt>
      <trkpt lon="-2.2151200007647276" lat="43.00782999023795">
        <ele>516.2000122070312</ele>
        <time>2003-04-18T06:54:07.000Z</time>
      </trkpt>
      <trkpt lon="-2.2150799352675676" lat="43.00768003799021">
        <ele>518.0</ele>
        <time>2003-04-18T06:54:18.000Z</time>
      </trkpt>
      <trkpt lon="-2.2150799352675676" lat="43.00762999802828">
        <ele>518.4000244140625</ele>
        <time>2003-04-18T06:54:22.000Z</time>
      </trkpt>
      <trkpt lon="-2.2150999680161476" lat="43.00739999860525">
        <ele>521.0</ele>
        <time>2003-04-18T06:54:40.000Z</time>
      </trkpt>
      <trkpt lon="-2.2150999680161476" lat="43.00729002803564">
        <ele>523.4000244140625</ele>
        <time>2003-04-18T06:54:50.000Z</time>
      </trkpt>
      <trkpt lon="-2.2151200007647276" lat="43.00720000639558">
        <ele>524.7999877929688</ele>
        <time>2003-04-18T06:54:59.000Z</time>
      </trkpt>
      <trkpt lon="-2.2151200007647276" lat="43.00716002471745">
        <ele>525.5999755859375</ele>
        <time>2003-04-18T06:55:02.000Z</time>
      </trkpt>
      <trkpt lon="-2.2151200007647276" lat="43.00712004303932">
        <ele>526.4000244140625</ele>
        <time>2003-04-18T06:55:06.000Z</time>
      </trkpt>
      <trkpt lon="-2.2151200007647276" lat="43.00700998865068">
        <ele>528.7999877929688</ele>
        <time>2003-04-18T06:55:17.000Z</time>
      </trkpt>
      <trkpt lon="-2.2150999680161476" lat="43.00697000697255">
        <ele>530.2000122070312</ele>
        <time>2003-04-18T06:55:21.000Z</time>
      </trkpt>
      <trkpt lon="-2.214929983019829" lat="43.00690001808107">
        <ele>536.5999755859375</ele>
        <time>2003-04-18T06:55:35.000Z</time>
      </trkpt>
      <trkpt lon="-2.2148799430578947" lat="43.00690001808107">
        <ele>537.7999877929688</ele>
        <time>2003-04-18T06:55:40.000Z</time>
      </trkpt>
      <trkpt lon="-2.214820012450218" lat="43.00693002529442">
        <ele>538.5999755859375</ele>
        <time>2003-04-18T06:55:45.000Z</time>
      </trkpt>
      <trkpt lon="-2.2145999036729336" lat="43.00694997422397">
        <ele>543.5999755859375</ele>
        <time>2003-04-18T06:56:00.000Z</time>
      </trkpt>
      <trkpt lon="-2.2143899369984865" lat="43.00694997422397">
        <ele>548.7999877929688</ele>
        <time>2003-04-18T06:56:14.000Z</time>
      </trkpt>
      <trkpt lon="-2.2142600174993277" lat="43.00694997422397">
        <ele>552.0</ele>
        <time>2003-04-18T06:56:22.000Z</time>
      </trkpt>
      <trkpt lon="-2.2141699120402336" lat="43.00694997422397">
        <ele>554.4000244140625</ele>
        <time>2003-04-18T06:56:27.000Z</time>
      </trkpt>
      <trkpt lon="-2.214049967005849" lat="43.00694997422397">
        <ele>554.7999877929688</ele>
        <time>2003-04-18T06:56:34.000Z</time>
      </trkpt>
      <trkpt lon="-2.2138099931180477" lat="43.00694997422397">
        <ele>555.7999877929688</ele>
        <time>2003-04-18T06:56:49.000Z</time>
      </trkpt>
      <trkpt lon="-2.2135700192302465" lat="43.00687998533249">
        <ele>559.0</ele>
        <time>2003-04-18T06:57:04.000Z</time>
      </trkpt>
      <trkpt lon="-2.2133800014853477" lat="43.00680002197623">
        <ele>562.0</ele>
        <time>2003-04-18T06:57:18.000Z</time>
      </trkpt>
      <trkpt lon="-2.2131400275975466" lat="43.00667001865804">
        <ele>562.7999877929688</ele>
        <time>2003-04-18T06:57:33.000Z</time>
      </trkpt>
      <trkpt lon="-2.212929977104068" lat="43.00637003034353">
        <ele>568.2000122070312</ele>
        <time>2003-04-18T06:57:56.000Z</time>
      </trkpt>
      <trkpt lon="-2.2127998899668455" lat="43.00624002702534">
        <ele>570.7999877929688</ele>
        <time>2003-04-18T06:58:08.000Z</time>
      </trkpt>
      <trkpt lon="-2.212559999898076" lat="43.00602000206709">
        <ele>576.5999755859375</ele>
        <time>2003-04-18T06:58:28.000Z</time>
      </trkpt>
      <trkpt lon="-2.2123698983341455" lat="43.00589997321367">
        <ele>579.7999877929688</ele>
        <time>2003-04-18T06:58:44.000Z</time>
      </trkpt>
      <trkpt lon="-2.2121999133378267" lat="43.00582998432219">
        <ele>580.7999877929688</ele>
        <time>2003-04-18T06:59:00.000Z</time>
      </trkpt>
      <trkpt lon="-2.21216001547873" lat="43.00581003539264">
        <ele>580.4000244140625</ele>
        <time>2003-04-18T06:59:16.000Z</time>
      </trkpt>
      <trkpt lon="-2.212109975516796" lat="43.005750020965934">
        <ele>580.0</ele>
        <time>2003-04-18T06:59:27.000Z</time>
      </trkpt>
      <trkpt lon="-2.212090026587248" lat="43.005750020965934">
        <ele>580.0</ele>
        <time>2003-04-18T06:59:28.000Z</time>
      </trkpt>
      <trkpt lon="-2.2120300121605396" lat="43.00572001375258">
        <ele>579.5999755859375</ele>
        <time>2003-04-18T06:59:33.000Z</time>
      </trkpt>
      <trkpt lon="-2.2120300121605396" lat="43.005699981004">
        <ele>579.5999755859375</ele>
        <time>2003-04-18T06:59:38.000Z</time>
      </trkpt>
      <trkpt lon="-2.2120300121605396" lat="43.00568003207445">
        <ele>579.5999755859375</ele>
        <time>2003-04-18T06:59:46.000Z</time>
      </trkpt>
      <trkpt lon="-2.2119599394500256" lat="43.00562001764774">
        <ele>579.4000244140625</ele>
        <time>2003-04-18T06:59:58.000Z</time>
      </trkpt>
      <trkpt lon="-2.2117899544537067" lat="43.00555002875626">
        <ele>579.0</ele>
        <time>2003-04-18T07:00:09.000Z</time>
      </trkpt>
      <trkpt lon="-2.2115099150687456" lat="43.00536001101136">
        <ele>579.5999755859375</ele>
        <time>2003-04-18T07:00:28.000Z</time>
      </trkpt>
      <trkpt lon="-2.211210010573268" lat="43.00520997494459">
        <ele>581.2000122070312</ele>
        <time>2003-04-18T07:00:46.000Z</time>
      </trkpt>
      <trkpt lon="-2.2109100222587585" lat="43.00510000437498">
        <ele>583.5999755859375</ele>
        <time>2003-04-18T07:01:04.000Z</time>
      </trkpt>
      <trkpt lon="-2.2106800228357315" lat="43.00503998994827">
        <ele>586.0</ele>
        <time>2003-04-18T07:01:18.000Z</time>
      </trkpt>
      <trkpt lon="-2.210350027307868" lat="43.004870004951954">
        <ele>587.7999877929688</ele>
        <time>2003-04-18T07:01:38.000Z</time>
      </trkpt>
      <trkpt lon="-2.210249947384" lat="43.00481996499002">
        <ele>588.4000244140625</ele>
        <time>2003-04-18T07:01:51.000Z</time>
      </trkpt>
      <trkpt lon="-2.2102299984544516" lat="43.00480001606047">
        <ele>588.5999755859375</ele>
        <time>2003-04-18T07:02:09.000Z</time>
      </trkpt>
      <trkpt lon="-2.2101799584925175" lat="43.00477998331189">
        <ele>589.0</ele>
        <time>2003-04-18T07:02:47.000Z</time>
      </trkpt>
      <trkpt lon="-2.2101398929953575" lat="43.00476003438234">
        <ele>589.4000244140625</ele>
        <time>2003-04-18T07:02:51.000Z</time>
      </trkpt>
      <trkpt lon="-2.210079962387681" lat="43.00476003438234">
        <ele>590.0</ele>
        <time>2003-04-18T07:02:55.000Z</time>
      </trkpt>
      <trkpt lon="-2.210049955174327" lat="43.00474000163376">
        <ele>590.4000244140625</ele>
        <time>2003-04-18T07:03:01.000Z</time>
      </trkpt>
      <trkpt lon="-2.209879970178008" lat="43.00447999499738">
        <ele>593.4000244140625</ele>
        <time>2003-04-18T07:03:21.000Z</time>
      </trkpt>
      <trkpt lon="-2.2097799740731716" lat="43.00428997725248">
        <ele>596.0</ele>
        <time>2003-04-18T07:03:40.000Z</time>
      </trkpt>
      <trkpt lon="-2.2097499668598175" lat="43.00425997003913">
        <ele>596.7999877929688</ele>
        <time>2003-04-18T07:03:41.000Z</time>
      </trkpt>
      <trkpt lon="-2.2096898686140776" lat="43.00418000668287">
        <ele>598.7999877929688</ele>
        <time>2003-04-18T07:03:59.000Z</time>
      </trkpt>
      <trkpt lon="-2.2096000146120787" lat="43.0040299706161">
        <ele>601.4000244140625</ele>
        <time>2003-04-18T07:04:14.000Z</time>
      </trkpt>
      <trkpt lon="-2.2095199674367905" lat="43.00392000004649">
        <ele>603.7999877929688</ele>
        <time>2003-04-18T07:04:24.000Z</time>
      </trkpt>
      <trkpt lon="-2.2095199674367905" lat="43.00392000004649">
        <ele>603.7999877929688</ele>
        <time>2003-04-18T07:04:25.000Z</time>
      </trkpt>
      <trkpt lon="-2.2093899641186" lat="43.00375001505017">
        <ele>607.7999877929688</ele>
        <time>2003-04-18T07:04:41.000Z</time>
      </trkpt>
      <trkpt lon="-2.2093700151890516" lat="43.003710033372045">
        <ele>608.5999755859375</ele>
        <time>2003-04-18T07:04:44.000Z</time>
      </trkpt>
      <trkpt lon="-2.2093700151890516" lat="43.003710033372045">
        <ele>608.5999755859375</ele>
        <time>2003-04-18T07:04:46.000Z</time>
      </trkpt>
      <trkpt lon="-2.2093700151890516" lat="43.003710033372045">
        <ele>608.5999755859375</ele>
        <time>2003-04-18T07:04:57.000Z</time>
      </trkpt>
      <trkpt lon="-2.2093899641186" lat="43.00372998230159">
        <ele>608.0</ele>
        <time>2003-04-18T07:06:14.000Z</time>
      </trkpt>
      <trkpt lon="-2.2092999424785376" lat="43.003539964556694">
        <ele>611.2000122070312</ele>
        <time>2003-04-18T07:06:29.000Z</time>
      </trkpt>
      <trkpt lon="-2.209199946373701" lat="43.0034099612385">
        <ele>614.5999755859375</ele>
        <time>2003-04-18T07:06:42.000Z</time>
      </trkpt>
      <trkpt lon="-2.2090899758040905" lat="43.003280041739345">
        <ele>618.4000244140625</ele>
        <time>2003-04-18T07:06:57.000Z</time>
      </trkpt>
      <trkpt lon="-2.208999954164028" lat="43.003150038421154">
        <ele>621.2000122070312</ele>
        <time>2003-04-18T07:07:14.000Z</time>
      </trkpt>
      <trkpt lon="-2.2088699508458376" lat="43.002960020676255">
        <ele>624.7999877929688</ele>
        <time>2003-04-18T07:07:31.000Z</time>
      </trkpt>
      <trkpt lon="-2.208769954741001" lat="43.00276002846658">
        <ele>627.4000244140625</ele>
        <time>2003-04-18T07:07:46.000Z</time>
      </trkpt>
      <trkpt lon="-2.208769954741001" lat="43.002739995718">
        <ele>627.4000244140625</ele>
        <time>2003-04-18T07:07:49.000Z</time>
      </trkpt>
      <trkpt lon="-2.208750005811453" lat="43.002700014039874">
        <ele>627.7999877929688</ele>
        <time>2003-04-18T07:07:53.000Z</time>
      </trkpt>
      <trkpt lon="-2.2086999658495188" lat="43.00247998908162">
        <ele>629.2000122070312</ele>
        <time>2003-04-18T07:08:10.000Z</time>
      </trkpt>
      <trkpt lon="-2.2086999658495188" lat="43.00233003683388">
        <ele>630.2000122070312</ele>
        <time>2003-04-18T07:08:23.000Z</time>
      </trkpt>
      <trkpt lon="-2.2086800169199705" lat="43.00214001908898">
        <ele>632.2000122070312</ele>
        <time>2003-04-18T07:08:37.000Z</time>
      </trkpt>
      <trkpt lon="-2.2086199186742306" lat="43.00185997970402">
        <ele>635.5999755859375</ele>
        <time>2003-04-18T07:08:56.000Z</time>
      </trkpt>
      <trkpt lon="-2.20855001360178" lat="43.001499976962805">
        <ele>638.2000122070312</ele>
        <time>2003-04-18T07:09:21.000Z</time>
      </trkpt>
      <trkpt lon="-2.2084899991750717" lat="43.00115003250539">
        <ele>639.2000122070312</ele>
        <time>2003-04-18T07:09:44.000Z</time>
      </trkpt>
      <trkpt lon="-2.2084199264645576" lat="43.000809978693724">
        <ele>640.4000244140625</ele>
        <time>2003-04-18T07:10:07.000Z</time>
      </trkpt>
      <trkpt lon="-2.2084199264645576" lat="43.000639993697405">
        <ele>639.4000244140625</ele>
        <time>2003-04-18T07:10:21.000Z</time>
      </trkpt>
      <trkpt lon="-2.2083998937159777" lat="43.00041996873915">
        <ele>638.4000244140625</ele>
        <time>2003-04-18T07:10:37.000Z</time>
      </trkpt>
      <trkpt lon="-2.2082500252872705" lat="43.000230034813285">
        <ele>642.0</ele>
        <time>2003-04-18T07:10:54.000Z</time>
      </trkpt>
      <trkpt lon="-2.2080399747937918" lat="42.999889981001616">
        <ele>646.7999877929688</ele>
        <time>2003-04-18T07:11:19.000Z</time>
      </trkpt>
      <trkpt lon="-2.2080999892205" lat="42.999329986050725">
        <ele>640.4000244140625</ele>
        <time>2003-04-18T07:11:53.000Z</time>
      </trkpt>
      <trkpt lon="-2.2082099597901106" lat="42.99893997609615">
        <ele>631.4000244140625</ele>
        <time>2003-04-18T07:12:19.000Z</time>
      </trkpt>
      <trkpt lon="-2.20807995647192" lat="42.998709976673126">
        <ele>627.7999877929688</ele>
        <time>2003-04-18T07:12:35.000Z</time>
      </trkpt>
      <trkpt lon="-2.2078000009059906" lat="42.99853999167681">
        <ele>627.2000122070312</ele>
        <time>2003-04-18T07:12:52.000Z</time>
      </trkpt>
      <trkpt lon="-2.207389958202839" lat="42.99840998835862">
        <ele>627.7999877929688</ele>
        <time>2003-04-18T07:13:12.000Z</time>
      </trkpt>
      <trkpt lon="-2.2069400176405907" lat="42.9984300211072">
        <ele>632.7999877929688</ele>
        <time>2003-04-18T07:13:33.000Z</time>
      </trkpt>
      <trkpt lon="-2.2064500115811825" lat="42.9984300211072">
        <ele>639.0</ele>
        <time>2003-04-18T07:13:55.000Z</time>
      </trkpt>
      <trkpt lon="-2.206079950556159" lat="42.998339999467134">
        <ele>641.2000122070312</ele>
        <time>2003-04-18T07:14:14.000Z</time>
      </trkpt>
      <trkpt lon="-2.2060399688780308" lat="42.99811000004411">
        <ele>634.7999877929688</ele>
        <time>2003-04-18T07:14:34.000Z</time>
      </trkpt>
      <trkpt lon="-2.20592999830842" lat="42.997849993407726">
        <ele>629.2000122070312</ele>
        <time>2003-04-18T07:14:53.000Z</time>
      </trkpt>
      <trkpt lon="-2.205630009993911" lat="42.99770004115999">
        <ele>629.4000244140625</ele>
        <time>2003-04-18T07:15:10.000Z</time>
      </trkpt>
      <trkpt lon="-2.205230025574565" lat="42.99762996844947">
        <ele>632.0</ele>
        <time>2003-04-18T07:15:31.000Z</time>
      </trkpt>
      <trkpt lon="-2.2048198990523815" lat="42.99762996844947">
        <ele>637.0</ele>
        <time>2003-04-18T07:15:52.000Z</time>
      </trkpt>
      <trkpt lon="-2.204499961808324" lat="42.997589986771345">
        <ele>639.4000244140625</ele>
        <time>2003-04-18T07:16:11.000Z</time>
      </trkpt>
      <trkpt lon="-2.2044099401682615" lat="42.9975700378418">
        <ele>639.7999877929688</ele>
        <time>2003-04-18T07:16:17.000Z</time>
      </trkpt>
      <trkpt lon="-2.2041999734938145" lat="42.99755000509322">
        <ele>641.5999755859375</ele>
        <time>2003-04-18T07:16:30.000Z</time>
      </trkpt>
      <trkpt lon="-2.2039599157869816" lat="42.997459983453155">
        <ele>644.5999755859375</ele>
        <time>2003-04-18T07:16:44.000Z</time>
      </trkpt>
      <trkpt lon="-2.2039599157869816" lat="42.997399969026446">
        <ele>644.4000244140625</ele>
        <time>2003-04-18T07:16:48.000Z</time>
      </trkpt>
      <trkpt lon="-2.2040200140327215" lat="42.997139962390065">
        <ele>642.0</ele>
        <time>2003-04-18T07:17:07.000Z</time>
      </trkpt>
      <trkpt lon="-2.204150017350912" lat="42.996899988502264">
        <ele>637.5999755859375</ele>
        <time>2003-04-18T07:17:26.000Z</time>
      </trkpt>
      <trkpt lon="-2.2042199224233627" lat="42.99666998907924">
        <ele>634.5999755859375</ele>
        <time>2003-04-18T07:17:44.000Z</time>
      </trkpt>
      <trkpt lon="-2.2041999734938145" lat="42.99637000076473">
        <ele>637.7999877929688</ele>
        <time>2003-04-18T07:18:06.000Z</time>
      </trkpt>
      <trkpt lon="-2.204150017350912" lat="42.99608996137977">
        <ele>641.2000122070312</ele>
        <time>2003-04-18T07:18:27.000Z</time>
      </trkpt>
      <trkpt lon="-2.204150017350912" lat="42.995870020240545">
        <ele>643.0</ele>
        <time>2003-04-18T07:18:44.000Z</time>
      </trkpt>
      <trkpt lon="-2.204150017350912" lat="42.99568000249565">
        <ele>640.5999755859375</ele>
        <time>2003-04-18T07:19:01.000Z</time>
      </trkpt>
      <trkpt lon="-2.204150017350912" lat="42.99560003913939">
        <ele>639.2000122070312</ele>
        <time>2003-04-18T07:19:30.000Z</time>
      </trkpt>
      <trkpt lon="-2.204109951853752" lat="42.99538001418114">
        <ele>636.0</ele>
        <time>2003-04-18T07:19:45.000Z</time>
      </trkpt>
      <trkpt lon="-2.2040500212460756" lat="42.99525001086295">
        <ele>634.7999877929688</ele>
        <time>2003-04-18T07:20:02.000Z</time>
      </trkpt>
      <trkpt lon="-2.2039999812841415" lat="42.99522997811437">
        <ele>635.4000244140625</ele>
        <time>2003-04-18T07:20:05.000Z</time>
      </trkpt>
      <trkpt lon="-2.2039999812841415" lat="42.99521002918482">
        <ele>635.2000122070312</ele>
        <time>2003-04-18T07:20:07.000Z</time>
      </trkpt>
      <trkpt lon="-2.203920017927885" lat="42.995099974796176">
        <ele>634.7999877929688</ele>
        <time>2003-04-18T07:20:21.000Z</time>
      </trkpt>
      <trkpt lon="-2.2038099635392427" lat="42.99486997537315">
        <ele>634.0</ele>
        <time>2003-04-18T07:20:37.000Z</time>
      </trkpt>
      <trkpt lon="-2.2037699818611145" lat="42.99473997205496">
        <ele>633.4000244140625</ele>
        <time>2003-04-18T07:20:45.000Z</time>
      </trkpt>
      <trkpt lon="-2.203920017927885" lat="42.99446001648903">
        <ele>628.0</ele>
        <time>2003-04-18T07:21:04.000Z</time>
      </trkpt>
      <trkpt lon="-2.2040500212460756" lat="42.99420000985265">
        <ele>623.7999877929688</ele>
        <time>2003-04-18T07:21:23.000Z</time>
      </trkpt>
      <trkpt lon="-2.2039999812841415" lat="42.99390002153814">
        <ele>621.0</ele>
        <time>2003-04-18T07:21:43.000Z</time>
      </trkpt>
      <trkpt lon="-2.2038099635392427" lat="42.99361998215318">
        <ele>619.4000244140625</ele>
        <time>2003-04-18T07:22:03.000Z</time>
      </trkpt>
      <trkpt lon="-2.2035499569028616" lat="42.99334002658725">
        <ele>617.5999755859375</ele>
        <time>2003-04-18T07:22:24.000Z</time>
      </trkpt>
      <trkpt lon="-2.203490026295185" lat="42.99325997941196">
        <ele>615.5999755859375</ele>
        <time>2003-04-18T07:22:30.000Z</time>
      </trkpt>
      <trkpt lon="-2.2033600229769945" lat="42.99312997609377">
        <ele>612.4000244140625</ele>
        <time>2003-04-18T07:22:47.000Z</time>
      </trkpt>
      <trkpt lon="-2.2033600229769945" lat="42.99312997609377">
        <ele>612.4000244140625</ele>
        <time>2003-04-18T07:22:57.000Z</time>
      </trkpt>
      <trkpt lon="-2.2033399902284145" lat="42.99302000552416">
        <ele>608.7999877929688</ele>
        <time>2003-04-18T07:23:04.000Z</time>
      </trkpt>
      <trkpt lon="-2.203379971906543" lat="42.9929400421679">
        <ele>606.2000122070312</ele>
        <time>2003-04-18T07:23:09.000Z</time>
      </trkpt>
      <trkpt lon="-2.2037499491125345" lat="42.99278003163636">
        <ele>601.7999877929688</ele>
        <time>2003-04-18T07:23:29.000Z</time>
      </trkpt>
      <trkpt lon="-2.204129984602332" lat="42.99275999888778">
        <ele>602.0</ele>
        <time>2003-04-18T07:23:47.000Z</time>
      </trkpt>
      <trkpt lon="-2.204540027305484" lat="42.9927399661392">
        <ele>603.7999877929688</ele>
        <time>2003-04-18T07:24:06.000Z</time>
      </trkpt>
      <trkpt lon="-2.2048799972981215" lat="42.99268003553152">
        <ele>605.7999877929688</ele>
        <time>2003-04-18T07:24:23.000Z</time>
      </trkpt>
      <trkpt lon="-2.205200018361211" lat="42.99246001057327">
        <ele>607.0</ele>
        <time>2003-04-18T07:24:44.000Z</time>
      </trkpt>
      <trkpt lon="-2.2053799778223038" lat="42.99210000783205">
        <ele>604.4000244140625</ele>
        <time>2003-04-18T07:25:07.000Z</time>
      </trkpt>
      <trkpt lon="-2.2054000105708838" lat="42.99190999008715">
        <ele>603.2000122070312</ele>
        <time>2003-04-18T07:25:23.000Z</time>
      </trkpt>
      <trkpt lon="-2.205419959500432" lat="42.99181996844709">
        <ele>602.7999877929688</ele>
        <time>2003-04-18T07:25:33.000Z</time>
      </trkpt>
      <trkpt lon="-2.205419959500432" lat="42.99180001951754">
        <ele>602.5999755859375</ele>
        <time>2003-04-18T07:25:41.000Z</time>
      </trkpt>
      <trkpt lon="-2.2055098973214626" lat="42.99164998345077">
        <ele>603.0</ele>
        <time>2003-04-18T07:25:53.000Z</time>
      </trkpt>
      <trkpt lon="-2.205660017207265" lat="42.99151998013258">
        <ele>603.4000244140625</ele>
        <time>2003-04-18T07:26:05.000Z</time>
      </trkpt>
      <trkpt lon="-2.2059799544513226" lat="42.99137002788484">
        <ele>603.0</ele>
        <time>2003-04-18T07:26:24.000Z</time>
      </trkpt>
      <trkpt lon="-2.2062599938362837" lat="42.99112997017801">
        <ele>600.0</ele>
        <time>2003-04-18T07:26:45.000Z</time>
      </trkpt>
      <trkpt lon="-2.206299975514412" lat="42.99102997407317">
        <ele>599.7999877929688</ele>
        <time>2003-04-18T07:26:59.000Z</time>
      </trkpt>
      <trkpt lon="-2.2062599938362837" lat="42.99108998849988">
        <ele>599.7999877929688</ele>
        <time>2003-04-18T07:27:05.000Z</time>
      </trkpt>
      <trkpt lon="-2.2062299866229296" lat="42.99115000292659">
        <ele>600.0</ele>
        <time>2003-04-18T07:27:19.000Z</time>
      </trkpt>
      <trkpt lon="-2.20633995719254" lat="42.99092000350356">
        <ele>599.7999877929688</ele>
        <time>2003-04-18T07:27:35.000Z</time>
      </trkpt>
      <trkpt lon="-2.2064500115811825" lat="42.99068002961576">
        <ele>599.7999877929688</ele>
        <time>2003-04-18T07:27:54.000Z</time>
      </trkpt>
      <trkpt lon="-2.206559982150793" lat="42.99055002629757">
        <ele>600.5999755859375</ele>
        <time>2003-04-18T07:28:10.000Z</time>
      </trkpt>
      <trkpt lon="-2.2066199127584696" lat="42.99033997580409">
        <ele>600.5999755859375</ele>
        <time>2003-04-18T07:28:26.000Z</time>
      </trkpt>
      <trkpt lon="-2.2068799193948507" lat="42.99010000191629">
        <ele>603.5999755859375</ele>
        <time>2003-04-18T07:28:46.000Z</time>
      </trkpt>
      <trkpt lon="-2.206959966570139" lat="42.9899699985981">
        <ele>604.5999755859375</ele>
        <time>2003-04-18T07:28:56.000Z</time>
      </trkpt>
      <trkpt lon="-2.206989973783493" lat="42.98993001691997">
        <ele>604.5999755859375</ele>
        <time>2003-04-18T07:29:02.000Z</time>
      </trkpt>
      <trkpt lon="-2.2070499043911695" lat="42.98987000249326">
        <ele>604.7999877929688</ele>
        <time>2003-04-18T07:29:07.000Z</time>
      </trkpt>
      <trkpt lon="-2.207159958779812" lat="42.98973999917507">
        <ele>605.4000244140625</ele>
        <time>2003-04-18T07:29:19.000Z</time>
      </trkpt>
      <trkpt lon="-2.2072400059551" lat="42.98963002860546">
        <ele>605.7999877929688</ele>
        <time>2003-04-18T07:29:29.000Z</time>
      </trkpt>
      <trkpt lon="-2.2073499765247107" lat="42.98950002528727">
        <ele>607.0</ele>
        <time>2003-04-18T07:29:42.000Z</time>
      </trkpt>
      <trkpt lon="-2.207419965416193" lat="42.98944001086056">
        <ele>608.2000122070312</ele>
        <time>2003-04-18T07:29:54.000Z</time>
      </trkpt>
      <trkpt lon="-2.2077198699116707" lat="42.98937002196908">
        <ele>613.4000244140625</ele>
        <time>2003-04-18T07:30:12.000Z</time>
      </trkpt>
      <trkpt lon="-2.2079899348318577" lat="42.9893499892205">
        <ele>618.0</ele>
        <time>2003-04-18T07:30:28.000Z</time>
      </trkpt>
      <trkpt lon="-2.2082099597901106" lat="42.98931000754237">
        <ele>622.0</ele>
        <time>2003-04-18T07:30:43.000Z</time>
      </trkpt>
      <trkpt lon="-2.208339963108301" lat="42.98928997479379">
        <ele>624.2000122070312</ele>
        <time>2003-04-18T07:30:50.000Z</time>
      </trkpt>
      <trkpt lon="-2.2083998937159777" lat="42.98927002586424">
        <ele>625.5999755859375</ele>
        <time>2003-04-18T07:30:55.000Z</time>
      </trkpt>
      <trkpt lon="-2.2086800169199705" lat="42.98921998590231">
        <ele>632.0</ele>
        <time>2003-04-18T07:31:13.000Z</time>
      </trkpt>
      <trkpt lon="-2.2088298853486776" lat="42.98920003697276">
        <ele>635.5999755859375</ele>
        <time>2003-04-18T07:31:24.000Z</time>
      </trkpt>
      <trkpt lon="-2.2088999580591917" lat="42.98918000422418">
        <ele>637.4000244140625</ele>
        <time>2003-04-18T07:31:29.000Z</time>
      </trkpt>
      <trkpt lon="-2.209019986912608" lat="42.98914002254605">
        <ele>640.4000244140625</ele>
        <time>2003-04-18T07:31:41.000Z</time>
      </trkpt>
      <trkpt lon="-2.209019986912608" lat="42.98914002254605">
        <ele>640.4000244140625</ele>
        <time>2003-04-18T07:31:42.000Z</time>
      </trkpt>
      <trkpt lon="-2.2090899758040905" lat="42.98908998258412">
        <ele>642.4000244140625</ele>
        <time>2003-04-18T07:31:51.000Z</time>
      </trkpt>
      <trkpt lon="-2.209219979122281" lat="42.98908998258412">
        <ele>645.4000244140625</ele>
        <time>2003-04-18T07:32:06.000Z</time>
      </trkpt>
      <trkpt lon="-2.209219979122281" lat="42.98908998258412">
        <ele>645.4000244140625</ele>
        <time>2003-04-18T07:32:39.000Z</time>
      </trkpt>
      <trkpt lon="-2.2092598769813776" lat="42.98908998258412">
        <ele>646.2000122070312</ele>
        <time>2003-04-18T07:32:51.000Z</time>
      </trkpt>
      <trkpt lon="-2.2095199674367905" lat="42.98920003697276">
        <ele>650.2000122070312</ele>
        <time>2003-04-18T07:33:08.000Z</time>
      </trkpt>
      <trkpt lon="-2.2097499668598175" lat="42.98927002586424">
        <ele>653.0</ele>
        <time>2003-04-18T07:33:23.000Z</time>
      </trkpt>
      <trkpt lon="-2.209900002926588" lat="42.98931000754237">
        <ele>654.7999877929688</ele>
        <time>2003-04-18T07:33:31.000Z</time>
      </trkpt>
      <trkpt lon="-2.21026998013258" lat="42.98938997089863">
        <ele>659.7999877929688</ele>
        <time>2003-04-18T07:33:52.000Z</time>
      </trkpt>
      <trkpt lon="-2.2103998996317387" lat="42.98938997089863">
        <ele>662.4000244140625</ele>
        <time>2003-04-18T07:34:02.000Z</time>
      </trkpt>
      <trkpt lon="-2.210590001195669" lat="42.9893499892205">
        <ele>667.2000122070312</ele>
        <time>2003-04-18T07:34:16.000Z</time>
      </trkpt>
      <trkpt lon="-2.210810026153922" lat="42.98933004029095">
        <ele>672.0</ele>
        <time>2003-04-18T07:34:31.000Z</time>
      </trkpt>
      <trkpt lon="-2.2108499240130186" lat="42.98931000754237">
        <ele>673.4000244140625</ele>
        <time>2003-04-18T07:34:33.000Z</time>
      </trkpt>
      <trkpt lon="-2.2110598906874657" lat="42.98928997479379">
        <ele>678.0</ele>
        <time>2003-04-18T07:34:47.000Z</time>
      </trkpt>
      <trkpt lon="-2.211210010573268" lat="42.98927002586424">
        <ele>681.5999755859375</ele>
        <time>2003-04-18T07:34:58.000Z</time>
      </trkpt>
      <trkpt lon="-2.211410002782941" lat="42.98924001865089">
        <ele>686.2000122070312</ele>
        <time>2003-04-18T07:35:11.000Z</time>
      </trkpt>
      <trkpt lon="-2.2115599550306797" lat="42.98918000422418">
        <ele>690.5999755859375</ele>
        <time>2003-04-18T07:35:23.000Z</time>
      </trkpt>
      <trkpt lon="-2.2117499727755785" lat="42.98911998979747">
        <ele>695.2000122070312</ele>
        <time>2003-04-18T07:35:38.000Z</time>
      </trkpt>
      <trkpt lon="-2.2117700055241585" lat="42.98911998979747">
        <ele>695.5999755859375</ele>
        <time>2003-04-18T07:35:40.000Z</time>
      </trkpt>
      <trkpt lon="-2.2119198739528656" lat="42.988970037549734">
        <ele>701.7999877929688</ele>
        <time>2003-04-18T07:35:58.000Z</time>
      </trkpt>
      <trkpt lon="-2.2119599394500256" lat="42.9889199975878">
        <ele>704.0</ele>
        <time>2003-04-18T07:36:02.000Z</time>
      </trkpt>
      <trkpt lon="-2.2122900187969208" lat="42.98889996483922">
        <ele>711.2000122070312</ele>
        <time>2003-04-18T07:36:32.000Z</time>
      </trkpt>
      <trkpt lon="-2.2123698983341455" lat="42.9889199975878">
        <ele>712.2000122070312</ele>
        <time>2003-04-18T07:36:37.000Z</time>
      </trkpt>
      <trkpt lon="-2.212739959359169" lat="42.98918000422418">
        <ele>708.4000244140625</ele>
        <time>2003-04-18T07:37:07.000Z</time>
      </trkpt>
      <trkpt lon="-2.2127998899668455" lat="42.98924001865089">
        <ele>708.4000244140625</ele>
        <time>2003-04-18T07:37:13.000Z</time>
      </trkpt>
      <trkpt lon="-2.2131199948489666" lat="42.98944001086056">
        <ele>711.0</ele>
        <time>2003-04-18T07:37:33.000Z</time>
      </trkpt>
      <trkpt lon="-2.2131400275975466" lat="42.98944001086056">
        <ele>711.4000244140625</ele>
        <time>2003-04-18T07:37:35.000Z</time>
      </trkpt>
      <trkpt lon="-2.2133199870586395" lat="42.98957001417875">
        <ele>713.4000244140625</ele>
        <time>2003-04-18T07:37:49.000Z</time>
      </trkpt>
      <trkpt lon="-2.2133599687367678" lat="42.9895899631083">
        <ele>713.7999877929688</ele>
        <time>2003-04-18T07:37:54.000Z</time>
      </trkpt>
      <trkpt lon="-2.213399950414896" lat="42.98973999917507">
        <ele>713.0</ele>
        <time>2003-04-18T07:38:07.000Z</time>
      </trkpt>
      <trkpt lon="-2.213399950414896" lat="42.98976003192365">
        <ele>712.5999755859375</ele>
        <time>2003-04-18T07:38:10.000Z</time>
      </trkpt>
      <trkpt lon="-2.213419983163476" lat="42.98984996974468">
        <ele>712.0</ele>
        <time>2003-04-18T07:38:18.000Z</time>
      </trkpt>
      <trkpt lon="-2.2135299537330866" lat="42.98993001691997">
        <ele>713.0</ele>
        <time>2003-04-18T07:38:32.000Z</time>
      </trkpt>
      <trkpt lon="-2.2135700192302465" lat="42.98989003524184">
        <ele>714.2000122070312</ele>
        <time>2003-04-18T07:38:37.000Z</time>
      </trkpt>
      <trkpt lon="-2.213619975373149" lat="42.98980001360178">
        <ele>715.7999877929688</ele>
        <time>2003-04-18T07:38:45.000Z</time>
      </trkpt>
      <trkpt lon="-2.2137198876589537" lat="42.98964997753501">
        <ele>719.0</ele>
        <time>2003-04-18T07:38:58.000Z</time>
      </trkpt>
      <trkpt lon="-2.2138099931180477" lat="42.98947999253869">
        <ele>722.2000122070312</ele>
        <time>2003-04-18T07:39:14.000Z</time>
      </trkpt>
      <trkpt lon="-2.213849974796176" lat="42.98937002196908">
        <ele>724.0</ele>
        <time>2003-04-18T07:39:23.000Z</time>
      </trkpt>
      <trkpt lon="-2.21390001475811" lat="42.98928997479379">
        <ele>725.5999755859375</ele>
        <time>2003-04-18T07:39:32.000Z</time>
      </trkpt>
      <trkpt lon="-2.21390001475811" lat="42.98928997479379">
        <ele>725.5999755859375</ele>
        <time>2003-04-18T07:39:33.000Z</time>
      </trkpt>
      <trkpt lon="-2.2139198798686266" lat="42.98927002586424">
        <ele>726.2000122070312</ele>
        <time>2003-04-18T07:39:36.000Z</time>
      </trkpt>
      <trkpt lon="-2.2139399126172066" lat="42.98920003697276">
        <ele>727.2000122070312</ele>
        <time>2003-04-18T07:39:41.000Z</time>
      </trkpt>
      <trkpt lon="-2.2139399126172066" lat="42.98907003365457">
        <ele>729.7999877929688</ele>
        <time>2003-04-18T07:39:54.000Z</time>
      </trkpt>
      <trkpt lon="-2.2139599453657866" lat="42.988970037549734">
        <ele>732.5999755859375</ele>
        <time>2003-04-18T07:40:07.000Z</time>
      </trkpt>
      <trkpt lon="-2.2139599453657866" lat="42.98885998316109">
        <ele>735.2000122070312</ele>
        <time>2003-04-18T07:40:19.000Z</time>
      </trkpt>
      <trkpt lon="-2.2139599453657866" lat="42.98876996152103">
        <ele>737.4000244140625</ele>
        <time>2003-04-18T07:40:28.000Z</time>
      </trkpt>
      <trkpt lon="-2.2139399126172066" lat="42.98855999484658">
        <ele>742.4000244140625</ele>
        <time>2003-04-18T07:40:47.000Z</time>
      </trkpt>
      <trkpt lon="-2.2139399126172066" lat="42.988539962098">
        <ele>743.0</ele>
        <time>2003-04-18T07:40:51.000Z</time>
      </trkpt>
      <trkpt lon="-2.2139399126172066" lat="42.9884900059551">
        <ele>744.2000122070312</ele>
        <time>2003-04-18T07:40:55.000Z</time>
      </trkpt>
      <trkpt lon="-2.2139399126172066" lat="42.98842999152839">
        <ele>745.5999755859375</ele>
        <time>2003-04-18T07:41:01.000Z</time>
      </trkpt>
      <trkpt lon="-2.21390001475811" lat="42.98832002095878">
        <ele>748.2000122070312</ele>
        <time>2003-04-18T07:41:14.000Z</time>
      </trkpt>
      <trkpt lon="-2.213849974796176" lat="42.98826000653207">
        <ele>748.7999877929688</ele>
        <time>2003-04-18T07:41:22.000Z</time>
      </trkpt>
      <trkpt lon="-2.2138300258666277" lat="42.98823997378349">
        <ele>749.0</ele>
        <time>2003-04-18T07:41:24.000Z</time>
      </trkpt>
      <trkpt lon="-2.2137899603694677" lat="42.988090021535754">
        <ele>750.7999877929688</ele>
        <time>2003-04-18T07:41:39.000Z</time>
      </trkpt>
      <trkpt lon="-2.2137499786913395" lat="42.98799999989569">
        <ele>752.0</ele>
        <time>2003-04-18T07:41:49.000Z</time>
      </trkpt>
      <trkpt lon="-2.213659957051277" lat="42.9878699965775">
        <ele>754.0</ele>
        <time>2003-04-18T07:42:03.000Z</time>
      </trkpt>
      <trkpt lon="-2.213589968159795" lat="42.98770001158118">
        <ele>756.4000244140625</ele>
        <time>2003-04-18T07:42:17.000Z</time>
      </trkpt>
      <trkpt lon="-2.213440015912056" lat="42.987509993836284">
        <ele>760.0</ele>
        <time>2003-04-18T07:42:36.000Z</time>
      </trkpt>
      <trkpt lon="-2.213399950414896" lat="42.98728996887803">
        <ele>761.4000244140625</ele>
        <time>2003-04-18T07:42:53.000Z</time>
      </trkpt>
      <trkpt lon="-2.2133800014853477" lat="42.98717999830842">
        <ele>762.0</ele>
        <time>2003-04-18T07:43:08.000Z</time>
      </trkpt>
      <trkpt lon="-2.2132898960262537" lat="42.986910017207265">
        <ele>762.5999755859375</ele>
        <time>2003-04-18T07:43:29.000Z</time>
      </trkpt>
      <trkpt lon="-2.213229965418577" lat="42.986629977822304">
        <ele>761.7999877929688</ele>
        <time>2003-04-18T07:43:52.000Z</time>
      </trkpt>
      <trkpt lon="-2.213169950991869" lat="42.98649997450411">
        <ele>760.2000122070312</ele>
        <time>2003-04-18T07:44:06.000Z</time>
      </trkpt>
      <trkpt lon="-2.2130999621003866" lat="42.9861500300467">
        <ele>759.0</ele>
        <time>2003-04-18T07:44:30.000Z</time>
      </trkpt>
      <trkpt lon="-2.2130398638546467" lat="42.985899997875094">
        <ele>758.5999755859375</ele>
        <time>2003-04-18T07:44:47.000Z</time>
      </trkpt>
      <trkpt lon="-2.2129100281745195" lat="42.98563999123871">
        <ele>757.0</ele>
        <time>2003-04-18T07:45:05.000Z</time>
      </trkpt>
      <trkpt lon="-2.2127998899668455" lat="42.985360035672784">
        <ele>757.0</ele>
        <time>2003-04-18T07:45:24.000Z</time>
      </trkpt>
      <trkpt lon="-2.2126699704676867" lat="42.985000032931566">
        <ele>759.4000244140625</ele>
        <time>2003-04-18T07:45:48.000Z</time>
      </trkpt>
      <trkpt lon="-2.2126900032162666" lat="42.98470004461706">
        <ele>757.4000244140625</ele>
        <time>2003-04-18T07:46:08.000Z</time>
      </trkpt>
      <trkpt lon="-2.2126499377191067" lat="42.98449996858835">
        <ele>756.7999877929688</ele>
        <time>2003-04-18T07:46:20.000Z</time>
      </trkpt>
      <trkpt lon="-2.2123899310827255" lat="42.984269969165325">
        <ele>757.4000244140625</ele>
        <time>2003-04-18T07:46:39.000Z</time>
      </trkpt>
      <trkpt lon="-2.21216001547873" lat="42.983969980850816">
        <ele>754.0</ele>
        <time>2003-04-18T07:47:00.000Z</time>
      </trkpt>
      <trkpt lon="-2.2120099794119596" lat="42.983669992536306">
        <ele>751.0</ele>
        <time>2003-04-18T07:47:21.000Z</time>
      </trkpt>
      <trkpt lon="-2.211900008842349" lat="42.9833700042218">
        <ele>748.7999877929688</ele>
        <time>2003-04-18T07:47:43.000Z</time>
      </trkpt>
      <trkpt lon="-2.2118099872022867" lat="42.983130030333996">
        <ele>749.0</ele>
        <time>2003-04-18T07:48:01.000Z</time>
      </trkpt>
      <trkpt lon="-2.211659951135516" lat="42.982849990949035">
        <ele>750.5999755859375</ele>
        <time>2003-04-18T07:48:20.000Z</time>
      </trkpt>
      <trkpt lon="-2.211449984461069" lat="42.982529969885945">
        <ele>748.7999877929688</ele>
        <time>2003-04-18T07:48:42.000Z</time>
      </trkpt>
      <trkpt lon="-2.2112598828971386" lat="42.982289995998144">
        <ele>747.2000122070312</ele>
        <time>2003-04-18T07:49:00.000Z</time>
      </trkpt>
      <trkpt lon="-2.2110799234360456" lat="42.982140043750405">
        <ele>747.2000122070312</ele>
        <time>2003-04-18T07:49:16.000Z</time>
      </trkpt>
      <trkpt lon="-2.2109100222587585" lat="42.981969974935055">
        <ele>749.0</ele>
        <time>2003-04-18T07:49:32.000Z</time>
      </trkpt>
      <trkpt lon="-2.210810026153922" lat="42.981730001047254">
        <ele>753.0</ele>
        <time>2003-04-18T07:49:49.000Z</time>
      </trkpt>
      <trkpt lon="-2.2109100222587585" lat="42.98147996887565">
        <ele>751.5999755859375</ele>
        <time>2003-04-18T07:50:09.000Z</time>
      </trkpt>
      <trkpt lon="-2.211189977824688" lat="42.981219962239265">
        <ele>747.7999877929688</ele>
        <time>2003-04-18T07:50:30.000Z</time>
      </trkpt>
      <trkpt lon="-2.2114898823201656" lat="42.981000021100044">
        <ele>745.5999755859375</ele>
        <time>2003-04-18T07:50:49.000Z</time>
      </trkpt>
      <trkpt lon="-2.2117700055241585" lat="42.980789970606565">
        <ele>742.4000244140625</ele>
        <time>2003-04-18T07:51:07.000Z</time>
      </trkpt>
      <trkpt lon="-2.2119599394500256" lat="42.98064001835883">
        <ele>738.0</ele>
        <time>2003-04-18T07:51:20.000Z</time>
      </trkpt>
      <trkpt lon="-2.2122600115835667" lat="42.980380011722445">
        <ele>734.5999755859375</ele>
        <time>2003-04-18T07:51:40.000Z</time>
      </trkpt>
      <trkpt lon="-2.21259000711143" lat="42.98016996122897">
        <ele>734.2000122070312</ele>
        <time>2003-04-18T07:51:59.000Z</time>
      </trkpt>
      <trkpt lon="-2.212739959359169" lat="42.98004004172981">
        <ele>733.4000244140625</ele>
        <time>2003-04-18T07:52:10.000Z</time>
      </trkpt>
      <trkpt lon="-2.212989991530776" lat="42.97989000566304">
        <ele>727.0</ele>
        <time>2003-04-18T07:52:24.000Z</time>
      </trkpt>
      <trkpt lon="-2.2132698632776737" lat="42.97985002398491">
        <ele>723.0</ele>
        <time>2003-04-18T07:52:37.000Z</time>
      </trkpt>
      <trkpt lon="-2.213589968159795" lat="42.979799984022975">
        <ele>717.0</ele>
        <time>2003-04-18T07:52:52.000Z</time>
      </trkpt>
      <trkpt lon="-2.2139399126172066" lat="42.97969998791814">
        <ele>710.4000244140625</ele>
        <time>2003-04-18T07:53:09.000Z</time>
      </trkpt>
      <trkpt lon="-2.2143899369984865" lat="42.97943998128176">
        <ele>704.5999755859375</ele>
        <time>2003-04-18T07:53:34.000Z</time>
      </trkpt>
      <trkpt lon="-2.214729990810156" lat="42.979220040142536">
        <ele>704.4000244140625</ele>
        <time>2003-04-18T07:53:55.000Z</time>
      </trkpt>
      <trkpt lon="-2.2148799430578947" lat="42.97916002571583">
        <ele>704.5999755859375</ele>
        <time>2003-04-18T07:54:05.000Z</time>
      </trkpt>
      <trkpt lon="-2.2151200007647276" lat="42.97900998964906">
        <ele>700.5999755859375</ele>
        <time>2003-04-18T07:54:19.000Z</time>
      </trkpt>
      <trkpt lon="-2.215139949694276" lat="42.97900998964906">
        <ele>700.4000244140625</ele>
        <time>2003-04-18T07:54:20.000Z</time>
      </trkpt>
      <trkpt lon="-2.2153099346905947" lat="42.978919968008995">
        <ele>698.2000122070312</ele>
        <time>2003-04-18T07:54:29.000Z</time>
      </trkpt>
      <trkpt lon="-2.215589974075556" lat="42.978789964690804">
        <ele>696.4000244140625</ele>
        <time>2003-04-18T07:54:44.000Z</time>
      </trkpt>
      <trkpt lon="-2.2160399984568357" lat="42.97857999801636">
        <ele>696.0</ele>
        <time>2003-04-18T07:55:08.000Z</time>
      </trkpt>
      <trkpt lon="-2.2164300084114075" lat="42.97842996194959">
        <ele>696.5999755859375</ele>
        <time>2003-04-18T07:55:29.000Z</time>
      </trkpt>
      <trkpt lon="-2.216709963977337" lat="42.978319991379976">
        <ele>698.0</ele>
        <time>2003-04-18T07:55:45.000Z</time>
      </trkpt>
      <trkpt lon="-2.2169200144708157" lat="42.97824002802372">
        <ele>698.2000122070312</ele>
        <time>2003-04-18T07:55:59.000Z</time>
      </trkpt>
      <trkpt lon="-2.2172398678958416" lat="42.97811002470553">
        <ele>699.2000122070312</ele>
        <time>2003-04-18T07:56:19.000Z</time>
      </trkpt>
      <trkpt lon="-2.2174999583512545" lat="42.97798002138734">
        <ele>700.5999755859375</ele>
        <time>2003-04-18T07:56:35.000Z</time>
      </trkpt>
      <trkpt lon="-2.2177399322390556" lat="42.97785001806915">
        <ele>699.5999755859375</ele>
        <time>2003-04-18T07:56:50.000Z</time>
      </trkpt>
      <trkpt lon="-2.2177799977362156" lat="42.97785001806915">
        <ele>699.5999755859375</ele>
        <time>2003-04-18T07:56:54.000Z</time>
      </trkpt>
      <trkpt lon="-2.2181699238717556" lat="42.97795998863876">
        <ele>700.5999755859375</ele>
        <time>2003-04-18T07:57:14.000Z</time>
      </trkpt>
      <trkpt lon="-2.2183798905462027" lat="42.97802000306547">
        <ele>701.0</ele>
        <time>2003-04-18T07:57:24.000Z</time>
      </trkpt>
      <trkpt lon="-2.2183798905462027" lat="42.97802000306547">
        <ele>701.0</ele>
        <time>2003-04-18T07:57:25.000Z</time>
      </trkpt>
      <trkpt lon="-2.2184900287538767" lat="42.97804003581405">
        <ele>700.5999755859375</ele>
        <time>2003-04-18T07:57:39.000Z</time>
      </trkpt>
      <trkpt lon="-2.218569992110133" lat="42.97804003581405">
        <ele>700.2000122070312</ele>
        <time>2003-04-18T07:57:54.000Z</time>
      </trkpt>
      <trkpt lon="-2.2186199482530355" lat="42.97804003581405">
        <ele>700.0</ele>
        <time>2003-04-18T07:57:59.000Z</time>
      </trkpt>
      <trkpt lon="-2.2186199482530355" lat="42.97794003970921">
        <ele>699.0</ele>
        <time>2003-04-18T07:58:18.000Z</time>
      </trkpt>
      <trkpt lon="-2.218509977683425" lat="42.97779000364244">
        <ele>698.4000244140625</ele>
        <time>2003-04-18T07:58:33.000Z</time>
      </trkpt>
      <trkpt lon="-2.218339992687106" lat="42.97755002975464">
        <ele>698.2000122070312</ele>
        <time>2003-04-18T07:58:50.000Z</time>
      </trkpt>
      <trkpt lon="-2.218059953302145" lat="42.97733997926116">
        <ele>692.4000244140625</ele>
        <time>2003-04-18T07:59:08.000Z</time>
      </trkpt>
      <trkpt lon="-2.2179899644106627" lat="42.977309972047806">
        <ele>691.2000122070312</ele>
        <time>2003-04-18T07:59:11.000Z</time>
      </trkpt>
      <trkpt lon="-2.2179899644106627" lat="42.97726999036968">
        <ele>690.0</ele>
        <time>2003-04-18T07:59:13.000Z</time>
      </trkpt>
      <trkpt lon="-2.2179899644106627" lat="42.97725004144013">
        <ele>689.2000122070312</ele>
        <time>2003-04-18T07:59:15.000Z</time>
      </trkpt>
      <trkpt lon="-2.2180199716240168" lat="42.97712003812194">
        <ele>685.4000244140625</ele>
        <time>2003-04-18T07:59:23.000Z</time>
      </trkpt>
      <trkpt lon="-2.2180199716240168" lat="42.97710000537336">
        <ele>684.7999877929688</ele>
        <time>2003-04-18T07:59:25.000Z</time>
      </trkpt>
      <trkpt lon="-2.2180199716240168" lat="42.97703999094665">
        <ele>682.7999877929688</ele>
        <time>2003-04-18T07:59:28.000Z</time>
      </trkpt>
      <trkpt lon="-2.2179899644106627" lat="42.97694996930659">
        <ele>679.7999877929688</ele>
        <time>2003-04-18T07:59:34.000Z</time>
      </trkpt>
      <trkpt lon="-2.2179699316620827" lat="42.976879980415106">
        <ele>677.4000244140625</ele>
        <time>2003-04-18T07:59:38.000Z</time>
      </trkpt>
      <trkpt lon="-2.2179298661649227" lat="42.97680001705885">
        <ele>674.4000244140625</ele>
        <time>2003-04-18T07:59:43.000Z</time>
      </trkpt>
      <trkpt lon="-2.2179498989135027" lat="42.97677998431027">
        <ele>674.0</ele>
        <time>2003-04-18T07:59:44.000Z</time>
      </trkpt>
      <trkpt lon="-2.2179498989135027" lat="42.97673002816737">
        <ele>672.4000244140625</ele>
        <time>2003-04-18T07:59:47.000Z</time>
      </trkpt>
      <trkpt lon="-2.2179298661649227" lat="42.97668996267021">
        <ele>671.0</ele>
        <time>2003-04-18T07:59:50.000Z</time>
      </trkpt>
      <trkpt lon="-2.2179298661649227" lat="42.97656004317105">
        <ele>669.0</ele>
        <time>2003-04-18T07:59:57.000Z</time>
      </trkpt>
      <trkpt lon="-2.2179498989135027" lat="42.9763899743557">
        <ele>667.0</ele>
        <time>2003-04-18T08:00:07.000Z</time>
      </trkpt>
      <trkpt lon="-2.2179498989135027" lat="42.97637002542615">
        <ele>666.7999877929688</ele>
        <time>2003-04-18T08:00:08.000Z</time>
      </trkpt>
      <trkpt lon="-2.217859961092472" lat="42.97615997493267">
        <ele>664.4000244140625</ele>
        <time>2003-04-18T08:00:21.000Z</time>
      </trkpt>
      <trkpt lon="-2.217859961092472" lat="42.975959982723">
        <ele>662.4000244140625</ele>
        <time>2003-04-18T08:00:32.000Z</time>
      </trkpt>
      <trkpt lon="-2.217840012162924" lat="42.97562001273036">
        <ele>661.0</ele>
        <time>2003-04-18T08:00:53.000Z</time>
      </trkpt>
      <trkpt lon="-2.2177799977362156" lat="42.97536000609398">
        <ele>661.7999877929688</ele>
        <time>2003-04-18T08:01:13.000Z</time>
      </trkpt>
      <trkpt lon="-2.2177599649876356" lat="42.97503998503089">
        <ele>661.7999877929688</ele>
        <time>2003-04-18T08:01:33.000Z</time>
      </trkpt>
      <trkpt lon="-2.2177599649876356" lat="42.97476002946496">
        <ele>659.7999877929688</ele>
        <time>2003-04-18T08:01:50.000Z</time>
      </trkpt>
      <trkpt lon="-2.2176898922771215" lat="42.97451997175813">
        <ele>659.4000244140625</ele>
        <time>2003-04-18T08:02:05.000Z</time>
      </trkpt>
      <trkpt lon="-2.2175399400293827" lat="42.97424999065697">
        <ele>660.7999877929688</ele>
        <time>2003-04-18T08:02:23.000Z</time>
      </trkpt>
      <trkpt lon="-2.217389987781644" lat="42.97402996569872">
        <ele>663.7999877929688</ele>
        <time>2003-04-18T08:02:40.000Z</time>
      </trkpt>
      <trkpt lon="-2.2172398678958416" lat="42.97371002845466">
        <ele>668.4000244140625</ele>
        <time>2003-04-18T08:03:03.000Z</time>
      </trkpt>
      <trkpt lon="-2.2172599006444216" lat="42.97355999238789">
        <ele>669.4000244140625</ele>
        <time>2003-04-18T08:03:14.000Z</time>
      </trkpt>
      <trkpt lon="-2.2172899078577757" lat="42.97341004014015">
        <ele>670.4000244140625</ele>
        <time>2003-04-18T08:03:26.000Z</time>
      </trkpt>
      <trkpt lon="-2.2173299733549356" lat="42.97332001850009">
        <ele>671.0</ele>
        <time>2003-04-18T08:03:34.000Z</time>
      </trkpt>
      <trkpt lon="-2.217389987781644" lat="42.97326000407338">
        <ele>671.2000122070312</ele>
        <time>2003-04-18T08:03:41.000Z</time>
      </trkpt>
      <trkpt lon="-2.217459976673126" lat="42.9731900151819">
        <ele>671.5999755859375</ele>
        <time>2003-04-18T08:03:46.000Z</time>
      </trkpt>
      <trkpt lon="-2.2175199072808027" lat="42.97286999411881">
        <ele>674.5999755859375</ele>
        <time>2003-04-18T08:04:10.000Z</time>
      </trkpt>
      <trkpt lon="-2.2175199072808027" lat="42.9727600235492">
        <ele>675.7999877929688</ele>
        <time>2003-04-18T08:04:16.000Z</time>
      </trkpt>
      <trkpt lon="-2.217410020530224" lat="42.97267997637391">
        <ele>677.0</ele>
        <time>2003-04-18T08:04:24.000Z</time>
      </trkpt>
      <trkpt lon="-2.217670027166605" lat="42.972490042448044">
        <ele>677.4000244140625</ele>
        <time>2003-04-18T08:04:41.000Z</time>
      </trkpt>
      <trkpt lon="-2.217889968305826" lat="42.97234000638127">
        <ele>678.7999877929688</ele>
        <time>2003-04-18T08:04:57.000Z</time>
      </trkpt>
      <trkpt lon="-2.2180400043725967" lat="42.9721899703145">
        <ele>681.5999755859375</ele>
        <time>2003-04-18T08:05:11.000Z</time>
      </trkpt>
      <trkpt lon="-2.2181899566203356" lat="42.972040018066764">
        <ele>684.5999755859375</ele>
        <time>2003-04-18T08:05:25.000Z</time>
      </trkpt>
      <trkpt lon="-2.218289952725172" lat="42.97191001474857">
        <ele>688.0</ele>
        <time>2003-04-18T08:05:39.000Z</time>
      </trkpt>
      <trkpt lon="-2.218530010432005" lat="42.97181999310851">
        <ele>689.2000122070312</ele>
        <time>2003-04-18T08:05:55.000Z</time>
      </trkpt>
      <trkpt lon="-2.218530010432005" lat="42.97180004417896">
        <ele>689.7999877929688</ele>
        <time>2003-04-18T08:06:13.000Z</time>
      </trkpt>
      <trkpt lon="-2.218549959361553" lat="42.97181999310851">
        <ele>689.0</ele>
        <time>2003-04-18T08:10:25.000Z</time>
      </trkpt>
      <trkpt lon="-2.2186600137501955" lat="42.971740029752254">
        <ele>691.0</ele>
        <time>2003-04-18T08:10:45.000Z</time>
      </trkpt>
      <trkpt lon="-2.218769984319806" lat="42.97165000811219">
        <ele>693.5999755859375</ele>
        <time>2003-04-18T08:10:55.000Z</time>
      </trkpt>
      <trkpt lon="-2.218790017068386" lat="42.97165000811219">
        <ele>693.5999755859375</ele>
        <time>2003-04-18T08:10:57.000Z</time>
      </trkpt>
      <trkpt lon="-2.218790017068386" lat="42.971610026434064">
        <ele>695.4000244140625</ele>
        <time>2003-04-18T08:11:00.000Z</time>
      </trkpt>
      <trkpt lon="-2.2188499476760626" lat="42.97158001922071">
        <ele>696.4000244140625</ele>
        <time>2003-04-18T08:11:05.000Z</time>
      </trkpt>
      <trkpt lon="-2.218960002064705" lat="42.97149997204542">
        <ele>699.4000244140625</ele>
        <time>2003-04-18T08:11:19.000Z</time>
      </trkpt>
      <trkpt lon="-2.218960002064705" lat="42.97148002311587">
        <ele>700.4000244140625</ele>
        <time>2003-04-18T08:11:24.000Z</time>
      </trkpt>
      <trkpt lon="-2.218999983742833" lat="42.97141003422439">
        <ele>703.2000122070312</ele>
        <time>2003-04-18T08:11:30.000Z</time>
      </trkpt>
      <trkpt lon="-2.2190900053828955" lat="42.97136996872723">
        <ele>704.5999755859375</ele>
        <time>2003-04-18T08:11:40.000Z</time>
      </trkpt>
      <trkpt lon="-2.2191500198096037" lat="42.9712800309062">
        <ele>708.2000122070312</ele>
        <time>2003-04-18T08:11:53.000Z</time>
      </trkpt>
      <trkpt lon="-2.2191299870610237" lat="42.97125999815762">
        <ele>709.2000122070312</ele>
        <time>2003-04-18T08:11:55.000Z</time>
      </trkpt>
      <trkpt lon="-2.2190499398857355" lat="42.97123996540904">
        <ele>710.5999755859375</ele>
        <time>2003-04-18T08:12:03.000Z</time>
      </trkpt>
      <trkpt lon="-2.218999983742833" lat="42.97122001647949">
        <ele>711.7999877929688</ele>
        <time>2003-04-18T08:12:07.000Z</time>
      </trkpt>
      <trkpt lon="-2.218999983742833" lat="42.97119998373091">
        <ele>712.5999755859375</ele>
        <time>2003-04-18T08:12:08.000Z</time>
      </trkpt>
      <trkpt lon="-2.2190499398857355" lat="42.971160002052784">
        <ele>714.2000122070312</ele>
        <time>2003-04-18T08:12:14.000Z</time>
      </trkpt>
      <trkpt lon="-2.2190699726343155" lat="42.97110996209085">
        <ele>716.2000122070312</ele>
        <time>2003-04-18T08:12:18.000Z</time>
      </trkpt>
      <trkpt lon="-2.2192398738116026" lat="42.9710900131613">
        <ele>716.5999755859375</ele>
        <time>2003-04-18T08:12:29.000Z</time>
      </trkpt>
      <trkpt lon="-2.2192999720573425" lat="42.97105003148317">
        <ele>718.5999755859375</ele>
        <time>2003-04-18T08:12:34.000Z</time>
      </trkpt>
      <trkpt lon="-2.2196698654443026" lat="42.97105003148317">
        <ele>719.0</ele>
        <time>2003-04-18T08:12:56.000Z</time>
      </trkpt>
      <trkpt lon="-2.2199499048292637" lat="42.97102999873459">
        <ele>720.2000122070312</ele>
        <time>2003-04-18T08:13:12.000Z</time>
      </trkpt>
      <trkpt lon="-2.220140006393194" lat="42.97092002816498">
        <ele>723.5999755859375</ele>
        <time>2003-04-18T08:13:28.000Z</time>
      </trkpt>
      <trkpt lon="-2.2202700097113848" lat="42.97080997377634">
        <ele>727.0</ele>
        <time>2003-04-18T08:13:41.000Z</time>
      </trkpt>
      <trkpt lon="-2.2203798964619637" lat="42.970709977671504">
        <ele>730.0</ele>
        <time>2003-04-18T08:13:55.000Z</time>
      </trkpt>
      <trkpt lon="-2.2203999292105436" lat="42.970709977671504">
        <ele>729.5999755859375</ele>
        <time>2003-04-18T08:13:56.000Z</time>
      </trkpt>
      <trkpt lon="-2.220549965277314" lat="42.97060000710189">
        <ele>732.2000122070312</ele>
        <time>2003-04-18T08:14:09.000Z</time>
      </trkpt>
      <trkpt lon="-2.2207798808813095" lat="42.97037998214364">
        <ele>737.5999755859375</ele>
        <time>2003-04-18T08:14:31.000Z</time>
      </trkpt>
      <trkpt lon="-2.220930000767112" lat="42.970279986038804">
        <ele>737.7999877929688</ele>
        <time>2003-04-18T08:14:46.000Z</time>
      </trkpt>
      <trkpt lon="-2.220999989658594" lat="42.97017001546919">
        <ele>740.0</ele>
        <time>2003-04-18T08:15:06.000Z</time>
      </trkpt>
      <trkpt lon="-2.221020022407174" lat="42.97018996439874">
        <ele>738.4000244140625</ele>
        <time>2003-04-18T08:15:07.000Z</time>
      </trkpt>
      <trkpt lon="-2.2211299929767847" lat="42.96993004158139">
        <ele>744.7999877929688</ele>
        <time>2003-04-18T08:15:20.000Z</time>
      </trkpt>
      <trkpt lon="-2.2213599923998117" lat="42.96971999108791">
        <ele>744.4000244140625</ele>
        <time>2003-04-18T08:15:45.000Z</time>
      </trkpt>
      <trkpt lon="-2.2215099446475506" lat="42.969550006091595">
        <ele>745.2000122070312</ele>
        <time>2003-04-18T08:16:03.000Z</time>
      </trkpt>
      <trkpt lon="-2.2215599846094847" lat="42.969399970024824">
        <ele>749.0</ele>
        <time>2003-04-18T08:16:17.000Z</time>
      </trkpt>
      <trkpt lon="-2.221599966287613" lat="42.96928999945521">
        <ele>751.7999877929688</ele>
        <time>2003-04-18T08:16:33.000Z</time>
      </trkpt>
      <trkpt lon="-2.2217500023543835" lat="42.968950029462576">
        <ele>758.4000244140625</ele>
        <time>2003-04-18T08:17:02.000Z</time>
      </trkpt>
      <trkpt lon="-2.221859972923994" lat="42.968690022826195">
        <ele>763.4000244140625</ele>
        <time>2003-04-18T08:17:23.000Z</time>
      </trkpt>
      <trkpt lon="-2.2218998707830906" lat="42.968539986759424">
        <ele>767.2000122070312</ele>
        <time>2003-04-18T08:17:37.000Z</time>
      </trkpt>
      <trkpt lon="-2.2219199035316706" lat="42.96844996511936">
        <ele>769.5999755859375</ele>
        <time>2003-04-18T08:17:50.000Z</time>
      </trkpt>
      <trkpt lon="-2.2219399362802505" lat="42.968430016189814">
        <ele>769.4000244140625</ele>
        <time>2003-04-18T08:17:52.000Z</time>
      </trkpt>
      <trkpt lon="-2.2220100089907646" lat="42.96819004230201">
        <ele>776.2000122070312</ele>
        <time>2003-04-18T08:18:15.000Z</time>
      </trkpt>
      <trkpt lon="-2.2221799101680517" lat="42.967979991808534">
        <ele>779.5999755859375</ele>
        <time>2003-04-18T08:18:35.000Z</time>
      </trkpt>
      <trkpt lon="-2.222309997305274" lat="42.96777002513409">
        <ele>784.7999877929688</ele>
        <time>2003-04-18T08:18:57.000Z</time>
      </trkpt>
      <trkpt lon="-2.2223899606615305" lat="42.96758998185396">
        <ele>790.7999877929688</ele>
        <time>2003-04-18T08:19:22.000Z</time>
      </trkpt>
      <trkpt lon="-2.2226099018007517" lat="42.96741999685764">
        <ele>793.0</ele>
        <time>2003-04-18T08:19:50.000Z</time>
      </trkpt>
      <trkpt lon="-2.2228199522942305" lat="42.967270044609904">
        <ele>795.0</ele>
        <time>2003-04-18T08:20:13.000Z</time>
      </trkpt>
      <trkpt lon="-2.2228399012237787" lat="42.967250011861324">
        <ele>795.4000244140625</ele>
        <time>2003-04-18T08:20:17.000Z</time>
      </trkpt>
      <trkpt lon="-2.2230999916791916" lat="42.967059994116426">
        <ele>798.4000244140625</ele>
        <time>2003-04-18T08:20:46.000Z</time>
      </trkpt>
      <trkpt lon="-2.22313997335732" lat="42.967059994116426">
        <ele>797.5999755859375</ele>
        <time>2003-04-18T08:20:49.000Z</time>
      </trkpt>
      <trkpt lon="-2.2235299833118916" lat="42.96691004186869">
        <ele>796.2000122070312</ele>
        <time>2003-04-18T08:21:19.000Z</time>
      </trkpt>
      <trkpt lon="-2.2235500160604715" lat="42.96689000912011">
        <ele>796.5999755859375</ele>
        <time>2003-04-18T08:21:23.000Z</time>
      </trkpt>
      <trkpt lon="-2.223869953304529" lat="42.966739973053336">
        <ele>797.0</ele>
        <time>2003-04-18T08:21:45.000Z</time>
      </trkpt>
      <trkpt lon="-2.2241499088704586" lat="42.96670996583998">
        <ele>792.4000244140625</ele>
        <time>2003-04-18T08:22:05.000Z</time>
      </trkpt>
      <trkpt lon="-2.2244700137525797" lat="42.9665900208056">
        <ele>790.4000244140625</ele>
        <time>2003-04-18T08:22:27.000Z</time>
      </trkpt>
      <trkpt lon="-2.2246199660003185" lat="42.966499999165535">
        <ele>788.5999755859375</ele>
        <time>2003-04-18T08:22:38.000Z</time>
      </trkpt>
      <trkpt lon="-2.224709987640381" lat="42.966309981420636">
        <ele>788.4000244140625</ele>
        <time>2003-04-18T08:22:53.000Z</time>
      </trkpt>
      <trkpt lon="-2.224749969318509" lat="42.966239992529154">
        <ele>788.0</ele>
        <time>2003-04-18T08:23:07.000Z</time>
      </trkpt>
      <trkpt lon="-2.224770002067089" lat="42.966220043599606">
        <ele>787.5999755859375</ele>
        <time>2003-04-18T08:23:52.000Z</time>
      </trkpt>
      <trkpt lon="-2.2248599398881197" lat="42.96610998921096">
        <ele>785.7999877929688</ele>
        <time>2003-04-18T08:24:05.000Z</time>
      </trkpt>
      <trkpt lon="-2.2248599398881197" lat="42.966090040281415">
        <ele>785.7999877929688</ele>
        <time>2003-04-18T08:24:10.000Z</time>
      </trkpt>
      <trkpt lon="-2.2248799726366997" lat="42.96603002585471">
        <ele>785.5999755859375</ele>
        <time>2003-04-18T08:24:15.000Z</time>
      </trkpt>
      <trkpt lon="-2.2248799726366997" lat="42.96571000479162">
        <ele>784.4000244140625</ele>
        <time>2003-04-18T08:24:37.000Z</time>
      </trkpt>
      <trkpt lon="-2.2249000053852797" lat="42.96560003422201">
        <ele>781.7999877929688</ele>
        <time>2003-04-18T08:24:54.000Z</time>
      </trkpt>
      <trkpt lon="-2.2248799726366997" lat="42.965470030903816">
        <ele>780.4000244140625</ele>
        <time>2003-04-18T08:25:07.000Z</time>
      </trkpt>
      <trkpt lon="-2.224709987640381" lat="42.965359976515174">
        <ele>785.0</ele>
        <time>2003-04-18T08:25:26.000Z</time>
      </trkpt>
      <trkpt lon="-2.2243899665772915" lat="42.96515000984073">
        <ele>794.2000122070312</ele>
        <time>2003-04-18T08:25:49.000Z</time>
      </trkpt>
      <trkpt lon="-2.224279996007681" lat="42.965080020949244">
        <ele>797.5999755859375</ele>
        <time>2003-04-18T08:25:57.000Z</time>
      </trkpt>
      <trkpt lon="-2.2240199893712997" lat="42.964739967137575">
        <ele>802.7999877929688</ele>
        <time>2003-04-18T08:26:30.000Z</time>
      </trkpt>
      <trkpt lon="-2.2238100226968527" lat="42.96439999714494">
        <ele>805.5999755859375</ele>
        <time>2003-04-18T08:26:56.000Z</time>
      </trkpt>
      <trkpt lon="-2.2236998844891787" lat="42.964160023257136">
        <ele>806.0</ele>
        <time>2003-04-18T08:27:16.000Z</time>
      </trkpt>
      <trkpt lon="-2.223680019378662" lat="42.96410000883043">
        <ele>805.4000244140625</ele>
        <time>2003-04-18T08:27:23.000Z</time>
      </trkpt>
      <trkpt lon="-2.223659986630082" lat="42.96394997276366">
        <ele>803.0</ele>
        <time>2003-04-18T08:27:34.000Z</time>
      </trkpt>
      <trkpt lon="-2.223659986630082" lat="42.963619977235794">
        <ele>796.0</ele>
        <time>2003-04-18T08:27:54.000Z</time>
      </trkpt>
      <trkpt lon="-2.223620004951954" lat="42.963300039991736">
        <ele>789.5999755859375</ele>
        <time>2003-04-18T08:28:15.000Z</time>
      </trkpt>
      <trkpt lon="-2.2234398778527975" lat="42.963189985603094">
        <ele>789.5999755859375</ele>
        <time>2003-04-18T08:28:26.000Z</time>
      </trkpt>
      <trkpt lon="-2.2230398934334517" lat="42.96321999281645">
        <ele>800.7999877929688</ele>
        <time>2003-04-18T08:28:48.000Z</time>
      </trkpt>
      <trkpt lon="-2.2230398934334517" lat="42.96321999281645">
        <ele>800.7999877929688</ele>
        <time>2003-04-18T08:28:49.000Z</time>
      </trkpt>
      <trkpt lon="-2.2228900250047445" lat="42.963150003924966">
        <ele>801.2000122070312</ele>
        <time>2003-04-18T08:28:59.000Z</time>
      </trkpt>
      <trkpt lon="-2.2226099018007517" lat="42.96308998949826">
        <ele>805.4000244140625</ele>
        <time>2003-04-18T08:29:22.000Z</time>
      </trkpt>
      <trkpt lon="-2.2225598618388176" lat="42.963129971176386">
        <ele>808.4000244140625</ele>
        <time>2003-04-18T08:29:40.000Z</time>
      </trkpt>
      <trkpt lon="-2.2223899606615305" lat="42.96308998949826">
        <ele>812.0</ele>
        <time>2003-04-18T08:30:20.000Z</time>
      </trkpt>
      <trkpt lon="-2.2223298624157906" lat="42.962999967858195">
        <ele>810.2000122070312</ele>
        <time>2003-04-18T08:30:30.000Z</time>
      </trkpt>
      <trkpt lon="-2.2223498951643705" lat="42.96295998618007">
        <ele>807.7999877929688</ele>
        <time>2003-04-18T08:30:34.000Z</time>
      </trkpt>
      <trkpt lon="-2.2223298624157906" lat="42.96262001618743">
        <ele>794.0</ele>
        <time>2003-04-18T08:30:58.000Z</time>
      </trkpt>
      <trkpt lon="-2.2223298624157906" lat="42.962590008974075">
        <ele>792.7999877929688</ele>
        <time>2003-04-18T08:30:59.000Z</time>
      </trkpt>
      <trkpt lon="-2.2221799101680517" lat="42.96225003898144">
        <ele>784.5999755859375</ele>
        <time>2003-04-18T08:31:22.000Z</time>
      </trkpt>
      <trkpt lon="-2.222140012308955" lat="42.96220997348428">
        <ele>784.4000244140625</ele>
        <time>2003-04-18T08:31:25.000Z</time>
      </trkpt>
      <trkpt lon="-2.2217500023543835" lat="42.96199003234506">
        <ele>789.5999755859375</ele>
        <time>2003-04-18T08:31:51.000Z</time>
      </trkpt>
      <trkpt lon="-2.221659980714321" lat="42.96193001791835">
        <ele>790.2000122070312</ele>
        <time>2003-04-18T08:32:00.000Z</time>
      </trkpt>
      <trkpt lon="-2.2215299773961306" lat="42.96190998516977">
        <ele>793.2000122070312</ele>
        <time>2003-04-18T08:32:09.000Z</time>
      </trkpt>
      <trkpt lon="-2.2212799452245235" lat="42.961839996278286">
        <ele>797.5999755859375</ele>
        <time>2003-04-18T08:32:29.000Z</time>
      </trkpt>
      <trkpt lon="-2.220930000767112" lat="42.96164997853339">
        <ele>798.7999877929688</ele>
        <time>2003-04-18T08:32:52.000Z</time>
      </trkpt>
      <trkpt lon="-2.2206799685955048" lat="42.96160999685526">
        <ele>805.2000122070312</ele>
        <time>2003-04-18T08:33:08.000Z</time>
      </trkpt>
      <trkpt lon="-2.2204600274562836" lat="42.96150002628565">
        <ele>809.2000122070312</ele>
        <time>2003-04-18T08:33:25.000Z</time>
      </trkpt>
      <trkpt lon="-2.2204399947077036" lat="42.96137002296746">
        <ele>806.7999877929688</ele>
        <time>2003-04-18T08:33:35.000Z</time>
      </trkpt>
      <trkpt lon="-2.2203999292105436" lat="42.96128997579217">
        <ele>806.2000122070312</ele>
        <time>2003-04-18T08:33:41.000Z</time>
      </trkpt>
      <trkpt lon="-2.220330024138093" lat="42.961129965260625">
        <ele>804.5999755859375</ele>
        <time>2003-04-18T08:33:53.000Z</time>
      </trkpt>
      <trkpt lon="-2.2201799042522907" lat="42.960959980264306">
        <ele>805.4000244140625</ele>
        <time>2003-04-18T08:34:10.000Z</time>
      </trkpt>
      <trkpt lon="-2.2199899703264236" lat="42.96059997752309">
        <ele>812.7999877929688</ele>
        <time>2003-04-18T08:34:40.000Z</time>
      </trkpt>
      <trkpt lon="-2.220029952004552" lat="42.96019001863897">
        <ele>819.5999755859375</ele>
        <time>2003-04-18T08:35:08.000Z</time>
      </trkpt>
      <trkpt lon="-2.2201599553227425" lat="42.96002003364265">
        <ele>819.4000244140625</ele>
        <time>2003-04-18T08:35:31.000Z</time>
      </trkpt>
      <trkpt lon="-2.2201799042522907" lat="42.96000000089407">
        <ele>819.2000122070312</ele>
        <time>2003-04-18T08:35:33.000Z</time>
      </trkpt>
      <trkpt lon="-2.2202300280332565" lat="42.95997996814549">
        <ele>818.4000244140625</ele>
        <time>2003-04-18T08:35:38.000Z</time>
      </trkpt>
      <trkpt lon="-2.2203498892486095" lat="42.95986999757588">
        <ele>818.4000244140625</ele>
        <time>2003-04-18T08:35:51.000Z</time>
      </trkpt>
      <trkpt lon="-2.2203999292105436" lat="42.95986999757588">
        <ele>817.2000122070312</ele>
        <time>2003-04-18T08:35:54.000Z</time>
      </trkpt>
      <trkpt lon="-2.220479976385832" lat="42.9598000086844">
        <ele>817.4000244140625</ele>
        <time>2003-04-18T08:36:02.000Z</time>
      </trkpt>
      <trkpt lon="-2.2205898631364107" lat="42.95973999425769">
        <ele>816.7999877929688</ele>
        <time>2003-04-18T08:36:12.000Z</time>
      </trkpt>
      <trkpt lon="-2.220760015770793" lat="42.959649972617626">
        <ele>816.2000122070312</ele>
        <time>2003-04-18T08:36:28.000Z</time>
      </trkpt>
      <trkpt lon="-2.220760015770793" lat="42.959649972617626">
        <ele>816.2000122070312</ele>
        <time>2003-04-18T08:36:32.000Z</time>
      </trkpt>
      <trkpt lon="-2.2208900190889835" lat="42.95957000926137">
        <ele>816.7999877929688</ele>
        <time>2003-04-18T08:36:47.000Z</time>
      </trkpt>
      <trkpt lon="-2.221020022407174" lat="42.95950002036989">
        <ele>817.5999755859375</ele>
        <time>2003-04-18T08:37:01.000Z</time>
      </trkpt>
      <trkpt lon="-2.2211500257253647" lat="42.9594199731946">
        <ele>819.2000122070312</ele>
        <time>2003-04-18T08:37:12.000Z</time>
      </trkpt>
      <trkpt lon="-2.221429981291294" lat="42.95931000262499">
        <ele>820.7999877929688</ele>
        <time>2003-04-18T08:37:32.000Z</time>
      </trkpt>
      <trkpt lon="-2.2214698791503906" lat="42.95928996987641">
        <ele>821.2000122070312</ele>
        <time>2003-04-18T08:37:36.000Z</time>
      </trkpt>
      <trkpt lon="-2.2215299773961306" lat="42.95927002094686">
        <ele>821.4000244140625</ele>
        <time>2003-04-18T08:37:41.000Z</time>
      </trkpt>
      <trkpt lon="-2.221599966287613" lat="42.95915996655822">
        <ele>825.5999755859375</ele>
        <time>2003-04-18T08:37:53.000Z</time>
      </trkpt>
      <trkpt lon="-2.221619999036193" lat="42.95902996324003">
        <ele>825.2000122070312</ele>
        <time>2003-04-18T08:38:04.000Z</time>
      </trkpt>
      <trkpt lon="-2.221639947965741" lat="42.9589899815619">
        <ele>825.0</ele>
        <time>2003-04-18T08:38:09.000Z</time>
      </trkpt>
      <trkpt lon="-2.221619999036193" lat="42.95894999988377">
        <ele>825.0</ele>
        <time>2003-04-18T08:38:14.000Z</time>
      </trkpt>
      <trkpt lon="-2.2215800173580647" lat="42.95885997824371">
        <ele>825.0</ele>
        <time>2003-04-18T08:38:23.000Z</time>
      </trkpt>
      <trkpt lon="-2.2215800173580647" lat="42.95885997824371">
        <ele>825.0</ele>
        <time>2003-04-18T08:38:24.000Z</time>
      </trkpt>
      <trkpt lon="-2.2215599846094847" lat="42.95868999324739">
        <ele>824.7999877929688</ele>
        <time>2003-04-18T08:38:39.000Z</time>
      </trkpt>
      <trkpt lon="-2.2215599846094847" lat="42.95865001156926">
        <ele>824.5999755859375</ele>
        <time>2003-04-18T08:38:55.000Z</time>
      </trkpt>
      <trkpt lon="-2.2215800173580647" lat="42.95865001156926">
        <ele>824.5999755859375</ele>
        <time>2003-04-18T08:39:04.000Z</time>
      </trkpt>
      <trkpt lon="-2.221639947965741" lat="42.9585599899292">
        <ele>824.4000244140625</ele>
        <time>2003-04-18T08:39:11.000Z</time>
      </trkpt>
      <trkpt lon="-2.2217899840325117" lat="42.95842998661101">
        <ele>825.2000122070312</ele>
        <time>2003-04-18T08:39:25.000Z</time>
      </trkpt>
      <trkpt lon="-2.221859972923994" lat="42.9583699721843">
        <ele>826.2000122070312</ele>
        <time>2003-04-18T08:39:43.000Z</time>
      </trkpt>
      <trkpt lon="-2.2221599612385035" lat="42.95823996886611">
        <ele>827.4000244140625</ele>
        <time>2003-04-18T08:40:01.000Z</time>
      </trkpt>
      <trkpt lon="-2.222289964556694" lat="42.95819998718798">
        <ele>828.0</ele>
        <time>2003-04-18T08:40:10.000Z</time>
      </trkpt>
      <trkpt lon="-2.222289964556694" lat="42.9581299982965">
        <ele>826.2000122070312</ele>
        <time>2003-04-18T08:40:15.000Z</time>
      </trkpt>
      <trkpt lon="-2.2223498951643705" lat="42.95809001661837">
        <ele>826.0</ele>
        <time>2003-04-18T08:40:18.000Z</time>
      </trkpt>
      <trkpt lon="-2.2223699279129505" lat="42.95809001661837">
        <ele>826.4000244140625</ele>
        <time>2003-04-18T08:40:19.000Z</time>
      </trkpt>
      <trkpt lon="-2.2226700000464916" lat="42.95792003162205">
        <ele>828.2000122070312</ele>
        <time>2003-04-18T08:40:38.000Z</time>
      </trkpt>
      <trkpt lon="-2.222779970616102" lat="42.9577000066638">
        <ele>827.5999755859375</ele>
        <time>2003-04-18T08:40:55.000Z</time>
      </trkpt>
      <trkpt lon="-2.2228900250047445" lat="42.95744000002742">
        <ele>827.0</ele>
        <time>2003-04-18T08:41:13.000Z</time>
      </trkpt>
      <trkpt lon="-2.2231200244277716" lat="42.95718996785581">
        <ele>828.5999755859375</ele>
        <time>2003-04-18T08:41:31.000Z</time>
      </trkpt>
      <trkpt lon="-2.2233200166374445" lat="42.95705996453762">
        <ele>832.4000244140625</ele>
        <time>2003-04-18T08:41:43.000Z</time>
      </trkpt>
      <trkpt lon="-2.2233599983155727" lat="42.95698997564614">
        <ele>831.5999755859375</ele>
        <time>2003-04-18T08:41:48.000Z</time>
      </trkpt>
      <trkpt lon="-2.2233599983155727" lat="42.95694999396801">
        <ele>830.4000244140625</ele>
        <time>2003-04-18T08:41:51.000Z</time>
      </trkpt>
      <trkpt lon="-2.2233399655669928" lat="42.9568899795413">
        <ele>828.4000244140625</ele>
        <time>2003-04-18T08:41:57.000Z</time>
      </trkpt>
      <trkpt lon="-2.2233399655669928" lat="42.95681999064982">
        <ele>826.4000244140625</ele>
        <time>2003-04-18T08:42:12.000Z</time>
      </trkpt>
      <trkpt lon="-2.223250027745962" lat="42.95674002729356">
        <ele>821.2000122070312</ele>
        <time>2003-04-18T08:42:22.000Z</time>
      </trkpt>
      <trkpt lon="-2.22356996499002" lat="42.95652000233531">
        <ele>821.0</ele>
        <time>2003-04-18T08:42:41.000Z</time>
      </trkpt>
      <trkpt lon="-2.2237899899482727" lat="42.95636996626854">
        <ele>818.7999877929688</ele>
        <time>2003-04-18T08:42:53.000Z</time>
      </trkpt>
      <trkpt lon="-2.2239399421960115" lat="42.95632998459041">
        <ele>819.5999755859375</ele>
        <time>2003-04-18T08:43:00.000Z</time>
      </trkpt>
      <trkpt lon="-2.224069945514202" lat="42.95619998127222">
        <ele>815.7999877929688</ele>
        <time>2003-04-18T08:43:09.000Z</time>
      </trkpt>
      <trkpt lon="-2.2241499088704586" lat="42.95611004345119">
        <ele>812.7999877929688</ele>
        <time>2003-04-18T08:43:15.000Z</time>
      </trkpt>
      <trkpt lon="-2.224319977685809" lat="42.95600996352732">
        <ele>810.7999877929688</ele>
        <time>2003-04-18T08:43:24.000Z</time>
      </trkpt>
      <trkpt lon="-2.2244499810039997" lat="42.95596000738442">
        <ele>810.7999877929688</ele>
        <time>2003-04-18T08:43:30.000Z</time>
      </trkpt>
      <trkpt lon="-2.224540002644062" lat="42.95586001127958">
        <ele>807.5999755859375</ele>
        <time>2003-04-18T08:43:38.000Z</time>
      </trkpt>
      <trkpt lon="-2.2245598677545786" lat="42.95583000406623">
        <ele>806.5999755859375</ele>
        <time>2003-04-18T08:43:39.000Z</time>
      </trkpt>
      <trkpt lon="-2.224519969895482" lat="42.95557997189462">
        <ele>799.0</ele>
        <time>2003-04-18T08:43:59.000Z</time>
      </trkpt>
      <trkpt lon="-2.2245598677545786" lat="42.95544996857643">
        <ele>796.2000122070312</ele>
        <time>2003-04-18T08:44:10.000Z</time>
      </trkpt>
      <trkpt lon="-2.2246499732136726" lat="42.95527998358011">
        <ele>792.5999755859375</ele>
        <time>2003-04-18T08:44:20.000Z</time>
      </trkpt>
      <trkpt lon="-2.224800009280443" lat="42.955130031332374">
        <ele>790.0</ele>
        <time>2003-04-18T08:44:34.000Z</time>
      </trkpt>
      <trkpt lon="-2.2249000053852797" lat="42.95504000969231">
        <ele>788.2000122070312</ele>
        <time>2003-04-18T08:44:43.000Z</time>
      </trkpt>
      <trkpt lon="-2.2250098921358585" lat="42.95500002801418">
        <ele>788.0</ele>
        <time>2003-04-18T08:44:49.000Z</time>
      </trkpt>
      <trkpt lon="-2.225160012021661" lat="42.95491000637412">
        <ele>785.7999877929688</ele>
        <time>2003-04-18T08:44:58.000Z</time>
      </trkpt>
      <trkpt lon="-2.2253299970179796" lat="42.95480003580451">
        <ele>782.7999877929688</ele>
        <time>2003-04-18T08:45:09.000Z</time>
      </trkpt>
      <trkpt lon="-2.2253299970179796" lat="42.95475997030735">
        <ele>781.4000244140625</ele>
        <time>2003-04-18T08:45:10.000Z</time>
      </trkpt>
      <trkpt lon="-2.225349945947528" lat="42.9547400213778">
        <ele>780.7999877929688</ele>
        <time>2003-04-18T08:45:12.000Z</time>
      </trkpt>
      <trkpt lon="-2.225420018658042" lat="42.954680006951094">
        <ele>778.7999877929688</ele>
        <time>2003-04-18T08:45:18.000Z</time>
      </trkpt>
      <trkpt lon="-2.22546000033617" lat="42.95461001805961">
        <ele>776.4000244140625</ele>
        <time>2003-04-18T08:45:25.000Z</time>
      </trkpt>
      <trkpt lon="-2.2255299892276525" lat="42.95452997088432">
        <ele>773.7999877929688</ele>
        <time>2003-04-18T08:45:34.000Z</time>
      </trkpt>
      <trkpt lon="-2.2255299892276525" lat="42.95442000031471">
        <ele>769.7999877929688</ele>
        <time>2003-04-18T08:45:43.000Z</time>
      </trkpt>
      <trkpt lon="-2.2254998981952667" lat="42.95442000031471">
        <ele>769.7999877929688</ele>
        <time>2003-04-18T08:45:44.000Z</time>
      </trkpt>
      <trkpt lon="-2.225420018658042" lat="42.954380018636584">
        <ele>768.4000244140625</ele>
        <time>2003-04-18T08:45:51.000Z</time>
      </trkpt>
      <trkpt lon="-2.22543996758759" lat="42.95418002642691">
        <ele>761.4000244140625</ele>
        <time>2003-04-18T08:46:07.000Z</time>
      </trkpt>
      <trkpt lon="-2.22543996758759" lat="42.95415999367833">
        <ele>760.5999755859375</ele>
        <time>2003-04-18T08:46:10.000Z</time>
      </trkpt>
      <trkpt lon="-2.225609952583909" lat="42.95399000868201">
        <ele>753.4000244140625</ele>
        <time>2003-04-18T08:46:38.000Z</time>
      </trkpt>
      <trkpt lon="-2.225569970905781" lat="42.9538800381124">
        <ele>749.2000122070312</ele>
        <time>2003-04-18T08:46:50.000Z</time>
      </trkpt>
      <trkpt lon="-2.2255500219762325" lat="42.953820023685694">
        <ele>746.7999877929688</ele>
        <time>2003-04-18T08:47:10.000Z</time>
      </trkpt>
      <trkpt lon="-2.2255299892276525" lat="42.95375003479421">
        <ele>744.0</ele>
        <time>2003-04-18T08:47:14.000Z</time>
      </trkpt>
      <trkpt lon="-2.22546000033617" lat="42.953650038689375">
        <ele>740.2000122070312</ele>
        <time>2003-04-18T08:47:22.000Z</time>
      </trkpt>
      <trkpt lon="-2.225420018658042" lat="42.95362003147602">
        <ele>739.0</ele>
        <time>2003-04-18T08:47:25.000Z</time>
      </trkpt>
      <trkpt lon="-2.2253099642693996" lat="42.95356001704931">
        <ele>736.7999877929688</ele>
        <time>2003-04-18T08:47:32.000Z</time>
      </trkpt>
      <trkpt lon="-2.225220026448369" lat="42.953500002622604">
        <ele>734.4000244140625</ele>
        <time>2003-04-18T08:47:39.000Z</time>
      </trkpt>
      <trkpt lon="-2.225179960951209" lat="42.95344996266067">
        <ele>732.5999755859375</ele>
        <time>2003-04-18T08:47:54.000Z</time>
      </trkpt>
      <trkpt lon="-2.225220026448369" lat="42.95343001373112">
        <ele>731.5999755859375</ele>
        <time>2003-04-18T08:48:11.000Z</time>
      </trkpt>
      <trkpt lon="-2.225220026448369" lat="42.95340998098254">
        <ele>730.7999877929688</ele>
        <time>2003-04-18T08:48:12.000Z</time>
      </trkpt>
      <trkpt lon="-2.225220026448369" lat="42.95340998098254">
        <ele>730.7999877929688</ele>
        <time>2003-04-18T08:48:13.000Z</time>
      </trkpt>
      <trkpt lon="-2.2252498660236597" lat="42.953349966555834">
        <ele>728.4000244140625</ele>
        <time>2003-04-18T08:48:17.000Z</time>
      </trkpt>
      <trkpt lon="-2.2252498660236597" lat="42.95332004316151">
        <ele>727.2000122070312</ele>
        <time>2003-04-18T08:48:19.000Z</time>
      </trkpt>
      <trkpt lon="-2.2252698987722397" lat="42.9532600287348">
        <ele>724.7999877929688</ele>
        <time>2003-04-18T08:48:23.000Z</time>
      </trkpt>
      <trkpt lon="-2.2252698987722397" lat="42.95321996323764">
        <ele>723.4000244140625</ele>
        <time>2003-04-18T08:48:26.000Z</time>
      </trkpt>
      <trkpt lon="-2.2252498660236597" lat="42.95317000709474">
        <ele>721.4000244140625</ele>
        <time>2003-04-18T08:48:30.000Z</time>
      </trkpt>
      <trkpt lon="-2.225199993699789" lat="42.953090043738484">
        <ele>718.4000244140625</ele>
        <time>2003-04-18T08:48:36.000Z</time>
      </trkpt>
      <trkpt lon="-2.225179960951209" lat="42.953070010989904">
        <ele>717.7999877929688</ele>
        <time>2003-04-18T08:48:37.000Z</time>
      </trkpt>
      <trkpt lon="-2.225160012021661" lat="42.95297998934984">
        <ele>714.4000244140625</ele>
        <time>2003-04-18T08:48:43.000Z</time>
      </trkpt>
      <trkpt lon="-2.225160012021661" lat="42.952940007671714">
        <ele>712.7999877929688</ele>
        <time>2003-04-18T08:48:45.000Z</time>
      </trkpt>
      <trkpt lon="-2.225139979273081" lat="42.95287001878023">
        <ele>710.2000122070312</ele>
        <time>2003-04-18T08:48:49.000Z</time>
      </trkpt>
      <trkpt lon="-2.225179960951209" lat="42.952770022675395">
        <ele>706.2000122070312</ele>
        <time>2003-04-18T08:48:56.000Z</time>
      </trkpt>
      <trkpt lon="-2.2252498660236597" lat="42.95265996828675">
        <ele>702.0</ele>
        <time>2003-04-18T08:49:03.000Z</time>
      </trkpt>
      <trkpt lon="-2.2252698987722397" lat="42.952640019357204">
        <ele>701.4000244140625</ele>
        <time>2003-04-18T08:49:04.000Z</time>
      </trkpt>
      <trkpt lon="-2.2253299970179796" lat="42.95252996496856">
        <ele>697.2000122070312</ele>
        <time>2003-04-18T08:49:12.000Z</time>
      </trkpt>
      <trkpt lon="-2.2254799492657185" lat="42.95239996165037">
        <ele>694.0</ele>
        <time>2003-04-18T08:49:22.000Z</time>
      </trkpt>
      <trkpt lon="-2.2254998981952667" lat="42.95235997997224">
        <ele>693.2000122070312</ele>
        <time>2003-04-18T08:49:25.000Z</time>
      </trkpt>
      <trkpt lon="-2.2255500219762325" lat="42.952340031042695">
        <ele>692.5999755859375</ele>
        <time>2003-04-18T08:49:28.000Z</time>
      </trkpt>
      <trkpt lon="-2.225609952583909" lat="42.95225000940263">
        <ele>690.5999755859375</ele>
        <time>2003-04-18T08:49:34.000Z</time>
      </trkpt>
      <trkpt lon="-2.225650018081069" lat="42.952169962227345">
        <ele>688.7999877929688</ele>
        <time>2003-04-18T08:49:41.000Z</time>
      </trkpt>
      <trkpt lon="-2.225680025294423" lat="42.952080024406314">
        <ele>686.5999755859375</ele>
        <time>2003-04-18T08:49:48.000Z</time>
      </trkpt>
      <trkpt lon="-2.2257199231535196" lat="42.95199000276625">
        <ele>684.4000244140625</ele>
        <time>2003-04-18T08:49:54.000Z</time>
      </trkpt>
      <trkpt lon="-2.2257399559020996" lat="42.95199000276625">
        <ele>684.4000244140625</ele>
        <time>2003-04-18T08:49:55.000Z</time>
      </trkpt>
      <trkpt lon="-2.225829977542162" lat="42.951890006661415">
        <ele>681.4000244140625</ele>
        <time>2003-04-18T08:50:03.000Z</time>
      </trkpt>
      <trkpt lon="-2.22586995922029" lat="42.95183996669948">
        <ele>679.7999877929688</ele>
        <time>2003-04-18T08:50:08.000Z</time>
      </trkpt>
      <trkpt lon="-2.22588999196887" lat="42.95179998502135">
        <ele>678.7999877929688</ele>
        <time>2003-04-18T08:50:11.000Z</time>
      </trkpt>
      <trkpt lon="-2.22588999196887" lat="42.951780036091805">
        <ele>678.4000244140625</ele>
        <time>2003-04-18T08:50:14.000Z</time>
      </trkpt>
      <trkpt lon="-2.22588999196887" lat="42.951739970594645">
        <ele>677.4000244140625</ele>
        <time>2003-04-18T08:50:18.000Z</time>
      </trkpt>
      <trkpt lon="-2.22591002471745" lat="42.95169001445174">
        <ele>676.2000122070312</ele>
        <time>2003-04-18T08:50:30.000Z</time>
      </trkpt>
      <trkpt lon="-2.22588999196887" lat="42.951650032773614">
        <ele>675.5999755859375</ele>
        <time>2003-04-18T08:50:40.000Z</time>
      </trkpt>
      <trkpt lon="-2.2259298898279667" lat="42.95156001113355">
        <ele>675.0</ele>
        <time>2003-04-18T08:50:45.000Z</time>
      </trkpt>
      <trkpt lon="-2.2260199952870607" lat="42.95139002613723">
        <ele>673.4000244140625</ele>
        <time>2003-04-18T08:50:56.000Z</time>
      </trkpt>
      <trkpt lon="-2.2262100130319595" lat="42.95110998675227">
        <ele>670.4000244140625</ele>
        <time>2003-04-18T08:51:14.000Z</time>
      </trkpt>
      <trkpt lon="-2.2264299541711807" lat="42.95094000175595">
        <ele>667.2000122070312</ele>
        <time>2003-04-18T08:51:33.000Z</time>
      </trkpt>
      <trkpt lon="-2.2264499869197607" lat="42.95091996900737">
        <ele>666.7999877929688</ele>
        <time>2003-04-18T08:51:39.000Z</time>
      </trkpt>
      <trkpt lon="-2.2266599535942078" lat="42.950770016759634">
        <ele>664.4000244140625</ele>
        <time>2003-04-18T08:51:55.000Z</time>
      </trkpt>
      <trkpt lon="-2.2268599458038807" lat="42.95065996237099">
        <ele>662.4000244140625</ele>
        <time>2003-04-18T08:52:06.000Z</time>
      </trkpt>
      <trkpt lon="-2.2268799785524607" lat="42.95064001344144">
        <ele>662.2000122070312</ele>
        <time>2003-04-18T08:52:07.000Z</time>
      </trkpt>
      <trkpt lon="-2.226919960230589" lat="42.950429962947965">
        <ele>662.4000244140625</ele>
        <time>2003-04-18T08:52:21.000Z</time>
      </trkpt>
      <trkpt lon="-2.226960025727749" lat="42.950150007382035">
        <ele>662.7999877929688</ele>
        <time>2003-04-18T08:52:39.000Z</time>
      </trkpt>
      <trkpt lon="-2.2270899452269077" lat="42.949869967997074">
        <ele>661.2000122070312</ele>
        <time>2003-04-18T08:52:57.000Z</time>
      </trkpt>
      <trkpt lon="-2.227160017937422" lat="42.949699983000755">
        <ele>659.7999877929688</ele>
        <time>2003-04-18T08:53:12.000Z</time>
      </trkpt>
      <trkpt lon="-2.22717996686697" lat="42.949720015749335">
        <ele>659.5999755859375</ele>
        <time>2003-04-18T08:53:25.000Z</time>
      </trkpt>
      <trkpt lon="-2.2273300029337406" lat="42.949699983000755">
        <ele>657.5999755859375</ele>
        <time>2003-04-18T08:53:35.000Z</time>
      </trkpt>
      <trkpt lon="-2.227349951863289" lat="42.94968003407121">
        <ele>657.2000122070312</ele>
        <time>2003-04-18T08:53:52.000Z</time>
      </trkpt>
      <trkpt lon="-2.22760995849967" lat="42.949699983000755">
        <ele>655.4000244140625</ele>
        <time>2003-04-18T08:54:09.000Z</time>
      </trkpt>
      <trkpt lon="-2.22760995849967" lat="42.949910033494234">
        <ele>656.0</ele>
        <time>2003-04-18T08:54:25.000Z</time>
      </trkpt>
      <trkpt lon="-2.22760995849967" lat="42.949980022385716">
        <ele>656.0</ele>
        <time>2003-04-18T08:54:29.000Z</time>
      </trkpt>
      <trkpt lon="-2.2275900095701218" lat="42.949999971315265">
        <ele>656.2000122070312</ele>
        <time>2003-04-18T08:54:31.000Z</time>
      </trkpt>
      <trkpt lon="-2.22762999124825" lat="42.95008001849055">
        <ele>655.7999877929688</ele>
        <time>2003-04-18T08:54:40.000Z</time>
      </trkpt>
      <trkpt lon="-2.227859990671277" lat="42.95008001849055">
        <ele>655.7999877929688</ele>
        <time>2003-04-18T08:54:58.000Z</time>
      </trkpt>
      <trkpt lon="-2.22808001562953" lat="42.950040036812425">
        <ele>656.2000122070312</ele>
        <time>2003-04-18T08:55:18.000Z</time>
      </trkpt>
      <trkpt lon="-2.22851000726223" lat="42.949980022385716">
        <ele>657.7999877929688</ele>
        <time>2003-04-18T08:55:39.000Z</time>
      </trkpt>
      <trkpt lon="-2.2288700100034475" lat="42.94992998242378">
        <ele>659.2000122070312</ele>
        <time>2003-04-18T08:55:58.000Z</time>
      </trkpt>
      <trkpt lon="-2.2293199505656958" lat="42.949829986318946">
        <ele>661.2000122070312</ele>
        <time>2003-04-18T08:56:20.000Z</time>
      </trkpt>
      <trkpt lon="-2.2296698950231075" lat="42.94973996467888">
        <ele>663.2000122070312</ele>
        <time>2003-04-18T08:56:38.000Z</time>
      </trkpt>
      <trkpt lon="-2.2298798616975546" lat="42.949699983000755">
        <ele>664.5999755859375</ele>
        <time>2003-04-18T08:56:51.000Z</time>
      </trkpt>
      <trkpt lon="-2.230310020968318" lat="42.949590012431145">
        <ele>669.4000244140625</ele>
        <time>2003-04-18T08:57:12.000Z</time>
      </trkpt>
      <trkpt lon="-2.2306499909609556" lat="42.94949999079108">
        <ele>674.0</ele>
        <time>2003-04-18T08:57:30.000Z</time>
      </trkpt>
      <trkpt lon="-2.2308700159192085" lat="42.949420027434826">
        <ele>677.2000122070312</ele>
        <time>2003-04-18T08:57:47.000Z</time>
      </trkpt>
      <trkpt lon="-2.230949979275465" lat="42.949379961937666">
        <ele>678.7999877929688</ele>
        <time>2003-04-18T08:57:54.000Z</time>
      </trkpt>
      <trkpt lon="-2.231149971485138" lat="42.949309973046184">
        <ele>682.7999877929688</ele>
        <time>2003-04-18T08:58:09.000Z</time>
      </trkpt>
      <trkpt lon="-2.2313199564814568" lat="42.949269991368055">
        <ele>686.4000244140625</ele>
        <time>2003-04-18T08:58:21.000Z</time>
      </trkpt>
      <trkpt lon="-2.231400003656745" lat="42.94925004243851">
        <ele>688.0</ele>
        <time>2003-04-18T08:58:27.000Z</time>
      </trkpt>
      <trkpt lon="-2.2315300069749355" lat="42.94923000968993">
        <ele>691.0</ele>
        <time>2003-04-18T08:58:34.000Z</time>
      </trkpt>
      <trkpt lon="-2.231829995289445" lat="42.949139988049865">
        <ele>694.7999877929688</ele>
        <time>2003-04-18T08:58:53.000Z</time>
      </trkpt>
      <trkpt lon="-2.2321999724954367" lat="42.949030017480254">
        <ele>698.2000122070312</ele>
        <time>2003-04-18T08:59:15.000Z</time>
      </trkpt>
      <trkpt lon="-2.2326099313795567" lat="42.94877998530865">
        <ele>705.0</ele>
        <time>2003-04-18T08:59:44.000Z</time>
      </trkpt>
      <trkpt lon="-2.2326099313795567" lat="42.948730029165745">
        <ele>706.4000244140625</ele>
        <time>2003-04-18T09:00:07.000Z</time>
      </trkpt>
      <trkpt lon="-2.232669945806265" lat="42.948600025847554">
        <ele>709.5999755859375</ele>
        <time>2003-04-18T09:00:26.000Z</time>
      </trkpt>
      <trkpt lon="-2.232970017939806" lat="42.948519978672266">
        <ele>711.0</ele>
        <time>2003-04-18T09:00:41.000Z</time>
      </trkpt>
      <trkpt lon="-2.233439991250634" lat="42.948389975354075">
        <ele>713.7999877929688</ele>
        <time>2003-04-18T09:01:04.000Z</time>
      </trkpt>
      <trkpt lon="-2.233660016208887" lat="42.948280004784465">
        <ele>716.7999877929688</ele>
        <time>2003-04-18T09:01:18.000Z</time>
      </trkpt>
      <trkpt lon="-2.233849950134754" lat="42.948129968717694">
        <ele>723.2000122070312</ele>
        <time>2003-04-18T09:01:32.000Z</time>
      </trkpt>
      <trkpt lon="-2.2339399717748165" lat="42.948089987039566">
        <ele>724.7999877929688</ele>
        <time>2003-04-18T09:01:36.000Z</time>
      </trkpt>
      <trkpt lon="-2.234299974516034" lat="42.948019998148084">
        <ele>727.0</ele>
        <time>2003-04-18T09:01:57.000Z</time>
      </trkpt>
      <trkpt lon="-2.2345598973333836" lat="42.947959983721375">
        <ele>729.4000244140625</ele>
        <time>2003-04-18T09:02:11.000Z</time>
      </trkpt>
      <trkpt lon="-2.2347998712211847" lat="42.94786996208131">
        <ele>734.2000122070312</ele>
        <time>2003-04-18T09:02:24.000Z</time>
      </trkpt>
      <trkpt lon="-2.2350299544632435" lat="42.94781003147364">
        <ele>737.0</ele>
        <time>2003-04-18T09:02:39.000Z</time>
      </trkpt>
      <trkpt lon="-2.2351000271737576" lat="42.94778999872506">
        <ele>738.0</ele>
        <time>2003-04-18T09:02:43.000Z</time>
      </trkpt>
      <trkpt lon="-2.235439997166395" lat="42.947699977084994">
        <ele>741.5999755859375</ele>
        <time>2003-04-18T09:03:03.000Z</time>
      </trkpt>
      <trkpt lon="-2.2357600182294846" lat="42.94762001372874">
        <ele>745.2000122070312</ele>
        <time>2003-04-18T09:03:24.000Z</time>
      </trkpt>
      <trkpt lon="-2.2359499521553516" lat="42.947639962658286">
        <ele>743.2000122070312</ele>
        <time>2003-04-18T09:03:35.000Z</time>
      </trkpt>
      <trkpt lon="-2.2364500164985657" lat="42.94762001372874">
        <ele>744.0</ele>
        <time>2003-04-18T09:03:58.000Z</time>
      </trkpt>
      <trkpt lon="-2.236729972064495" lat="42.947569973766804">
        <ele>746.5999755859375</ele>
        <time>2003-04-18T09:04:13.000Z</time>
      </trkpt>
      <trkpt lon="-2.237159963697195" lat="42.94759998098016">
        <ele>744.5999755859375</ele>
        <time>2003-04-18T09:04:38.000Z</time>
      </trkpt>
      <trkpt lon="-2.2374799009412527" lat="42.94762001372874">
        <ele>743.2000122070312</ele>
        <time>2003-04-18T09:04:53.000Z</time>
      </trkpt>
      <trkpt lon="-2.2375199664384127" lat="42.947639962658286">
        <ele>741.7999877929688</ele>
        <time>2003-04-18T09:04:58.000Z</time>
      </trkpt>
      <trkpt lon="-2.237579980865121" lat="42.94759998098016">
        <ele>743.7999877929688</ele>
        <time>2003-04-18T09:05:02.000Z</time>
      </trkpt>
      <trkpt lon="-2.2376498859375715" lat="42.947569973766804">
        <ele>745.2000122070312</ele>
        <time>2003-04-18T09:05:06.000Z</time>
      </trkpt>
      <trkpt lon="-2.2377099841833115" lat="42.947550024837255">
        <ele>746.0</ele>
        <time>2003-04-18T09:05:09.000Z</time>
      </trkpt>
      <trkpt lon="-2.237860020250082" lat="42.94762001372874">
        <ele>741.2000122070312</ele>
        <time>2003-04-18T09:05:17.000Z</time>
      </trkpt>
      <trkpt lon="-2.2383799497038126" lat="42.94746997766197">
        <ele>745.4000244140625</ele>
        <time>2003-04-18T09:05:41.000Z</time>
      </trkpt>
      <trkpt lon="-2.2386599890887737" lat="42.947269985452294">
        <ele>748.0</ele>
        <time>2003-04-18T09:05:59.000Z</time>
      </trkpt>
      <trkpt lon="-2.2387899085879326" lat="42.947290018200874">
        <ele>747.0</ele>
        <time>2003-04-18T09:06:06.000Z</time>
      </trkpt>
      <trkpt lon="-2.2392199002206326" lat="42.94736000709236">
        <ele>743.5999755859375</ele>
        <time>2003-04-18T09:06:27.000Z</time>
      </trkpt>
      <trkpt lon="-2.2394699323922396" lat="42.947420021519065">
        <ele>741.7999877929688</ele>
        <time>2003-04-18T09:06:39.000Z</time>
      </trkpt>
      <trkpt lon="-2.239789953455329" lat="42.947529992088675">
        <ele>737.4000244140625</ele>
        <time>2003-04-18T09:06:54.000Z</time>
      </trkpt>
      <trkpt lon="-2.2399699967354536" lat="42.94762001372874">
        <ele>731.7999877929688</ele>
        <time>2003-04-18T09:07:03.000Z</time>
      </trkpt>
      <trkpt lon="-2.240009978413582" lat="42.947659995406866">
        <ele>729.2000122070312</ele>
        <time>2003-04-18T09:07:06.000Z</time>
      </trkpt>
      <trkpt lon="-2.2401999961584806" lat="42.947720009833574">
        <ele>724.5999755859375</ele>
        <time>2003-04-18T09:07:15.000Z</time>
      </trkpt>
      <trkpt lon="-2.2404200211167336" lat="42.94776996597648">
        <ele>720.5999755859375</ele>
        <time>2003-04-18T09:07:25.000Z</time>
      </trkpt>
      <trkpt lon="-2.240550024434924" lat="42.94778999872506">
        <ele>718.7999877929688</ele>
        <time>2003-04-18T09:07:32.000Z</time>
      </trkpt>
      <trkpt lon="-2.2406500205397606" lat="42.94781003147364">
        <ele>717.2000122070312</ele>
        <time>2003-04-18T09:07:37.000Z</time>
      </trkpt>
      <trkpt lon="-2.2408899944275618" lat="42.947850013151765">
        <ele>713.7999877929688</ele>
        <time>2003-04-18T09:07:49.000Z</time>
      </trkpt>
      <trkpt lon="-2.241099961102009" lat="42.94789996929467">
        <ele>709.2000122070312</ele>
        <time>2003-04-18T09:07:59.000Z</time>
      </trkpt>
      <trkpt lon="-2.2412298806011677" lat="42.94792000204325">
        <ele>707.2000122070312</ele>
        <time>2003-04-18T09:08:06.000Z</time>
      </trkpt>
      <trkpt lon="-2.241399949416518" lat="42.947980016469955">
        <ele>703.5999755859375</ele>
        <time>2003-04-18T09:08:14.000Z</time>
      </trkpt>
      <trkpt lon="-2.2416598722338676" lat="42.948019998148084">
        <ele>700.7999877929688</ele>
        <time>2003-04-18T09:08:27.000Z</time>
      </trkpt>
      <trkpt lon="-2.2417700104415417" lat="42.94805000536144">
        <ele>698.5999755859375</ele>
        <time>2003-04-18T09:08:32.000Z</time>
      </trkpt>
      <trkpt lon="-2.242049966007471" lat="42.948110019788146">
        <ele>694.2000122070312</ele>
        <time>2003-04-18T09:08:45.000Z</time>
      </trkpt>
      <trkpt lon="-2.242330005392432" lat="42.948150001466274">
        <ele>690.7999877929688</ele>
        <time>2003-04-18T09:08:58.000Z</time>
      </trkpt>
      <trkpt lon="-2.2425799537450075" lat="42.948089987039566">
        <ele>688.2000122070312</ele>
        <time>2003-04-18T09:09:10.000Z</time>
      </trkpt>
      <trkpt lon="-2.242709957063198" lat="42.947850013151765">
        <ele>688.2000122070312</ele>
        <time>2003-04-18T09:09:26.000Z</time>
      </trkpt>
      <trkpt lon="-2.24269000813365" lat="42.947720009833574">
        <ele>690.0</ele>
        <time>2003-04-18T09:09:35.000Z</time>
      </trkpt>
      <trkpt lon="-2.242709957063198" lat="42.947639962658286">
        <ele>690.5999755859375</ele>
        <time>2003-04-18T09:09:40.000Z</time>
      </trkpt>
      <trkpt lon="-2.24269000813365" lat="42.947529992088675">
        <ele>692.4000244140625</ele>
        <time>2003-04-18T09:09:48.000Z</time>
      </trkpt>
      <trkpt lon="-2.2428399603813887" lat="42.947269985452294">
        <ele>691.4000244140625</ele>
        <time>2003-04-18T09:10:05.000Z</time>
      </trkpt>
      <trkpt lon="-2.242989996448159" lat="42.94706001877785">
        <ele>689.5999755859375</ele>
        <time>2003-04-18T09:10:23.000Z</time>
      </trkpt>
      <trkpt lon="-2.2430599853396416" lat="42.946990029886365">
        <ele>688.5999755859375</ele>
        <time>2003-04-18T09:10:33.000Z</time>
      </trkpt>
      <trkpt lon="-2.2430800180882215" lat="42.946990029886365">
        <ele>688.0</ele>
        <time>2003-04-18T09:10:34.000Z</time>
      </trkpt>
      <trkpt lon="-2.243139948695898" lat="42.946990029886365">
        <ele>686.5999755859375</ele>
        <time>2003-04-18T09:10:38.000Z</time>
      </trkpt>
      <trkpt lon="-2.2432298865169287" lat="42.94703998602927">
        <ele>683.7999877929688</ele>
        <time>2003-04-18T09:10:43.000Z</time>
      </trkpt>
      <trkpt lon="-2.243380006402731" lat="42.947079967707396">
        <ele>680.0</ele>
        <time>2003-04-18T09:10:52.000Z</time>
      </trkpt>
      <trkpt lon="-2.243419988080859" lat="42.947079967707396">
        <ele>679.2000122070312</ele>
        <time>2003-04-18T09:10:54.000Z</time>
      </trkpt>
      <trkpt lon="-2.243589973077178" lat="42.947100000455976">
        <ele>675.5999755859375</ele>
        <time>2003-04-18T09:11:04.000Z</time>
      </trkpt>
      <trkpt lon="-2.243640013039112" lat="42.947120033204556">
        <ele>674.4000244140625</ele>
        <time>2003-04-18T09:11:06.000Z</time>
      </trkpt>
      <trkpt lon="-2.243849979713559" lat="42.947230003774166">
        <ele>669.5999755859375</ele>
        <time>2003-04-18T09:11:21.000Z</time>
      </trkpt>
      <trkpt lon="-2.2439400013536215" lat="42.947269985452294">
        <ele>667.7999877929688</ele>
        <time>2003-04-18T09:11:26.000Z</time>
      </trkpt>
      <trkpt lon="-2.2439599502831697" lat="42.947269985452294">
        <ele>667.4000244140625</ele>
        <time>2003-04-18T09:11:27.000Z</time>
      </trkpt>
      <trkpt lon="-2.244039997458458" lat="42.94732002541423">
        <ele>665.5999755859375</ele>
        <time>2003-04-18T09:11:32.000Z</time>
      </trkpt>
      <trkpt lon="-2.244239989668131" lat="42.94733997434378">
        <ele>663.0</ele>
        <time>2003-04-18T09:11:41.000Z</time>
      </trkpt>
      <trkpt lon="-2.2444300074130297" lat="42.94732002541423">
        <ele>662.2000122070312</ele>
        <time>2003-04-18T09:11:52.000Z</time>
      </trkpt>
      <trkpt lon="-2.2446200251579285" lat="42.94736000709236">
        <ele>661.7999877929688</ele>
        <time>2003-04-18T09:12:01.000Z</time>
      </trkpt>
      <trkpt lon="-2.244669981300831" lat="42.94738003984094">
        <ele>661.7999877929688</ele>
        <time>2003-04-18T09:12:04.000Z</time>
      </trkpt>
      <trkpt lon="-2.2450499329715967" lat="42.947209971025586">
        <ele>659.7999877929688</ele>
        <time>2003-04-18T09:12:25.000Z</time>
      </trkpt>
      <trkpt lon="-2.2450699657201767" lat="42.94716998934746">
        <ele>659.5999755859375</ele>
        <time>2003-04-18T09:12:27.000Z</time>
      </trkpt>
      <trkpt lon="-2.2452899906784296" lat="42.947100000455976">
        <ele>661.7999877929688</ele>
        <time>2003-04-18T09:12:42.000Z</time>
      </trkpt>
      <trkpt lon="-2.245350005105138" lat="42.94703998602927">
        <ele>662.0</ele>
        <time>2003-04-18T09:12:49.000Z</time>
      </trkpt>
      <trkpt lon="-2.24541999399662" lat="42.946820044890046">
        <ele>661.2000122070312</ele>
        <time>2003-04-18T09:13:05.000Z</time>
      </trkpt>
      <trkpt lon="-2.2454999573528767" lat="42.94663002714515">
        <ele>660.7999877929688</ele>
        <time>2003-04-18T09:13:20.000Z</time>
      </trkpt>
      <trkpt lon="-2.245670026168227" lat="42.94647999107838">
        <ele>660.7999877929688</ele>
        <time>2003-04-18T09:13:36.000Z</time>
      </trkpt>
      <trkpt lon="-2.246040003374219" lat="42.94628997333348">
        <ele>663.0</ele>
        <time>2003-04-18T09:13:58.000Z</time>
      </trkpt>
      <trkpt lon="-2.2464300133287907" lat="42.946110013872385">
        <ele>666.7999877929688</ele>
        <time>2003-04-18T09:14:20.000Z</time>
      </trkpt>
      <trkpt lon="-2.2467300016433" lat="42.94607003219426">
        <ele>670.0</ele>
        <time>2003-04-18T09:14:37.000Z</time>
      </trkpt>
      <trkpt lon="-2.246960001066327" lat="42.946219984441996">
        <ele>674.0</ele>
        <time>2003-04-18T09:14:53.000Z</time>
      </trkpt>
      <trkpt lon="-2.2472599893808365" lat="42.946389969438314">
        <ele>679.7999877929688</ele>
        <time>2003-04-18T09:15:12.000Z</time>
      </trkpt>
      <trkpt lon="-2.247369959950447" lat="42.94644000940025">
        <ele>682.0</ele>
        <time>2003-04-18T09:15:19.000Z</time>
      </trkpt>
      <trkpt lon="-2.2477099299430847" lat="42.94650002382696">
        <ele>684.7999877929688</ele>
        <time>2003-04-18T09:15:37.000Z</time>
      </trkpt>
      <trkpt lon="-2.248079990968108" lat="42.94650002382696">
        <ele>684.7999877929688</ele>
        <time>2003-04-18T09:15:56.000Z</time>
      </trkpt>
      <trkpt lon="-2.248419960960746" lat="42.94657001271844">
        <ele>688.0</ele>
        <time>2003-04-18T09:16:13.000Z</time>
      </trkpt>
      <trkpt lon="-2.2488300036638975" lat="42.946649976074696">
        <ele>691.4000244140625</ele>
        <time>2003-04-18T09:16:34.000Z</time>
      </trkpt>
      <trkpt lon="-2.2490399703383446" lat="42.946690041571856">
        <ele>692.7999877929688</ele>
        <time>2003-04-18T09:16:46.000Z</time>
      </trkpt>
      <trkpt lon="-2.2494298964738846" lat="42.946779979392886">
        <ele>695.4000244140625</ele>
        <time>2003-04-18T09:17:08.000Z</time>
      </trkpt>
      <trkpt lon="-2.249789983034134" lat="42.94687000103295">
        <ele>698.0</ele>
        <time>2003-04-18T09:17:28.000Z</time>
      </trkpt>
      <trkpt lon="-2.249989975243807" lat="42.94693001545966">
        <ele>699.7999877929688</ele>
        <time>2003-04-18T09:17:39.000Z</time>
      </trkpt>
      <trkpt lon="-2.2503699269145727" lat="42.947079967707396">
        <ele>703.7999877929688</ele>
        <time>2003-04-18T09:18:01.000Z</time>
      </trkpt>
      <trkpt lon="-2.250719955191016" lat="42.947209971025586">
        <ele>707.0</ele>
        <time>2003-04-18T09:18:22.000Z</time>
      </trkpt>
      <trkpt lon="-2.2510399762541056" lat="42.94733997434378">
        <ele>711.2000122070312</ele>
        <time>2003-04-18T09:18:40.000Z</time>
      </trkpt>
      <trkpt lon="-2.251399978995323" lat="42.947420021519065">
        <ele>713.5999755859375</ele>
        <time>2003-04-18T09:19:00.000Z</time>
      </trkpt>
      <trkpt lon="-2.251789988949895" lat="42.947550024837255">
        <ele>717.4000244140625</ele>
        <time>2003-04-18T09:19:21.000Z</time>
      </trkpt>
      <trkpt lon="-2.252029962837696" lat="42.94762001372874">
        <ele>719.0</ele>
        <time>2003-04-18T09:19:34.000Z</time>
      </trkpt>
      <trkpt lon="-2.2523899655789137" lat="42.947659995406866">
        <ele>719.4000244140625</ele>
        <time>2003-04-18T09:19:54.000Z</time>
      </trkpt>
      <trkpt lon="-2.252730019390583" lat="42.94775001704693">
        <ele>722.5999755859375</ele>
        <time>2003-04-18T09:20:12.000Z</time>
      </trkpt>
      <trkpt lon="-2.2527999244630337" lat="42.94775001704693">
        <ele>722.5999755859375</ele>
        <time>2003-04-18T09:20:15.000Z</time>
      </trkpt>
      <trkpt lon="-2.2532299160957336" lat="42.94776996597648">
        <ele>723.4000244140625</ele>
        <time>2003-04-18T09:20:37.000Z</time>
      </trkpt>
      <trkpt lon="-2.253569969907403" lat="42.94781003147364">
        <ele>725.0</ele>
        <time>2003-04-18T09:20:55.000Z</time>
      </trkpt>
      <trkpt lon="-2.253999961540103" lat="42.94786996208131">
        <ele>727.0</ele>
        <time>2003-04-18T09:21:16.000Z</time>
      </trkpt>
      <trkpt lon="-2.2542998660355806" lat="42.947959983721375">
        <ele>729.7999877929688</ele>
        <time>2003-04-18T09:21:31.000Z</time>
      </trkpt>
      <trkpt lon="-2.254689959809184" lat="42.947999965399504">
        <ele>732.4000244140625</ele>
        <time>2003-04-18T09:21:49.000Z</time>
      </trkpt>
      <trkpt lon="-2.2550699952989817" lat="42.94792000204325">
        <ele>734.2000122070312</ele>
        <time>2003-04-18T09:22:09.000Z</time>
      </trkpt>
      <trkpt lon="-2.255160016939044" lat="42.94786996208131">
        <ele>735.0</ele>
        <time>2003-04-18T09:22:13.000Z</time>
      </trkpt>
      <trkpt lon="-2.2554599214345217" lat="42.94776996597648">
        <ele>738.4000244140625</ele>
        <time>2003-04-18T09:22:34.000Z</time>
      </trkpt>
      <trkpt lon="-2.25596996024251" lat="42.947720009833574">
        <ele>743.7999877929688</ele>
        <time>2003-04-18T09:22:59.000Z</time>
      </trkpt>
      <trkpt lon="-2.2563800029456615" lat="42.947699977084994">
        <ele>745.4000244140625</ele>
        <time>2003-04-18T09:23:19.000Z</time>
      </trkpt>
      <trkpt lon="-2.256700024008751" lat="42.94762001372874">
        <ele>747.5999755859375</ele>
        <time>2003-04-18T09:23:37.000Z</time>
      </trkpt>
      <trkpt lon="-2.2570700012147427" lat="42.947529992088675">
        <ele>749.5999755859375</ele>
        <time>2003-04-18T09:23:57.000Z</time>
      </trkpt>
      <trkpt lon="-2.257349956780672" lat="42.94751004315913">
        <ele>750.5999755859375</ele>
        <time>2003-04-18T09:24:12.000Z</time>
      </trkpt>
      <trkpt lon="-2.2574999928474426" lat="42.947529992088675">
        <ele>750.5999755859375</ele>
        <time>2003-04-18T09:24:20.000Z</time>
      </trkpt>
      <trkpt lon="-2.257579956203699" lat="42.947529992088675">
        <ele>751.4000244140625</ele>
        <time>2003-04-18T09:24:26.000Z</time>
      </trkpt>
      <trkpt lon="-2.258059987798333" lat="42.947639962658286">
        <ele>754.2000122070312</ele>
        <time>2003-04-18T09:24:50.000Z</time>
      </trkpt>
      <trkpt lon="-2.2583800088614225" lat="42.947699977084994">
        <ele>755.7999877929688</ele>
        <time>2003-04-18T09:25:08.000Z</time>
      </trkpt>
      <trkpt lon="-2.2584400232881308" lat="42.947720009833574">
        <ele>755.4000244140625</ele>
        <time>2003-04-18T09:25:12.000Z</time>
      </trkpt>
      <trkpt lon="-2.25869994610548" lat="42.94781003147364">
        <ele>754.5999755859375</ele>
        <time>2003-04-18T09:25:25.000Z</time>
      </trkpt>
      <trkpt lon="-2.2587598767131567" lat="42.94786996208131">
        <ele>754.5999755859375</ele>
        <time>2003-04-18T09:25:31.000Z</time>
      </trkpt>
      <trkpt lon="-2.259059948846698" lat="42.94786996208131">
        <ele>755.0</ele>
        <time>2003-04-18T09:25:50.000Z</time>
      </trkpt>
      <trkpt lon="-2.25917000323534" lat="42.94786996208131">
        <ele>755.0</ele>
        <time>2003-04-18T09:26:06.000Z</time>
      </trkpt>
      <trkpt lon="-2.259319955483079" lat="42.94789996929467">
        <ele>753.0</ele>
        <time>2003-04-18T09:26:21.000Z</time>
      </trkpt>
      <trkpt lon="-2.259339988231659" lat="42.94789996929467">
        <ele>752.5999755859375</ele>
        <time>2003-04-18T09:26:37.000Z</time>
      </trkpt>
      <trkpt lon="-2.259360020980239" lat="42.94778999872506">
        <ele>751.0</ele>
        <time>2003-04-18T09:26:48.000Z</time>
      </trkpt>
      <trkpt lon="-2.259360020980239" lat="42.94778999872506">
        <ele>751.0</ele>
        <time>2003-04-18T09:26:50.000Z</time>
      </trkpt>
      <trkpt lon="-2.259360020980239" lat="42.94775001704693">
        <ele>750.5999755859375</ele>
        <time>2003-04-18T09:27:00.000Z</time>
      </trkpt>
      <trkpt lon="-2.259360020980239" lat="42.947720009833574">
        <ele>750.2000122070312</ele>
        <time>2003-04-18T09:27:02.000Z</time>
      </trkpt>
      <trkpt lon="-2.259560013189912" lat="42.947420021519065">
        <ele>742.7999877929688</ele>
        <time>2003-04-18T09:27:21.000Z</time>
      </trkpt>
      <trkpt lon="-2.25959999486804" lat="42.947290018200874">
        <ele>742.0</ele>
        <time>2003-04-18T09:27:29.000Z</time>
      </trkpt>
      <trkpt lon="-2.259560013189912" lat="42.94719002209604">
        <ele>743.4000244140625</ele>
        <time>2003-04-18T09:27:36.000Z</time>
      </trkpt>
      <trkpt lon="-2.259360020980239" lat="42.94703998602927">
        <ele>750.2000122070312</ele>
        <time>2003-04-18T09:27:49.000Z</time>
      </trkpt>
      <trkpt lon="-2.2594499588012695" lat="42.94690998271108">
        <ele>748.0</ele>
        <time>2003-04-18T09:27:58.000Z</time>
      </trkpt>
      <trkpt lon="-2.2594900242984295" lat="42.94687000103295">
        <ele>746.7999877929688</ele>
        <time>2003-04-18T09:28:01.000Z</time>
      </trkpt>
      <trkpt lon="-2.25959999486804" lat="42.94671996496618">
        <ele>743.2000122070312</ele>
        <time>2003-04-18T09:28:12.000Z</time>
      </trkpt>
      <trkpt lon="-2.2596398927271366" lat="42.94657001271844">
        <ele>742.0</ele>
        <time>2003-04-18T09:28:22.000Z</time>
      </trkpt>
      <trkpt lon="-2.2598999831825495" lat="42.94628997333348">
        <ele>732.5999755859375</ele>
        <time>2003-04-18T09:28:43.000Z</time>
      </trkpt>
      <trkpt lon="-2.2600899171084166" lat="42.94604999944568">
        <ele>726.5999755859375</ele>
        <time>2003-04-18T09:29:03.000Z</time>
      </trkpt>
      <trkpt lon="-2.259749947115779" lat="42.945659989491105">
        <ele>738.0</ele>
        <time>2003-04-18T09:29:35.000Z</time>
      </trkpt>
      <trkpt lon="-2.2596599254757166" lat="42.945490004494786">
        <ele>739.7999877929688</ele>
        <time>2003-04-18T09:29:49.000Z</time>
      </trkpt>
      <trkpt lon="-2.2595099732279778" lat="42.945209965109825">
        <ele>742.2000122070312</ele>
        <time>2003-04-18T09:30:09.000Z</time>
      </trkpt>
      <trkpt lon="-2.2594699915498495" lat="42.94484996236861">
        <ele>740.2000122070312</ele>
        <time>2003-04-18T09:30:35.000Z</time>
      </trkpt>
      <trkpt lon="-2.259360020980239" lat="42.94457000680268">
        <ele>741.2000122070312</ele>
        <time>2003-04-18T09:30:56.000Z</time>
      </trkpt>
      <trkpt lon="-2.259059948846698" lat="42.94408000074327">
        <ele>747.2000122070312</ele>
        <time>2003-04-18T09:31:30.000Z</time>
      </trkpt>
      <trkpt lon="-2.2588700149208307" lat="42.94371002353728">
        <ele>751.4000244140625</ele>
        <time>2003-04-18T09:32:00.000Z</time>
      </trkpt>
      <trkpt lon="-2.2590199671685696" lat="42.94342998415232">
        <ele>747.5999755859375</ele>
        <time>2003-04-18T09:32:26.000Z</time>
      </trkpt>
      <trkpt lon="-2.2591898683458567" lat="42.94319998472929">
        <ele>742.4000244140625</ele>
        <time>2003-04-18T09:32:45.000Z</time>
      </trkpt>
      <trkpt lon="-2.25917000323534" lat="42.94309001415968">
        <ele>740.7999877929688</ele>
        <time>2003-04-18T09:32:59.000Z</time>
      </trkpt>
      <trkpt lon="-2.2590199671685696" lat="42.94305003248155">
        <ele>742.7999877929688</ele>
        <time>2003-04-18T09:33:07.000Z</time>
      </trkpt>
      <trkpt lon="-2.2589999344199896" lat="42.94305003248155">
        <ele>743.2000122070312</ele>
        <time>2003-04-18T09:33:08.000Z</time>
      </trkpt>
      <trkpt lon="-2.258659964427352" lat="42.94296001084149">
        <ele>748.0</ele>
        <time>2003-04-18T09:33:25.000Z</time>
      </trkpt>
      <trkpt lon="-2.258459972217679" lat="42.94275004416704">
        <ele>748.7999877929688</ele>
        <time>2003-04-18T09:33:43.000Z</time>
      </trkpt>
      <trkpt lon="-2.2584400232881308" lat="42.94262004084885">
        <ele>747.4000244140625</ele>
        <time>2003-04-18T09:33:51.000Z</time>
      </trkpt>
      <trkpt lon="-2.2585499100387096" lat="42.9424000158906">
        <ele>743.5999755859375</ele>
        <time>2003-04-18T09:34:05.000Z</time>
      </trkpt>
      <trkpt lon="-2.258679997175932" lat="42.94214000925422">
        <ele>740.4000244140625</ele>
        <time>2003-04-18T09:34:23.000Z</time>
      </trkpt>
      <trkpt lon="-2.25874001160264" lat="42.94181998819113">
        <ele>738.2000122070312</ele>
        <time>2003-04-18T09:34:44.000Z</time>
      </trkpt>
      <trkpt lon="-2.258889963850379" lat="42.9415899887681">
        <ele>731.5999755859375</ele>
        <time>2003-04-18T09:35:00.000Z</time>
      </trkpt>
      <trkpt lon="-2.2589999344199896" lat="42.94142000377178">
        <ele>726.0</ele>
        <time>2003-04-18T09:35:13.000Z</time>
      </trkpt>
      <trkpt lon="-2.2589999344199896" lat="42.94138999655843">
        <ele>725.5999755859375</ele>
        <time>2003-04-18T09:35:15.000Z</time>
      </trkpt>
      <trkpt lon="-2.2589999344199896" lat="42.94131003320217">
        <ele>724.5999755859375</ele>
        <time>2003-04-18T09:35:21.000Z</time>
      </trkpt>
      <trkpt lon="-2.2589799016714096" lat="42.94109000824392">
        <ele>722.7999877929688</ele>
        <time>2003-04-18T09:35:35.000Z</time>
      </trkpt>
      <trkpt lon="-2.258909996598959" lat="42.94086000882089">
        <ele>721.7999877929688</ele>
        <time>2003-04-18T09:35:50.000Z</time>
      </trkpt>
      <trkpt lon="-2.2588299494236708" lat="42.94066001661122">
        <ele>718.0</ele>
        <time>2003-04-18T09:36:03.000Z</time>
      </trkpt>
      <trkpt lon="-2.2586100082844496" lat="42.9404900316149">
        <ele>717.2000122070312</ele>
        <time>2003-04-18T09:36:19.000Z</time>
      </trkpt>
      <trkpt lon="-2.25831001996994" lat="42.94031996279955">
        <ele>716.5999755859375</ele>
        <time>2003-04-18T09:36:35.000Z</time>
      </trkpt>
      <trkpt lon="-2.258009947836399" lat="42.94023999944329">
        <ele>716.4000244140625</ele>
        <time>2003-04-18T09:36:47.000Z</time>
      </trkpt>
      <trkpt lon="-2.258009947836399" lat="42.94017001055181">
        <ele>713.5999755859375</ele>
        <time>2003-04-18T09:36:52.000Z</time>
      </trkpt>
      <trkpt lon="-2.258080020546913" lat="42.94007998891175">
        <ele>709.4000244140625</ele>
        <time>2003-04-18T09:36:58.000Z</time>
      </trkpt>
      <trkpt lon="-2.2581199184060097" lat="42.94001997448504">
        <ele>706.5999755859375</ele>
        <time>2003-04-18T09:37:04.000Z</time>
      </trkpt>
      <trkpt lon="-2.2581399511545897" lat="42.93997999280691">
        <ele>705.0</ele>
        <time>2003-04-18T09:37:07.000Z</time>
      </trkpt>
      <trkpt lon="-2.2582698706537485" lat="42.93984998948872">
        <ele>700.4000244140625</ele>
        <time>2003-04-18T09:37:17.000Z</time>
      </trkpt>
      <trkpt lon="-2.25831001996994" lat="42.93978000059724">
        <ele>698.4000244140625</ele>
        <time>2003-04-18T09:37:22.000Z</time>
      </trkpt>
      <trkpt lon="-2.258480004966259" lat="42.93961001560092">
        <ele>692.2000122070312</ele>
        <time>2003-04-18T09:37:36.000Z</time>
      </trkpt>
      <trkpt lon="-2.258510012179613" lat="42.93957003392279">
        <ele>691.0</ele>
        <time>2003-04-18T09:37:39.000Z</time>
      </trkpt>
      <trkpt lon="-2.258659964427352" lat="42.93941999785602">
        <ele>686.0</ele>
        <time>2003-04-18T09:37:53.000Z</time>
      </trkpt>
      <trkpt lon="-2.258659964427352" lat="42.93939996510744">
        <ele>685.5999755859375</ele>
        <time>2003-04-18T09:38:01.000Z</time>
      </trkpt>
      <trkpt lon="-2.258679997175932" lat="42.93939996510744">
        <ele>685.4000244140625</ele>
        <time>2003-04-18T09:38:17.000Z</time>
      </trkpt>
      <trkpt lon="-2.258659964427352" lat="42.93941999785602">
        <ele>686.0</ele>
        <time>2003-04-18T09:38:25.000Z</time>
      </trkpt>
      <trkpt lon="-2.25874001160264" lat="42.93932997621596">
        <ele>683.2000122070312</ele>
        <time>2003-04-18T09:38:32.000Z</time>
      </trkpt>
      <trkpt lon="-2.2589298617094755" lat="42.93909997679293">
        <ele>677.5999755859375</ele>
        <time>2003-04-18T09:38:48.000Z</time>
      </trkpt>
      <trkpt lon="-2.25914997048676" lat="42.93895002454519">
        <ele>674.7999877929688</ele>
        <time>2003-04-18T09:39:01.000Z</time>
      </trkpt>
      <trkpt lon="-2.259390028193593" lat="42.93883997015655">
        <ele>672.4000244140625</ele>
        <time>2003-04-18T09:39:14.000Z</time>
      </trkpt>
      <trkpt lon="-2.2594098933041096" lat="42.938820021227">
        <ele>672.2000122070312</ele>
        <time>2003-04-18T09:39:15.000Z</time>
      </trkpt>
      <trkpt lon="-2.2596398927271366" lat="42.93870996683836">
        <ele>670.5999755859375</ele>
        <time>2003-04-18T09:39:28.000Z</time>
      </trkpt>
      <trkpt lon="-2.2597099654376507" lat="42.93866998516023">
        <ele>670.2000122070312</ele>
        <time>2003-04-18T09:39:33.000Z</time>
      </trkpt>
      <trkpt lon="-2.2598999831825495" lat="42.93859999626875">
        <ele>669.5999755859375</ele>
        <time>2003-04-18T09:39:46.000Z</time>
      </trkpt>
      <trkpt lon="-2.2599599976092577" lat="42.93859999626875">
        <ele>669.4000244140625</ele>
        <time>2003-04-18T09:40:04.000Z</time>
      </trkpt>
      <trkpt lon="-2.259990004822612" lat="42.93859999626875">
        <ele>669.4000244140625</ele>
        <time>2003-04-18T09:40:09.000Z</time>
      </trkpt>
      <trkpt lon="-2.259809961542487" lat="42.9386300034821">
        <ele>669.7999877929688</ele>
        <time>2003-04-18T10:00:39.000Z</time>
      </trkpt>
      <trkpt lon="-2.2600698843598366" lat="42.93853998184204">
        <ele>668.7999877929688</ele>
        <time>2003-04-18T10:00:59.000Z</time>
      </trkpt>
      <trkpt lon="-2.26005001924932" lat="42.93852003291249">
        <ele>669.0</ele>
        <time>2003-04-18T10:01:04.000Z</time>
      </trkpt>
      <trkpt lon="-2.26005001924932" lat="42.93850000016391">
        <ele>669.0</ele>
        <time>2003-04-18T10:01:08.000Z</time>
      </trkpt>
      <trkpt lon="-2.2600899171084166" lat="42.93852003291249">
        <ele>668.7999877929688</ele>
        <time>2003-04-18T10:01:12.000Z</time>
      </trkpt>
      <trkpt lon="-2.2603899892419577" lat="42.9383900295943">
        <ele>667.5999755859375</ele>
        <time>2003-04-18T10:01:30.000Z</time>
      </trkpt>
      <trkpt lon="-2.260740017518401" lat="42.9382000118494">
        <ele>670.2000122070312</ele>
        <time>2003-04-18T10:01:51.000Z</time>
      </trkpt>
      <trkpt lon="-2.261079987511039" lat="42.93807000853121">
        <ele>672.2000122070312</ele>
        <time>2003-04-18T10:02:11.000Z</time>
      </trkpt>
      <trkpt lon="-2.26131996139884" lat="42.937900023534894">
        <ele>675.5999755859375</ele>
        <time>2003-04-18T10:02:28.000Z</time>
      </trkpt>
      <trkpt lon="-2.2616599313914776" lat="42.93767999857664">
        <ele>679.7999877929688</ele>
        <time>2003-04-18T10:02:51.000Z</time>
      </trkpt>
      <trkpt lon="-2.2618498653173447" lat="42.93751001358032">
        <ele>684.4000244140625</ele>
        <time>2003-04-18T10:03:06.000Z</time>
      </trkpt>
      <trkpt lon="-2.262050025165081" lat="42.93738001026213">
        <ele>687.5999755859375</ele>
        <time>2003-04-18T10:03:21.000Z</time>
      </trkpt>
      <trkpt lon="-2.262239959090948" lat="42.93725000694394">
        <ele>690.0</ele>
        <time>2003-04-18T10:03:34.000Z</time>
      </trkpt>
      <trkpt lon="-2.2623298969119787" lat="42.937150010839105">
        <ele>691.5999755859375</ele>
        <time>2003-04-18T10:03:46.000Z</time>
      </trkpt>
      <trkpt lon="-2.2623899951577187" lat="42.93705998919904">
        <ele>693.2000122070312</ele>
        <time>2003-04-18T10:03:53.000Z</time>
      </trkpt>
      <trkpt lon="-2.262669950723648" lat="42.93683996424079">
        <ele>698.2000122070312</ele>
        <time>2003-04-18T10:04:15.000Z</time>
      </trkpt>
      <trkpt lon="-2.262859968468547" lat="42.936569983139634">
        <ele>704.5999755859375</ele>
        <time>2003-04-18T10:04:35.000Z</time>
      </trkpt>
      <trkpt lon="-2.263119975104928" lat="42.93633000925183">
        <ele>708.4000244140625</ele>
        <time>2003-04-18T10:04:57.000Z</time>
      </trkpt>
      <trkpt lon="-2.2632299456745386" lat="42.93623998761177">
        <ele>709.0</ele>
        <time>2003-04-18T10:05:05.000Z</time>
      </trkpt>
      <trkpt lon="-2.2632700111716986" lat="42.93620000593364">
        <ele>709.2000122070312</ele>
        <time>2003-04-18T10:05:10.000Z</time>
      </trkpt>
      <trkpt lon="-2.2634198796004057" lat="42.936009988188744">
        <ele>710.7999877929688</ele>
        <time>2003-04-18T10:05:29.000Z</time>
      </trkpt>
      <trkpt lon="-2.263569999486208" lat="42.93574998155236">
        <ele>714.0</ele>
        <time>2003-04-18T10:05:52.000Z</time>
      </trkpt>
      <trkpt lon="-2.263779966160655" lat="42.93561997823417">
        <ele>718.4000244140625</ele>
        <time>2003-04-18T10:06:08.000Z</time>
      </trkpt>
      <trkpt lon="-2.264209957793355" lat="42.93566004373133">
        <ele>724.5999755859375</ele>
        <time>2003-04-18T10:06:30.000Z</time>
      </trkpt>
      <trkpt lon="-2.2645098622888327" lat="42.93566004373133">
        <ele>727.2000122070312</ele>
        <time>2003-04-18T10:06:46.000Z</time>
      </trkpt>
      <trkpt lon="-2.264659982174635" lat="42.93564001098275">
        <ele>728.7999877929688</ele>
        <time>2003-04-18T10:06:55.000Z</time>
      </trkpt>
      <trkpt lon="-2.2649598866701126" lat="42.935579996556044">
        <ele>732.2000122070312</ele>
        <time>2003-04-18T10:07:13.000Z</time>
      </trkpt>
      <trkpt lon="-2.2650299593806267" lat="42.935559963807464">
        <ele>733.4000244140625</ele>
        <time>2003-04-18T10:07:17.000Z</time>
      </trkpt>
      <trkpt lon="-2.265289966017008" lat="42.93548997491598">
        <ele>737.4000244140625</ele>
        <time>2003-04-18T10:07:36.000Z</time>
      </trkpt>
      <trkpt lon="-2.2654599510133266" lat="42.935430044308305">
        <ele>739.7999877929688</ele>
        <time>2003-04-18T10:07:50.000Z</time>
      </trkpt>
      <trkpt lon="-2.265539998188615" lat="42.93535997159779">
        <ele>741.2000122070312</ele>
        <time>2003-04-18T10:08:12.000Z</time>
      </trkpt>
      <trkpt lon="-2.265589954331517" lat="42.93531998991966">
        <ele>741.7999877929688</ele>
        <time>2003-04-18T10:08:19.000Z</time>
      </trkpt>
      <trkpt lon="-2.2656498849391937" lat="42.935280008241534">
        <ele>742.4000244140625</ele>
        <time>2003-04-18T10:08:23.000Z</time>
      </trkpt>
      <trkpt lon="-2.265719957649708" lat="42.935240026563406">
        <ele>743.2000122070312</ele>
        <time>2003-04-18T10:08:31.000Z</time>
      </trkpt>
      <trkpt lon="-2.2659099753946066" lat="42.93504003435373">
        <ele>746.0</ele>
        <time>2003-04-18T10:08:51.000Z</time>
      </trkpt>
      <trkpt lon="-2.265969989821315" lat="42.93499996885657">
        <ele>747.4000244140625</ele>
        <time>2003-04-18T10:08:58.000Z</time>
      </trkpt>
      <trkpt lon="-2.2660999093204737" lat="42.93491003103554">
        <ele>751.7999877929688</ele>
        <time>2003-04-18T10:09:15.000Z</time>
      </trkpt>
      <trkpt lon="-2.2661399748176336" lat="42.93491003103554">
        <ele>752.7999877929688</ele>
        <time>2003-04-18T10:09:20.000Z</time>
      </trkpt>
      <trkpt lon="-2.2662498615682125" lat="42.93486996553838">
        <ele>755.5999755859375</ele>
        <time>2003-04-18T10:09:30.000Z</time>
      </trkpt>
      <trkpt lon="-2.266290010884404" lat="42.93473996222019">
        <ele>757.5999755859375</ele>
        <time>2003-04-18T10:09:42.000Z</time>
      </trkpt>
      <trkpt lon="-2.2663199342787266" lat="42.93462999165058">
        <ele>758.7999877929688</ele>
        <time>2003-04-18T10:09:57.000Z</time>
      </trkpt>
      <trkpt lon="-2.266450021415949" lat="42.93448003940284">
        <ele>761.4000244140625</ele>
        <time>2003-04-18T10:10:13.000Z</time>
      </trkpt>
      <trkpt lon="-2.266659988090396" lat="42.934269988909364">
        <ele>763.2000122070312</ele>
        <time>2003-04-18T10:10:34.000Z</time>
      </trkpt>
      <trkpt lon="-2.266919994726777" lat="42.93406002223492">
        <ele>770.2000122070312</ele>
        <time>2003-04-18T10:10:56.000Z</time>
      </trkpt>
      <trkpt lon="-2.267110012471676" lat="42.933839997276664">
        <ele>776.7999877929688</ele>
        <time>2003-04-18T10:11:16.000Z</time>
      </trkpt>
      <trkpt lon="-2.2674299497157335" lat="42.933670012280345">
        <ele>780.5999755859375</ele>
        <time>2003-04-18T10:11:39.000Z</time>
      </trkpt>
      <trkpt lon="-2.2677300218492746" lat="42.933500027284026">
        <ele>784.2000122070312</ele>
        <time>2003-04-18T10:12:01.000Z</time>
      </trkpt>
      <trkpt lon="-2.267969995737076" lat="42.93325996957719">
        <ele>787.0</ele>
        <time>2003-04-18T10:12:22.000Z</time>
      </trkpt>
      <trkpt lon="-2.268379954621196" lat="42.933089984580874">
        <ele>792.2000122070312</ele>
        <time>2003-04-18T10:12:44.000Z</time>
      </trkpt>
      <trkpt lon="-2.2685499396175146" lat="42.932919999584556">
        <ele>796.4000244140625</ele>
        <time>2003-04-18T10:13:00.000Z</time>
      </trkpt>
      <trkpt lon="-2.268680026754737" lat="42.932680025696754">
        <ele>798.4000244140625</ele>
        <time>2003-04-18T10:13:20.000Z</time>
      </trkpt>
      <trkpt lon="-2.268889993429184" lat="42.932469975203276">
        <ele>798.7999877929688</ele>
        <time>2003-04-18T10:13:40.000Z</time>
      </trkpt>
      <trkpt lon="-2.2691898979246616" lat="42.932339971885085">
        <ele>800.7999877929688</ele>
        <time>2003-04-18T10:13:58.000Z</time>
      </trkpt>
      <trkpt lon="-2.269359966740012" lat="42.932230001315475">
        <ele>804.4000244140625</ele>
        <time>2003-04-18T10:14:11.000Z</time>
      </trkpt>
      <trkpt lon="-2.269540010020137" lat="42.932079965248704">
        <ele>808.2000122070312</ele>
        <time>2003-04-18T10:14:29.000Z</time>
      </trkpt>
      <trkpt lon="-2.269809991121292" lat="42.93202003464103">
        <ele>811.4000244140625</ele>
        <time>2003-04-18T10:14:48.000Z</time>
      </trkpt>
      <trkpt lon="-2.2701099794358015" lat="42.93202003464103">
        <ele>813.4000244140625</ele>
        <time>2003-04-18T10:15:08.000Z</time>
      </trkpt>
      <trkpt lon="-2.2703299205750227" lat="42.932039983570576">
        <ele>813.7999877929688</ele>
        <time>2003-04-18T10:15:21.000Z</time>
      </trkpt>
      <trkpt lon="-2.270629992708564" lat="42.932060016319156">
        <ele>814.7999877929688</ele>
        <time>2003-04-18T10:15:40.000Z</time>
      </trkpt>
      <trkpt lon="-2.2707398794591427" lat="42.932039983570576">
        <ele>815.2000122070312</ele>
        <time>2003-04-18T10:15:46.000Z</time>
      </trkpt>
      <trkpt lon="-2.2711698710918427" lat="42.932079965248704">
        <ele>817.2000122070312</ele>
        <time>2003-04-18T10:16:08.000Z</time>
      </trkpt>
      <trkpt lon="-2.271549990400672" lat="42.93215003795922">
        <ele>818.7999877929688</ele>
        <time>2003-04-18T10:16:31.000Z</time>
      </trkpt>
      <trkpt lon="-2.2717199753969908" lat="42.932230001315475">
        <ele>819.5999755859375</ele>
        <time>2003-04-18T10:16:48.000Z</time>
      </trkpt>
      <trkpt lon="-2.271789964288473" lat="42.932250034064054">
        <ele>820.5999755859375</ele>
        <time>2003-04-18T10:16:53.000Z</time>
      </trkpt>
      <trkpt lon="-2.2718498948961496" lat="42.932230001315475">
        <ele>821.4000244140625</ele>
        <time>2003-04-18T10:16:58.000Z</time>
      </trkpt>
      <trkpt lon="-2.271959949284792" lat="42.932250034064054">
        <ele>822.7999877929688</ele>
        <time>2003-04-18T10:17:08.000Z</time>
      </trkpt>
      <trkpt lon="-2.2721300181001425" lat="42.932230001315475">
        <ele>825.0</ele>
        <time>2003-04-18T10:17:23.000Z</time>
      </trkpt>
      <trkpt lon="-2.272219955921173" lat="42.932209968566895">
        <ele>826.4000244140625</ele>
        <time>2003-04-18T10:17:32.000Z</time>
      </trkpt>
      <trkpt lon="-2.27246998809278" lat="42.93215003795922">
        <ele>830.2000122070312</ele>
        <time>2003-04-18T10:17:53.000Z</time>
      </trkpt>
      <trkpt lon="-2.2725799586623907" lat="42.932120030745864">
        <ele>831.5999755859375</ele>
        <time>2003-04-18T10:18:01.000Z</time>
      </trkpt>
      <trkpt lon="-2.2725799586623907" lat="42.932099997997284">
        <ele>831.7999877929688</ele>
        <time>2003-04-18T10:18:02.000Z</time>
      </trkpt>
      <trkpt lon="-2.272649947553873" lat="42.932099997997284">
        <ele>832.5999755859375</ele>
        <time>2003-04-18T10:18:07.000Z</time>
      </trkpt>
      <trkpt lon="-2.272669980302453" lat="42.932099997997284">
        <ele>832.7999877929688</ele>
        <time>2003-04-18T10:18:09.000Z</time>
      </trkpt>
      <trkpt lon="-2.272950019687414" lat="42.93200000189245">
        <ele>836.7999877929688</ele>
        <time>2003-04-18T10:18:30.000Z</time>
      </trkpt>
      <trkpt lon="-2.272950019687414" lat="42.93196999467909">
        <ele>837.0</ele>
        <time>2003-04-18T10:18:31.000Z</time>
      </trkpt>
      <trkpt lon="-2.2730500157922506" lat="42.931909980252385">
        <ele>838.5999755859375</ele>
        <time>2003-04-18T10:18:43.000Z</time>
      </trkpt>
      <trkpt lon="-2.2730800230056047" lat="42.93189003132284">
        <ele>839.2000122070312</ele>
        <time>2003-04-18T10:18:44.000Z</time>
      </trkpt>
      <trkpt lon="-2.273099971935153" lat="42.93186999857426">
        <ele>839.5999755859375</ele>
        <time>2003-04-18T10:18:48.000Z</time>
      </trkpt>
      <trkpt lon="-2.2732299752533436" lat="42.931779976934195">
        <ele>841.7999877929688</ele>
        <time>2003-04-18T10:19:03.000Z</time>
      </trkpt>
      <trkpt lon="-2.27332997135818" lat="42.931719962507486">
        <ele>843.5999755859375</ele>
        <time>2003-04-18T10:19:15.000Z</time>
      </trkpt>
      <trkpt lon="-2.27335000410676" lat="42.931690039113164">
        <ele>843.7999877929688</ele>
        <time>2003-04-18T10:19:16.000Z</time>
      </trkpt>
      <trkpt lon="-2.2733998764306307" lat="42.931670006364584">
        <ele>843.7999877929688</ele>
        <time>2003-04-18T10:19:21.000Z</time>
      </trkpt>
      <trkpt lon="-2.273549996316433" lat="42.93157001025975">
        <ele>842.0</ele>
        <time>2003-04-18T10:19:38.000Z</time>
      </trkpt>
      <trkpt lon="-2.2736499086022377" lat="42.93146003969014">
        <ele>839.7999877929688</ele>
        <time>2003-04-18T10:20:05.000Z</time>
      </trkpt>
      <trkpt lon="-2.2736799996346235" lat="42.93144000694156">
        <ele>839.4000244140625</ele>
        <time>2003-04-18T10:20:07.000Z</time>
      </trkpt>
      <trkpt lon="-2.27375996299088" lat="42.931349985301495">
        <ele>837.4000244140625</ele>
        <time>2003-04-18T10:20:16.000Z</time>
      </trkpt>
      <trkpt lon="-2.2741099912673235" lat="42.931370018050075">
        <ele>836.4000244140625</ele>
        <time>2003-04-18T10:20:33.000Z</time>
      </trkpt>
      <trkpt lon="-2.2742798924446106" lat="42.93138996697962">
        <ele>835.7999877929688</ele>
        <time>2003-04-18T10:20:43.000Z</time>
      </trkpt>
      <trkpt lon="-2.274409979581833" lat="42.93138996697962">
        <ele>834.7999877929688</ele>
        <time>2003-04-18T10:20:51.000Z</time>
      </trkpt>
      <trkpt lon="-2.2745999973267317" lat="42.93138996697962">
        <ele>833.2000122070312</ele>
        <time>2003-04-18T10:21:01.000Z</time>
      </trkpt>
      <trkpt lon="-2.274920018389821" lat="42.93138996697962">
        <ele>830.5999755859375</ele>
        <time>2003-04-18T10:21:16.000Z</time>
      </trkpt>
      <trkpt lon="-2.2749899234622717" lat="42.93138996697962">
        <ele>830.2000122070312</ele>
        <time>2003-04-18T10:21:19.000Z</time>
      </trkpt>
      <trkpt lon="-2.2751599084585905" lat="42.931370018050075">
        <ele>830.0</ele>
        <time>2003-04-18T10:21:31.000Z</time>
      </trkpt>
      <trkpt lon="-2.275780001655221" lat="42.93138996697962">
        <ele>831.7999877929688</ele>
        <time>2003-04-18T10:22:06.000Z</time>
      </trkpt>
      <trkpt lon="-2.276270007714629" lat="42.93144000694156">
        <ele>837.5999755859375</ele>
        <time>2003-04-18T10:22:30.000Z</time>
      </trkpt>
      <trkpt lon="-2.2765900287777185" lat="42.93144000694156">
        <ele>840.7999877929688</ele>
        <time>2003-04-18T10:22:48.000Z</time>
      </trkpt>
      <trkpt lon="-2.2767900209873915" lat="42.931310003623366">
        <ele>842.2000122070312</ele>
        <time>2003-04-18T10:23:05.000Z</time>
      </trkpt>
      <trkpt lon="-2.2768099699169397" lat="42.931219981983304">
        <ele>841.5999755859375</ele>
        <time>2003-04-18T10:23:15.000Z</time>
      </trkpt>
      <trkpt lon="-2.2768300026655197" lat="42.931180000305176">
        <ele>841.4000244140625</ele>
        <time>2003-04-18T10:23:19.000Z</time>
      </trkpt>
      <trkpt lon="-2.276920024305582" lat="42.93108997866511">
        <ele>842.0</ele>
        <time>2003-04-18T10:23:31.000Z</time>
      </trkpt>
      <trkpt lon="-2.2769999876618385" lat="42.93098998256028">
        <ele>842.2000122070312</ele>
        <time>2003-04-18T10:23:44.000Z</time>
      </trkpt>
      <trkpt lon="-2.2770200204104185" lat="42.930789990350604">
        <ele>840.5999755859375</ele>
        <time>2003-04-18T10:24:03.000Z</time>
      </trkpt>
      <trkpt lon="-2.277090009301901" lat="42.930599972605705">
        <ele>839.4000244140625</ele>
        <time>2003-04-18T10:24:20.000Z</time>
      </trkpt>
      <trkpt lon="-2.277129990980029" lat="42.930469969287515">
        <ele>838.2000122070312</ele>
        <time>2003-04-18T10:24:32.000Z</time>
      </trkpt>
      <trkpt lon="-2.2771999798715115" lat="42.930469969287515">
        <ele>839.0</ele>
        <time>2003-04-18T10:24:36.000Z</time>
      </trkpt>
      <trkpt lon="-2.2772199288010597" lat="42.930490002036095">
        <ele>839.4000244140625</ele>
        <time>2003-04-18T10:24:40.000Z</time>
      </trkpt>
      <trkpt lon="-2.277320008724928" lat="42.930640038102865">
        <ele>842.7999877929688</ele>
        <time>2003-04-18T10:24:55.000Z</time>
      </trkpt>
      <trkpt lon="-2.2774299792945385" lat="42.930859979242086">
        <ele>848.2000122070312</ele>
        <time>2003-04-18T10:25:14.000Z</time>
      </trkpt>
      <trkpt lon="-2.277580015361309" lat="42.93101001530886">
        <ele>852.2000122070312</ele>
        <time>2003-04-18T10:25:32.000Z</time>
      </trkpt>
      <trkpt lon="-2.2775998804718256" lat="42.931029964238405">
        <ele>852.7999877929688</ele>
        <time>2003-04-18T10:25:35.000Z</time>
      </trkpt>
      <trkpt lon="-2.2776199132204056" lat="42.931049996986985">
        <ele>853.4000244140625</ele>
        <time>2003-04-18T10:25:37.000Z</time>
      </trkpt>
      <trkpt lon="-2.2776199132204056" lat="42.931070029735565">
        <ele>853.7999877929688</ele>
        <time>2003-04-18T10:25:39.000Z</time>
      </trkpt>
      <trkpt lon="-2.277750000357628" lat="42.931219981983304">
        <ele>858.4000244140625</ele>
        <time>2003-04-18T10:25:54.000Z</time>
      </trkpt>
      <trkpt lon="-2.2777998726814985" lat="42.93127002194524">
        <ele>860.2000122070312</ele>
        <time>2003-04-18T10:26:01.000Z</time>
      </trkpt>
      <trkpt lon="-2.2778999526053667" lat="42.931370018050075">
        <ele>864.0</ele>
        <time>2003-04-18T10:26:16.000Z</time>
      </trkpt>
      <trkpt lon="-2.2779700253158808" lat="42.93141997419298">
        <ele>866.4000244140625</ele>
        <time>2003-04-18T10:26:24.000Z</time>
      </trkpt>
      <trkpt lon="-2.2780799120664597" lat="42.93146003969014">
        <ele>869.7999877929688</ele>
        <time>2003-04-18T10:26:38.000Z</time>
      </trkpt>
      <trkpt lon="-2.278159959241748" lat="42.931500021368265">
        <ele>872.5999755859375</ele>
        <time>2003-04-18T10:26:46.000Z</time>
      </trkpt>
      <trkpt lon="-2.27822994813323" lat="42.93159004300833">
        <ele>876.4000244140625</ele>
        <time>2003-04-18T10:26:59.000Z</time>
      </trkpt>
      <trkpt lon="-2.27827001363039" lat="42.931670006364584">
        <ele>879.2000122070312</ele>
        <time>2003-04-18T10:27:08.000Z</time>
      </trkpt>
      <trkpt lon="-2.2783499769866467" lat="42.931779976934195">
        <ele>881.4000244140625</ele>
        <time>2003-04-18T10:27:21.000Z</time>
      </trkpt>
      <trkpt lon="-2.2784598637372255" lat="42.931909980252385">
        <ele>883.0</ele>
        <time>2003-04-18T10:27:38.000Z</time>
      </trkpt>
      <trkpt lon="-2.278500013053417" lat="42.93196999467909">
        <ele>883.5999755859375</ele>
        <time>2003-04-18T10:27:43.000Z</time>
      </trkpt>
      <trkpt lon="-2.278649965301156" lat="42.932099997997284">
        <ele>886.2000122070312</ele>
        <time>2003-04-18T10:27:56.000Z</time>
      </trkpt>
      <trkpt lon="-2.2789498697966337" lat="42.932209968566895">
        <ele>891.0</ele>
        <time>2003-04-18T10:28:15.000Z</time>
      </trkpt>
      <trkpt lon="-2.279359996318817" lat="42.932360004633665">
        <ele>892.5999755859375</ele>
        <time>2003-04-18T10:28:38.000Z</time>
      </trkpt>
      <trkpt lon="-2.2796199191361666" lat="42.932599978521466">
        <ele>891.2000122070312</ele>
        <time>2003-04-18T10:29:00.000Z</time>
      </trkpt>
      <trkpt lon="-2.2798298858106136" lat="42.93282997794449">
        <ele>890.7999877929688</ele>
        <time>2003-04-18T10:29:19.000Z</time>
      </trkpt>
      <trkpt lon="-2.2800499107688665" lat="42.933070035651326">
        <ele>892.4000244140625</ele>
        <time>2003-04-18T10:29:39.000Z</time>
      </trkpt>
      <trkpt lon="-2.2800499107688665" lat="42.933070035651326">
        <ele>892.4000244140625</ele>
        <time>2003-04-18T10:29:40.000Z</time>
      </trkpt>
      <trkpt lon="-2.280389964580536" lat="42.93314999900758">
        <ele>893.5999755859375</ele>
        <time>2003-04-18T10:30:03.000Z</time>
      </trkpt>
      <trkpt lon="-2.28044000454247" lat="42.93318000622094">
        <ele>894.0</ele>
        <time>2003-04-18T10:30:07.000Z</time>
      </trkpt>
      <trkpt lon="-2.280589956790209" lat="42.933219987899065">
        <ele>895.0</ele>
        <time>2003-04-18T10:30:22.000Z</time>
      </trkpt>
      <trkpt lon="-2.280609989538789" lat="42.933219987899065">
        <ele>895.0</ele>
        <time>2003-04-18T10:30:23.000Z</time>
      </trkpt>
      <trkpt lon="-2.2809498757123947" lat="42.93328000232577">
        <ele>898.2000122070312</ele>
        <time>2003-04-18T10:30:45.000Z</time>
      </trkpt>
      <trkpt lon="-2.281269980594516" lat="42.933389972895384">
        <ele>903.2000122070312</ele>
        <time>2003-04-18T10:31:04.000Z</time>
      </trkpt>
      <trkpt lon="-2.281569968909025" lat="42.933479994535446">
        <ele>907.0</ele>
        <time>2003-04-18T10:31:22.000Z</time>
      </trkpt>
      <trkpt lon="-2.2819199971854687" lat="42.933560041710734">
        <ele>912.2000122070312</ele>
        <time>2003-04-18T10:31:42.000Z</time>
      </trkpt>
      <trkpt lon="-2.281999960541725" lat="42.93357999064028">
        <ele>913.5999755859375</ele>
        <time>2003-04-18T10:31:50.000Z</time>
      </trkpt>
      <trkpt lon="-2.2820899821817875" lat="42.93360002338886">
        <ele>915.0</ele>
        <time>2003-04-18T10:31:55.000Z</time>
      </trkpt>
      <trkpt lon="-2.2823499888181686" lat="42.933670012280345">
        <ele>919.5999755859375</ele>
        <time>2003-04-18T10:32:14.000Z</time>
      </trkpt>
      <trkpt lon="-2.282500024884939" lat="42.93373002670705">
        <ele>922.4000244140625</ele>
        <time>2003-04-18T10:32:29.000Z</time>
      </trkpt>
      <trkpt lon="-2.2826000209897757" lat="42.9337499756366">
        <ele>922.7999877929688</ele>
        <time>2003-04-18T10:32:40.000Z</time>
      </trkpt>
      <trkpt lon="-2.2827499732375145" lat="42.933800015598536">
        <ele>924.0</ele>
        <time>2003-04-18T10:32:54.000Z</time>
      </trkpt>
      <trkpt lon="-2.282839994877577" lat="42.933779982849956">
        <ele>924.0</ele>
        <time>2003-04-18T10:33:04.000Z</time>
      </trkpt>
      <trkpt lon="-2.2829498816281557" lat="42.933800015598536">
        <ele>924.7999877929688</ele>
        <time>2003-04-18T10:33:19.000Z</time>
      </trkpt>
      <trkpt lon="-2.2830099798738956" lat="42.933860030025244">
        <ele>926.0</ele>
        <time>2003-04-18T10:33:29.000Z</time>
      </trkpt>
      <trkpt lon="-2.2830300126224756" lat="42.933860030025244">
        <ele>926.0</ele>
        <time>2003-04-18T10:33:30.000Z</time>
      </trkpt>
      <trkpt lon="-2.283100001513958" lat="42.933909986168146">
        <ele>927.2000122070312</ele>
        <time>2003-04-18T10:33:39.000Z</time>
      </trkpt>
      <trkpt lon="-2.283309968188405" lat="42.934120036661625">
        <ele>932.7999877929688</ele>
        <time>2003-04-18T10:34:00.000Z</time>
      </trkpt>
      <trkpt lon="-2.283569974824786" lat="42.934290021657944">
        <ele>932.5999755859375</ele>
        <time>2003-04-18T10:34:18.000Z</time>
      </trkpt>
      <trkpt lon="-2.283739959821105" lat="42.93448003940284">
        <ele>933.4000244140625</ele>
        <time>2003-04-18T10:34:36.000Z</time>
      </trkpt>
      <trkpt lon="-2.2838298976421356" lat="42.934550028294325">
        <ele>934.2000122070312</ele>
        <time>2003-04-18T10:34:45.000Z</time>
      </trkpt>
      <trkpt lon="-2.2838899958878756" lat="42.93456997722387">
        <ele>934.7999877929688</ele>
        <time>2003-04-18T10:34:49.000Z</time>
      </trkpt>
      <trkpt lon="-2.283950010314584" lat="42.93462999165058">
        <ele>935.7999877929688</ele>
        <time>2003-04-18T10:34:59.000Z</time>
      </trkpt>
      <trkpt lon="-2.283980017527938" lat="42.934680031612515">
        <ele>936.5999755859375</ele>
        <time>2003-04-18T10:35:05.000Z</time>
      </trkpt>
      <trkpt lon="-2.2840398643165827" lat="42.93475999496877">
        <ele>938.2000122070312</ele>
        <time>2003-04-18T10:35:15.000Z</time>
      </trkpt>
      <trkpt lon="-2.2841500025242567" lat="42.934850016608834">
        <ele>941.0</ele>
        <time>2003-04-18T10:35:29.000Z</time>
      </trkpt>
      <trkpt lon="-2.2841500025242567" lat="42.934850016608834">
        <ele>941.0</ele>
        <time>2003-04-18T10:35:30.000Z</time>
      </trkpt>
      <trkpt lon="-2.284229965880513" lat="42.93491003103554">
        <ele>942.2000122070312</ele>
        <time>2003-04-18T10:35:41.000Z</time>
      </trkpt>
      <trkpt lon="-2.2843599691987038" lat="42.93499996885657">
        <ele>943.5999755859375</ele>
        <time>2003-04-18T10:35:54.000Z</time>
      </trkpt>
      <trkpt lon="-2.284410009160638" lat="42.93505998328328">
        <ele>941.5999755859375</ele>
        <time>2003-04-18T10:36:05.000Z</time>
      </trkpt>
      <trkpt lon="-2.284449990838766" lat="42.935089990496635">
        <ele>940.5999755859375</ele>
        <time>2003-04-18T10:36:11.000Z</time>
      </trkpt>
      <trkpt lon="-2.2844898886978626" lat="42.935150004923344">
        <ele>938.5999755859375</ele>
        <time>2003-04-18T10:36:26.000Z</time>
      </trkpt>
      <trkpt lon="-2.284470023587346" lat="42.935150004923344">
        <ele>938.5999755859375</ele>
        <time>2003-04-18T10:36:47.000Z</time>
      </trkpt>
      <trkpt lon="-2.284470023587346" lat="42.935129972174764">
        <ele>939.2000122070312</ele>
        <time>2003-04-18T10:37:56.000Z</time>
      </trkpt>
      <trkpt lon="-2.2845599614083767" lat="42.935150004923344">
        <ele>938.5999755859375</ele>
        <time>2003-04-18T10:38:03.000Z</time>
      </trkpt>
      <trkpt lon="-2.2846000269055367" lat="42.935150004923344">
        <ele>938.5999755859375</ele>
        <time>2003-04-18T10:38:07.000Z</time>
      </trkpt>
      <trkpt lon="-2.2847899608314037" lat="42.935129972174764">
        <ele>939.0</ele>
        <time>2003-04-18T10:38:18.000Z</time>
      </trkpt>
      <trkpt lon="-2.284900015220046" lat="42.935129972174764">
        <ele>939.0</ele>
        <time>2003-04-18T10:38:25.000Z</time>
      </trkpt>
      <trkpt lon="-2.2849799785763025" lat="42.935129972174764">
        <ele>938.7999877929688</ele>
        <time>2003-04-18T10:38:31.000Z</time>
      </trkpt>
      <trkpt lon="-2.2850099857896566" lat="42.935129972174764">
        <ele>938.7999877929688</ele>
        <time>2003-04-18T10:38:34.000Z</time>
      </trkpt>
      <trkpt lon="-2.2851799707859755" lat="42.935129972174764">
        <ele>938.5999755859375</ele>
        <time>2003-04-18T10:38:43.000Z</time>
      </trkpt>
      <trkpt lon="-2.2856098785996437" lat="42.935089990496635">
        <ele>938.2000122070312</ele>
        <time>2003-04-18T10:39:02.000Z</time>
      </trkpt>
      <trkpt lon="-2.285909950733185" lat="42.93504003435373">
        <ele>939.0</ele>
        <time>2003-04-18T10:39:17.000Z</time>
      </trkpt>
      <trkpt lon="-2.2860599029809237" lat="42.93499996885657">
        <ele>940.4000244140625</ele>
        <time>2003-04-18T10:39:25.000Z</time>
      </trkpt>
      <trkpt lon="-2.286210022866726" lat="42.9349400382489">
        <ele>939.4000244140625</ele>
        <time>2003-04-18T10:39:37.000Z</time>
      </trkpt>
      <trkpt lon="-2.2865700256079435" lat="42.934980019927025">
        <ele>942.7999877929688</ele>
        <time>2003-04-18T10:39:57.000Z</time>
      </trkpt>
      <trkpt lon="-2.2869799844920635" lat="42.935150004923344">
        <ele>941.4000244140625</ele>
        <time>2003-04-18T10:40:21.000Z</time>
      </trkpt>
      <trkpt lon="-2.2872199583798647" lat="42.93531998991966">
        <ele>940.2000122070312</ele>
        <time>2003-04-18T10:40:38.000Z</time>
      </trkpt>
      <trkpt lon="-2.2875999100506306" lat="42.935430044308305">
        <ele>939.0</ele>
        <time>2003-04-18T10:40:58.000Z</time>
      </trkpt>
      <trkpt lon="-2.2879200149327517" lat="42.935559963807464">
        <ele>936.5999755859375</ele>
        <time>2003-04-18T10:41:15.000Z</time>
      </trkpt>
      <trkpt lon="-2.288220003247261" lat="42.93566004373133">
        <ele>935.4000244140625</ele>
        <time>2003-04-18T10:41:30.000Z</time>
      </trkpt>
      <trkpt lon="-2.288589980453253" lat="42.93578996323049">
        <ele>934.4000244140625</ele>
        <time>2003-04-18T10:41:50.000Z</time>
      </trkpt>
      <trkpt lon="-2.288849987089634" lat="42.93590001761913">
        <ele>932.2000122070312</ele>
        <time>2003-04-18T10:42:06.000Z</time>
      </trkpt>
      <trkpt lon="-2.28924997150898" lat="42.935990039259195">
        <ele>929.2000122070312</ele>
        <time>2003-04-18T10:42:25.000Z</time>
      </trkpt>
      <trkpt lon="-2.289709970355034" lat="42.93607000261545">
        <ele>927.2000122070312</ele>
        <time>2003-04-18T10:42:46.000Z</time>
      </trkpt>
      <trkpt lon="-2.2900299075990915" lat="42.93607000261545">
        <ele>925.7999877929688</ele>
        <time>2003-04-18T10:43:01.000Z</time>
      </trkpt>
      <trkpt lon="-2.290180027484894" lat="42.93609003536403">
        <ele>925.2000122070312</ele>
        <time>2003-04-18T10:43:08.000Z</time>
      </trkpt>
      <trkpt lon="-2.2905199136584997" lat="42.936160024255514">
        <ele>924.5999755859375</ele>
        <time>2003-04-18T10:43:25.000Z</time>
      </trkpt>
      <trkpt lon="-2.290799953043461" lat="42.936160024255514">
        <ele>922.5999755859375</ele>
        <time>2003-04-18T10:43:40.000Z</time>
      </trkpt>
      <trkpt lon="-2.291079992428422" lat="42.93620000593364">
        <ele>919.4000244140625</ele>
        <time>2003-04-18T10:43:54.000Z</time>
      </trkpt>
      <trkpt lon="-2.2911599557846785" lat="42.93620000593364">
        <ele>918.0</ele>
        <time>2003-04-18T10:43:58.000Z</time>
      </trkpt>
      <trkpt lon="-2.29154996573925" lat="42.936290027573705">
        <ele>914.4000244140625</ele>
        <time>2003-04-18T10:44:16.000Z</time>
      </trkpt>
      <trkpt lon="-2.2916600201278925" lat="42.93633000925183">
        <ele>914.0</ele>
        <time>2003-04-18T10:44:22.000Z</time>
      </trkpt>
      <trkpt lon="-2.2918900195509195" lat="42.93630997650325">
        <ele>909.5999755859375</ele>
        <time>2003-04-18T10:44:35.000Z</time>
      </trkpt>
      <trkpt lon="-2.2920699790120125" lat="42.93633000925183">
        <ele>907.4000244140625</ele>
        <time>2003-04-18T10:44:44.000Z</time>
      </trkpt>
      <trkpt lon="-2.2922599129378796" lat="42.93630997650325">
        <ele>903.5999755859375</ele>
        <time>2003-04-18T10:44:53.000Z</time>
      </trkpt>
      <trkpt lon="-2.2923200111836195" lat="42.93630997650325">
        <ele>902.7999877929688</ele>
        <time>2003-04-18T10:44:57.000Z</time>
      </trkpt>
      <trkpt lon="-2.2925800178200006" lat="42.936269994825125">
        <ele>897.4000244140625</ele>
        <time>2003-04-18T10:45:08.000Z</time>
      </trkpt>
      <trkpt lon="-2.292840024456382" lat="42.93623998761177">
        <ele>892.4000244140625</ele>
        <time>2003-04-18T10:45:21.000Z</time>
      </trkpt>
      <trkpt lon="-2.2929899767041206" lat="42.93617997318506">
        <ele>888.5999755859375</ele>
        <time>2003-04-18T10:45:28.000Z</time>
      </trkpt>
      <trkpt lon="-2.293029958382249" lat="42.936160024255514">
        <ele>887.4000244140625</ele>
        <time>2003-04-18T10:45:31.000Z</time>
      </trkpt>
      <trkpt lon="-2.2931799106299877" lat="42.936120042577386">
        <ele>884.4000244140625</ele>
        <time>2003-04-18T10:45:38.000Z</time>
      </trkpt>
      <trkpt lon="-2.2931999433785677" lat="42.936120042577386">
        <ele>884.0</ele>
        <time>2003-04-18T10:45:39.000Z</time>
      </trkpt>
      <trkpt lon="-2.2933699283748865" lat="42.936139991506934">
        <ele>881.7999877929688</ele>
        <time>2003-04-18T10:45:48.000Z</time>
      </trkpt>
      <trkpt lon="-2.293500015512109" lat="42.936139991506934">
        <ele>879.0</ele>
        <time>2003-04-18T10:45:54.000Z</time>
      </trkpt>
      <trkpt lon="-2.2937000077217817" lat="42.936160024255514">
        <ele>875.0</ele>
        <time>2003-04-18T10:46:04.000Z</time>
      </trkpt>
      <trkpt lon="-2.293949956074357" lat="42.93617997318506">
        <ele>870.0</ele>
        <time>2003-04-18T10:46:17.000Z</time>
      </trkpt>
      <trkpt lon="-2.2941299993544817" lat="42.93620000593364">
        <ele>866.2000122070312</ele>
        <time>2003-04-18T10:46:25.000Z</time>
      </trkpt>
      <trkpt lon="-2.294229995459318" lat="42.936269994825125">
        <ele>865.4000244140625</ele>
        <time>2003-04-18T10:46:43.000Z</time>
      </trkpt>
      <trkpt lon="-2.294250028207898" lat="42.93623998761177">
        <ele>864.5999755859375</ele>
        <time>2003-04-18T10:48:58.000Z</time>
      </trkpt>
      <trkpt lon="-2.2945299837738276" lat="42.93622003868222">
        <ele>860.5999755859375</ele>
        <time>2003-04-18T10:49:10.000Z</time>
      </trkpt>
      <trkpt lon="-2.29504999704659" lat="42.93620000593364">
        <ele>853.5999755859375</ele>
        <time>2003-04-18T10:49:34.000Z</time>
      </trkpt>
      <trkpt lon="-2.29550002142787" lat="42.93617997318506">
        <ele>851.7999877929688</ele>
        <time>2003-04-18T10:49:54.000Z</time>
      </trkpt>
      <trkpt lon="-2.295519970357418" lat="42.93617997318506">
        <ele>851.5999755859375</ele>
        <time>2003-04-18T10:49:55.000Z</time>
      </trkpt>
      <trkpt lon="-2.295990027487278" lat="42.936139991506934">
        <ele>851.7999877929688</ele>
        <time>2003-04-18T10:50:17.000Z</time>
      </trkpt>
      <trkpt lon="-2.296209968626499" lat="42.93604996986687">
        <ele>853.5999755859375</ele>
        <time>2003-04-18T10:50:34.000Z</time>
      </trkpt>
      <trkpt lon="-2.2965500224381685" lat="42.93580999597907">
        <ele>856.0</ele>
        <time>2003-04-18T10:50:59.000Z</time>
      </trkpt>
      <trkpt lon="-2.296829978004098" lat="42.93566004373133">
        <ele>851.2000122070312</ele>
        <time>2003-04-18T10:51:17.000Z</time>
      </trkpt>
      <trkpt lon="-2.2971699479967356" lat="42.935600029304624">
        <ele>849.2000122070312</ele>
        <time>2003-04-18T10:51:34.000Z</time>
      </trkpt>
      <trkpt lon="-2.2975598741322756" lat="42.935579996556044">
        <ele>848.2000122070312</ele>
        <time>2003-04-18T10:51:52.000Z</time>
      </trkpt>
      <trkpt lon="-2.2975799068808556" lat="42.935579996556044">
        <ele>848.0</ele>
        <time>2003-04-18T10:51:53.000Z</time>
      </trkpt>
      <trkpt lon="-2.2979898657649755" lat="42.93561997823417">
        <ele>844.4000244140625</ele>
        <time>2003-04-18T10:52:12.000Z</time>
      </trkpt>
      <trkpt lon="-2.2982899378985167" lat="42.93566004373133">
        <ele>841.7999877929688</ele>
        <time>2003-04-18T10:52:25.000Z</time>
      </trkpt>
      <trkpt lon="-2.2984999045729637" lat="42.935709999874234">
        <ele>840.7999877929688</ele>
        <time>2003-04-18T10:52:35.000Z</time>
      </trkpt>
      <trkpt lon="-2.298799976706505" lat="42.935709999874234">
        <ele>837.5999755859375</ele>
        <time>2003-04-18T10:52:51.000Z</time>
      </trkpt>
      <trkpt lon="-2.298820009455085" lat="42.935709999874234">
        <ele>837.4000244140625</ele>
        <time>2003-04-18T10:52:57.000Z</time>
      </trkpt>
      <trkpt lon="-2.2991899866610765" lat="42.93580999597907">
        <ele>834.7999877929688</ele>
        <time>2003-04-18T10:53:17.000Z</time>
      </trkpt>
      <trkpt lon="-2.2998099122196436" lat="42.935990039259195">
        <ele>832.4000244140625</ele>
        <time>2003-04-18T10:53:55.000Z</time>
      </trkpt>
      <trkpt lon="-2.3004798777401447" lat="42.93617997318506">
        <ele>827.2000122070312</ele>
        <time>2003-04-18T10:54:30.000Z</time>
      </trkpt>
      <trkpt lon="-2.300859997048974" lat="42.936160024255514">
        <ele>827.7999877929688</ele>
        <time>2003-04-18T10:54:48.000Z</time>
      </trkpt>
      <trkpt lon="-2.301059989258647" lat="42.936009988188744">
        <ele>832.7999877929688</ele>
        <time>2003-04-18T10:55:04.000Z</time>
      </trkpt>
      <trkpt lon="-2.301099970936775" lat="42.935970006510615">
        <ele>833.7999877929688</ele>
        <time>2003-04-18T10:55:26.000Z</time>
      </trkpt>
      <trkpt lon="-2.3011399526149035" lat="42.93591996654868">
        <ele>834.7999877929688</ele>
        <time>2003-04-18T10:55:58.000Z</time>
      </trkpt>
      <trkpt lon="-2.3012100253254175" lat="42.936030020937324">
        <ele>834.4000244140625</ele>
        <time>2003-04-18T10:56:07.000Z</time>
      </trkpt>
      <trkpt lon="-2.301289988681674" lat="42.93607000261545">
        <ele>835.0</ele>
        <time>2003-04-18T10:56:13.000Z</time>
      </trkpt>
      <trkpt lon="-2.3013999592512846" lat="42.936120042577386">
        <ele>836.0</ele>
        <time>2003-04-18T10:56:23.000Z</time>
      </trkpt>
      <trkpt lon="-2.301570028066635" lat="42.93620000593364">
        <ele>837.7999877929688</ele>
        <time>2003-04-18T10:56:36.000Z</time>
      </trkpt>
      <trkpt lon="-2.3016599658876657" lat="42.93622003868222">
        <ele>839.0</ele>
        <time>2003-04-18T10:56:42.000Z</time>
      </trkpt>
      <trkpt lon="-2.3017898853868246" lat="42.936290027573705">
        <ele>841.0</ele>
        <time>2003-04-18T10:56:57.000Z</time>
      </trkpt>
      <trkpt lon="-2.3019099980592728" lat="42.93633000925183">
        <ele>843.2000122070312</ele>
        <time>2003-04-18T10:57:12.000Z</time>
      </trkpt>
      <trkpt lon="-2.3020399175584316" lat="42.93635004200041">
        <ele>845.5999755859375</ele>
        <time>2003-04-18T10:57:23.000Z</time>
      </trkpt>
      <trkpt lon="-2.3020599503070116" lat="42.93636999092996">
        <ele>846.2000122070312</ele>
        <time>2003-04-18T10:57:26.000Z</time>
      </trkpt>
      <trkpt lon="-2.3021300230175257" lat="42.93636999092996">
        <ele>847.4000244140625</ele>
        <time>2003-04-18T10:57:33.000Z</time>
      </trkpt>
      <trkpt lon="-2.3023000080138445" lat="42.936439979821444">
        <ele>851.5999755859375</ele>
        <time>2003-04-18T10:57:52.000Z</time>
      </trkpt>
      <trkpt lon="-2.302409978583455" lat="42.93647996149957">
        <ele>854.4000244140625</ele>
        <time>2003-04-18T10:58:05.000Z</time>
      </trkpt>
      <trkpt lon="-2.3024498764425516" lat="42.93647996149957">
        <ele>855.2000122070312</ele>
        <time>2003-04-18T10:58:09.000Z</time>
      </trkpt>
      <trkpt lon="-2.3025600146502256" lat="42.93639002367854">
        <ele>856.4000244140625</ele>
        <time>2003-04-18T10:58:26.000Z</time>
      </trkpt>
      <trkpt lon="-2.302579963579774" lat="42.93635004200041">
        <ele>856.2000122070312</ele>
        <time>2003-04-18T10:58:31.000Z</time>
      </trkpt>
      <trkpt lon="-2.302579963579774" lat="42.93635004200041">
        <ele>856.2000122070312</ele>
        <time>2003-04-18T10:58:32.000Z</time>
      </trkpt>
      <trkpt lon="-2.302820021286607" lat="42.936290027573705">
        <ele>859.7999877929688</ele>
        <time>2003-04-18T10:58:49.000Z</time>
      </trkpt>
      <trkpt lon="-2.303090002387762" lat="42.93635004200041">
        <ele>866.5999755859375</ele>
        <time>2003-04-18T10:59:05.000Z</time>
      </trkpt>
      <trkpt lon="-2.303289994597435" lat="42.93639002367854">
        <ele>872.0</ele>
        <time>2003-04-18T10:59:19.000Z</time>
      </trkpt>
      <trkpt lon="-2.303499961271882" lat="42.93639002367854">
        <ele>875.2000122070312</ele>
        <time>2003-04-18T10:59:35.000Z</time>
      </trkpt>
      <trkpt lon="-2.3036499973386526" lat="42.93639002367854">
        <ele>877.0</ele>
        <time>2003-04-18T10:59:50.000Z</time>
      </trkpt>
      <trkpt lon="-2.303669946268201" lat="42.936420030891895">
        <ele>878.2000122070312</ele>
        <time>2003-04-18T10:59:54.000Z</time>
      </trkpt>
      <trkpt lon="-2.3038499895483255" lat="42.936420030891895">
        <ele>880.5999755859375</ele>
        <time>2003-04-18T11:00:06.000Z</time>
      </trkpt>
      <trkpt lon="-2.3040399234741926" lat="42.93639002367854">
        <ele>881.7999877929688</ele>
        <time>2003-04-18T11:00:20.000Z</time>
      </trkpt>
      <trkpt lon="-2.3043600283563137" lat="42.936439979821444">
        <ele>885.0</ele>
        <time>2003-04-18T11:00:38.000Z</time>
      </trkpt>
      <trkpt lon="-2.3046798817813396" lat="42.93653997592628">
        <ele>888.0</ele>
        <time>2003-04-18T11:00:59.000Z</time>
      </trkpt>
      <trkpt lon="-2.3049799539148808" lat="42.93660996481776">
        <ele>890.0</ele>
        <time>2003-04-18T11:01:15.000Z</time>
      </trkpt>
      <trkpt lon="-2.3053298983722925" lat="42.93669001199305">
        <ele>892.7999877929688</ele>
        <time>2003-04-18T11:01:34.000Z</time>
      </trkpt>
      <trkpt lon="-2.305669952183962" lat="42.936720019206405">
        <ele>894.0</ele>
        <time>2003-04-18T11:01:51.000Z</time>
      </trkpt>
      <trkpt lon="-2.3060299549251795" lat="42.93683996424079">
        <ele>896.4000244140625</ele>
        <time>2003-04-18T11:02:12.000Z</time>
      </trkpt>
      <trkpt lon="-2.3063300270587206" lat="42.936999974772334">
        <ele>899.0</ele>
        <time>2003-04-18T11:02:31.000Z</time>
      </trkpt>
      <trkpt lon="-2.3064598627388477" lat="42.93712000362575">
        <ele>901.0</ele>
        <time>2003-04-18T11:02:45.000Z</time>
      </trkpt>
      <trkpt lon="-2.30658994987607" lat="42.93729996308684">
        <ele>903.7999877929688</ele>
        <time>2003-04-18T11:03:03.000Z</time>
      </trkpt>
      <trkpt lon="-2.306890022009611" lat="42.93735997751355">
        <ele>904.4000244140625</ele>
        <time>2003-04-18T11:03:22.000Z</time>
      </trkpt>
      <trkpt lon="-2.307239966467023" lat="42.93741999194026">
        <ele>905.4000244140625</ele>
        <time>2003-04-18T11:03:44.000Z</time>
      </trkpt>
      <trkpt lon="-2.307520005851984" lat="42.937449999153614">
        <ele>906.0</ele>
        <time>2003-04-18T11:04:02.000Z</time>
      </trkpt>
      <trkpt lon="-2.3078599758446217" lat="42.93748998083174">
        <ele>909.7999877929688</ele>
        <time>2003-04-18T11:04:22.000Z</time>
      </trkpt>
      <trkpt lon="-2.308140015229583" lat="42.93748998083174">
        <ele>912.0</ele>
        <time>2003-04-18T11:04:39.000Z</time>
      </trkpt>
      <trkpt lon="-2.3084799014031887" lat="42.93751001358032">
        <ele>916.2000122070312</ele>
        <time>2003-04-18T11:04:58.000Z</time>
      </trkpt>
      <trkpt lon="-2.308589955791831" lat="42.93752996250987">
        <ele>918.4000244140625</ele>
        <time>2003-04-18T11:05:05.000Z</time>
      </trkpt>
      <trkpt lon="-2.30880000628531" lat="42.93752996250987">
        <ele>921.2000122070312</ele>
        <time>2003-04-18T11:05:19.000Z</time>
      </trkpt>
      <trkpt lon="-2.309019947424531" lat="42.93752996250987">
        <ele>924.0</ele>
        <time>2003-04-18T11:05:32.000Z</time>
      </trkpt>
      <trkpt lon="-2.30920996516943" lat="42.93754999525845">
        <ele>926.7999877929688</ele>
        <time>2003-04-18T11:05:48.000Z</time>
      </trkpt>
      <trkpt lon="-2.30920996516943" lat="42.93754999525845">
        <ele>926.7999877929688</ele>
        <time>2003-04-18T11:05:49.000Z</time>
      </trkpt>
      <trkpt lon="-2.309249946847558" lat="42.93757002800703">
        <ele>927.7999877929688</ele>
        <time>2003-04-18T11:05:51.000Z</time>
      </trkpt>
      <trkpt lon="-2.3093398846685886" lat="42.93757002800703">
        <ele>928.2000122070312</ele>
        <time>2003-04-18T11:05:56.000Z</time>
      </trkpt>
      <trkpt lon="-2.3096800222992897" lat="42.93754999525845">
        <ele>928.7999877929688</ele>
        <time>2003-04-18T11:06:15.000Z</time>
      </trkpt>
      <trkpt lon="-2.309980010613799" lat="42.93754999525845">
        <ele>930.2000122070312</ele>
        <time>2003-04-18T11:06:31.000Z</time>
      </trkpt>
      <trkpt lon="-2.310370020568371" lat="42.93757002800703">
        <ele>938.7999877929688</ele>
        <time>2003-04-18T11:06:50.000Z</time>
      </trkpt>
      <trkpt lon="-2.310800012201071" lat="42.93748998083174">
        <ele>944.7999877929688</ele>
        <time>2003-04-18T11:07:13.000Z</time>
      </trkpt>
      <trkpt lon="-2.31110000051558" lat="42.937449999153614">
        <ele>951.0</ele>
        <time>2003-04-18T11:07:30.000Z</time>
      </trkpt>
      <trkpt lon="-2.3111198656260967" lat="42.937449999153614">
        <ele>951.5999755859375</ele>
        <time>2003-04-18T11:07:32.000Z</time>
      </trkpt>
      <trkpt lon="-2.311290018260479" lat="42.93721002526581">
        <ele>947.0</ele>
        <time>2003-04-18T11:07:53.000Z</time>
      </trkpt>
      <trkpt lon="-2.311439970508218" lat="42.93709997087717">
        <ele>947.5999755859375</ele>
        <time>2003-04-18T11:08:06.000Z</time>
      </trkpt>
      <trkpt lon="-2.31152999214828" lat="42.937020007520914">
        <ele>947.5999755859375</ele>
        <time>2003-04-18T11:08:16.000Z</time>
      </trkpt>
      <trkpt lon="-2.3116800282150507" lat="42.93692998588085">
        <ele>949.4000244140625</ele>
        <time>2003-04-18T11:08:31.000Z</time>
      </trkpt>
      <trkpt lon="-2.311759991571307" lat="42.93689000420272">
        <ele>950.7999877929688</ele>
        <time>2003-04-18T11:08:46.000Z</time>
      </trkpt>
      <trkpt lon="-2.311869962140918" lat="42.93682001531124">
        <ele>952.2000122070312</ele>
        <time>2003-04-18T11:08:56.000Z</time>
      </trkpt>
      <trkpt lon="-2.3119100276380777" lat="42.93679998256266">
        <ele>953.0</ele>
        <time>2003-04-18T11:09:00.000Z</time>
      </trkpt>
      <trkpt lon="-2.312210015952587" lat="42.936720019206405">
        <ele>960.4000244140625</ele>
        <time>2003-04-18T11:09:18.000Z</time>
      </trkpt>
      <trkpt lon="-2.3124298732727766" lat="42.93662999756634">
        <ele>964.0</ele>
        <time>2003-04-18T11:09:35.000Z</time>
      </trkpt>
      <trkpt lon="-2.3126899637281895" lat="42.93649999424815">
        <ele>967.5999755859375</ele>
        <time>2003-04-18T11:09:55.000Z</time>
      </trkpt>
      <trkpt lon="-2.3127299454063177" lat="42.936439979821444">
        <ele>966.4000244140625</ele>
        <time>2003-04-18T11:10:03.000Z</time>
      </trkpt>
      <trkpt lon="-2.3128598649054766" lat="42.93633000925183">
        <ele>965.7999877929688</ele>
        <time>2003-04-18T11:10:23.000Z</time>
      </trkpt>
      <trkpt lon="-2.313049966469407" lat="42.93622003868222">
        <ele>967.0</ele>
        <time>2003-04-18T11:10:38.000Z</time>
      </trkpt>
      <trkpt lon="-2.3132000025361776" lat="42.936160024255514">
        <ele>969.0</ele>
        <time>2003-04-18T11:10:51.000Z</time>
      </trkpt>
      <trkpt lon="-2.3133499547839165" lat="42.93607000261545">
        <ele>969.4000244140625</ele>
        <time>2003-04-18T11:11:04.000Z</time>
      </trkpt>
      <trkpt lon="-2.3135398887097836" lat="42.935990039259195">
        <ele>971.2000122070312</ele>
        <time>2003-04-18T11:11:21.000Z</time>
      </trkpt>
      <trkpt lon="-2.3135698959231377" lat="42.935990039259195">
        <ele>972.2000122070312</ele>
        <time>2003-04-18T11:11:24.000Z</time>
      </trkpt>
      <trkpt lon="-2.3136099614202976" lat="42.935990039259195">
        <ele>973.4000244140625</ele>
        <time>2003-04-18T11:11:28.000Z</time>
      </trkpt>
      <trkpt lon="-2.3138199280947447" lat="42.93593999929726">
        <ele>977.0</ele>
        <time>2003-04-18T11:11:43.000Z</time>
      </trkpt>
      <trkpt lon="-2.3140800185501575" lat="42.93590001761913">
        <ele>982.5999755859375</ele>
        <time>2003-04-18T11:11:59.000Z</time>
      </trkpt>
      <trkpt lon="-2.314380006864667" lat="42.935860035941005">
        <ele>992.5999755859375</ele>
        <time>2003-04-18T11:12:19.000Z</time>
      </trkpt>
      <trkpt lon="-2.3144899774342775" lat="42.935860035941005">
        <ele>997.5999755859375</ele>
        <time>2003-04-18T11:12:28.000Z</time>
      </trkpt>
      <trkpt lon="-2.3147199768573046" lat="42.93577001430094">
        <ele>1007.7999877929688</ele>
        <time>2003-04-18T11:12:46.000Z</time>
      </trkpt>
      <trkpt lon="-2.314789965748787" lat="42.93577001430094">
        <ele>1011.2000122070312</ele>
        <time>2003-04-18T11:12:50.000Z</time>
      </trkpt>
      <trkpt lon="-2.3148999363183975" lat="42.935730032622814">
        <ele>1017.5999755859375</ele>
        <time>2003-04-18T11:13:01.000Z</time>
      </trkpt>
      <trkpt lon="-2.31503002345562" lat="42.93566004373133">
        <ele>1025.4000244140625</ele>
        <time>2003-04-18T11:13:12.000Z</time>
      </trkpt>
      <trkpt lon="-2.315049972385168" lat="42.93566004373133">
        <ele>1025.800048828125</ele>
        <time>2003-04-18T11:13:15.000Z</time>
      </trkpt>
      <trkpt lon="-2.3152000084519386" lat="42.935559963807464">
        <ele>1031.4000244140625</ele>
        <time>2003-04-18T11:13:31.000Z</time>
      </trkpt>
      <trkpt lon="-2.3152000084519386" lat="42.935410011559725">
        <ele>1034.199951171875</ele>
        <time>2003-04-18T11:13:49.000Z</time>
      </trkpt>
      <trkpt lon="-2.315219957381487" lat="42.935410011559725">
        <ele>1034.5999755859375</ele>
        <time>2003-04-18T11:13:50.000Z</time>
      </trkpt>
      <trkpt lon="-2.315239990130067" lat="42.935410011559725">
        <ele>1034.800048828125</ele>
        <time>2003-04-18T11:13:54.000Z</time>
      </trkpt>
      <trkpt lon="-2.315260022878647" lat="42.935410011559725">
        <ele>1035.199951171875</ele>
        <time>2003-04-18T11:13:59.000Z</time>
      </trkpt>
      <trkpt lon="-2.315300004556775" lat="42.93535997159779">
        <ele>1036.5999755859375</ele>
        <time>2003-04-18T11:14:14.000Z</time>
      </trkpt>
      <trkpt lon="-2.315279971808195" lat="42.935240026563406">
        <ele>1038.199951171875</ele>
        <time>2003-04-18T11:14:35.000Z</time>
      </trkpt>
      <trkpt lon="-2.3153699096292257" lat="42.935259975492954">
        <ele>1038.800048828125</ele>
        <time>2003-04-18T11:14:55.000Z</time>
      </trkpt>
      <trkpt lon="-2.3153499606996775" lat="42.935280008241534">
        <ele>1038.199951171875</ele>
        <time>2003-04-18T11:15:36.000Z</time>
      </trkpt>
      <trkpt lon="-2.315330011770129" lat="42.935259975492954">
        <ele>1038.4000244140625</ele>
        <time>2003-04-18T11:17:17.000Z</time>
      </trkpt>
      <trkpt lon="-2.3160099517554045" lat="42.935280008241534">
        <ele>1044.5999755859375</ele>
        <time>2003-04-18T11:17:29.000Z</time>
      </trkpt>
      <trkpt lon="-2.3162499256432056" lat="42.935150004923344">
        <ele>1046.800048828125</ele>
        <time>2003-04-18T11:17:46.000Z</time>
      </trkpt>
      <trkpt lon="-2.3163100238889456" lat="42.935240026563406">
        <ele>1046.800048828125</ele>
        <time>2003-04-18T11:18:09.000Z</time>
      </trkpt>
      <trkpt lon="-2.316399961709976" lat="42.935300040990114">
        <ele>1047.0</ele>
        <time>2003-04-18T11:18:31.000Z</time>
      </trkpt>
      <trkpt lon="-2.3165100160986185" lat="42.93544999323785">
        <ele>1046.0</ele>
        <time>2003-04-18T11:18:46.000Z</time>
      </trkpt>
      <trkpt lon="-2.3167199827730656" lat="42.935709999874234">
        <ele>1043.4000244140625</ele>
        <time>2003-04-18T11:19:07.000Z</time>
      </trkpt>
      <trkpt lon="-2.3168898839503527" lat="42.935860035941005">
        <ele>1043.5999755859375</ele>
        <time>2003-04-18T11:19:26.000Z</time>
      </trkpt>
      <trkpt lon="-2.3169400077313185" lat="42.935860035941005">
        <ele>1044.0</ele>
        <time>2003-04-18T11:19:29.000Z</time>
      </trkpt>
      <trkpt lon="-2.3171299416571856" lat="42.93591996654868">
        <ele>1046.5999755859375</ele>
        <time>2003-04-18T11:19:44.000Z</time>
      </trkpt>
      <trkpt lon="-2.3171499744057655" lat="42.93591996654868">
        <ele>1046.800048828125</ele>
        <time>2003-04-18T11:19:46.000Z</time>
      </trkpt>
      <trkpt lon="-2.3171899560838938" lat="42.935990039259195">
        <ele>1048.199951171875</ele>
        <time>2003-04-18T11:19:51.000Z</time>
      </trkpt>
      <trkpt lon="-2.3171899560838938" lat="42.936009988188744">
        <ele>1048.5999755859375</ele>
        <time>2003-04-18T11:19:54.000Z</time>
      </trkpt>
      <trkpt lon="-2.3173899482935667" lat="42.936160024255514">
        <ele>1051.800048828125</ele>
        <time>2003-04-18T11:20:11.000Z</time>
      </trkpt>
      <trkpt lon="-2.3175999987870455" lat="42.93620000593364">
        <ele>1052.4000244140625</ele>
        <time>2003-04-18T11:20:28.000Z</time>
      </trkpt>
      <trkpt lon="-2.3175999987870455" lat="42.93620000593364">
        <ele>1052.4000244140625</ele>
        <time>2003-04-18T11:20:57.000Z</time>
      </trkpt>
      <trkpt lon="-2.3178099654614925" lat="42.93635004200041">
        <ele>1053.0</ele>
        <time>2003-04-18T11:21:20.000Z</time>
      </trkpt>
      <trkpt lon="-2.3181200120598078" lat="42.93665003031492">
        <ele>1051.4000244140625</ele>
        <time>2003-04-18T11:21:55.000Z</time>
      </trkpt>
      <trkpt lon="-2.3182399570941925" lat="42.93669001199305">
        <ele>1050.5999755859375</ele>
        <time>2003-04-18T11:22:03.000Z</time>
      </trkpt>
      <trkpt lon="-2.318309945985675" lat="42.93683996424079">
        <ele>1054.199951171875</ele>
        <time>2003-04-18T11:22:16.000Z</time>
      </trkpt>
      <trkpt lon="-2.318329978734255" lat="42.93695001862943">
        <ele>1057.199951171875</ele>
        <time>2003-04-18T11:22:29.000Z</time>
      </trkpt>
      <trkpt lon="-2.318329978734255" lat="42.93695001862943">
        <ele>1057.199951171875</ele>
        <time>2003-04-18T11:22:30.000Z</time>
      </trkpt>
      <trkpt lon="-2.318369960412383" lat="42.93708002194762">
        <ele>1061.199951171875</ele>
        <time>2003-04-18T11:22:48.000Z</time>
      </trkpt>
      <trkpt lon="-2.3184398654848337" lat="42.93712000362575">
        <ele>1062.800048828125</ele>
        <time>2003-04-18T11:22:57.000Z</time>
      </trkpt>
      <trkpt lon="-2.3184398654848337" lat="42.93712000362575">
        <ele>1062.800048828125</ele>
        <time>2003-04-18T11:22:58.000Z</time>
      </trkpt>
      <trkpt lon="-2.3184598982334137" lat="42.93721002526581">
        <ele>1065.4000244140625</ele>
        <time>2003-04-18T11:23:17.000Z</time>
      </trkpt>
      <trkpt lon="-2.3184598982334137" lat="42.93729996308684">
        <ele>1068.0</ele>
        <time>2003-04-18T11:23:35.000Z</time>
      </trkpt>
      <trkpt lon="-2.3184598982334137" lat="42.93731999583542">
        <ele>1068.5999755859375</ele>
        <time>2003-04-18T11:23:37.000Z</time>
      </trkpt>
      <trkpt lon="-2.3184598982334137" lat="42.93741999194026">
        <ele>1071.4000244140625</ele>
        <time>2003-04-18T11:23:51.000Z</time>
      </trkpt>
      <trkpt lon="-2.3184598982334137" lat="42.937449999153614">
        <ele>1072.199951171875</ele>
        <time>2003-04-18T11:23:52.000Z</time>
      </trkpt>
      <trkpt lon="-2.3184799309819937" lat="42.93752996250987">
        <ele>1074.800048828125</ele>
        <time>2003-04-18T11:24:07.000Z</time>
      </trkpt>
      <trkpt lon="-2.3185199964791536" lat="42.93765996582806">
        <ele>1079.800048828125</ele>
        <time>2003-04-18T11:24:24.000Z</time>
      </trkpt>
      <trkpt lon="-2.3184999637305737" lat="42.93771998025477">
        <ele>1082.0</ele>
        <time>2003-04-18T11:24:39.000Z</time>
      </trkpt>
      <trkpt lon="-2.318569952622056" lat="42.93784998357296">
        <ele>1087.199951171875</ele>
        <time>2003-04-18T11:25:00.000Z</time>
      </trkpt>
      <trkpt lon="-2.318569952622056" lat="42.9379600379616">
        <ele>1091.4000244140625</ele>
        <time>2003-04-18T11:25:16.000Z</time>
      </trkpt>
      <trkpt lon="-2.3186298832297325" lat="42.93807000853121">
        <ele>1096.0</ele>
        <time>2003-04-18T11:25:33.000Z</time>
      </trkpt>
      <trkpt lon="-2.3186699487268925" lat="42.93810999020934">
        <ele>1097.800048828125</ele>
        <time>2003-04-18T11:25:46.000Z</time>
      </trkpt>
      <trkpt lon="-2.3186899814754725" lat="42.93817997910082">
        <ele>1100.5999755859375</ele>
        <time>2003-04-18T11:25:56.000Z</time>
      </trkpt>
      <trkpt lon="-2.3187199886888266" lat="42.93823999352753">
        <ele>1103.199951171875</ele>
        <time>2003-04-18T11:26:19.000Z</time>
      </trkpt>
      <trkpt lon="-2.3186699487268925" lat="42.93823999352753">
        <ele>1102.5999755859375</ele>
        <time>2003-04-18T11:27:40.000Z</time>
      </trkpt>
      <trkpt lon="-2.3187199886888266" lat="42.93830000795424">
        <ele>1105.4000244140625</ele>
        <time>2003-04-18T11:28:13.000Z</time>
      </trkpt>
      <trkpt lon="-2.3187400214374065" lat="42.9383900295943">
        <ele>1109.199951171875</ele>
        <time>2003-04-18T11:28:25.000Z</time>
      </trkpt>
      <trkpt lon="-2.318799952045083" lat="42.93850000016391">
        <ele>1114.199951171875</ele>
        <time>2003-04-18T11:28:37.000Z</time>
      </trkpt>
      <trkpt lon="-2.318819984793663" lat="42.93852003291249">
        <ele>1115.199951171875</ele>
        <time>2003-04-18T11:28:41.000Z</time>
      </trkpt>
      <trkpt lon="-2.318819984793663" lat="42.93865003623068">
        <ele>1120.4000244140625</ele>
        <time>2003-04-18T11:28:57.000Z</time>
      </trkpt>
      <trkpt lon="-2.318819984793663" lat="42.93872999958694">
        <ele>1123.800048828125</ele>
        <time>2003-04-18T11:29:17.000Z</time>
      </trkpt>
      <trkpt lon="-2.318799952045083" lat="42.93879998847842">
        <ele>1126.4000244140625</ele>
        <time>2003-04-18T11:29:33.000Z</time>
      </trkpt>
      <trkpt lon="-2.318799952045083" lat="42.938820021227">
        <ele>1127.199951171875</ele>
        <time>2003-04-18T11:29:36.000Z</time>
      </trkpt>
      <trkpt lon="-2.318799952045083" lat="42.93886000290513">
        <ele>1128.800048828125</ele>
        <time>2003-04-18T11:29:45.000Z</time>
      </trkpt>
      <trkpt lon="-2.318780003115535" lat="42.93889998458326">
        <ele>1130.199951171875</ele>
        <time>2003-04-18T11:29:53.000Z</time>
      </trkpt>
      <trkpt lon="-2.3187199886888266" lat="42.93909997679293">
        <ele>1137.4000244140625</ele>
        <time>2003-04-18T11:30:15.000Z</time>
      </trkpt>
      <trkpt lon="-2.3187199886888266" lat="42.93912000954151">
        <ele>1138.199951171875</ele>
        <time>2003-04-18T11:30:17.000Z</time>
      </trkpt>
      <trkpt lon="-2.3187400214374065" lat="42.93915999121964">
        <ele>1140.199951171875</ele>
        <time>2003-04-18T11:30:29.000Z</time>
      </trkpt>
      <trkpt lon="-2.3187400214374065" lat="42.93926996178925">
        <ele>1144.800048828125</ele>
        <time>2003-04-18T11:30:46.000Z</time>
      </trkpt>
      <trkpt lon="-2.3187400214374065" lat="42.93926996178925">
        <ele>1144.800048828125</ele>
        <time>2003-04-18T11:30:53.000Z</time>
      </trkpt>
      <trkpt lon="-2.3187400214374065" lat="42.93926996178925">
        <ele>1144.800048828125</ele>
        <time>2003-04-18T11:30:54.000Z</time>
      </trkpt>
      <trkpt lon="-2.318759970366955" lat="42.93932997621596">
        <ele>1147.800048828125</ele>
        <time>2003-04-18T11:31:10.000Z</time>
      </trkpt>
      <trkpt lon="-2.3186899814754725" lat="42.9394400306046">
        <ele>1151.4000244140625</ele>
        <time>2003-04-18T11:31:28.000Z</time>
      </trkpt>
      <trkpt lon="-2.3187199886888266" lat="42.93952996842563">
        <ele>1155.5999755859375</ele>
        <time>2003-04-18T11:31:48.000Z</time>
      </trkpt>
      <trkpt lon="-2.3187199886888266" lat="42.93961001560092">
        <ele>1159.199951171875</ele>
        <time>2003-04-18T11:32:00.000Z</time>
      </trkpt>
      <trkpt lon="-2.318819984793663" lat="42.93981000781059">
        <ele>1169.800048828125</ele>
        <time>2003-04-18T11:32:26.000Z</time>
      </trkpt>
      <trkpt lon="-2.318819984793663" lat="42.93988997116685">
        <ele>1173.199951171875</ele>
        <time>2003-04-18T11:32:38.000Z</time>
      </trkpt>
      <trkpt lon="-2.318780003115535" lat="42.93993003666401">
        <ele>1174.199951171875</ele>
        <time>2003-04-18T11:32:47.000Z</time>
      </trkpt>
      <trkpt lon="-2.3187199886888266" lat="42.94000002555549">
        <ele>1175.800048828125</ele>
        <time>2003-04-18T11:33:03.000Z</time>
      </trkpt>
      <trkpt lon="-2.3187199886888266" lat="42.94001997448504">
        <ele>1176.5999755859375</ele>
        <time>2003-04-18T11:33:05.000Z</time>
      </trkpt>
      <trkpt lon="-2.3187199886888266" lat="42.9401099961251">
        <ele>1179.800048828125</ele>
        <time>2003-04-18T11:33:21.000Z</time>
      </trkpt>
      <trkpt lon="-2.3186899814754725" lat="42.94023999944329">
        <ele>1183.800048828125</ele>
        <time>2003-04-18T11:33:44.000Z</time>
      </trkpt>
      <trkpt lon="-2.3186899814754725" lat="42.94027998112142">
        <ele>1185.4000244140625</ele>
        <time>2003-04-18T11:33:55.000Z</time>
      </trkpt>
      <trkpt lon="-2.3186699487268925" lat="42.94040998443961">
        <ele>1189.5999755859375</ele>
        <time>2003-04-18T11:34:16.000Z</time>
      </trkpt>
      <trkpt lon="-2.318780003115535" lat="42.94044996611774">
        <ele>1193.5999755859375</ele>
        <time>2003-04-18T11:35:07.000Z</time>
      </trkpt>
      <trkpt lon="-2.318799952045083" lat="42.94033999554813">
        <ele>1190.199951171875</ele>
        <time>2003-04-18T11:35:30.000Z</time>
      </trkpt>
      <trkpt lon="-2.318759970366955" lat="42.94040998443961">
        <ele>1191.800048828125</ele>
        <time>2003-04-18T11:36:16.000Z</time>
      </trkpt>
      <trkpt lon="-2.3189099226146936" lat="42.94040998443961">
        <ele>1195.199951171875</ele>
        <time>2003-04-18T11:37:06.000Z</time>
      </trkpt>
      <trkpt lon="-2.318989969789982" lat="42.94039003551006">
        <ele>1196.4000244140625</ele>
        <time>2003-04-18T11:37:20.000Z</time>
      </trkpt>
      <trkpt lon="-2.318989969789982" lat="42.94046999886632">
        <ele>1199.4000244140625</ele>
        <time>2003-04-18T11:37:39.000Z</time>
      </trkpt>
      <trkpt lon="-2.3189700208604336" lat="42.94050998054445">
        <ele>1200.4000244140625</ele>
        <time>2003-04-18T11:37:50.000Z</time>
      </trkpt>
      <trkpt lon="-2.3189700208604336" lat="42.9405399877578">
        <ele>1201.4000244140625</ele>
        <time>2003-04-18T11:38:00.000Z</time>
      </trkpt>
      <trkpt lon="-2.318989969789982" lat="42.94057996943593">
        <ele>1203.4000244140625</ele>
        <time>2003-04-18T11:38:15.000Z</time>
      </trkpt>
      <trkpt lon="-2.319019977003336" lat="42.94062003493309">
        <ele>1205.5999755859375</ele>
        <time>2003-04-18T11:38:27.000Z</time>
      </trkpt>
      <trkpt lon="-2.319040009751916" lat="42.94066001661122">
        <ele>1207.5999755859375</ele>
        <time>2003-04-18T11:38:39.000Z</time>
      </trkpt>
      <trkpt lon="-2.319019977003336" lat="42.94083997607231">
        <ele>1213.800048828125</ele>
        <time>2003-04-18T11:39:12.000Z</time>
      </trkpt>
      <trkpt lon="-2.318989969789982" lat="42.94088004156947">
        <ele>1214.5999755859375</ele>
        <time>2003-04-18T11:40:00.000Z</time>
      </trkpt>
      <trkpt lon="-2.319019977003336" lat="42.94088004156947">
        <ele>1215.4000244140625</ele>
        <time>2003-04-18T11:40:11.000Z</time>
      </trkpt>
      <trkpt lon="-2.319040009751916" lat="42.94086000882089">
        <ele>1215.0</ele>
        <time>2003-04-18T11:40:26.000Z</time>
      </trkpt>
      <trkpt lon="-2.319040009751916" lat="42.94088004156947">
        <ele>1215.800048828125</ele>
        <time>2003-04-18T11:40:28.000Z</time>
      </trkpt>
      <trkpt lon="-2.319059958681464" lat="42.94088004156947">
        <ele>1216.4000244140625</ele>
        <time>2003-04-18T11:40:32.000Z</time>
      </trkpt>
      <trkpt lon="-2.319079991430044" lat="42.94089999049902">
        <ele>1217.5999755859375</ele>
        <time>2003-04-18T11:40:39.000Z</time>
      </trkpt>
      <trkpt lon="-2.319040009751916" lat="42.94105002656579">
        <ele>1222.800048828125</ele>
        <time>2003-04-18T11:40:54.000Z</time>
      </trkpt>
      <trkpt lon="-2.319059958681464" lat="42.94119997881353">
        <ele>1229.4000244140625</ele>
        <time>2003-04-18T11:41:07.000Z</time>
      </trkpt>
      <trkpt lon="-2.319040009751916" lat="42.9413500148803">
        <ele>1235.0</ele>
        <time>2003-04-18T11:41:26.000Z</time>
      </trkpt>
      <trkpt lon="-2.319079991430044" lat="42.94142000377178">
        <ele>1238.800048828125</ele>
        <time>2003-04-18T11:41:45.000Z</time>
      </trkpt>
      <trkpt lon="-2.319079991430044" lat="42.94144003652036">
        <ele>1239.5999755859375</ele>
        <time>2003-04-18T11:41:54.000Z</time>
      </trkpt>
      <trkpt lon="-2.3191198892891407" lat="42.94157003983855">
        <ele>1246.0</ele>
        <time>2003-04-18T11:42:13.000Z</time>
      </trkpt>
      <trkpt lon="-2.3191499803215265" lat="42.94168998487294">
        <ele>1251.4000244140625</ele>
        <time>2003-04-18T11:42:28.000Z</time>
      </trkpt>
      <trkpt lon="-2.3191899619996548" lat="42.94171999208629">
        <ele>1253.199951171875</ele>
        <time>2003-04-18T11:42:38.000Z</time>
      </trkpt>
      <trkpt lon="-2.3192300274968147" lat="42.94168998487294">
        <ele>1252.800048828125</ele>
        <time>2003-04-18T11:42:53.000Z</time>
      </trkpt>
      <trkpt lon="-2.319270009174943" lat="42.94174002483487">
        <ele>1255.199951171875</ele>
        <time>2003-04-18T11:43:06.000Z</time>
      </trkpt>
      <trkpt lon="-2.319300016388297" lat="42.941780006513">
        <ele>1257.199951171875</ele>
        <time>2003-04-18T11:43:13.000Z</time>
      </trkpt>
      <trkpt lon="-2.319419961422682" lat="42.941780006513">
        <ele>1259.199951171875</ele>
        <time>2003-04-18T11:43:33.000Z</time>
      </trkpt>
      <trkpt lon="-2.319509983062744" lat="42.94175997376442">
        <ele>1259.800048828125</ele>
        <time>2003-04-18T11:43:48.000Z</time>
      </trkpt>
      <trkpt lon="-2.319509983062744" lat="42.94175997376442">
        <ele>1259.800048828125</ele>
        <time>2003-04-18T11:43:49.000Z</time>
      </trkpt>
      <trkpt lon="-2.3196600191295147" lat="42.94181998819113">
        <ele>1264.4000244140625</ele>
        <time>2003-04-18T11:44:05.000Z</time>
      </trkpt>
      <trkpt lon="-2.3198300041258335" lat="42.94184002093971">
        <ele>1268.0</ele>
        <time>2003-04-18T11:44:22.000Z</time>
      </trkpt>
      <trkpt lon="-2.3200199380517006" lat="42.94187002815306">
        <ele>1272.0</ele>
        <time>2003-04-18T11:44:38.000Z</time>
      </trkpt>
      <trkpt lon="-2.320129992440343" lat="42.94194999150932">
        <ele>1276.0</ele>
        <time>2003-04-18T11:44:58.000Z</time>
      </trkpt>
      <trkpt lon="-2.320129992440343" lat="42.9420199804008">
        <ele>1278.800048828125</ele>
        <time>2003-04-18T11:45:11.000Z</time>
      </trkpt>
      <trkpt lon="-2.3202399630099535" lat="42.94241996482015">
        <ele>1295.199951171875</ele>
        <time>2003-04-18T11:46:18.000Z</time>
      </trkpt>
      <trkpt lon="-2.3202199302613735" lat="42.94262004084885">
        <ele>1302.4000244140625</ele>
        <time>2003-04-18T11:46:47.000Z</time>
      </trkpt>
      <trkpt lon="-2.3202599957585335" lat="42.94275004416704">
        <ele>1307.199951171875</ele>
        <time>2003-04-18T11:47:24.000Z</time>
      </trkpt>
      <trkpt lon="-2.3202999774366617" lat="42.94285004027188">
        <ele>1311.0</ele>
        <time>2003-04-18T11:47:45.000Z</time>
      </trkpt>
      <trkpt lon="-2.320369966328144" lat="42.94292002916336">
        <ele>1314.0</ele>
        <time>2003-04-18T11:48:04.000Z</time>
      </trkpt>
      <trkpt lon="-2.3204799368977547" lat="42.94299999251962">
        <ele>1317.5999755859375</ele>
        <time>2003-04-18T11:48:21.000Z</time>
      </trkpt>
      <trkpt lon="-2.320599965751171" lat="42.9430699814111">
        <ele>1320.800048828125</ele>
        <time>2003-04-18T11:48:35.000Z</time>
      </trkpt>
      <trkpt lon="-2.320799957960844" lat="42.94315002858639">
        <ele>1324.800048828125</ele>
        <time>2003-04-18T11:49:01.000Z</time>
      </trkpt>
      <trkpt lon="-2.3208598885685205" lat="42.94328003190458">
        <ele>1329.800048828125</ele>
        <time>2003-04-18T11:49:19.000Z</time>
      </trkpt>
      <trkpt lon="-2.3208598885685205" lat="42.9434500169009">
        <ele>1334.5999755859375</ele>
        <time>2003-04-18T11:49:36.000Z</time>
      </trkpt>
      <trkpt lon="-2.320799957960844" lat="42.94367004185915">
        <ele>1340.0</ele>
        <time>2003-04-18T11:49:57.000Z</time>
      </trkpt>
      <trkpt lon="-2.3207500018179417" lat="42.943750005215406">
        <ele>1342.0</ele>
        <time>2003-04-18T11:50:08.000Z</time>
      </trkpt>
      <trkpt lon="-2.3206899035722017" lat="42.9438800085336">
        <ele>1345.199951171875</ele>
        <time>2003-04-18T11:50:23.000Z</time>
      </trkpt>
      <trkpt lon="-2.3206699546426535" lat="42.94394999742508">
        <ele>1347.0</ele>
        <time>2003-04-18T11:50:38.000Z</time>
      </trkpt>
      <trkpt lon="-2.320650005713105" lat="42.94401001185179">
        <ele>1348.5999755859375</ele>
        <time>2003-04-18T11:50:56.000Z</time>
      </trkpt>
      <trkpt lon="-2.3207099363207817" lat="42.94428996741772">
        <ele>1355.199951171875</ele>
        <time>2003-04-18T11:51:33.000Z</time>
      </trkpt>
      <trkpt lon="-2.3207099363207817" lat="42.94436004012823">
        <ele>1356.4000244140625</ele>
        <time>2003-04-18T11:51:39.000Z</time>
      </trkpt>
      <trkpt lon="-2.3208999540656805" lat="42.944479985162616">
        <ele>1360.800048828125</ele>
        <time>2003-04-18T11:52:03.000Z</time>
      </trkpt>
      <trkpt lon="-2.3209700267761946" lat="42.94453002512455">
        <ele>1362.800048828125</ele>
        <time>2003-04-18T11:52:17.000Z</time>
      </trkpt>
      <trkpt lon="-2.321010008454323" lat="42.9445499740541">
        <ele>1363.5999755859375</ele>
        <time>2003-04-18T11:52:23.000Z</time>
      </trkpt>
      <trkpt lon="-2.321079997345805" lat="42.94457000680268">
        <ele>1365.0</ele>
        <time>2003-04-18T11:52:36.000Z</time>
      </trkpt>
      <trkpt lon="-2.321029957383871" lat="42.94459003955126">
        <ele>1364.800048828125</ele>
        <time>2003-04-18T11:52:50.000Z</time>
      </trkpt>
      <trkpt lon="-2.321049990132451" lat="42.94459003955126">
        <ele>1365.0</ele>
        <time>2003-04-18T11:52:52.000Z</time>
      </trkpt>
      <trkpt lon="-2.3210998624563217" lat="42.944609988480806">
        <ele>1366.0</ele>
        <time>2003-04-18T11:53:05.000Z</time>
      </trkpt>
      <trkpt lon="-2.321079997345805" lat="42.94466002844274">
        <ele>1366.800048828125</ele>
        <time>2003-04-18T11:53:19.000Z</time>
      </trkpt>
      <trkpt lon="-2.3211198952049017" lat="42.944739991799">
        <ele>1368.800048828125</ele>
        <time>2003-04-18T11:53:31.000Z</time>
      </trkpt>
      <trkpt lon="-2.3211599607020617" lat="42.944779973477125">
        <ele>1370.0</ele>
        <time>2003-04-18T11:53:45.000Z</time>
      </trkpt>
      <trkpt lon="-2.321249982342124" lat="42.94484996236861">
        <ele>1372.5999755859375</ele>
        <time>2003-04-18T11:54:00.000Z</time>
      </trkpt>
      <trkpt lon="-2.321309996768832" lat="42.944909976795316">
        <ele>1374.5999755859375</ele>
        <time>2003-04-18T11:54:15.000Z</time>
      </trkpt>
      <trkpt lon="-2.3213599529117346" lat="42.9449799656868">
        <ele>1376.5999755859375</ele>
        <time>2003-04-18T11:54:28.000Z</time>
      </trkpt>
      <trkpt lon="-2.321419967338443" lat="42.945060012862086">
        <ele>1377.800048828125</ele>
        <time>2003-04-18T11:54:43.000Z</time>
      </trkpt>
      <trkpt lon="-2.321459949016571" lat="42.94510996900499">
        <ele>1378.5999755859375</ele>
        <time>2003-04-18T11:54:48.000Z</time>
      </trkpt>
      <trkpt lon="-2.321509988978505" lat="42.94513000175357">
        <ele>1379.5999755859375</ele>
        <time>2003-04-18T11:54:51.000Z</time>
      </trkpt>
      <trkpt lon="-2.321679973974824" lat="42.94528003782034">
        <ele>1383.800048828125</ele>
        <time>2003-04-18T11:55:09.000Z</time>
      </trkpt>
      <trkpt lon="-2.321760021150112" lat="42.945380033925176">
        <ele>1386.800048828125</ele>
        <time>2003-04-18T11:55:25.000Z</time>
      </trkpt>
      <trkpt lon="-2.3218499589711428" lat="42.94542999006808">
        <ele>1389.800048828125</ele>
        <time>2003-04-18T11:55:39.000Z</time>
      </trkpt>
      <trkpt lon="-2.3218499589711428" lat="42.945469971746206">
        <ele>1390.0</ele>
        <time>2003-04-18T11:55:45.000Z</time>
      </trkpt>
      <trkpt lon="-2.3218300100415945" lat="42.94555999338627">
        <ele>1390.0</ele>
        <time>2003-04-18T11:55:56.000Z</time>
      </trkpt>
      <trkpt lon="-2.3218699917197227" lat="42.9455999750644">
        <ele>1391.4000244140625</ele>
        <time>2003-04-18T11:56:08.000Z</time>
      </trkpt>
      <trkpt lon="-2.321909973397851" lat="42.94568999670446">
        <ele>1393.0</ele>
        <time>2003-04-18T11:56:22.000Z</time>
      </trkpt>
      <trkpt lon="-2.3220199439674616" lat="42.94572997838259">
        <ele>1396.0</ele>
        <time>2003-04-18T11:56:41.000Z</time>
      </trkpt>
      <trkpt lon="-2.322109965607524" lat="42.94568999670446">
        <ele>1398.0</ele>
        <time>2003-04-18T11:57:19.000Z</time>
      </trkpt>
      <trkpt lon="-2.3220600094646215" lat="42.945810025557876">
        <ele>1397.4000244140625</ele>
        <time>2003-04-18T12:03:07.000Z</time>
      </trkpt>
      <trkpt lon="-2.322109965607524" lat="42.94588001444936">
        <ele>1398.800048828125</ele>
        <time>2003-04-18T12:03:30.000Z</time>
      </trkpt>
      <trkpt lon="-2.322129998356104" lat="42.945959977805614">
        <ele>1399.5999755859375</ele>
        <time>2003-04-18T12:03:43.000Z</time>
      </trkpt>
      <trkpt lon="-2.322169980034232" lat="42.9460299666971">
        <ele>1401.0</ele>
        <time>2003-04-18T12:03:54.000Z</time>
      </trkpt>
      <trkpt lon="-2.3222098778933287" lat="42.94604999944568">
        <ele>1402.199951171875</ele>
        <time>2003-04-18T12:04:06.000Z</time>
      </trkpt>
      <trkpt lon="-2.3222399689257145" lat="42.946110013872385">
        <ele>1403.4000244140625</ele>
        <time>2003-04-18T12:04:18.000Z</time>
      </trkpt>
      <trkpt lon="-2.3222799506038427" lat="42.94615997001529">
        <ele>1404.800048828125</ele>
        <time>2003-04-18T12:04:24.000Z</time>
      </trkpt>
      <trkpt lon="-2.322390004992485" lat="42.94628997333348">
        <ele>1409.0</ele>
        <time>2003-04-18T12:04:43.000Z</time>
      </trkpt>
      <trkpt lon="-2.3224098701030016" lat="42.94631000608206">
        <ele>1409.800048828125</ele>
        <time>2003-04-18T12:04:50.000Z</time>
      </trkpt>
      <trkpt lon="-2.3224299028515816" lat="42.946389969438314">
        <ele>1411.0</ele>
        <time>2003-04-18T12:05:09.000Z</time>
      </trkpt>
      <trkpt lon="-2.3224699683487415" lat="42.94644000940025">
        <ele>1412.800048828125</ele>
        <time>2003-04-18T12:05:23.000Z</time>
      </trkpt>
      <trkpt lon="-2.3224499356001616" lat="42.94647999107838">
        <ele>1412.5999755859375</ele>
        <time>2003-04-18T12:05:30.000Z</time>
      </trkpt>
      <trkpt lon="-2.3224699683487415" lat="42.94647999107838">
        <ele>1413.199951171875</ele>
        <time>2003-04-18T12:05:31.000Z</time>
      </trkpt>
      <trkpt lon="-2.3224900010973215" lat="42.946519972756505">
        <ele>1414.199951171875</ele>
        <time>2003-04-18T12:05:44.000Z</time>
      </trkpt>
      <trkpt lon="-2.3225099500268698" lat="42.946649976074696">
        <ele>1416.0</ele>
        <time>2003-04-18T12:06:14.000Z</time>
      </trkpt>
      <trkpt lon="-2.322559989988804" lat="42.94693001545966">
        <ele>1414.5999755859375</ele>
        <time>2003-04-18T12:07:29.000Z</time>
      </trkpt>
      <trkpt lon="-2.322599971666932" lat="42.946990029886365">
        <ele>1415.0</ele>
        <time>2003-04-18T12:07:41.000Z</time>
      </trkpt>
      <trkpt lon="-2.3226398695260286" lat="42.94702003709972">
        <ele>1415.5999755859375</ele>
        <time>2003-04-18T12:07:58.000Z</time>
      </trkpt>
      <trkpt lon="-2.3227099422365427" lat="42.947079967707396">
        <ele>1416.5999755859375</ele>
        <time>2003-04-18T12:08:10.000Z</time>
      </trkpt>
      <trkpt lon="-2.3227099422365427" lat="42.947120033204556">
        <ele>1416.4000244140625</ele>
        <time>2003-04-18T12:08:13.000Z</time>
      </trkpt>
      <trkpt lon="-2.322769956663251" lat="42.947139982134104">
        <ele>1417.800048828125</ele>
        <time>2003-04-18T12:08:17.000Z</time>
      </trkpt>
      <trkpt lon="-2.322769956663251" lat="42.94716998934746">
        <ele>1417.5999755859375</ele>
        <time>2003-04-18T12:08:20.000Z</time>
      </trkpt>
      <trkpt lon="-2.322769956663251" lat="42.947209971025586">
        <ele>1417.4000244140625</ele>
        <time>2003-04-18T12:08:24.000Z</time>
      </trkpt>
      <trkpt lon="-2.3228398617357016" lat="42.947269985452294">
        <ele>1419.0</ele>
        <time>2003-04-18T12:08:48.000Z</time>
      </trkpt>
      <trkpt lon="-2.3228398617357016" lat="42.947420021519065">
        <ele>1418.4000244140625</ele>
        <time>2003-04-18T12:09:02.000Z</time>
      </trkpt>
      <trkpt lon="-2.3228999599814415" lat="42.947569973766804">
        <ele>1419.800048828125</ele>
        <time>2003-04-18T12:09:19.000Z</time>
      </trkpt>
      <trkpt lon="-2.3229400254786015" lat="42.947680028155446">
        <ele>1421.0</ele>
        <time>2003-04-18T12:09:34.000Z</time>
      </trkpt>
      <trkpt lon="-2.323029963299632" lat="42.94775001704693">
        <ele>1423.800048828125</ele>
        <time>2003-04-18T12:09:48.000Z</time>
      </trkpt>
      <trkpt lon="-2.323459954932332" lat="42.947980016469955">
        <ele>1435.800048828125</ele>
        <time>2003-04-18T12:10:30.000Z</time>
      </trkpt>
      <trkpt lon="-2.3235399182885885" lat="42.94805000536144">
        <ele>1436.800048828125</ele>
        <time>2003-04-18T12:10:42.000Z</time>
      </trkpt>
      <trkpt lon="-2.3235198855400085" lat="42.948170034214854">
        <ele>1437.800048828125</ele>
        <time>2003-04-18T12:10:55.000Z</time>
      </trkpt>
      <trkpt lon="-2.323670005425811" lat="42.948449989780784">
        <ele>1441.5999755859375</ele>
        <time>2003-04-18T12:11:18.000Z</time>
      </trkpt>
      <trkpt lon="-2.3237798921763897" lat="42.948600025847554">
        <ele>1444.4000244140625</ele>
        <time>2003-04-18T12:11:36.000Z</time>
      </trkpt>
      <trkpt lon="-2.3239498771727085" lat="42.948470022529364">
        <ele>1446.0</ele>
        <time>2003-04-18T12:12:42.000Z</time>
      </trkpt>
      <trkpt lon="-2.324360003694892" lat="42.948600025847554">
        <ele>1451.0</ele>
        <time>2003-04-18T12:13:01.000Z</time>
      </trkpt>
      <trkpt lon="-2.3242299165576696" lat="42.948730029165745">
        <ele>1454.0</ele>
        <time>2003-04-18T12:13:16.000Z</time>
      </trkpt>
      <trkpt lon="-2.3242098838090897" lat="42.94877998530865">
        <ele>1454.800048828125</ele>
        <time>2003-04-18T12:13:41.000Z</time>
      </trkpt>
      <trkpt lon="-2.324190018698573" lat="42.948860032483935">
        <ele>1456.4000244140625</ele>
        <time>2003-04-18T12:14:00.000Z</time>
      </trkpt>
      <trkpt lon="-2.324169985949993" lat="42.94893002137542">
        <ele>1457.800048828125</ele>
        <time>2003-04-18T12:14:12.000Z</time>
      </trkpt>
      <trkpt lon="-2.324190018698573" lat="42.948970003053546">
        <ele>1458.4000244140625</ele>
        <time>2003-04-18T12:14:23.000Z</time>
      </trkpt>
      <trkpt lon="-2.324339970946312" lat="42.94907997362316">
        <ele>1460.0</ele>
        <time>2003-04-18T12:14:37.000Z</time>
      </trkpt>
      <trkpt lon="-2.32437995262444" lat="42.949139988049865">
        <ele>1461.0</ele>
        <time>2003-04-18T12:14:49.000Z</time>
      </trkpt>
      <trkpt lon="-2.3244200181216" lat="42.94920000247657">
        <ele>1461.4000244140625</ele>
        <time>2003-04-18T12:15:05.000Z</time>
      </trkpt>
      <trkpt lon="-2.32439998537302" lat="42.94923000968993">
        <ele>1461.4000244140625</ele>
        <time>2003-04-18T12:15:29.000Z</time>
      </trkpt>
      <trkpt lon="-2.32439998537302" lat="42.949309973046184">
        <ele>1461.4000244140625</ele>
        <time>2003-04-18T12:15:54.000Z</time>
      </trkpt>
      <trkpt lon="-2.3244699742645025" lat="42.949420027434826">
        <ele>1461.5999755859375</ele>
        <time>2003-04-18T12:16:10.000Z</time>
      </trkpt>
      <trkpt lon="-2.3245099559426308" lat="42.94952999800444">
        <ele>1461.800048828125</ele>
        <time>2003-04-18T12:16:24.000Z</time>
      </trkpt>
      <trkpt lon="-2.3245299886912107" lat="42.94955003075302">
        <ele>1462.0</ele>
        <time>2003-04-18T12:16:26.000Z</time>
      </trkpt>
      <trkpt lon="-2.3245099559426308" lat="42.949590012431145">
        <ele>1462.0</ele>
        <time>2003-04-18T12:16:30.000Z</time>
      </trkpt>
      <trkpt lon="-2.3245099559426308" lat="42.94968003407121">
        <ele>1462.199951171875</ele>
        <time>2003-04-18T12:16:40.000Z</time>
      </trkpt>
      <trkpt lon="-2.324569970369339" lat="42.949829986318946">
        <ele>1462.800048828125</ele>
        <time>2003-04-18T12:16:56.000Z</time>
      </trkpt>
      <trkpt lon="-2.324620010331273" lat="42.94992998242378">
        <ele>1463.5999755859375</ele>
        <time>2003-04-18T12:17:08.000Z</time>
      </trkpt>
      <trkpt lon="-2.324620010331273" lat="42.94995998963714">
        <ele>1463.800048828125</ele>
        <time>2003-04-18T12:17:09.000Z</time>
      </trkpt>
      <trkpt lon="-2.324620010331273" lat="42.950040036812425">
        <ele>1464.4000244140625</ele>
        <time>2003-04-18T12:17:23.000Z</time>
      </trkpt>
      <trkpt lon="-2.3246599081903696" lat="42.950150007382035">
        <ele>1466.4000244140625</ele>
        <time>2003-04-18T12:17:37.000Z</time>
      </trkpt>
      <trkpt lon="-2.3246398754417896" lat="42.95021002180874">
        <ele>1467.0</ele>
        <time>2003-04-18T12:17:47.000Z</time>
      </trkpt>
      <trkpt lon="-2.3245500214397907" lat="42.950259977951646">
        <ele>1465.800048828125</ele>
        <time>2003-04-18T12:17:58.000Z</time>
      </trkpt>
      <trkpt lon="-2.3245099559426308" lat="42.95035997405648">
        <ele>1465.800048828125</ele>
        <time>2003-04-18T12:18:20.000Z</time>
      </trkpt>
      <trkpt lon="-2.3245099559426308" lat="42.95038000680506">
        <ele>1466.0</ele>
        <time>2003-04-18T12:18:21.000Z</time>
      </trkpt>
      <trkpt lon="-2.3245299886912107" lat="42.950470028445125">
        <ele>1467.4000244140625</ele>
        <time>2003-04-18T12:18:31.000Z</time>
      </trkpt>
      <trkpt lon="-2.3245299886912107" lat="42.950559966266155">
        <ele>1468.199951171875</ele>
        <time>2003-04-18T12:18:48.000Z</time>
      </trkpt>
      <trkpt lon="-2.3245299886912107" lat="42.95061998069286">
        <ele>1468.800048828125</ele>
        <time>2003-04-18T12:18:58.000Z</time>
      </trkpt>
      <trkpt lon="-2.324569970369339" lat="42.950689969584346">
        <ele>1470.800048828125</ele>
        <time>2003-04-18T12:19:12.000Z</time>
      </trkpt>
      <trkpt lon="-2.3246799409389496" lat="42.950770016759634">
        <ele>1476.199951171875</ele>
        <time>2003-04-18T12:19:28.000Z</time>
      </trkpt>
      <trkpt lon="-2.3247200064361095" lat="42.95078996568918">
        <ele>1478.199951171875</ele>
        <time>2003-04-18T12:19:40.000Z</time>
      </trkpt>
      <trkpt lon="-2.3247500136494637" lat="42.95080999843776">
        <ele>1479.800048828125</ele>
        <time>2003-04-18T12:19:43.000Z</time>
      </trkpt>
      <trkpt lon="-2.3247200064361095" lat="42.950879987329245">
        <ele>1476.199951171875</ele>
        <time>2003-04-18T12:19:59.000Z</time>
      </trkpt>
      <trkpt lon="-2.3247500136494637" lat="42.95094000175595">
        <ele>1474.199951171875</ele>
        <time>2003-04-18T12:20:13.000Z</time>
      </trkpt>
      <trkpt lon="-2.3247200064361095" lat="42.95096003450453">
        <ele>1471.800048828125</ele>
        <time>2003-04-18T12:20:18.000Z</time>
      </trkpt>
      <trkpt lon="-2.324769962579012" lat="42.951030023396015">
        <ele>1470.199951171875</ele>
        <time>2003-04-18T12:20:30.000Z</time>
      </trkpt>
      <trkpt lon="-2.324810028076172" lat="42.95107000507414">
        <ele>1469.800048828125</ele>
        <time>2003-04-18T12:20:51.000Z</time>
      </trkpt>
      <trkpt lon="-2.3249599803239107" lat="42.951220041140914">
        <ele>1469.4000244140625</ele>
        <time>2003-04-18T12:21:09.000Z</time>
      </trkpt>
      <trkpt lon="-2.3251099325716496" lat="42.951290030032396">
        <ele>1469.4000244140625</ele>
        <time>2003-04-18T12:21:23.000Z</time>
      </trkpt>
      <trkpt lon="-2.3251299653202295" lat="42.951309978961945">
        <ele>1468.800048828125</ele>
        <time>2003-04-18T12:21:34.000Z</time>
      </trkpt>
      <trkpt lon="-2.325199954211712" lat="42.951330011710525">
        <ele>1469.0</ele>
        <time>2003-04-18T12:21:47.000Z</time>
      </trkpt>
      <trkpt lon="-2.325219986960292" lat="42.951330011710525">
        <ele>1469.4000244140625</ele>
        <time>2003-04-18T12:22:01.000Z</time>
      </trkpt>
      <trkpt lon="-2.3251699469983578" lat="42.95126002281904">
        <ele>1471.5999755859375</ele>
        <time>2003-04-18T12:23:56.000Z</time>
      </trkpt>
      <trkpt lon="-2.3251099325716496" lat="42.951220041140914">
        <ele>1472.5999755859375</ele>
        <time>2003-04-18T12:24:07.000Z</time>
      </trkpt>
      <trkpt lon="-2.325050001963973" lat="42.951200008392334">
        <ele>1473.0</ele>
        <time>2003-04-18T12:24:11.000Z</time>
      </trkpt>
      <trkpt lon="-2.3249399475753307" lat="42.951139993965626">
        <ele>1472.5999755859375</ele>
        <time>2003-04-18T12:24:19.000Z</time>
      </trkpt>
      <trkpt lon="-2.324999962002039" lat="42.95110998675227">
        <ele>1477.0</ele>
        <time>2003-04-18T12:24:22.000Z</time>
      </trkpt>
      <trkpt lon="-2.32525996863842" lat="42.95104997232556">
        <ele>1481.0</ele>
        <time>2003-04-18T12:24:36.000Z</time>
      </trkpt>
      <trkpt lon="-2.3253699392080307" lat="42.951009990647435">
        <ele>1482.800048828125</ele>
        <time>2003-04-18T12:24:45.000Z</time>
      </trkpt>
      <trkpt lon="-2.325479993596673" lat="42.951009990647435">
        <ele>1482.800048828125</ele>
        <time>2003-04-18T12:24:55.000Z</time>
      </trkpt>
      <trkpt lon="-2.3255799897015095" lat="42.95104997232556">
        <ele>1482.0</ele>
        <time>2003-04-18T12:25:08.000Z</time>
      </trkpt>
      <trkpt lon="-2.325649978592992" lat="42.95104997232556">
        <ele>1482.199951171875</ele>
        <time>2003-04-18T12:25:14.000Z</time>
      </trkpt>
      <trkpt lon="-2.32573002576828" lat="42.95109003782272">
        <ele>1481.800048828125</ele>
        <time>2003-04-18T12:25:26.000Z</time>
      </trkpt>
      <trkpt lon="-2.32573002576828" lat="42.95107000507414">
        <ele>1482.199951171875</ele>
        <time>2003-04-18T12:25:28.000Z</time>
      </trkpt>
      <trkpt lon="-2.3257999308407307" lat="42.951030023396015">
        <ele>1483.0</ele>
        <time>2003-04-18T12:25:36.000Z</time>
      </trkpt>
      <trkpt lon="-2.3258600290864706" lat="42.95107000507414">
        <ele>1481.5999755859375</ele>
        <time>2003-04-18T12:25:42.000Z</time>
      </trkpt>
      <trkpt lon="-2.325900010764599" lat="42.951220041140914">
        <ele>1478.199951171875</ele>
        <time>2003-04-18T12:25:57.000Z</time>
      </trkpt>
      <trkpt lon="-2.325949966907501" lat="42.95123999007046">
        <ele>1476.4000244140625</ele>
        <time>2003-04-18T12:26:06.000Z</time>
      </trkpt>
      <trkpt lon="-2.3259899485856295" lat="42.951290030032396">
        <ele>1474.5999755859375</ele>
        <time>2003-04-18T12:26:10.000Z</time>
      </trkpt>
      <trkpt lon="-2.3259899485856295" lat="42.951309978961945">
        <ele>1474.4000244140625</ele>
        <time>2003-04-18T12:26:11.000Z</time>
      </trkpt>
      <trkpt lon="-2.3260098975151777" lat="42.951350044459105">
        <ele>1473.5999755859375</ele>
        <time>2003-04-18T12:26:15.000Z</time>
      </trkpt>
      <trkpt lon="-2.3260499630123377" lat="42.951439982280135">
        <ele>1471.5999755859375</ele>
        <time>2003-04-18T12:26:23.000Z</time>
      </trkpt>
      <trkpt lon="-2.3261000029742718" lat="42.951630000025034">
        <ele>1468.800048828125</ele>
        <time>2003-04-18T12:26:38.000Z</time>
      </trkpt>
      <trkpt lon="-2.3261798825114965" lat="42.95179998502135">
        <ele>1463.800048828125</ele>
        <time>2003-04-18T12:26:53.000Z</time>
      </trkpt>
      <trkpt lon="-2.3262900207191706" lat="42.95179998502135">
        <ele>1462.5999755859375</ele>
        <time>2003-04-18T12:27:04.000Z</time>
      </trkpt>
      <trkpt lon="-2.326309969648719" lat="42.95179998502135">
        <ele>1462.199951171875</ele>
        <time>2003-04-18T12:27:07.000Z</time>
      </trkpt>
      <trkpt lon="-2.326420024037361" lat="42.951869973912835">
        <ele>1460.199951171875</ele>
        <time>2003-04-18T12:27:18.000Z</time>
      </trkpt>
      <trkpt lon="-2.3264799546450377" lat="42.951910039409995">
        <ele>1459.5999755859375</ele>
        <time>2003-04-18T12:27:25.000Z</time>
      </trkpt>
      <trkpt lon="-2.3264799546450377" lat="42.95192998833954">
        <ele>1459.4000244140625</ele>
        <time>2003-04-18T12:27:28.000Z</time>
      </trkpt>
      <trkpt lon="-2.3264799546450377" lat="42.95195002108812">
        <ele>1459.4000244140625</ele>
        <time>2003-04-18T12:27:31.000Z</time>
      </trkpt>
      <trkpt lon="-2.3265099618583918" lat="42.95199000276625">
        <ele>1459.199951171875</ele>
        <time>2003-04-18T12:27:35.000Z</time>
      </trkpt>
      <trkpt lon="-2.3265500273555517" lat="42.952169962227345">
        <ele>1459.0</ele>
        <time>2003-04-18T12:27:49.000Z</time>
      </trkpt>
      <trkpt lon="-2.3266098741441965" lat="42.95228999108076">
        <ele>1459.800048828125</ele>
        <time>2003-04-18T12:28:06.000Z</time>
      </trkpt>
      <trkpt lon="-2.3266599141061306" lat="42.95235997997224">
        <ele>1461.0</ele>
        <time>2003-04-18T12:28:14.000Z</time>
      </trkpt>
      <trkpt lon="-2.3266999796032906" lat="42.95239996165037">
        <ele>1460.199951171875</ele>
        <time>2003-04-18T12:28:18.000Z</time>
      </trkpt>
      <trkpt lon="-2.3267200123518705" lat="42.95241999439895">
        <ele>1459.5999755859375</ele>
        <time>2003-04-18T12:28:21.000Z</time>
      </trkpt>
      <trkpt lon="-2.326739961281419" lat="42.95257003046572">
        <ele>1458.4000244140625</ele>
        <time>2003-04-18T12:28:34.000Z</time>
      </trkpt>
      <trkpt lon="-2.326809950172901" lat="42.952619986608624">
        <ele>1455.5999755859375</ele>
        <time>2003-04-18T12:28:46.000Z</time>
      </trkpt>
      <trkpt lon="-2.326829982921481" lat="42.95268000103533">
        <ele>1454.199951171875</ele>
        <time>2003-04-18T12:28:54.000Z</time>
      </trkpt>
      <trkpt lon="-2.326850015670061" lat="42.95271998271346">
        <ele>1453.4000244140625</ele>
        <time>2003-04-18T12:28:58.000Z</time>
      </trkpt>
      <trkpt lon="-2.3268899135291576" lat="42.95281000435352">
        <ele>1451.5999755859375</ele>
        <time>2003-04-18T12:29:10.000Z</time>
      </trkpt>
      <trkpt lon="-2.3269099462777376" lat="42.95284998603165">
        <ele>1450.800048828125</ele>
        <time>2003-04-18T12:29:18.000Z</time>
      </trkpt>
      <trkpt lon="-2.3269999679178" lat="42.95297998934984">
        <ele>1448.800048828125</ele>
        <time>2003-04-18T12:29:33.000Z</time>
      </trkpt>
      <trkpt lon="-2.327039949595928" lat="42.95300002209842">
        <ele>1448.199951171875</ele>
        <time>2003-04-18T12:29:37.000Z</time>
      </trkpt>
      <trkpt lon="-2.3271699529141188" lat="42.953070010989904">
        <ele>1447.199951171875</ele>
        <time>2003-04-18T12:29:48.000Z</time>
      </trkpt>
      <trkpt lon="-2.3272100184112787" lat="42.95313002541661">
        <ele>1447.199951171875</ele>
        <time>2003-04-18T12:30:00.000Z</time>
      </trkpt>
      <trkpt lon="-2.327259974554181" lat="42.953200014308095">
        <ele>1447.5999755859375</ele>
        <time>2003-04-18T12:30:13.000Z</time>
      </trkpt>
      <trkpt lon="-2.3272998724132776" lat="42.95321996323764">
        <ele>1447.800048828125</ele>
        <time>2003-04-18T12:30:17.000Z</time>
      </trkpt>
      <trkpt lon="-2.3273800034075975" lat="42.953369999304414">
        <ele>1450.0</ele>
        <time>2003-04-18T12:30:34.000Z</time>
      </trkpt>
      <trkpt lon="-2.3274100106209517" lat="42.953390032052994">
        <ele>1450.5999755859375</ele>
        <time>2003-04-18T12:30:44.000Z</time>
      </trkpt>
      <trkpt lon="-2.3274299595505" lat="42.95343001373112">
        <ele>1451.199951171875</ele>
        <time>2003-04-18T12:30:48.000Z</time>
      </trkpt>
      <trkpt lon="-2.32744999229908" lat="42.953500002622604">
        <ele>1452.4000244140625</ele>
        <time>2003-04-18T12:30:59.000Z</time>
      </trkpt>
      <trkpt lon="-2.32744999229908" lat="42.95357996597886">
        <ele>1453.800048828125</ele>
        <time>2003-04-18T12:31:11.000Z</time>
      </trkpt>
      <trkpt lon="-2.32744999229908" lat="42.95362003147602">
        <ele>1454.4000244140625</ele>
        <time>2003-04-18T12:31:21.000Z</time>
      </trkpt>
      <trkpt lon="-2.3274299595505" lat="42.95366998761892">
        <ele>1455.199951171875</ele>
        <time>2003-04-18T12:31:34.000Z</time>
      </trkpt>
      <trkpt lon="-2.3274299595505" lat="42.953799990937114">
        <ele>1457.199951171875</ele>
        <time>2003-04-18T12:31:47.000Z</time>
      </trkpt>
      <trkpt lon="-2.3274100106209517" lat="42.95389998704195">
        <ele>1459.0</ele>
        <time>2003-04-18T12:31:58.000Z</time>
      </trkpt>
      <trkpt lon="-2.3274299595505" lat="42.953950027003884">
        <ele>1459.800048828125</ele>
        <time>2003-04-18T12:32:03.000Z</time>
      </trkpt>
      <trkpt lon="-2.32744999229908" lat="42.95401004143059">
        <ele>1460.5999755859375</ele>
        <time>2003-04-18T12:32:10.000Z</time>
      </trkpt>
      <trkpt lon="-2.32747002504766" lat="42.9541200120002">
        <ele>1462.4000244140625</ele>
        <time>2003-04-18T12:32:21.000Z</time>
      </trkpt>
      <trkpt lon="-2.327489973977208" lat="42.95415999367833">
        <ele>1463.0</ele>
        <time>2003-04-18T12:32:26.000Z</time>
      </trkpt>
      <trkpt lon="-2.327489973977208" lat="42.95418002642691">
        <ele>1463.199951171875</ele>
        <time>2003-04-18T12:32:30.000Z</time>
      </trkpt>
      <trkpt lon="-2.327510006725788" lat="42.95419997535646">
        <ele>1463.4000244140625</ele>
        <time>2003-04-18T12:32:32.000Z</time>
      </trkpt>
      <trkpt lon="-2.3275799956172705" lat="42.954250015318394">
        <ele>1462.199951171875</ele>
        <time>2003-04-18T12:32:39.000Z</time>
      </trkpt>
      <trkpt lon="-2.327510006725788" lat="42.95426996424794">
        <ele>1464.5999755859375</ele>
        <time>2003-04-18T12:32:44.000Z</time>
      </trkpt>
      <trkpt lon="-2.32747002504766" lat="42.9543100297451">
        <ele>1465.800048828125</ele>
        <time>2003-04-18T12:32:50.000Z</time>
      </trkpt>
      <trkpt lon="-2.32747002504766" lat="42.95445998199284">
        <ele>1468.5999755859375</ele>
        <time>2003-04-18T12:33:05.000Z</time>
      </trkpt>
      <trkpt lon="-2.327489973977208" lat="42.95458998531103">
        <ele>1471.199951171875</ele>
        <time>2003-04-18T12:33:20.000Z</time>
      </trkpt>
      <trkpt lon="-2.3275399301201105" lat="42.95471998862922">
        <ele>1472.5999755859375</ele>
        <time>2003-04-18T12:33:35.000Z</time>
      </trkpt>
      <trkpt lon="-2.3275399301201105" lat="42.9547400213778">
        <ele>1472.800048828125</ele>
        <time>2003-04-18T12:33:37.000Z</time>
      </trkpt>
      <trkpt lon="-2.3275799956172705" lat="42.954830043017864">
        <ele>1473.5999755859375</ele>
        <time>2003-04-18T12:33:46.000Z</time>
      </trkpt>
      <trkpt lon="-2.327659958973527" lat="42.95495996251702">
        <ele>1474.0</ele>
        <time>2003-04-18T12:34:01.000Z</time>
      </trkpt>
      <trkpt lon="-2.3277699295431376" lat="42.95507999137044">
        <ele>1473.4000244140625</ele>
        <time>2003-04-18T12:34:16.000Z</time>
      </trkpt>
      <trkpt lon="-2.32787998393178" lat="42.95520999468863">
        <ele>1473.4000244140625</ele>
        <time>2003-04-18T12:34:34.000Z</time>
      </trkpt>
      <trkpt lon="-2.327939998358488" lat="42.95531996525824">
        <ele>1474.4000244140625</ele>
        <time>2003-04-18T12:34:47.000Z</time>
      </trkpt>
      <trkpt lon="-2.3280099034309387" lat="42.95537997968495">
        <ele>1474.5999755859375</ele>
        <time>2003-04-18T12:34:59.000Z</time>
      </trkpt>
      <trkpt lon="-2.328109983354807" lat="42.95544996857643">
        <ele>1474.5999755859375</ele>
        <time>2003-04-18T12:35:10.000Z</time>
      </trkpt>
      <trkpt lon="-2.3281999211758375" lat="42.95557997189462">
        <ele>1476.800048828125</ele>
        <time>2003-04-18T12:35:25.000Z</time>
      </trkpt>
      <trkpt lon="-2.3282600194215775" lat="42.95567996799946">
        <ele>1479.0</ele>
        <time>2003-04-18T12:35:36.000Z</time>
      </trkpt>
      <trkpt lon="-2.32830997556448" lat="42.95573000796139">
        <ele>1480.0</ele>
        <time>2003-04-18T12:35:40.000Z</time>
      </trkpt>
      <trkpt lon="-2.328539974987507" lat="42.95589999295771">
        <ele>1478.0</ele>
        <time>2003-04-18T12:35:57.000Z</time>
      </trkpt>
      <trkpt lon="-2.328629996627569" lat="42.95593997463584">
        <ele>1476.199951171875</ele>
        <time>2003-04-18T12:36:03.000Z</time>
      </trkpt>
      <trkpt lon="-2.3287599999457598" lat="42.95609001070261">
        <ele>1476.5999755859375</ele>
        <time>2003-04-18T12:36:17.000Z</time>
      </trkpt>
      <trkpt lon="-2.3289500176906586" lat="42.95631003566086">
        <ele>1478.199951171875</ele>
        <time>2003-04-18T12:36:33.000Z</time>
      </trkpt>
      <trkpt lon="-2.3292100243270397" lat="42.95655998401344">
        <ele>1480.0</ele>
        <time>2003-04-18T12:36:55.000Z</time>
      </trkpt>
      <trkpt lon="-2.3292100243270397" lat="42.95661002397537">
        <ele>1481.800048828125</ele>
        <time>2003-04-18T12:36:57.000Z</time>
      </trkpt>
      <trkpt lon="-2.3293399438261986" lat="42.95678000897169">
        <ele>1483.800048828125</ele>
        <time>2003-04-18T12:37:10.000Z</time>
      </trkpt>
      <trkpt lon="-2.3296199832111597" lat="42.95680004172027">
        <ele>1476.5999755859375</ele>
        <time>2003-04-18T12:37:26.000Z</time>
      </trkpt>
      <trkpt lon="-2.329719979315996" lat="42.95680004172027">
        <ele>1473.800048828125</ele>
        <time>2003-04-18T12:37:32.000Z</time>
      </trkpt>
      <trkpt lon="-2.3297899682074785" lat="42.95681999064982">
        <ele>1472.4000244140625</ele>
        <time>2003-04-18T12:37:47.000Z</time>
      </trkpt>
      <trkpt lon="-2.3298700153827667" lat="42.95685997232795">
        <ele>1471.5999755859375</ele>
        <time>2003-04-18T12:38:05.000Z</time>
      </trkpt>
      <trkpt lon="-2.3299598693847656" lat="42.9568899795413">
        <ele>1470.199951171875</ele>
        <time>2003-04-18T12:38:16.000Z</time>
      </trkpt>
      <trkpt lon="-2.3299999348819256" lat="42.9568899795413">
        <ele>1469.0</ele>
        <time>2003-04-18T12:38:36.000Z</time>
      </trkpt>
      <trkpt lon="-2.3300499748438597" lat="42.95691001228988">
        <ele>1467.800048828125</ele>
        <time>2003-04-18T12:39:10.000Z</time>
      </trkpt>
      <trkpt lon="-2.330089956521988" lat="42.95698997564614">
        <ele>1469.0</ele>
        <time>2003-04-18T12:39:18.000Z</time>
      </trkpt>
      <trkpt lon="-2.330109989270568" lat="42.95698997564614">
        <ele>1468.199951171875</ele>
        <time>2003-04-18T12:39:21.000Z</time>
      </trkpt>
      <trkpt lon="-2.3302399925887585" lat="42.9570799972862">
        <ele>1466.199951171875</ele>
        <time>2003-04-18T12:39:31.000Z</time>
      </trkpt>
      <trkpt lon="-2.3304098937660456" lat="42.95714001171291">
        <ele>1461.5999755859375</ele>
        <time>2003-04-18T12:39:42.000Z</time>
      </trkpt>
      <trkpt lon="-2.3304299265146255" lat="42.95714001171291">
        <ele>1460.800048828125</ele>
        <time>2003-04-18T12:39:43.000Z</time>
      </trkpt>
      <trkpt lon="-2.330560013651848" lat="42.95723003335297">
        <ele>1458.800048828125</ele>
        <time>2003-04-18T12:39:53.000Z</time>
      </trkpt>
      <trkpt lon="-2.330579962581396" lat="42.95723003335297">
        <ele>1458.0</ele>
        <time>2003-04-18T12:39:54.000Z</time>
      </trkpt>
      <trkpt lon="-2.3308599181473255" lat="42.95736003667116">
        <ele>1452.0</ele>
        <time>2003-04-18T12:40:13.000Z</time>
      </trkpt>
      <trkpt lon="-2.331029986962676" lat="42.95747000724077">
        <ele>1451.5999755859375</ele>
        <time>2003-04-18T12:40:25.000Z</time>
      </trkpt>
      <trkpt lon="-2.3311399575322866" lat="42.9575099889189">
        <ele>1450.199951171875</ele>
        <time>2003-04-18T12:40:31.000Z</time>
      </trkpt>
      <trkpt lon="-2.331269960850477" lat="42.95759003609419">
        <ele>1449.4000244140625</ele>
        <time>2003-04-18T12:40:40.000Z</time>
      </trkpt>
      <trkpt lon="-2.3313800152391195" lat="42.9577000066638">
        <ele>1450.199951171875</ele>
        <time>2003-04-18T12:40:48.000Z</time>
      </trkpt>
      <trkpt lon="-2.331659970805049" lat="42.9577000066638">
        <ele>1442.4000244140625</ele>
        <time>2003-04-18T12:41:03.000Z</time>
      </trkpt>
      <trkpt lon="-2.331699952483177" lat="42.95766002498567">
        <ele>1440.0</ele>
        <time>2003-04-18T12:41:09.000Z</time>
      </trkpt>
      <trkpt lon="-2.3317799158394337" lat="42.9577000066638">
        <ele>1438.800048828125</ele>
        <time>2003-04-18T12:41:18.000Z</time>
      </trkpt>
      <trkpt lon="-2.3318499885499477" lat="42.95773998834193">
        <ele>1437.800048828125</ele>
        <time>2003-04-18T12:41:23.000Z</time>
      </trkpt>
      <trkpt lon="-2.3319999407976866" lat="42.9578900244087">
        <ele>1437.5999755859375</ele>
        <time>2003-04-18T12:41:36.000Z</time>
      </trkpt>
      <trkpt lon="-2.332059955224395" lat="42.9579399805516">
        <ele>1437.199951171875</ele>
        <time>2003-04-18T12:41:41.000Z</time>
      </trkpt>
      <trkpt lon="-2.3322299402207136" lat="42.95809001661837">
        <ele>1436.0</ele>
        <time>2003-04-18T12:41:55.000Z</time>
      </trkpt>
      <trkpt lon="-2.332339994609356" lat="42.95822001993656">
        <ele>1436.199951171875</ele>
        <time>2003-04-18T12:42:10.000Z</time>
      </trkpt>
      <trkpt lon="-2.332339994609356" lat="42.95829998329282">
        <ele>1438.4000244140625</ele>
        <time>2003-04-18T12:42:16.000Z</time>
      </trkpt>
      <trkpt lon="-2.332360027357936" lat="42.95835002325475">
        <ele>1439.199951171875</ele>
        <time>2003-04-18T12:42:19.000Z</time>
      </trkpt>
      <trkpt lon="-2.3324699979275465" lat="42.95839000493288">
        <ele>1436.800048828125</ele>
        <time>2003-04-18T12:42:29.000Z</time>
      </trkpt>
      <trkpt lon="-2.3325099796056747" lat="42.95841003768146">
        <ele>1436.0</ele>
        <time>2003-04-18T12:42:33.000Z</time>
      </trkpt>
      <trkpt lon="-2.3326398991048336" lat="42.95852000825107">
        <ele>1434.800048828125</ele>
        <time>2003-04-18T12:42:47.000Z</time>
      </trkpt>
      <trkpt lon="-2.3327099718153477" lat="42.9585599899292">
        <ele>1433.5999755859375</ele>
        <time>2003-04-18T12:43:04.000Z</time>
      </trkpt>
      <trkpt lon="-2.332769986242056" lat="42.95859997160733">
        <ele>1432.800048828125</ele>
        <time>2003-04-18T12:43:21.000Z</time>
      </trkpt>
      <trkpt lon="-2.332809967920184" lat="42.95862000435591">
        <ele>1432.0</ele>
        <time>2003-04-18T12:43:27.000Z</time>
      </trkpt>
      <trkpt lon="-2.3328999895602465" lat="42.95867004431784">
        <ele>1430.4000244140625</ele>
        <time>2003-04-18T12:43:45.000Z</time>
      </trkpt>
      <trkpt lon="-2.3329399712383747" lat="42.95865001156926">
        <ele>1428.4000244140625</ele>
        <time>2003-04-18T12:43:55.000Z</time>
      </trkpt>
      <trkpt lon="-2.332990011200309" lat="42.95867004431784">
        <ele>1427.4000244140625</ele>
        <time>2003-04-18T12:43:59.000Z</time>
      </trkpt>
      <trkpt lon="-2.3330698907375336" lat="42.95865001156926">
        <ele>1423.800048828125</ele>
        <time>2003-04-18T12:44:09.000Z</time>
      </trkpt>
      <trkpt lon="-2.3331399634480476" lat="42.95865001156926">
        <ele>1421.4000244140625</ele>
        <time>2003-04-18T12:44:16.000Z</time>
      </trkpt>
      <trkpt lon="-2.3331599961966276" lat="42.95867004431784">
        <ele>1421.4000244140625</ele>
        <time>2003-04-18T12:44:18.000Z</time>
      </trkpt>
      <trkpt lon="-2.333239959552884" lat="42.95867004431784">
        <ele>1418.5999755859375</ele>
        <time>2003-04-18T12:44:25.000Z</time>
      </trkpt>
      <trkpt lon="-2.3333099484443665" lat="42.95867004431784">
        <ele>1416.199951171875</ele>
        <time>2003-04-18T12:44:30.000Z</time>
      </trkpt>
      <trkpt lon="-2.3333499301224947" lat="42.95867004431784">
        <ele>1414.800048828125</ele>
        <time>2003-04-18T12:44:32.000Z</time>
      </trkpt>
      <trkpt lon="-2.3333699628710747" lat="42.95868999324739">
        <ele>1414.800048828125</ele>
        <time>2003-04-18T12:44:34.000Z</time>
      </trkpt>
      <trkpt lon="-2.333439951762557" lat="42.95871002599597">
        <ele>1413.4000244140625</ele>
        <time>2003-04-18T12:44:40.000Z</time>
      </trkpt>
      <trkpt lon="-2.3335899878293276" lat="42.95872997492552">
        <ele>1409.4000244140625</ele>
        <time>2003-04-18T12:44:51.000Z</time>
      </trkpt>
      <trkpt lon="-2.333669951185584" lat="42.9587500076741">
        <ele>1407.4000244140625</ele>
        <time>2003-04-18T12:44:56.000Z</time>
      </trkpt>
      <trkpt lon="-2.3337799217551947" lat="42.958799963817">
        <ele>1405.800048828125</ele>
        <time>2003-04-18T12:45:03.000Z</time>
      </trkpt>
      <trkpt lon="-2.3338199872523546" lat="42.95881999656558">
        <ele>1405.199951171875</ele>
        <time>2003-04-18T12:45:05.000Z</time>
      </trkpt>
      <trkpt lon="-2.333889976143837" lat="42.95884002931416">
        <ele>1403.800048828125</ele>
        <time>2003-04-18T12:45:09.000Z</time>
      </trkpt>
      <trkpt lon="-2.3340199794620275" lat="42.95885997824371">
        <ele>1400.4000244140625</ele>
        <time>2003-04-18T12:45:16.000Z</time>
      </trkpt>
      <trkpt lon="-2.3342299461364746" lat="42.95891999267042">
        <ele>1396.4000244140625</ele>
        <time>2003-04-18T12:45:28.000Z</time>
      </trkpt>
      <trkpt lon="-2.334340000525117" lat="42.95891999267042">
        <ele>1393.4000244140625</ele>
        <time>2003-04-18T12:45:33.000Z</time>
      </trkpt>
      <trkpt lon="-2.3345300182700157" lat="42.95891999267042">
        <ele>1388.4000244140625</ele>
        <time>2003-04-18T12:45:44.000Z</time>
      </trkpt>
      <trkpt lon="-2.334549967199564" lat="42.95894999988377">
        <ele>1389.0</ele>
        <time>2003-04-18T12:45:46.000Z</time>
      </trkpt>
      <trkpt lon="-2.3346599377691746" lat="42.95897003263235">
        <ele>1386.800048828125</ele>
        <time>2003-04-18T12:45:53.000Z</time>
      </trkpt>
      <trkpt lon="-2.334719952195883" lat="42.95897003263235">
        <ele>1385.199951171875</ele>
        <time>2003-04-18T12:45:58.000Z</time>
      </trkpt>
      <trkpt lon="-2.3348999954760075" lat="42.9589899815619">
        <ele>1381.0</ele>
        <time>2003-04-18T12:46:10.000Z</time>
      </trkpt>
      <trkpt lon="-2.3349399771541357" lat="42.95901001431048">
        <ele>1380.800048828125</ele>
        <time>2003-04-18T12:46:15.000Z</time>
      </trkpt>
      <trkpt lon="-2.3350498639047146" lat="42.9589899815619">
        <ele>1376.800048828125</ele>
        <time>2003-04-18T12:46:23.000Z</time>
      </trkpt>
      <trkpt lon="-2.3350899294018745" lat="42.95901001431048">
        <ele>1376.4000244140625</ele>
        <time>2003-04-18T12:46:26.000Z</time>
      </trkpt>
      <trkpt lon="-2.335199983790517" lat="42.95902996324003">
        <ele>1373.5999755859375</ele>
        <time>2003-04-18T12:46:36.000Z</time>
      </trkpt>
      <trkpt lon="-2.335259998217225" lat="42.95902996324003">
        <ele>1371.800048828125</ele>
        <time>2003-04-18T12:46:40.000Z</time>
      </trkpt>
      <trkpt lon="-2.3352998960763216" lat="42.95902996324003">
        <ele>1370.5999755859375</ele>
        <time>2003-04-18T12:46:44.000Z</time>
      </trkpt>
      <trkpt lon="-2.335429983213544" lat="42.95902996324003">
        <ele>1366.4000244140625</ele>
        <time>2003-04-18T12:46:53.000Z</time>
      </trkpt>
      <trkpt lon="-2.3355199210345745" lat="42.95907002873719">
        <ele>1365.199951171875</ele>
        <time>2003-04-18T12:47:00.000Z</time>
      </trkpt>
      <trkpt lon="-2.3355399537831545" lat="42.95902996324003">
        <ele>1363.0</ele>
        <time>2003-04-18T12:47:03.000Z</time>
      </trkpt>
      <trkpt lon="-2.335650008171797" lat="42.9589899815619">
        <ele>1358.199951171875</ele>
        <time>2003-04-18T12:47:16.000Z</time>
      </trkpt>
      <trkpt lon="-2.335669957101345" lat="42.9589899815619">
        <ele>1357.5999755859375</ele>
        <time>2003-04-18T12:47:18.000Z</time>
      </trkpt>
      <trkpt lon="-2.335689989849925" lat="42.95901001431048">
        <ele>1357.5999755859375</ele>
        <time>2003-04-18T12:47:20.000Z</time>
      </trkpt>
      <trkpt lon="-2.3357499204576015" lat="42.95902996324003">
        <ele>1356.5999755859375</ele>
        <time>2003-04-18T12:47:26.000Z</time>
      </trkpt>
      <trkpt lon="-2.335859974846244" lat="42.95907002873719">
        <ele>1354.4000244140625</ele>
        <time>2003-04-18T12:47:40.000Z</time>
      </trkpt>
      <trkpt lon="-2.335880007594824" lat="42.95907002873719">
        <ele>1353.4000244140625</ele>
        <time>2003-04-18T12:47:42.000Z</time>
      </trkpt>
      <trkpt lon="-2.335929963737726" lat="42.95907002873719">
        <ele>1351.4000244140625</ele>
        <time>2003-04-18T12:47:48.000Z</time>
      </trkpt>
      <trkpt lon="-2.3360799998044968" lat="42.95914001762867">
        <ele>1347.800048828125</ele>
        <time>2003-04-18T12:48:01.000Z</time>
      </trkpt>
      <trkpt lon="-2.336119981482625" lat="42.95914001762867">
        <ele>1346.0</ele>
        <time>2003-04-18T12:48:06.000Z</time>
      </trkpt>
      <trkpt lon="-2.3361598793417215" lat="42.95901001431048">
        <ele>1339.800048828125</ele>
        <time>2003-04-18T12:48:23.000Z</time>
      </trkpt>
      <trkpt lon="-2.3361598793417215" lat="42.95901001431048">
        <ele>1339.800048828125</ele>
        <time>2003-04-18T12:48:24.000Z</time>
      </trkpt>
      <trkpt lon="-2.3361598793417215" lat="42.95897003263235">
        <ele>1338.5999755859375</ele>
        <time>2003-04-18T12:48:28.000Z</time>
      </trkpt>
      <trkpt lon="-2.3361799120903015" lat="42.95894999988377">
        <ele>1337.0</ele>
        <time>2003-04-18T12:48:32.000Z</time>
      </trkpt>
      <trkpt lon="-2.3362499848008156" lat="42.9589899815619">
        <ele>1335.5999755859375</ele>
        <time>2003-04-18T12:48:37.000Z</time>
      </trkpt>
      <trkpt lon="-2.336349980905652" lat="42.95907002873719">
        <ele>1334.199951171875</ele>
        <time>2003-04-18T12:48:50.000Z</time>
      </trkpt>
      <trkpt lon="-2.336400020867586" lat="42.95911998488009">
        <ele>1333.5999755859375</ele>
        <time>2003-04-18T12:48:57.000Z</time>
      </trkpt>
      <trkpt lon="-2.3364599514752626" lat="42.95910003595054">
        <ele>1330.5999755859375</ele>
        <time>2003-04-18T12:49:07.000Z</time>
      </trkpt>
      <trkpt lon="-2.3365000169724226" lat="42.95897003263235">
        <ele>1324.800048828125</ele>
        <time>2003-04-18T12:49:24.000Z</time>
      </trkpt>
      <trkpt lon="-2.3365000169724226" lat="42.95894999988377">
        <ele>1324.199951171875</ele>
        <time>2003-04-18T12:49:27.000Z</time>
      </trkpt>
      <trkpt lon="-2.3365300241857767" lat="42.95890004374087">
        <ele>1321.4000244140625</ele>
        <time>2003-04-18T12:49:32.000Z</time>
      </trkpt>
      <trkpt lon="-2.336549973115325" lat="42.95891999267042">
        <ele>1321.199951171875</ele>
        <time>2003-04-18T12:49:35.000Z</time>
      </trkpt>
      <trkpt lon="-2.336589954793453" lat="42.95894999988377">
        <ele>1320.5999755859375</ele>
        <time>2003-04-18T12:49:39.000Z</time>
      </trkpt>
      <trkpt lon="-2.3366799764335155" lat="42.95904999598861">
        <ele>1319.800048828125</ele>
        <time>2003-04-18T12:49:50.000Z</time>
      </trkpt>
      <trkpt lon="-2.336719958111644" lat="42.95907002873719">
        <ele>1318.5999755859375</ele>
        <time>2003-04-18T12:49:55.000Z</time>
      </trkpt>
      <trkpt lon="-2.336800005286932" lat="42.95915996655822">
        <ele>1317.199951171875</ele>
        <time>2003-04-18T12:50:06.000Z</time>
      </trkpt>
      <trkpt lon="-2.3368498776108027" lat="42.95901001431048">
        <ele>1310.800048828125</ele>
        <time>2003-04-18T12:50:21.000Z</time>
      </trkpt>
      <trkpt lon="-2.3368498776108027" lat="42.95901001431048">
        <ele>1310.800048828125</ele>
        <time>2003-04-18T12:50:22.000Z</time>
      </trkpt>
      <trkpt lon="-2.3368699103593826" lat="42.95897003263235">
        <ele>1308.800048828125</ele>
        <time>2003-04-18T12:50:30.000Z</time>
      </trkpt>
      <trkpt lon="-2.3368699103593826" lat="42.95884002931416">
        <ele>1305.199951171875</ele>
        <time>2003-04-18T12:50:47.000Z</time>
      </trkpt>
      <trkpt lon="-2.3368899431079626" lat="42.95884002931416">
        <ele>1304.4000244140625</ele>
        <time>2003-04-18T12:50:48.000Z</time>
      </trkpt>
      <trkpt lon="-2.3369099758565426" lat="42.95872997492552">
        <ele>1300.5999755859375</ele>
        <time>2003-04-18T12:50:58.000Z</time>
      </trkpt>
      <trkpt lon="-2.3369099758565426" lat="42.95871002599597">
        <ele>1300.0</ele>
        <time>2003-04-18T12:51:01.000Z</time>
      </trkpt>
      <trkpt lon="-2.3369099758565426" lat="42.95867004431784">
        <ele>1299.0</ele>
        <time>2003-04-18T12:51:04.000Z</time>
      </trkpt>
      <trkpt lon="-2.336979964748025" lat="42.95862000435591">
        <ele>1294.800048828125</ele>
        <time>2003-04-18T12:51:14.000Z</time>
      </trkpt>
      <trkpt lon="-2.336999997496605" lat="42.95865001156926">
        <ele>1294.800048828125</ele>
        <time>2003-04-18T12:51:17.000Z</time>
      </trkpt>
      <trkpt lon="-2.337039979174733" lat="42.95867004431784">
        <ele>1293.5999755859375</ele>
        <time>2003-04-18T12:51:20.000Z</time>
      </trkpt>
      <trkpt lon="-2.337060011923313" lat="42.95865001156926">
        <ele>1292.4000244140625</ele>
        <time>2003-04-18T12:51:22.000Z</time>
      </trkpt>
      <trkpt lon="-2.337060011923313" lat="42.95862000435591">
        <ele>1291.5999755859375</ele>
        <time>2003-04-18T12:51:24.000Z</time>
      </trkpt>
      <trkpt lon="-2.3371300008147955" lat="42.95862000435591">
        <ele>1288.800048828125</ele>
        <time>2003-04-18T12:51:32.000Z</time>
      </trkpt>
      <trkpt lon="-2.3371699824929237" lat="42.95862000435591">
        <ele>1287.199951171875</ele>
        <time>2003-04-18T12:51:35.000Z</time>
      </trkpt>
      <trkpt lon="-2.3371900152415037" lat="42.95858002267778">
        <ele>1285.5999755859375</ele>
        <time>2003-04-18T12:51:41.000Z</time>
      </trkpt>
      <trkpt lon="-2.3372999019920826" lat="42.95859997160733">
        <ele>1281.5999755859375</ele>
        <time>2003-04-18T12:51:51.000Z</time>
      </trkpt>
      <trkpt lon="-2.3373199347406626" lat="42.95862000435591">
        <ele>1281.199951171875</ele>
        <time>2003-04-18T12:51:55.000Z</time>
      </trkpt>
      <trkpt lon="-2.3373600002378225" lat="42.95865001156926">
        <ele>1280.0</ele>
        <time>2003-04-18T12:52:03.000Z</time>
      </trkpt>
      <trkpt lon="-2.337379949167371" lat="42.95862000435591">
        <ele>1278.5999755859375</ele>
        <time>2003-04-18T12:52:06.000Z</time>
      </trkpt>
      <trkpt lon="-2.337409956380725" lat="42.95867004431784">
        <ele>1278.4000244140625</ele>
        <time>2003-04-18T12:52:18.000Z</time>
      </trkpt>
      <trkpt lon="-2.337490003556013" lat="42.95859997160733">
        <ele>1273.800048828125</ele>
        <time>2003-04-18T12:52:28.000Z</time>
      </trkpt>
      <trkpt lon="-2.3375098686665297" lat="42.95862000435591">
        <ele>1273.4000244140625</ele>
        <time>2003-04-18T12:52:33.000Z</time>
      </trkpt>
      <trkpt lon="-2.3375299014151096" lat="42.95872997492552">
        <ele>1274.4000244140625</ele>
        <time>2003-04-18T12:52:43.000Z</time>
      </trkpt>
      <trkpt lon="-2.337639955803752" lat="42.9587500076741">
        <ele>1270.0</ele>
        <time>2003-04-18T12:53:00.000Z</time>
      </trkpt>
      <trkpt lon="-2.337680021300912" lat="42.958799963817">
        <ele>1269.199951171875</ele>
        <time>2003-04-18T12:53:19.000Z</time>
      </trkpt>
      <trkpt lon="-2.3377298936247826" lat="42.95897003263235">
        <ele>1269.800048828125</ele>
        <time>2003-04-18T12:53:36.000Z</time>
      </trkpt>
      <trkpt lon="-2.3378100246191025" lat="42.95907002873719">
        <ele>1268.0</ele>
        <time>2003-04-18T12:53:45.000Z</time>
      </trkpt>
      <trkpt lon="-2.337859980762005" lat="42.95911998488009">
        <ele>1266.5999755859375</ele>
        <time>2003-04-18T12:53:50.000Z</time>
      </trkpt>
      <trkpt lon="-2.337940027937293" lat="42.95915996655822">
        <ele>1263.800048828125</ele>
        <time>2003-04-18T12:53:57.000Z</time>
      </trkpt>
      <trkpt lon="-2.3379598930478096" lat="42.95915996655822">
        <ele>1263.0</ele>
        <time>2003-04-18T12:53:59.000Z</time>
      </trkpt>
      <trkpt lon="-2.3380099330097437" lat="42.95915996655822">
        <ele>1260.800048828125</ele>
        <time>2003-04-18T12:54:01.000Z</time>
      </trkpt>
      <trkpt lon="-2.338069947436452" lat="42.95920003205538">
        <ele>1258.800048828125</ele>
        <time>2003-04-18T12:54:06.000Z</time>
      </trkpt>
      <trkpt lon="-2.338110012933612" lat="42.95927002094686">
        <ele>1257.800048828125</ele>
        <time>2003-04-18T12:54:11.000Z</time>
      </trkpt>
      <trkpt lon="-2.338289972394705" lat="42.95947998762131">
        <ele>1252.4000244140625</ele>
        <time>2003-04-18T12:54:31.000Z</time>
      </trkpt>
      <trkpt lon="-2.338370019569993" lat="42.95953002758324">
        <ele>1249.199951171875</ele>
        <time>2003-04-18T12:54:38.000Z</time>
      </trkpt>
      <trkpt lon="-2.338540004566312" lat="42.95963002368808">
        <ele>1242.800048828125</ele>
        <time>2003-04-18T12:54:50.000Z</time>
      </trkpt>
      <trkpt lon="-2.338609993457794" lat="42.95973999425769">
        <ele>1241.199951171875</ele>
        <time>2003-04-18T12:55:05.000Z</time>
      </trkpt>
      <trkpt lon="-2.3386699240654707" lat="42.95976002700627">
        <ele>1238.800048828125</ele>
        <time>2003-04-18T12:55:09.000Z</time>
      </trkpt>
      <trkpt lon="-2.338759945705533" lat="42.95989003032446">
        <ele>1237.0</ele>
        <time>2003-04-18T12:55:18.000Z</time>
      </trkpt>
      <trkpt lon="-2.338800011202693" lat="42.95989003032446">
        <ele>1235.199951171875</ele>
        <time>2003-04-18T12:55:22.000Z</time>
      </trkpt>
      <trkpt lon="-2.3388399090617895" lat="42.95995004475117">
        <ele>1234.5999755859375</ele>
        <time>2003-04-18T12:55:26.000Z</time>
      </trkpt>
      <trkpt lon="-2.338860025629401" lat="42.96002003364265">
        <ele>1234.800048828125</ele>
        <time>2003-04-18T12:55:31.000Z</time>
      </trkpt>
      <trkpt lon="-2.338949963450432" lat="42.960079964250326">
        <ele>1232.4000244140625</ele>
        <time>2003-04-18T12:55:36.000Z</time>
      </trkpt>
      <trkpt lon="-2.339039985090494" lat="42.96020996756852">
        <ele>1231.199951171875</ele>
        <time>2003-04-18T12:55:47.000Z</time>
      </trkpt>
      <trkpt lon="-2.339060017839074" lat="42.96026000753045">
        <ele>1231.4000244140625</ele>
        <time>2003-04-18T12:55:50.000Z</time>
      </trkpt>
      <trkpt lon="-2.339249951764941" lat="42.96051003970206">
        <ele>1228.800048828125</ele>
        <time>2003-04-18T12:56:10.000Z</time>
      </trkpt>
      <trkpt lon="-2.339379955083132" lat="42.9606599919498">
        <ele>1227.4000244140625</ele>
        <time>2003-04-18T12:56:23.000Z</time>
      </trkpt>
      <trkpt lon="-2.3395098745822906" lat="42.96085998415947">
        <ele>1227.4000244140625</ele>
        <time>2003-04-18T12:56:40.000Z</time>
      </trkpt>
      <trkpt lon="-2.3395299073308706" lat="42.96088001690805">
        <ele>1227.4000244140625</ele>
        <time>2003-04-18T12:56:49.000Z</time>
      </trkpt>
      <trkpt lon="-2.339699976146221" lat="42.9610899835825">
        <ele>1228.800048828125</ele>
        <time>2003-04-18T12:57:09.000Z</time>
      </trkpt>
      <trkpt lon="-2.3397699650377035" lat="42.96118000522256">
        <ele>1229.4000244140625</ele>
        <time>2003-04-18T12:57:16.000Z</time>
      </trkpt>
      <trkpt lon="-2.33986996114254" lat="42.961259968578815">
        <ele>1228.800048828125</ele>
        <time>2003-04-18T12:57:25.000Z</time>
      </trkpt>
      <trkpt lon="-2.340039946138859" lat="42.961389971897006">
        <ele>1228.0</ele>
        <time>2003-04-18T12:57:40.000Z</time>
      </trkpt>
      <trkpt lon="-2.340150000527501" lat="42.96150002628565">
        <ele>1229.4000244140625</ele>
        <time>2003-04-18T12:57:54.000Z</time>
      </trkpt>
      <trkpt lon="-2.3402599710971117" lat="42.96160999685526">
        <ele>1230.5999755859375</ele>
        <time>2003-04-18T12:58:05.000Z</time>
      </trkpt>
      <trkpt lon="-2.34031998552382" lat="42.96164997853339">
        <ele>1230.5999755859375</ele>
        <time>2003-04-18T12:58:12.000Z</time>
      </trkpt>
      <trkpt lon="-2.3403898905962706" lat="42.96169004403055">
        <ele>1230.5999755859375</ele>
        <time>2003-04-18T12:58:17.000Z</time>
      </trkpt>
      <trkpt lon="-2.3404499888420105" lat="42.96176003292203">
        <ele>1232.0</ele>
        <time>2003-04-18T12:58:25.000Z</time>
      </trkpt>
      <trkpt lon="-2.340559959411621" lat="42.961839996278286">
        <ele>1232.800048828125</ele>
        <time>2003-04-18T12:58:34.000Z</time>
      </trkpt>
      <trkpt lon="-2.34074997715652" lat="42.96199003234506">
        <ele>1234.0</ele>
        <time>2003-04-18T12:58:52.000Z</time>
      </trkpt>
      <trkpt lon="-2.34074997715652" lat="42.96225003898144">
        <ele>1244.0</ele>
        <time>2003-04-18T12:59:10.000Z</time>
      </trkpt>
      <trkpt lon="-2.34074997715652" lat="42.962269987910986">
        <ele>1244.5999755859375</ele>
        <time>2003-04-18T12:59:13.000Z</time>
      </trkpt>
      <trkpt lon="-2.3408599477261305" lat="42.96232002787292">
        <ele>1243.800048828125</ele>
        <time>2003-04-18T12:59:20.000Z</time>
      </trkpt>
      <trkpt lon="-2.341030016541481" lat="42.96238004229963">
        <ele>1242.5999755859375</ele>
        <time>2003-04-18T12:59:37.000Z</time>
      </trkpt>
      <trkpt lon="-2.34117996878922" lat="42.96246998012066">
        <ele>1242.5999755859375</ele>
        <time>2003-04-18T12:59:49.000Z</time>
      </trkpt>
      <trkpt lon="-2.34117996878922" lat="42.96249001286924">
        <ele>1243.199951171875</ele>
        <time>2003-04-18T12:59:50.000Z</time>
      </trkpt>
      <trkpt lon="-2.341269990429282" lat="42.96282998286188">
        <ele>1251.5999755859375</ele>
        <time>2003-04-18T13:00:15.000Z</time>
      </trkpt>
      <trkpt lon="-2.341439975425601" lat="42.96308998949826">
        <ele>1254.800048828125</ele>
        <time>2003-04-18T13:00:37.000Z</time>
      </trkpt>
      <trkpt lon="-2.3415499459952116" lat="42.96311002224684">
        <ele>1252.4000244140625</ele>
        <time>2003-04-18T13:00:43.000Z</time>
      </trkpt>
      <trkpt lon="-2.3415699787437916" lat="42.963129971176386">
        <ele>1252.4000244140625</ele>
        <time>2003-04-18T13:00:45.000Z</time>
      </trkpt>
      <trkpt lon="-2.34165002591908" lat="42.96324002556503">
        <ele>1253.0</ele>
        <time>2003-04-18T13:00:59.000Z</time>
      </trkpt>
      <trkpt lon="-2.3416299931705" lat="42.96337002888322">
        <ele>1256.5999755859375</ele>
        <time>2003-04-18T13:01:16.000Z</time>
      </trkpt>
      <trkpt lon="-2.341720014810562" lat="42.96350003220141">
        <ele>1255.800048828125</ele>
        <time>2003-04-18T13:01:28.000Z</time>
      </trkpt>
      <trkpt lon="-2.341720014810562" lat="42.963559962809086">
        <ele>1256.5999755859375</ele>
        <time>2003-04-18T13:01:33.000Z</time>
      </trkpt>
      <trkpt lon="-2.3417398799210787" lat="42.963619977235794">
        <ele>1256.800048828125</ele>
        <time>2003-04-18T13:01:40.000Z</time>
      </trkpt>
      <trkpt lon="-2.3417599126696587" lat="42.963709998875856">
        <ele>1257.4000244140625</ele>
        <time>2003-04-18T13:01:54.000Z</time>
      </trkpt>
      <trkpt lon="-2.3417599126696587" lat="42.963709998875856">
        <ele>1257.4000244140625</ele>
        <time>2003-04-18T13:02:11.000Z</time>
      </trkpt>
      <trkpt lon="-2.3417599126696587" lat="42.963689966127276">
        <ele>1257.199951171875</ele>
        <time>2003-04-18T13:02:49.000Z</time>
      </trkpt>
      <trkpt lon="-2.341699982061982" lat="42.96380002051592">
        <ele>1260.199951171875</ele>
        <time>2003-04-18T13:03:24.000Z</time>
      </trkpt>
      <trkpt lon="-2.341699982061982" lat="42.96399003826082">
        <ele>1262.800048828125</ele>
        <time>2003-04-18T13:03:39.000Z</time>
      </trkpt>
      <trkpt lon="-2.3417599126696587" lat="42.964049968868494">
        <ele>1261.800048828125</ele>
        <time>2003-04-18T13:03:47.000Z</time>
      </trkpt>
      <trkpt lon="-2.341720014810562" lat="42.964220037683845">
        <ele>1265.199951171875</ele>
        <time>2003-04-18T13:04:02.000Z</time>
      </trkpt>
      <trkpt lon="-2.3416299931705" lat="42.964439978823066">
        <ele>1270.4000244140625</ele>
        <time>2003-04-18T13:04:19.000Z</time>
      </trkpt>
      <trkpt lon="-2.3415299132466316" lat="42.964609963819385">
        <ele>1275.199951171875</ele>
        <time>2003-04-18T13:04:35.000Z</time>
      </trkpt>
      <trkpt lon="-2.3414200264960527" lat="42.964759999886155">
        <ele>1279.5999755859375</ele>
        <time>2003-04-18T13:04:51.000Z</time>
      </trkpt>
      <trkpt lon="-2.3414200264960527" lat="42.964759999886155">
        <ele>1279.5999755859375</ele>
        <time>2003-04-18T13:04:53.000Z</time>
      </trkpt>
      <trkpt lon="-2.341379960998893" lat="42.96485002152622">
        <ele>1281.4000244140625</ele>
        <time>2003-04-18T13:05:08.000Z</time>
      </trkpt>
      <trkpt lon="-2.3413299210369587" lat="42.964950017631054">
        <ele>1283.4000244140625</ele>
        <time>2003-04-18T13:05:20.000Z</time>
      </trkpt>
      <trkpt lon="-2.3413299210369587" lat="42.96498002484441">
        <ele>1283.5999755859375</ele>
        <time>2003-04-18T13:05:27.000Z</time>
      </trkpt>
      <trkpt lon="-2.3414798732846975" lat="42.964869970455766">
        <ele>1279.0</ele>
        <time>2003-04-18T13:05:30.000Z</time>
      </trkpt>
      <trkpt lon="-2.3414798732846975" lat="42.964910035952926">
        <ele>1279.4000244140625</ele>
        <time>2003-04-18T13:05:41.000Z</time>
      </trkpt>
      <trkpt lon="-2.341460008174181" lat="42.964929984882474">
        <ele>1280.0</ele>
        <time>2003-04-18T13:05:43.000Z</time>
      </trkpt>
      <trkpt lon="-2.3413098882883787" lat="42.96515000984073">
        <ele>1286.5999755859375</ele>
        <time>2003-04-18T13:05:57.000Z</time>
      </trkpt>
      <trkpt lon="-2.341269990429282" lat="42.965189991518855">
        <ele>1288.0</ele>
        <time>2003-04-18T13:06:02.000Z</time>
      </trkpt>
      <trkpt lon="-2.3412000015378" lat="42.965380009263754">
        <ele>1292.199951171875</ele>
        <time>2003-04-18T13:06:16.000Z</time>
      </trkpt>
      <trkpt lon="-2.34117996878922" lat="42.96552996151149">
        <ele>1294.5999755859375</ele>
        <time>2003-04-18T13:06:28.000Z</time>
      </trkpt>
      <trkpt lon="-2.3411600198596716" lat="42.965749986469746">
        <ele>1297.800048828125</ele>
        <time>2003-04-18T13:06:45.000Z</time>
      </trkpt>
      <trkpt lon="-2.3412000015378" lat="42.965900022536516">
        <ele>1300.0</ele>
        <time>2003-04-18T13:06:58.000Z</time>
      </trkpt>
      <trkpt lon="-2.341269990429282" lat="42.965900022536516">
        <ele>1299.800048828125</ele>
        <time>2003-04-18T13:07:03.000Z</time>
      </trkpt>
      <trkpt lon="-2.3413299210369587" lat="42.965960036963224">
        <ele>1300.5999755859375</ele>
        <time>2003-04-18T13:07:13.000Z</time>
      </trkpt>
      <trkpt lon="-2.3413098882883787" lat="42.96600999310613">
        <ele>1301.800048828125</ele>
        <time>2003-04-18T13:07:16.000Z</time>
      </trkpt>
      <trkpt lon="-2.3413098882883787" lat="42.966090040281415">
        <ele>1303.4000244140625</ele>
        <time>2003-04-18T13:07:26.000Z</time>
      </trkpt>
      <trkpt lon="-2.341379960998893" lat="42.966179978102446">
        <ele>1305.0</ele>
        <time>2003-04-18T13:07:36.000Z</time>
      </trkpt>
      <trkpt lon="-2.341460008174181" lat="42.966220043599606">
        <ele>1305.800048828125</ele>
        <time>2003-04-18T13:07:44.000Z</time>
      </trkpt>
      <trkpt lon="-2.34160996042192" lat="42.966369995847344">
        <ele>1309.0</ele>
        <time>2003-04-18T13:08:00.000Z</time>
      </trkpt>
      <trkpt lon="-2.3416299931705" lat="42.966369995847344">
        <ele>1309.0</ele>
        <time>2003-04-18T13:08:01.000Z</time>
      </trkpt>
      <trkpt lon="-2.3417999781668186" lat="42.96646001748741">
        <ele>1312.0</ele>
        <time>2003-04-18T13:08:15.000Z</time>
      </trkpt>
      <trkpt lon="-2.3418299853801727" lat="42.966520031914115">
        <ele>1313.800048828125</ele>
        <time>2003-04-18T13:08:22.000Z</time>
      </trkpt>
      <trkpt lon="-2.3417599126696587" lat="42.966650035232306">
        <ele>1316.5999755859375</ele>
        <time>2003-04-18T13:08:36.000Z</time>
      </trkpt>
      <trkpt lon="-2.341679949313402" lat="42.966780038550496">
        <ele>1319.0</ele>
        <time>2003-04-18T13:08:50.000Z</time>
      </trkpt>
      <trkpt lon="-2.3415699787437916" lat="42.966950023546815">
        <ele>1323.199951171875</ele>
        <time>2003-04-18T13:09:10.000Z</time>
      </trkpt>
      <trkpt lon="-2.3415299132466316" lat="42.967039961367846">
        <ele>1325.4000244140625</ele>
        <time>2003-04-18T13:09:21.000Z</time>
      </trkpt>
      <trkpt lon="-2.3414200264960527" lat="42.96715999022126">
        <ele>1328.800048828125</ele>
        <time>2003-04-18T13:09:35.000Z</time>
      </trkpt>
      <trkpt lon="-2.341269990429282" lat="42.96731002628803">
        <ele>1333.0</ele>
        <time>2003-04-18T13:09:55.000Z</time>
      </trkpt>
      <trkpt lon="-2.341269990429282" lat="42.96731002628803">
        <ele>1333.0</ele>
        <time>2003-04-18T13:10:10.000Z</time>
      </trkpt>
      <trkpt lon="-2.341230008751154" lat="42.96739996410906">
        <ele>1335.800048828125</ele>
        <time>2003-04-18T13:10:22.000Z</time>
      </trkpt>
      <trkpt lon="-2.341249957680702" lat="42.96745997853577">
        <ele>1337.4000244140625</ele>
        <time>2003-04-18T13:10:34.000Z</time>
      </trkpt>
      <trkpt lon="-2.3414200264960527" lat="42.967489985749125">
        <ele>1337.5999755859375</ele>
        <time>2003-04-18T13:10:49.000Z</time>
      </trkpt>
      <trkpt lon="-2.3414999060332775" lat="42.967489985749125">
        <ele>1337.4000244140625</ele>
        <time>2003-04-18T13:10:56.000Z</time>
      </trkpt>
      <trkpt lon="-2.34165002591908" lat="42.967489985749125">
        <ele>1336.800048828125</ele>
        <time>2003-04-18T13:11:12.000Z</time>
      </trkpt>
      <trkpt lon="-2.341679949313402" lat="42.967510018497705">
        <ele>1337.4000244140625</ele>
        <time>2003-04-18T13:11:18.000Z</time>
      </trkpt>
      <trkpt lon="-2.341679949313402" lat="42.96758998185396">
        <ele>1339.199951171875</ele>
        <time>2003-04-18T13:11:32.000Z</time>
      </trkpt>
      <trkpt lon="-2.341699982061982" lat="42.967619989067316">
        <ele>1340.0</ele>
        <time>2003-04-18T13:11:34.000Z</time>
      </trkpt>
      <trkpt lon="-2.341720014810562" lat="42.96758998185396">
        <ele>1339.4000244140625</ele>
        <time>2003-04-18T13:11:37.000Z</time>
      </trkpt>
      <trkpt lon="-2.3417599126696587" lat="42.967619989067316">
        <ele>1340.0</ele>
        <time>2003-04-18T13:11:45.000Z</time>
      </trkpt>
      <trkpt lon="-2.3418299853801727" lat="42.967640021815896">
        <ele>1340.5999755859375</ele>
        <time>2003-04-18T13:11:52.000Z</time>
      </trkpt>
      <trkpt lon="-2.3419999703764915" lat="42.967700036242604">
        <ele>1342.0</ele>
        <time>2003-04-18T13:12:08.000Z</time>
      </trkpt>
      <trkpt lon="-2.3422299697995186" lat="42.96771998517215">
        <ele>1342.4000244140625</ele>
        <time>2003-04-18T13:12:24.000Z</time>
      </trkpt>
      <trkpt lon="-2.3424499947577715" lat="42.967830039560795">
        <ele>1343.0</ele>
        <time>2003-04-18T13:12:42.000Z</time>
      </trkpt>
      <trkpt lon="-2.3426799941807985" lat="42.967960042878985">
        <ele>1342.199951171875</ele>
        <time>2003-04-18T13:13:00.000Z</time>
      </trkpt>
      <trkpt lon="-2.342959949746728" lat="42.968089962378144">
        <ele>1341.0</ele>
        <time>2003-04-18T13:13:19.000Z</time>
      </trkpt>
      <trkpt lon="-2.343030022457242" lat="42.96814997680485">
        <ele>1340.800048828125</ele>
        <time>2003-04-18T13:13:34.000Z</time>
      </trkpt>
      <trkpt lon="-2.343179974704981" lat="42.968219965696335">
        <ele>1340.199951171875</ele>
        <time>2003-04-18T13:13:48.000Z</time>
      </trkpt>
      <trkpt lon="-2.343260021880269" lat="42.96831996180117">
        <ele>1340.4000244140625</ele>
        <time>2003-04-18T13:13:58.000Z</time>
      </trkpt>
      <trkpt lon="-2.3433098942041397" lat="42.96833999454975">
        <ele>1340.199951171875</ele>
        <time>2003-04-18T13:14:02.000Z</time>
      </trkpt>
      <trkpt lon="-2.3435900174081326" lat="42.96849003061652">
        <ele>1338.0</ele>
        <time>2003-04-18T13:14:20.000Z</time>
      </trkpt>
      <trkpt lon="-2.343839965760708" lat="42.96870997175574">
        <ele>1335.5999755859375</ele>
        <time>2003-04-18T13:14:40.000Z</time>
      </trkpt>
      <trkpt lon="-2.343859998509288" lat="42.96873000450432">
        <ele>1335.199951171875</ele>
        <time>2003-04-18T13:14:41.000Z</time>
      </trkpt>
      <trkpt lon="-2.3439698852598667" lat="42.968990011140704">
        <ele>1335.199951171875</ele>
        <time>2003-04-18T13:15:01.000Z</time>
      </trkpt>
      <trkpt lon="-2.3439698852598667" lat="42.96913996338844">
        <ele>1336.4000244140625</ele>
        <time>2003-04-18T13:15:17.000Z</time>
      </trkpt>
      <trkpt lon="-2.34390995465219" lat="42.96932998113334">
        <ele>1339.4000244140625</ele>
        <time>2003-04-18T13:15:32.000Z</time>
      </trkpt>
      <trkpt lon="-2.343839965760708" lat="42.96945998445153">
        <ele>1342.4000244140625</ele>
        <time>2003-04-18T13:15:47.000Z</time>
      </trkpt>
      <trkpt lon="-2.343839965760708" lat="42.96945998445153">
        <ele>1342.4000244140625</ele>
        <time>2003-04-18T13:15:57.000Z</time>
      </trkpt>
      <trkpt lon="-2.343839965760708" lat="42.96949996612966">
        <ele>1342.800048828125</ele>
        <time>2003-04-18T13:16:01.000Z</time>
      </trkpt>
      <trkpt lon="-2.343839965760708" lat="42.969550006091595">
        <ele>1343.0</ele>
        <time>2003-04-18T13:16:04.000Z</time>
      </trkpt>
      <trkpt lon="-2.343859998509288" lat="42.96958998776972">
        <ele>1342.5999755859375</ele>
        <time>2003-04-18T13:16:09.000Z</time>
      </trkpt>
      <trkpt lon="-2.343839965760708" lat="42.96975997276604">
        <ele>1344.4000244140625</ele>
        <time>2003-04-18T13:16:23.000Z</time>
      </trkpt>
      <trkpt lon="-2.3437999840825796" lat="42.969829961657524">
        <ele>1346.4000244140625</ele>
        <time>2003-04-18T13:16:38.000Z</time>
      </trkpt>
      <trkpt lon="-2.3437799513339996" lat="42.96991000883281">
        <ele>1347.800048828125</ele>
        <time>2003-04-18T13:16:54.000Z</time>
      </trkpt>
      <trkpt lon="-2.3437599185854197" lat="42.970000030472875">
        <ele>1349.199951171875</ele>
        <time>2003-04-18T13:17:08.000Z</time>
      </trkpt>
      <trkpt lon="-2.3437799513339996" lat="42.97001997940242">
        <ele>1348.199951171875</ele>
        <time>2003-04-18T13:17:23.000Z</time>
      </trkpt>
      <trkpt lon="-2.3437398858368397" lat="42.97007999382913">
        <ele>1349.0</ele>
        <time>2003-04-18T13:17:34.000Z</time>
      </trkpt>
      <trkpt lon="-2.343690013512969" lat="42.97017001546919">
        <ele>1349.5999755859375</ele>
        <time>2003-04-18T13:17:43.000Z</time>
      </trkpt>
      <trkpt lon="-2.343669980764389" lat="42.97018996439874">
        <ele>1350.0</ele>
        <time>2003-04-18T13:17:44.000Z</time>
      </trkpt>
      <trkpt lon="-2.343669980764389" lat="42.97020999714732">
        <ele>1349.800048828125</ele>
        <time>2003-04-18T13:17:50.000Z</time>
      </trkpt>
      <trkpt lon="-2.34352002851665" lat="42.97036003321409">
        <ele>1351.800048828125</ele>
        <time>2003-04-18T13:18:07.000Z</time>
      </trkpt>
      <trkpt lon="-2.34352002851665" lat="42.97040001489222">
        <ele>1351.0</ele>
        <time>2003-04-18T13:18:22.000Z</time>
      </trkpt>
      <trkpt lon="-2.3434798792004585" lat="42.970430022105575">
        <ele>1351.5999755859375</ele>
        <time>2003-04-18T13:18:44.000Z</time>
      </trkpt>
      <trkpt lon="-2.34352002851665" lat="42.970430022105575">
        <ele>1350.5999755859375</ele>
        <time>2003-04-18T13:19:39.000Z</time>
      </trkpt>
      <trkpt lon="-2.343409974128008" lat="42.97050998546183">
        <ele>1351.5999755859375</ele>
        <time>2003-04-18T13:19:58.000Z</time>
      </trkpt>
      <trkpt lon="-2.3433699924498796" lat="42.97060000710189">
        <ele>1350.5999755859375</ele>
        <time>2003-04-18T13:20:06.000Z</time>
      </trkpt>
      <trkpt lon="-2.3433699924498796" lat="42.97067997045815">
        <ele>1348.800048828125</ele>
        <time>2003-04-18T13:20:15.000Z</time>
      </trkpt>
      <trkpt lon="-2.3433499597012997" lat="42.97079002484679">
        <ele>1346.800048828125</ele>
        <time>2003-04-18T13:20:25.000Z</time>
      </trkpt>
      <trkpt lon="-2.3433699924498796" lat="42.97080997377634">
        <ele>1346.0</ele>
        <time>2003-04-18T13:20:41.000Z</time>
      </trkpt>
      <trkpt lon="-2.3433699924498796" lat="42.97080997377634">
        <ele>1346.0</ele>
        <time>2003-04-18T13:20:53.000Z</time>
      </trkpt>
      <trkpt lon="-2.3433299269527197" lat="42.97093997709453">
        <ele>1343.0</ele>
        <time>2003-04-18T13:21:07.000Z</time>
      </trkpt>
      <trkpt lon="-2.3433299269527197" lat="42.97098004259169">
        <ele>1341.800048828125</ele>
        <time>2003-04-18T13:21:14.000Z</time>
      </trkpt>
      <trkpt lon="-2.3433499597012997" lat="42.97102999873459">
        <ele>1340.199951171875</ele>
        <time>2003-04-18T13:21:19.000Z</time>
      </trkpt>
      <trkpt lon="-2.343200007453561" lat="42.97122001647949">
        <ele>1335.199951171875</ele>
        <time>2003-04-18T13:21:36.000Z</time>
      </trkpt>
      <trkpt lon="-2.3430899530649185" lat="42.97123996540904">
        <ele>1334.800048828125</ele>
        <time>2003-04-18T13:21:41.000Z</time>
      </trkpt>
      <trkpt lon="-2.3429400008171797" lat="42.97135001979768">
        <ele>1330.800048828125</ele>
        <time>2003-04-18T13:21:53.000Z</time>
      </trkpt>
      <trkpt lon="-2.3429199680685997" lat="42.97136996872723">
        <ele>1330.0</ele>
        <time>2003-04-18T13:21:57.000Z</time>
      </trkpt>
      <trkpt lon="-2.342809997498989" lat="42.97148002311587">
        <ele>1325.4000244140625</ele>
        <time>2003-04-18T13:22:10.000Z</time>
      </trkpt>
      <trkpt lon="-2.342809997498989" lat="42.97149997204542">
        <ele>1324.5999755859375</ele>
        <time>2003-04-18T13:22:11.000Z</time>
      </trkpt>
      <trkpt lon="-2.342770015820861" lat="42.971520004794">
        <ele>1323.5999755859375</ele>
        <time>2003-04-18T13:22:16.000Z</time>
      </trkpt>
      <trkpt lon="-2.342729950323701" lat="42.97154003754258">
        <ele>1322.4000244140625</ele>
        <time>2003-04-18T13:22:31.000Z</time>
      </trkpt>
      <trkpt lon="-2.3426799941807985" lat="42.97155998647213">
        <ele>1321.199951171875</ele>
        <time>2003-04-18T13:22:39.000Z</time>
      </trkpt>
      <trkpt lon="-2.3426198959350586" lat="42.97158001922071">
        <ele>1320.0</ele>
        <time>2003-04-18T13:22:49.000Z</time>
      </trkpt>
      <trkpt lon="-2.3426599614322186" lat="42.971610026434064">
        <ele>1319.0</ele>
        <time>2003-04-18T13:22:53.000Z</time>
      </trkpt>
      <trkpt lon="-2.342809997498989" lat="42.97168998979032">
        <ele>1316.800048828125</ele>
        <time>2003-04-18T13:23:02.000Z</time>
      </trkpt>
      <trkpt lon="-2.3427100013941526" lat="42.971740029752254">
        <ele>1314.0</ele>
        <time>2003-04-18T13:23:13.000Z</time>
      </trkpt>
      <trkpt lon="-2.3426799941807985" lat="42.971740029752254">
        <ele>1313.5999755859375</ele>
        <time>2003-04-18T13:23:14.000Z</time>
      </trkpt>
      <trkpt lon="-2.3425998631864786" lat="42.97178001143038">
        <ele>1311.4000244140625</ele>
        <time>2003-04-18T13:23:21.000Z</time>
      </trkpt>
      <trkpt lon="-2.3424499947577715" lat="42.97178001143038">
        <ele>1309.199951171875</ele>
        <time>2003-04-18T13:23:30.000Z</time>
      </trkpt>
      <trkpt lon="-2.342319991439581" lat="42.97184002585709">
        <ele>1303.4000244140625</ele>
        <time>2003-04-18T13:23:38.000Z</time>
      </trkpt>
      <trkpt lon="-2.3422599770128727" lat="42.97188998199999">
        <ele>1299.800048828125</ele>
        <time>2003-04-18T13:23:43.000Z</time>
      </trkpt>
      <trkpt lon="-2.3422599770128727" lat="42.97192996367812">
        <ele>1298.0</ele>
        <time>2003-04-18T13:23:46.000Z</time>
      </trkpt>
      <trkpt lon="-2.342299958691001" lat="42.9719499964267">
        <ele>1298.199951171875</ele>
        <time>2003-04-18T13:23:50.000Z</time>
      </trkpt>
      <trkpt lon="-2.342319991439581" lat="42.9719499964267">
        <ele>1298.5999755859375</ele>
        <time>2003-04-18T13:23:52.000Z</time>
      </trkpt>
      <trkpt lon="-2.342340024188161" lat="42.97201001085341">
        <ele>1296.5999755859375</ele>
        <time>2003-04-18T13:24:00.000Z</time>
      </trkpt>
      <trkpt lon="-2.342319991439581" lat="42.972040018066764">
        <ele>1294.800048828125</ele>
        <time>2003-04-18T13:24:02.000Z</time>
      </trkpt>
      <trkpt lon="-2.3422800097614527" lat="42.97211998142302">
        <ele>1290.0</ele>
        <time>2003-04-18T13:24:11.000Z</time>
      </trkpt>
      <trkpt lon="-2.3422800097614527" lat="42.9721899703145">
        <ele>1287.0</ele>
        <time>2003-04-18T13:24:20.000Z</time>
      </trkpt>
      <trkpt lon="-2.3422299697995186" lat="42.97223003581166">
        <ele>1283.5999755859375</ele>
        <time>2003-04-18T13:24:29.000Z</time>
      </trkpt>
      <trkpt lon="-2.3422800097614527" lat="42.97228996641934">
        <ele>1282.4000244140625</ele>
        <time>2003-04-18T13:24:36.000Z</time>
      </trkpt>
      <trkpt lon="-2.342319991439581" lat="42.97230999916792">
        <ele>1282.800048828125</ele>
        <time>2003-04-18T13:24:39.000Z</time>
      </trkpt>
      <trkpt lon="-2.342340024188161" lat="42.97230999916792">
        <ele>1283.5999755859375</ele>
        <time>2003-04-18T13:24:40.000Z</time>
      </trkpt>
      <trkpt lon="-2.3424099292606115" lat="42.97240002080798">
        <ele>1282.0</ele>
        <time>2003-04-18T13:24:49.000Z</time>
      </trkpt>
      <trkpt lon="-2.3424099292606115" lat="42.97241996973753">
        <ele>1281.199951171875</ele>
        <time>2003-04-18T13:24:51.000Z</time>
      </trkpt>
      <trkpt lon="-2.3424099292606115" lat="42.97253002412617">
        <ele>1276.199951171875</ele>
        <time>2003-04-18T13:25:04.000Z</time>
      </trkpt>
      <trkpt lon="-2.3424099292606115" lat="42.97253002412617">
        <ele>1276.199951171875</ele>
        <time>2003-04-18T13:25:06.000Z</time>
      </trkpt>
      <trkpt lon="-2.3424299620091915" lat="42.97259003855288">
        <ele>1274.0</ele>
        <time>2003-04-18T13:25:11.000Z</time>
      </trkpt>
      <trkpt lon="-2.3424700275063515" lat="42.97263999469578">
        <ele>1272.800048828125</ele>
        <time>2003-04-18T13:25:15.000Z</time>
      </trkpt>
      <trkpt lon="-2.342749983072281" lat="42.9728099796921">
        <ele>1271.5999755859375</ele>
        <time>2003-04-18T13:25:33.000Z</time>
      </trkpt>
      <trkpt lon="-2.342770015820861" lat="42.97286999411881">
        <ele>1269.4000244140625</ele>
        <time>2003-04-18T13:25:41.000Z</time>
      </trkpt>
      <trkpt lon="-2.342789964750409" lat="42.97286999411881">
        <ele>1270.0</ele>
        <time>2003-04-18T13:25:42.000Z</time>
      </trkpt>
      <trkpt lon="-2.342770015820861" lat="42.97289002686739">
        <ele>1268.4000244140625</ele>
        <time>2003-04-18T13:25:44.000Z</time>
      </trkpt>
      <trkpt lon="-2.342770015820861" lat="42.97289002686739">
        <ele>1268.4000244140625</ele>
        <time>2003-04-18T13:25:46.000Z</time>
      </trkpt>
      <trkpt lon="-2.342749983072281" lat="42.97289002686739">
        <ele>1268.0</ele>
        <time>2003-04-18T13:25:58.000Z</time>
      </trkpt>
      <trkpt lon="-2.342749983072281" lat="42.97286999411881">
        <ele>1268.800048828125</ele>
        <time>2003-04-18T13:26:01.000Z</time>
      </trkpt>
      <trkpt lon="-2.3426799941807985" lat="42.97283001244068">
        <ele>1269.0</ele>
        <time>2003-04-18T13:26:05.000Z</time>
      </trkpt>
      <trkpt lon="-2.3425998631864786" lat="42.97283001244068">
        <ele>1267.0</ele>
        <time>2003-04-18T13:26:16.000Z</time>
      </trkpt>
      <trkpt lon="-2.3425998631864786" lat="42.97284996137023">
        <ele>1266.0</ele>
        <time>2003-04-18T13:26:18.000Z</time>
      </trkpt>
      <trkpt lon="-2.3426198959350586" lat="42.972920034080744">
        <ele>1263.0</ele>
        <time>2003-04-18T13:26:26.000Z</time>
      </trkpt>
      <trkpt lon="-2.342559965327382" lat="42.972920034080744">
        <ele>1261.4000244140625</ele>
        <time>2003-04-18T13:26:30.000Z</time>
      </trkpt>
      <trkpt lon="-2.3424099292606115" lat="42.9728099796921">
        <ele>1262.199951171875</ele>
        <time>2003-04-18T13:26:44.000Z</time>
      </trkpt>
      <trkpt lon="-2.342359973117709" lat="42.9728099796921">
        <ele>1260.4000244140625</ele>
        <time>2003-04-18T13:26:46.000Z</time>
      </trkpt>
      <trkpt lon="-2.3422599770128727" lat="42.97279003076255">
        <ele>1258.0</ele>
        <time>2003-04-18T13:26:52.000Z</time>
      </trkpt>
      <trkpt lon="-2.3421899043023586" lat="42.97273999080062">
        <ele>1258.0</ele>
        <time>2003-04-18T13:26:56.000Z</time>
      </trkpt>
      <trkpt lon="-2.341950014233589" lat="42.97266002744436">
        <ele>1253.4000244140625</ele>
        <time>2003-04-18T13:27:09.000Z</time>
      </trkpt>
      <trkpt lon="-2.34165002591908" lat="42.97254997305572">
        <ele>1248.0</ele>
        <time>2003-04-18T13:27:24.000Z</time>
      </trkpt>
      <trkpt lon="-2.3415299132466316" lat="42.97253002412617">
        <ele>1245.199951171875</ele>
        <time>2003-04-18T13:27:30.000Z</time>
      </trkpt>
      <trkpt lon="-2.3413999937474728" lat="42.97246003523469">
        <ele>1244.800048828125</ele>
        <time>2003-04-18T13:27:40.000Z</time>
      </trkpt>
      <trkpt lon="-2.3413499537855387" lat="42.97244000248611">
        <ele>1244.4000244140625</ele>
        <time>2003-04-18T13:27:46.000Z</time>
      </trkpt>
      <trkpt lon="-2.341269990429282" lat="42.97244000248611">
        <ele>1241.800048828125</ele>
        <time>2003-04-18T13:27:50.000Z</time>
      </trkpt>
      <trkpt lon="-2.3412000015378" lat="42.97244000248611">
        <ele>1239.5999755859375</ele>
        <time>2003-04-18T13:27:54.000Z</time>
      </trkpt>
      <trkpt lon="-2.341030016541481" lat="42.97244000248611">
        <ele>1234.199951171875</ele>
        <time>2003-04-18T13:28:03.000Z</time>
      </trkpt>
      <trkpt lon="-2.340989951044321" lat="42.97241996973753">
        <ele>1234.0</ele>
        <time>2003-04-18T13:28:05.000Z</time>
      </trkpt>
      <trkpt lon="-2.340970002114773" lat="42.97241996973753">
        <ele>1233.4000244140625</ele>
        <time>2003-04-18T13:28:07.000Z</time>
      </trkpt>
      <trkpt lon="-2.3408999294042587" lat="42.97244000248611">
        <ele>1230.199951171875</ele>
        <time>2003-04-18T13:28:12.000Z</time>
      </trkpt>
      <trkpt lon="-2.3408599477261305" lat="42.97241996973753">
        <ele>1229.800048828125</ele>
        <time>2003-04-18T13:28:14.000Z</time>
      </trkpt>
      <trkpt lon="-2.3407700099051" lat="42.97244000248611">
        <ele>1225.4000244140625</ele>
        <time>2003-04-18T13:28:20.000Z</time>
      </trkpt>
      <trkpt lon="-2.3406699299812317" lat="42.97244000248611">
        <ele>1221.4000244140625</ele>
        <time>2003-04-18T13:28:26.000Z</time>
      </trkpt>
      <trkpt lon="-2.340519977733493" lat="42.97241996973753">
        <ele>1216.199951171875</ele>
        <time>2003-04-18T13:28:33.000Z</time>
      </trkpt>
      <trkpt lon="-2.3405000288039446" lat="42.97240002080798">
        <ele>1216.199951171875</ele>
        <time>2003-04-18T13:28:35.000Z</time>
      </trkpt>
      <trkpt lon="-2.34029995277524" lat="42.97230999916792">
        <ele>1212.4000244140625</ele>
        <time>2003-04-18T13:28:46.000Z</time>
      </trkpt>
      <trkpt lon="-2.3402399383485317" lat="42.97227001748979">
        <ele>1211.800048828125</ele>
        <time>2003-04-18T13:28:50.000Z</time>
      </trkpt>
      <trkpt lon="-2.340129967778921" lat="42.9721400141716">
        <ele>1213.4000244140625</ele>
        <time>2003-04-18T13:29:04.000Z</time>
      </trkpt>
      <trkpt lon="-2.340110018849373" lat="42.9721400141716">
        <ele>1212.5999755859375</ele>
        <time>2003-04-18T13:29:06.000Z</time>
      </trkpt>
      <trkpt lon="-2.3400199972093105" lat="42.97211998142302">
        <ele>1209.5999755859375</ele>
        <time>2003-04-18T13:29:11.000Z</time>
      </trkpt>
      <trkpt lon="-2.3397899977862835" lat="42.97198997810483">
        <ele>1207.4000244140625</ele>
        <time>2003-04-18T13:29:26.000Z</time>
      </trkpt>
      <trkpt lon="-2.3397899977862835" lat="42.97197002917528">
        <ele>1208.4000244140625</ele>
        <time>2003-04-18T13:29:27.000Z</time>
      </trkpt>
      <trkpt lon="-2.339720008894801" lat="42.97192996367812">
        <ele>1207.800048828125</ele>
        <time>2003-04-18T13:29:31.000Z</time>
      </trkpt>
      <trkpt lon="-2.339680027216673" lat="42.97185997478664">
        <ele>1209.800048828125</ele>
        <time>2003-04-18T13:29:45.000Z</time>
      </trkpt>
      <trkpt lon="-2.339699976146221" lat="42.97185997478664">
        <ele>1210.5999755859375</ele>
        <time>2003-04-18T13:30:02.000Z</time>
      </trkpt>
      <trkpt lon="-2.339699976146221" lat="42.97188998199999">
        <ele>1209.0</ele>
        <time>2003-04-18T13:33:25.000Z</time>
      </trkpt>
      <trkpt lon="-2.339680027216673" lat="42.97192996367812">
        <ele>1206.4000244140625</ele>
        <time>2003-04-18T13:33:28.000Z</time>
      </trkpt>
      <trkpt lon="-2.339659994468093" lat="42.97198997810483">
        <ele>1202.800048828125</ele>
        <time>2003-04-18T13:33:35.000Z</time>
      </trkpt>
      <trkpt lon="-2.339699976146221" lat="42.97205996699631">
        <ele>1200.800048828125</ele>
        <time>2003-04-18T13:33:40.000Z</time>
      </trkpt>
      <trkpt lon="-2.3397699650377035" lat="42.97221000306308">
        <ele>1196.199951171875</ele>
        <time>2003-04-18T13:33:52.000Z</time>
      </trkpt>
      <trkpt lon="-2.3398099467158318" lat="42.97224998474121">
        <ele>1195.5999755859375</ele>
        <time>2003-04-18T13:33:56.000Z</time>
      </trkpt>
      <trkpt lon="-2.3399398662149906" lat="42.9723799880594">
        <ele>1194.4000244140625</ele>
        <time>2003-04-18T13:34:09.000Z</time>
      </trkpt>
      <trkpt lon="-2.3399999644607306" lat="42.97254997305572">
        <ele>1188.800048828125</ele>
        <time>2003-04-18T13:34:23.000Z</time>
      </trkpt>
      <trkpt lon="-2.340069953352213" lat="42.97266002744436">
        <ele>1186.5999755859375</ele>
        <time>2003-04-18T13:34:32.000Z</time>
      </trkpt>
      <trkpt lon="-2.3402199894189835" lat="42.9728099796921">
        <ele>1185.4000244140625</ele>
        <time>2003-04-18T13:34:46.000Z</time>
      </trkpt>
      <trkpt lon="-2.3402599710971117" lat="42.97284996137023">
        <ele>1184.800048828125</ele>
        <time>2003-04-18T13:34:53.000Z</time>
      </trkpt>
      <trkpt lon="-2.340129967778921" lat="42.97279003076255">
        <ele>1183.0</ele>
        <time>2003-04-18T13:34:58.000Z</time>
      </trkpt>
      <trkpt lon="-2.340110018849373" lat="42.9728099796921">
        <ele>1181.199951171875</ele>
        <time>2003-04-18T13:35:02.000Z</time>
      </trkpt>
      <trkpt lon="-2.340129967778921" lat="42.97286999411881">
        <ele>1179.199951171875</ele>
        <time>2003-04-18T13:35:14.000Z</time>
      </trkpt>
      <trkpt lon="-2.340089986100793" lat="42.97283001244068">
        <ele>1179.5999755859375</ele>
        <time>2003-04-18T13:35:29.000Z</time>
      </trkpt>
      <trkpt lon="-2.340069953352213" lat="42.97279003076255">
        <ele>1180.800048828125</ele>
        <time>2003-04-18T13:35:38.000Z</time>
      </trkpt>
      <trkpt lon="-2.339920001104474" lat="42.9727600235492">
        <ele>1176.5999755859375</ele>
        <time>2003-04-18T13:35:49.000Z</time>
      </trkpt>
      <trkpt lon="-2.3398299794644117" lat="42.97273999080062">
        <ele>1174.199951171875</ele>
        <time>2003-04-18T13:35:55.000Z</time>
      </trkpt>
      <trkpt lon="-2.3398299794644117" lat="42.97273999080062">
        <ele>1174.199951171875</ele>
        <time>2003-04-18T13:35:56.000Z</time>
      </trkpt>
      <trkpt lon="-2.3396200127899647" lat="42.97272004187107">
        <ele>1167.4000244140625</ele>
        <time>2003-04-18T13:36:07.000Z</time>
      </trkpt>
      <trkpt lon="-2.3395098745822906" lat="42.97270000912249">
        <ele>1164.199951171875</ele>
        <time>2003-04-18T13:36:16.000Z</time>
      </trkpt>
      <trkpt lon="-2.339469976723194" lat="42.97267997637391">
        <ele>1163.4000244140625</ele>
        <time>2003-04-18T13:36:20.000Z</time>
      </trkpt>
      <trkpt lon="-2.3394200205802917" lat="42.97267997637391">
        <ele>1161.5999755859375</ele>
        <time>2003-04-18T13:36:22.000Z</time>
      </trkpt>
      <trkpt lon="-2.3391900211572647" lat="42.97259003855288">
        <ele>1156.5999755859375</ele>
        <time>2003-04-18T13:36:35.000Z</time>
      </trkpt>
      <trkpt lon="-2.338990028947592" lat="42.97250999137759">
        <ele>1152.800048828125</ele>
        <time>2003-04-18T13:36:45.000Z</time>
      </trkpt>
      <trkpt lon="-2.338949963450432" lat="42.972490042448044">
        <ele>1152.4000244140625</ele>
        <time>2003-04-18T13:36:47.000Z</time>
      </trkpt>
      <trkpt lon="-2.3386498913168907" lat="42.97234000638127">
        <ele>1150.5999755859375</ele>
        <time>2003-04-18T13:37:03.000Z</time>
      </trkpt>
      <trkpt lon="-2.3384599573910236" lat="42.97224998474121">
        <ele>1149.199951171875</ele>
        <time>2003-04-18T13:37:12.000Z</time>
      </trkpt>
      <trkpt lon="-2.3389099817723036" lat="42.9727600235492">
        <ele>1140.5999755859375</ele>
        <time>2003-04-18T13:38:34.000Z</time>
      </trkpt>
      <trkpt lon="-2.339060017839074" lat="42.9727600235492">
        <ele>1145.5999755859375</ele>
        <time>2003-04-18T13:38:48.000Z</time>
      </trkpt>
      <trkpt lon="-2.3398099467158318" lat="42.97359997406602">
        <ele>1133.5999755859375</ele>
        <time>2003-04-18T13:38:55.000Z</time>
      </trkpt>
      <trkpt lon="-2.3398299794644117" lat="42.97364003956318">
        <ele>1132.0</ele>
        <time>2003-04-18T13:38:57.000Z</time>
      </trkpt>
      <trkpt lon="-2.3395900055766106" lat="42.9736200068146">
        <ele>1126.4000244140625</ele>
        <time>2003-04-18T13:39:01.000Z</time>
      </trkpt>
      <trkpt lon="-2.339290017262101" lat="42.97333996742964">
        <ele>1131.5999755859375</ele>
        <time>2003-04-18T13:39:11.000Z</time>
      </trkpt>
      <trkpt lon="-2.339230002835393" lat="42.97336997464299">
        <ele>1128.199951171875</ele>
        <time>2003-04-18T13:39:21.000Z</time>
      </trkpt>
      <trkpt lon="-2.3389099817723036" lat="42.97313000075519">
        <ele>1126.0</ele>
        <time>2003-04-18T13:39:27.000Z</time>
      </trkpt>
      <trkpt lon="-2.338860025629401" lat="42.97313000075519">
        <ele>1124.199951171875</ele>
        <time>2003-04-18T13:39:32.000Z</time>
      </trkpt>
      <trkpt lon="-2.338519971817732" lat="42.97303997911513">
        <ele>1115.4000244140625</ele>
        <time>2003-04-18T13:39:41.000Z</time>
      </trkpt>
      <trkpt lon="-2.3385000228881836" lat="42.97303997911513">
        <ele>1114.800048828125</ele>
        <time>2003-04-18T13:39:43.000Z</time>
      </trkpt>
      <trkpt lon="-2.3384099174290895" lat="42.97302003018558">
        <ele>1112.4000244140625</ele>
        <time>2003-04-18T13:39:50.000Z</time>
      </trkpt>
      <trkpt lon="-2.3382199835032225" lat="42.97289002686739">
        <ele>1111.4000244140625</ele>
        <time>2003-04-18T13:39:53.000Z</time>
      </trkpt>
      <trkpt lon="-2.3381799180060625" lat="42.97286999411881">
        <ele>1111.0</ele>
        <time>2003-04-18T13:40:00.000Z</time>
      </trkpt>
      <trkpt lon="-2.3379899002611637" lat="42.9728099796921">
        <ele>1107.199951171875</ele>
        <time>2003-04-18T13:40:06.000Z</time>
      </trkpt>
      <trkpt lon="-2.337899962440133" lat="42.97283001244068">
        <ele>1103.4000244140625</ele>
        <time>2003-04-18T13:40:12.000Z</time>
      </trkpt>
      <trkpt lon="-2.3377899918705225" lat="42.97284996137023">
        <ele>1098.800048828125</ele>
        <time>2003-04-18T13:40:23.000Z</time>
      </trkpt>
      <trkpt lon="-2.337680021300912" lat="42.97286999411881">
        <ele>1094.199951171875</ele>
        <time>2003-04-18T13:40:36.000Z</time>
      </trkpt>
      <trkpt lon="-2.3367600236088037" lat="42.97246003523469">
        <ele>1082.4000244140625</ele>
        <time>2003-04-18T13:41:15.000Z</time>
      </trkpt>
      <trkpt lon="-2.3364399187266827" lat="42.97244000248611">
        <ele>1074.5999755859375</ele>
        <time>2003-04-18T13:41:25.000Z</time>
      </trkpt>
      <trkpt lon="-2.3364198859781027" lat="42.97244000248611">
        <ele>1074.199951171875</ele>
        <time>2003-04-18T13:41:27.000Z</time>
      </trkpt>
      <trkpt lon="-2.336309999227524" lat="42.97244000248611">
        <ele>1071.4000244140625</ele>
        <time>2003-04-18T13:41:35.000Z</time>
      </trkpt>
      <trkpt lon="-2.3362700175493956" lat="42.97244000248611">
        <ele>1070.4000244140625</ele>
        <time>2003-04-18T13:41:36.000Z</time>
      </trkpt>
      <trkpt lon="-2.3362299520522356" lat="42.97241996973753">
        <ele>1070.5999755859375</ele>
        <time>2003-04-18T13:41:39.000Z</time>
      </trkpt>
      <trkpt lon="-2.336099948734045" lat="42.97241996973753">
        <ele>1067.199951171875</ele>
        <time>2003-04-18T13:41:49.000Z</time>
      </trkpt>
      <trkpt lon="-2.335899956524372" lat="42.97236003912985">
        <ele>1065.800048828125</ele>
        <time>2003-04-18T13:42:04.000Z</time>
      </trkpt>
      <trkpt lon="-2.3357999604195356" lat="42.97230999916792">
        <ele>1066.4000244140625</ele>
        <time>2003-04-18T13:42:12.000Z</time>
      </trkpt>
      <trkpt lon="-2.3357699532061815" lat="42.97230999916792">
        <ele>1066.0</ele>
        <time>2003-04-18T13:42:13.000Z</time>
      </trkpt>
      <trkpt lon="-2.3355999682098627" lat="42.97227001748979">
        <ele>1066.0</ele>
        <time>2003-04-18T13:42:26.000Z</time>
      </trkpt>
      <trkpt lon="-2.335469964891672" lat="42.97227001748979">
        <ele>1064.0</ele>
        <time>2003-04-18T13:42:35.000Z</time>
      </trkpt>
      <trkpt lon="-2.335469964891672" lat="42.97224998474121">
        <ele>1065.199951171875</ele>
        <time>2003-04-18T13:42:36.000Z</time>
      </trkpt>
      <trkpt lon="-2.335199983790517" lat="42.97223003581166">
        <ele>1062.199951171875</ele>
        <time>2003-04-18T13:42:54.000Z</time>
      </trkpt>
      <trkpt lon="-2.334999991580844" lat="42.97223003581166">
        <ele>1059.199951171875</ele>
        <time>2003-04-18T13:43:07.000Z</time>
      </trkpt>
      <trkpt lon="-2.3349199444055557" lat="42.97223003581166">
        <ele>1057.5999755859375</ele>
        <time>2003-04-18T13:43:12.000Z</time>
      </trkpt>
      <trkpt lon="-2.334769992157817" lat="42.97228996641934">
        <ele>1051.4000244140625</ele>
        <time>2003-04-18T13:43:24.000Z</time>
      </trkpt>
      <trkpt lon="-2.334719952195883" lat="42.97230999916792">
        <ele>1049.5999755859375</ele>
        <time>2003-04-18T13:43:28.000Z</time>
      </trkpt>
      <trkpt lon="-2.3347000032663345" lat="42.97236003912985">
        <ele>1046.800048828125</ele>
        <time>2003-04-18T13:43:31.000Z</time>
      </trkpt>
      <trkpt lon="-2.3346599377691746" lat="42.97250999137759">
        <ele>1039.4000244140625</ele>
        <time>2003-04-18T13:43:43.000Z</time>
      </trkpt>
      <trkpt lon="-2.3346599377691746" lat="42.97259003855288">
        <ele>1036.4000244140625</ele>
        <time>2003-04-18T13:43:50.000Z</time>
      </trkpt>
      <trkpt lon="-2.3346599377691746" lat="42.97263999469578">
        <ele>1034.4000244140625</ele>
        <time>2003-04-18T13:43:53.000Z</time>
      </trkpt>
      <trkpt lon="-2.3346799705177546" lat="42.97270000912249">
        <ele>1032.4000244140625</ele>
        <time>2003-04-18T13:43:58.000Z</time>
      </trkpt>
      <trkpt lon="-2.3347000032663345" lat="42.97289002686739">
        <ele>1025.199951171875</ele>
        <time>2003-04-18T13:44:22.000Z</time>
      </trkpt>
      <trkpt lon="-2.3347000032663345" lat="42.972920034080744">
        <ele>1024.0</ele>
        <time>2003-04-18T13:44:25.000Z</time>
      </trkpt>
      <trkpt lon="-2.3347399849444628" lat="42.972999997437">
        <ele>1021.4000244140625</ele>
        <time>2003-04-18T13:44:37.000Z</time>
      </trkpt>
      <trkpt lon="-2.334769992157817" lat="42.97302003018558">
        <ele>1021.2000122070312</ele>
        <time>2003-04-18T13:44:40.000Z</time>
      </trkpt>
      <trkpt lon="-2.334809973835945" lat="42.97315003350377">
        <ele>1016.5999755859375</ele>
        <time>2003-04-18T13:44:47.000Z</time>
      </trkpt>
      <trkpt lon="-2.3348699044436216" lat="42.97328003682196">
        <ele>1012.2000122070312</ele>
        <time>2003-04-18T13:44:55.000Z</time>
      </trkpt>
      <trkpt lon="-2.3348699044436216" lat="42.97332001850009">
        <ele>1010.5999755859375</ele>
        <time>2003-04-18T13:44:57.000Z</time>
      </trkpt>
      <trkpt lon="-2.3348999954760075" lat="42.97336997464299">
        <ele>1009.0</ele>
        <time>2003-04-18T13:44:59.000Z</time>
      </trkpt>
      <trkpt lon="-2.3349399771541357" lat="42.97341004014015">
        <ele>1008.0</ele>
        <time>2003-04-18T13:45:02.000Z</time>
      </trkpt>
      <trkpt lon="-2.3350498639047146" lat="42.97354004345834">
        <ele>1004.0</ele>
        <time>2003-04-18T13:45:10.000Z</time>
      </trkpt>
      <trkpt lon="-2.3351699765771627" lat="42.97371002845466">
        <ele>998.2000122070312</ele>
        <time>2003-04-18T13:45:20.000Z</time>
      </trkpt>
      <trkpt lon="-2.335239965468645" lat="42.97377004288137">
        <ele>996.4000244140625</ele>
        <time>2003-04-18T13:45:24.000Z</time>
      </trkpt>
      <trkpt lon="-2.3352998960763216" lat="42.97381999902427">
        <ele>995.0</ele>
        <time>2003-04-18T13:45:29.000Z</time>
      </trkpt>
      <trkpt lon="-2.3353699687868357" lat="42.97389996238053">
        <ele>992.5999755859375</ele>
        <time>2003-04-18T13:45:35.000Z</time>
      </trkpt>
      <trkpt lon="-2.335429983213544" lat="42.97398998402059">
        <ele>989.5999755859375</ele>
        <time>2003-04-18T13:45:44.000Z</time>
      </trkpt>
      <trkpt lon="-2.335429983213544" lat="42.97398998402059">
        <ele>989.5999755859375</ele>
        <time>2003-04-18T13:45:45.000Z</time>
      </trkpt>
      <trkpt lon="-2.3354998882859945" lat="42.97411998733878">
        <ele>985.2000122070312</ele>
        <time>2003-04-18T13:45:57.000Z</time>
      </trkpt>
      <trkpt lon="-2.334400014951825" lat="42.97433003783226">
        <ele>964.4000244140625</ele>
        <time>2003-04-18T13:46:33.000Z</time>
      </trkpt>
      <trkpt lon="-2.3344899527728558" lat="42.97440002672374">
        <ele>963.5999755859375</ele>
        <time>2003-04-18T13:46:41.000Z</time>
      </trkpt>
      <trkpt lon="-2.3345099855214357" lat="42.97457001172006">
        <ele>958.5999755859375</ele>
        <time>2003-04-18T13:46:47.000Z</time>
      </trkpt>
      <trkpt lon="-2.3345099855214357" lat="42.97459004446864">
        <ele>958.0</ele>
        <time>2003-04-18T13:46:49.000Z</time>
      </trkpt>
      <trkpt lon="-2.3344198800623417" lat="42.97470001503825">
        <ele>953.5999755859375</ele>
        <time>2003-04-18T13:46:58.000Z</time>
      </trkpt>
      <trkpt lon="-2.334400014951825" lat="42.97477997839451">
        <ele>950.7999877929688</ele>
        <time>2003-04-18T13:47:02.000Z</time>
      </trkpt>
      <trkpt lon="-2.334359949454665" lat="42.97489003278315">
        <ele>947.2000122070312</ele>
        <time>2003-04-18T13:47:09.000Z</time>
      </trkpt>
      <trkpt lon="-2.334359949454665" lat="42.9749099817127">
        <ele>946.5999755859375</ele>
        <time>2003-04-18T13:47:11.000Z</time>
      </trkpt>
      <trkpt lon="-2.334319967776537" lat="42.97500000335276">
        <ele>943.4000244140625</ele>
        <time>2003-04-18T13:47:19.000Z</time>
      </trkpt>
      <trkpt lon="-2.334319967776537" lat="42.97502003610134">
        <ele>943.0</ele>
        <time>2003-04-18T13:47:20.000Z</time>
      </trkpt>
      <trkpt lon="-2.334289960563183" lat="42.9750999994576">
        <ele>941.0</ele>
        <time>2003-04-18T13:47:27.000Z</time>
      </trkpt>
      <trkpt lon="-2.334289960563183" lat="42.97516998834908">
        <ele>939.5999755859375</ele>
        <time>2003-04-18T13:47:33.000Z</time>
      </trkpt>
      <trkpt lon="-2.334289960563183" lat="42.97519002109766">
        <ele>939.2000122070312</ele>
        <time>2003-04-18T13:47:34.000Z</time>
      </trkpt>
      <trkpt lon="-2.3342499788850546" lat="42.97528004273772">
        <ele>937.0</ele>
        <time>2003-04-18T13:47:43.000Z</time>
      </trkpt>
      <trkpt lon="-2.334319967776537" lat="42.97539998777211">
        <ele>934.7999877929688</ele>
        <time>2003-04-18T13:47:55.000Z</time>
      </trkpt>
      <trkpt lon="-2.334379982203245" lat="42.97551004216075">
        <ele>932.7999877929688</ele>
        <time>2003-04-18T13:48:03.000Z</time>
      </trkpt>
      <trkpt lon="-2.334379982203245" lat="42.97575001604855">
        <ele>927.5999755859375</ele>
        <time>2003-04-18T13:48:18.000Z</time>
      </trkpt>
      <trkpt lon="-2.334379982203245" lat="42.97575001604855">
        <ele>927.5999755859375</ele>
        <time>2003-04-18T13:48:19.000Z</time>
      </trkpt>
      <trkpt lon="-2.334379982203245" lat="42.97601002268493">
        <ele>921.2000122070312</ele>
        <time>2003-04-18T13:48:39.000Z</time>
      </trkpt>
      <trkpt lon="-2.3344399128109217" lat="42.97608998604119">
        <ele>919.2000122070312</ele>
        <time>2003-04-18T13:48:52.000Z</time>
      </trkpt>
      <trkpt lon="-2.3345898650586605" lat="42.97624002210796">
        <ele>915.0</ele>
        <time>2003-04-18T13:49:22.000Z</time>
      </trkpt>
      <trkpt lon="-2.3346599377691746" lat="42.97637002542615">
        <ele>911.2000122070312</ele>
        <time>2003-04-18T13:49:33.000Z</time>
      </trkpt>
      <trkpt lon="-2.3346599377691746" lat="42.97643003985286">
        <ele>909.4000244140625</ele>
        <time>2003-04-18T13:49:59.000Z</time>
      </trkpt>
      <trkpt lon="-2.3346399050205946" lat="42.97643003985286">
        <ele>909.5999755859375</ele>
        <time>2003-04-18T13:50:37.000Z</time>
      </trkpt>
      <trkpt lon="-2.3346799705177546" lat="42.97650002874434">
        <ele>907.4000244140625</ele>
        <time>2003-04-18T13:50:55.000Z</time>
      </trkpt>
      <trkpt lon="-2.3346799705177546" lat="42.97651997767389">
        <ele>906.7999877929688</ele>
        <time>2003-04-18T13:51:03.000Z</time>
      </trkpt>
      <trkpt lon="-2.3346799705177546" lat="42.97660999931395">
        <ele>904.2000122070312</ele>
        <time>2003-04-18T13:51:15.000Z</time>
      </trkpt>
      <trkpt lon="-2.3346399050205946" lat="42.97667001374066">
        <ele>902.5999755859375</ele>
        <time>2003-04-18T13:51:24.000Z</time>
      </trkpt>
      <trkpt lon="-2.3346198722720146" lat="42.97668996267021">
        <ele>902.0</ele>
        <time>2003-04-18T13:51:28.000Z</time>
      </trkpt>
      <trkpt lon="-2.3345300182700157" lat="42.97680001705885">
        <ele>898.5999755859375</ele>
        <time>2003-04-18T13:51:42.000Z</time>
      </trkpt>
      <trkpt lon="-2.334340000525117" lat="42.97697000205517">
        <ele>894.0</ele>
        <time>2003-04-18T13:52:14.000Z</time>
      </trkpt>
      <trkpt lon="-2.3326799646019936" lat="42.97670999541879">
        <ele>883.2000122070312</ele>
        <time>2003-04-18T13:53:20.000Z</time>
      </trkpt>
      <trkpt lon="-2.3326599318534136" lat="42.97670999541879">
        <ele>882.7999877929688</ele>
        <time>2003-04-18T13:53:21.000Z</time>
      </trkpt>
      <trkpt lon="-2.3324499651789665" lat="42.97673002816737">
        <ele>877.4000244140625</ele>
        <time>2003-04-18T13:53:46.000Z</time>
      </trkpt>
      <trkpt lon="-2.3324699979275465" lat="42.97676003538072">
        <ele>877.4000244140625</ele>
        <time>2003-04-18T13:53:51.000Z</time>
      </trkpt>
      <trkpt lon="-2.3326599318534136" lat="42.977009983733296">
        <ele>876.5999755859375</ele>
        <time>2003-04-18T13:54:21.000Z</time>
      </trkpt>
      <trkpt lon="-2.3327099718153477" lat="42.97703999094665">
        <ele>876.7999877929688</ele>
        <time>2003-04-18T13:54:39.000Z</time>
      </trkpt>
      <trkpt lon="-2.3328799568116665" lat="42.97723000869155">
        <ele>874.7999877929688</ele>
        <time>2003-04-18T13:54:56.000Z</time>
      </trkpt>
      <trkpt lon="-2.333009960129857" lat="42.977309972047806">
        <ele>874.4000244140625</ele>
        <time>2003-04-18T13:55:06.000Z</time>
      </trkpt>
      <trkpt lon="-2.3330899234861135" lat="42.97742002643645">
        <ele>872.2000122070312</ele>
        <time>2003-04-18T13:55:14.000Z</time>
      </trkpt>
      <trkpt lon="-2.3331599961966276" lat="42.97749001532793">
        <ele>870.7999877929688</ele>
        <time>2003-04-18T13:55:18.000Z</time>
      </trkpt>
      <trkpt lon="-2.333289999514818" lat="42.97766000032425">
        <ele>867.7999877929688</ele>
        <time>2003-04-18T13:55:29.000Z</time>
      </trkpt>
      <trkpt lon="-2.3333099484443665" lat="42.977910032495856">
        <ele>862.0</ele>
        <time>2003-04-18T13:55:42.000Z</time>
      </trkpt>
      <trkpt lon="-2.3333499301224947" lat="42.97815000638366">
        <ele>856.4000244140625</ele>
        <time>2003-04-18T13:55:55.000Z</time>
      </trkpt>
      <trkpt lon="-2.3333499301224947" lat="42.97830004245043">
        <ele>852.7999877929688</ele>
        <time>2003-04-18T13:56:03.000Z</time>
      </trkpt>
      <trkpt lon="-2.3333298973739147" lat="42.978640012443066">
        <ele>846.0</ele>
        <time>2003-04-18T13:56:24.000Z</time>
      </trkpt>
      <trkpt lon="-2.3335399478673935" lat="42.97887998633087">
        <ele>840.7999877929688</ele>
        <time>2003-04-18T13:56:42.000Z</time>
      </trkpt>
      <trkpt lon="-2.333650002256036" lat="42.97913999296725">
        <ele>835.4000244140625</ele>
        <time>2003-04-18T13:57:02.000Z</time>
      </trkpt>
      <trkpt lon="-2.333480017259717" lat="42.979369992390275">
        <ele>834.0</ele>
        <time>2003-04-18T13:57:19.000Z</time>
      </trkpt>
      <trkpt lon="-2.3331599961966276" lat="42.979499995708466">
        <ele>832.0</ele>
        <time>2003-04-18T13:57:35.000Z</time>
      </trkpt>
      <trkpt lon="-2.3329199384897947" lat="42.979669980704784">
        <ele>828.0</ele>
        <time>2003-04-18T13:57:51.000Z</time>
      </trkpt>
      <trkpt lon="-2.3328999895602465" lat="42.979669980704784">
        <ele>827.5999755859375</ele>
        <time>2003-04-18T13:57:52.000Z</time>
      </trkpt>
      <trkpt lon="-2.332809967920184" lat="42.979799984022975">
        <ele>825.5999755859375</ele>
        <time>2003-04-18T13:58:02.000Z</time>
      </trkpt>
      <trkpt lon="-2.332749953493476" lat="42.97989000566304">
        <ele>824.2000122070312</ele>
        <time>2003-04-18T13:58:09.000Z</time>
      </trkpt>
      <trkpt lon="-2.3325300123542547" lat="42.97999997623265">
        <ele>820.4000244140625</ele>
        <time>2003-04-18T13:58:21.000Z</time>
      </trkpt>
      <trkpt lon="-2.3325099796056747" lat="42.97999997623265">
        <ele>820.2000122070312</ele>
        <time>2003-04-18T13:58:22.000Z</time>
      </trkpt>
      <trkpt lon="-2.3324299324303865" lat="42.98015001229942">
        <ele>817.5999755859375</ele>
        <time>2003-04-18T13:58:33.000Z</time>
      </trkpt>
      <trkpt lon="-2.3324098996818066" lat="42.98016996122897">
        <ele>817.2000122070312</ele>
        <time>2003-04-18T13:58:34.000Z</time>
      </trkpt>
      <trkpt lon="-2.332170009613037" lat="42.980380011722445">
        <ele>812.5999755859375</ele>
        <time>2003-04-18T13:58:52.000Z</time>
      </trkpt>
      <trkpt lon="-2.3320799879729748" lat="42.98047003336251">
        <ele>811.2000122070312</ele>
        <time>2003-04-18T13:58:59.000Z</time>
      </trkpt>
      <trkpt lon="-2.331699952483177" lat="42.98064001835883">
        <ele>807.2000122070312</ele>
        <time>2003-04-18T13:59:19.000Z</time>
      </trkpt>
      <trkpt lon="-2.3315699491649866" lat="42.980680000036955">
        <ele>805.2000122070312</ele>
        <time>2003-04-18T13:59:31.000Z</time>
      </trkpt>
      <trkpt lon="-2.3313499242067337" lat="42.980789970606565">
        <ele>802.0</ele>
        <time>2003-04-18T13:59:51.000Z</time>
      </trkpt>
      <trkpt lon="-2.331289993599057" lat="42.980830036103725">
        <ele>801.2000122070312</ele>
        <time>2003-04-18T13:59:57.000Z</time>
      </trkpt>
      <trkpt lon="-2.3311599902808666" lat="42.980919973924756">
        <ele>797.5999755859375</ele>
        <time>2003-04-18T14:00:08.000Z</time>
      </trkpt>
      <trkpt lon="-2.3311199247837067" lat="42.980940006673336">
        <ele>796.5999755859375</ele>
        <time>2003-04-18T14:00:12.000Z</time>
      </trkpt>
      <trkpt lon="-2.3309299908578396" lat="42.980979988351464">
        <ele>792.7999877929688</ele>
        <time>2003-04-18T14:00:21.000Z</time>
      </trkpt>
      <trkpt lon="-2.330799987539649" lat="42.980979988351464">
        <ele>790.2000122070312</ele>
        <time>2003-04-18T14:00:28.000Z</time>
      </trkpt>
      <trkpt lon="-2.3306499514728785" lat="42.981000021100044">
        <ele>785.5999755859375</ele>
        <time>2003-04-18T14:00:35.000Z</time>
      </trkpt>
      <trkpt lon="-2.33063000254333" lat="42.981000021100044">
        <ele>785.0</ele>
        <time>2003-04-18T14:00:37.000Z</time>
      </trkpt>
      <trkpt lon="-2.330579962581396" lat="42.9810300283134">
        <ele>783.2000122070312</ele>
        <time>2003-04-18T14:00:41.000Z</time>
      </trkpt>
      <trkpt lon="-2.3304299265146255" lat="42.9810300283134">
        <ele>778.7999877929688</ele>
        <time>2003-04-18T14:00:50.000Z</time>
      </trkpt>
      <trkpt lon="-2.330349963158369" lat="42.981000021100044">
        <ele>776.7999877929688</ele>
        <time>2003-04-18T14:00:53.000Z</time>
      </trkpt>
      <trkpt lon="-2.3302399925887585" lat="42.981000021100044">
        <ele>773.4000244140625</ele>
        <time>2003-04-18T14:01:00.000Z</time>
      </trkpt>
      <trkpt lon="-2.3301999270915985" lat="42.981000021100044">
        <ele>772.4000244140625</ele>
        <time>2003-04-18T14:01:02.000Z</time>
      </trkpt>
      <trkpt lon="-2.330170003697276" lat="42.981000021100044">
        <ele>771.4000244140625</ele>
        <time>2003-04-18T14:01:04.000Z</time>
      </trkpt>
      <trkpt lon="-2.330089956521988" lat="42.9810300283134">
        <ele>769.0</ele>
        <time>2003-04-18T14:01:10.000Z</time>
      </trkpt>
      <trkpt lon="-2.3299999348819256" lat="42.981130024418235">
        <ele>766.0</ele>
        <time>2003-04-18T14:01:19.000Z</time>
      </trkpt>
      <trkpt lon="-2.3299598693847656" lat="42.981130024418235">
        <ele>765.0</ele>
        <time>2003-04-18T14:01:21.000Z</time>
      </trkpt>
      <trkpt lon="-2.3298700153827667" lat="42.981130024418235">
        <ele>762.5999755859375</ele>
        <time>2003-04-18T14:01:26.000Z</time>
      </trkpt>
      <trkpt lon="-2.3298100009560585" lat="42.981130024418235">
        <ele>761.2000122070312</ele>
        <time>2003-04-18T14:01:29.000Z</time>
      </trkpt>
      <trkpt lon="-2.3296400159597397" lat="42.981109991669655">
        <ele>757.0</ele>
        <time>2003-04-18T14:01:39.000Z</time>
      </trkpt>
      <trkpt lon="-2.3295298777520657" lat="42.98114997334778">
        <ele>754.4000244140625</ele>
        <time>2003-04-18T14:01:44.000Z</time>
      </trkpt>
      <trkpt lon="-2.3293399438261986" lat="42.981219962239265">
        <ele>750.2000122070312</ele>
        <time>2003-04-18T14:01:50.000Z</time>
      </trkpt>
      <trkpt lon="-2.3292698711156845" lat="42.981239994987845">
        <ele>748.7999877929688</ele>
        <time>2003-04-18T14:01:53.000Z</time>
      </trkpt>
      <trkpt lon="-2.329080021008849" lat="42.981349965557456">
        <ele>746.4000244140625</ele>
        <time>2003-04-18T14:02:07.000Z</time>
      </trkpt>
      <trkpt lon="-2.329080021008849" lat="42.981349965557456">
        <ele>746.4000244140625</ele>
        <time>2003-04-18T14:02:08.000Z</time>
      </trkpt>
      <trkpt lon="-2.328799981623888" lat="42.981349965557456">
        <ele>742.7999877929688</ele>
        <time>2003-04-18T14:02:22.000Z</time>
      </trkpt>
      <trkpt lon="-2.328569982200861" lat="42.981390031054616">
        <ele>740.5999755859375</ele>
        <time>2003-04-18T14:02:34.000Z</time>
      </trkpt>
      <trkpt lon="-2.328089950606227" lat="42.981560016050935">
        <ele>739.7999877929688</ele>
        <time>2003-04-18T14:03:00.000Z</time>
      </trkpt>
      <trkpt lon="-2.3274299595505" lat="42.98176000826061">
        <ele>738.7999877929688</ele>
        <time>2003-04-18T14:03:35.000Z</time>
      </trkpt>
      <trkpt lon="-2.3274100106209517" lat="42.98176000826061">
        <ele>738.7999877929688</ele>
        <time>2003-04-18T14:03:36.000Z</time>
      </trkpt>
      <trkpt lon="-2.3271299712359905" lat="42.98178004100919">
        <ele>737.4000244140625</ele>
        <time>2003-04-18T14:04:00.000Z</time>
      </trkpt>
      <trkpt lon="-2.3271500039845705" lat="42.981690019369125">
        <ele>738.2000122070312</ele>
        <time>2003-04-18T14:04:26.000Z</time>
      </trkpt>
      <trkpt lon="-2.3272100184112787" lat="42.981690019369125">
        <ele>738.4000244140625</ele>
        <time>2003-04-18T14:05:32.000Z</time>
      </trkpt>
      <trkpt lon="-2.3271899856626987" lat="42.98160997219384">
        <ele>736.7999877929688</ele>
        <time>2003-04-18T14:06:26.000Z</time>
      </trkpt>
      <trkpt lon="-2.327080015093088" lat="42.98157996498048">
        <ele>735.4000244140625</ele>
        <time>2003-04-18T14:06:32.000Z</time>
      </trkpt>
      <trkpt lon="-2.3268899135291576" lat="42.98157996498048">
        <ele>734.4000244140625</ele>
        <time>2003-04-18T14:06:46.000Z</time>
      </trkpt>
      <trkpt lon="-2.3267200123518705" lat="42.98160997219384">
        <ele>734.4000244140625</ele>
        <time>2003-04-18T14:06:57.000Z</time>
      </trkpt>
      <trkpt lon="-2.3266098741441965" lat="42.98160997219384">
        <ele>734.5999755859375</ele>
        <time>2003-04-18T14:07:05.000Z</time>
      </trkpt>
      <trkpt lon="-2.3265699762851" lat="42.98163000494242">
        <ele>735.4000244140625</ele>
        <time>2003-04-18T14:07:08.000Z</time>
      </trkpt>
      <trkpt lon="-2.3261798825114965" lat="42.98163000494242">
        <ele>737.7999877929688</ele>
        <time>2003-04-18T14:07:30.000Z</time>
      </trkpt>
      <trkpt lon="-2.325949966907501" lat="42.981650037691">
        <ele>739.7999877929688</ele>
        <time>2003-04-18T14:07:44.000Z</time>
      </trkpt>
      <trkpt lon="-2.325670011341572" lat="42.981690019369125">
        <ele>743.2000122070312</ele>
        <time>2003-04-18T14:08:03.000Z</time>
      </trkpt>
      <trkpt lon="-2.325629945844412" lat="42.981730001047254">
        <ele>743.7999877929688</ele>
        <time>2003-04-18T14:08:07.000Z</time>
      </trkpt>
      <trkpt lon="-2.325240019708872" lat="42.981860004365444">
        <ele>750.2000122070312</ele>
        <time>2003-04-18T14:08:32.000Z</time>
      </trkpt>
      <trkpt lon="-2.3250898998230696" lat="42.982140043750405">
        <ele>754.7999877929688</ele>
        <time>2003-04-18T14:08:55.000Z</time>
      </trkpt>
      <trkpt lon="-2.3249599803239107" lat="42.98245998099446">
        <ele>760.4000244140625</ele>
        <time>2003-04-18T14:09:21.000Z</time>
      </trkpt>
      <trkpt lon="-2.324999962002039" lat="42.982700038701296">
        <ele>761.5999755859375</ele>
        <time>2003-04-18T14:09:37.000Z</time>
      </trkpt>
      <trkpt lon="-2.3249599803239107" lat="42.982979994267225">
        <ele>764.7999877929688</ele>
        <time>2003-04-18T14:09:59.000Z</time>
      </trkpt>
      <trkpt lon="-2.3249399475753307" lat="42.983130030333996">
        <ele>766.4000244140625</ele>
        <time>2003-04-18T14:10:13.000Z</time>
      </trkpt>
      <trkpt lon="-2.3249399475753307" lat="42.98339003697038">
        <ele>767.5999755859375</ele>
        <time>2003-04-18T14:10:34.000Z</time>
      </trkpt>
      <trkpt lon="-2.3248698748648167" lat="42.983669992536306">
        <ele>766.4000244140625</ele>
        <time>2003-04-18T14:10:56.000Z</time>
      </trkpt>
      <trkpt lon="-2.3246599081903696" lat="42.98389999195933">
        <ele>768.4000244140625</ele>
        <time>2003-04-18T14:11:21.000Z</time>
      </trkpt>
      <trkpt lon="-2.324169985949993" lat="42.98406997695565">
        <ele>776.7999877929688</ele>
        <time>2003-04-18T14:11:50.000Z</time>
      </trkpt>
      <trkpt lon="-2.3238399904221296" lat="42.984310034662485">
        <ele>782.0</ele>
        <time>2003-04-18T14:12:13.000Z</time>
      </trkpt>
      <trkpt lon="-2.323719961568713" lat="42.98462997190654">
        <ele>783.7999877929688</ele>
        <time>2003-04-18T14:12:37.000Z</time>
      </trkpt>
      <trkpt lon="-2.323670005425811" lat="42.984740026295185">
        <ele>784.7999877929688</ele>
        <time>2003-04-18T14:12:46.000Z</time>
      </trkpt>
      <trkpt lon="-2.323719961568713" lat="42.98497002571821">
        <ele>783.4000244140625</ele>
        <time>2003-04-18T14:13:02.000Z</time>
      </trkpt>
      <trkpt lon="-2.323670005425811" lat="42.985319970175624">
        <ele>781.4000244140625</ele>
        <time>2003-04-18T14:13:27.000Z</time>
      </trkpt>
      <trkpt lon="-2.3233699332922697" lat="42.985600009560585">
        <ele>783.0</ele>
        <time>2003-04-18T14:13:52.000Z</time>
      </trkpt>
      <trkpt lon="-2.3230898939073086" lat="42.985790027305484">
        <ele>781.4000244140625</ele>
        <time>2003-04-18T14:14:10.000Z</time>
      </trkpt>
      <trkpt lon="-2.322539957240224" lat="42.986030001193285">
        <ele>775.7999877929688</ele>
        <time>2003-04-18T14:14:41.000Z</time>
      </trkpt>
      <trkpt lon="-2.3218900244683027" lat="42.9861500300467">
        <ele>778.4000244140625</ele>
        <time>2003-04-18T14:15:15.000Z</time>
      </trkpt>
      <trkpt lon="-2.3215498868376017" lat="42.986180037260056">
        <ele>781.7999877929688</ele>
        <time>2003-04-18T14:15:41.000Z</time>
      </trkpt>
      <trkpt lon="-2.321029957383871" lat="42.98628003336489">
        <ele>788.0</ele>
        <time>2003-04-18T14:16:10.000Z</time>
      </trkpt>
      <trkpt lon="-2.320819990709424" lat="42.98654004000127">
        <ele>789.7999877929688</ele>
        <time>2003-04-18T14:16:33.000Z</time>
      </trkpt>
      <trkpt lon="-2.3207299690693617" lat="42.98698998056352">
        <ele>794.0</ele>
        <time>2003-04-18T14:16:58.000Z</time>
      </trkpt>
      <trkpt lon="-2.320650005713105" lat="42.9872499871999">
        <ele>797.7999877929688</ele>
        <time>2003-04-18T14:17:18.000Z</time>
      </trkpt>
      <trkpt lon="-2.320539951324463" lat="42.98759004101157">
        <ele>802.2000122070312</ele>
        <time>2003-04-18T14:17:42.000Z</time>
      </trkpt>
      <trkpt lon="-2.3204499296844006" lat="42.98789002932608">
        <ele>806.0</ele>
        <time>2003-04-18T14:18:16.000Z</time>
      </trkpt>
      <trkpt lon="-2.3204499296844006" lat="42.987960018217564">
        <ele>806.5999755859375</ele>
        <time>2003-04-18T14:18:25.000Z</time>
      </trkpt>
      <trkpt lon="-2.3204298969358206" lat="42.9881099704653">
        <ele>808.0</ele>
        <time>2003-04-18T14:18:44.000Z</time>
      </trkpt>
      <trkpt lon="-2.320369966328144" lat="42.98823997378349">
        <ele>810.2000122070312</ele>
        <time>2003-04-18T14:19:05.000Z</time>
      </trkpt>
      <trkpt lon="-2.320350017398596" lat="42.98823997378349">
        <ele>810.5999755859375</ele>
        <time>2003-04-18T14:19:07.000Z</time>
      </trkpt>
      <trkpt lon="-2.3202999774366617" lat="42.98832002095878">
        <ele>812.2000122070312</ele>
        <time>2003-04-18T14:19:20.000Z</time>
      </trkpt>
      <trkpt lon="-2.3202800285071135" lat="42.988410042598844">
        <ele>812.0</ele>
        <time>2003-04-18T14:19:32.000Z</time>
      </trkpt>
      <trkpt lon="-2.3202599957585335" lat="42.988539962098">
        <ele>811.4000244140625</ele>
        <time>2003-04-18T14:19:48.000Z</time>
      </trkpt>
      <trkpt lon="-2.3201798647642136" lat="42.98866996541619">
        <ele>811.4000244140625</ele>
        <time>2003-04-18T14:20:05.000Z</time>
      </trkpt>
      <trkpt lon="-2.320150025188923" lat="42.98868999816477">
        <ele>811.5999755859375</ele>
        <time>2003-04-18T14:20:08.000Z</time>
      </trkpt>
      <trkpt lon="-2.319939974695444" lat="42.98876996152103">
        <ele>813.4000244140625</ele>
        <time>2003-04-18T14:20:25.000Z</time>
      </trkpt>
      <trkpt lon="-2.319899993017316" lat="42.98876996152103">
        <ele>813.7999877929688</ele>
        <time>2003-04-18T14:20:31.000Z</time>
      </trkpt>
      <trkpt lon="-2.3198300041258335" lat="42.98878999426961">
        <ele>814.2000122070312</ele>
        <time>2003-04-18T14:20:34.000Z</time>
      </trkpt>
      <trkpt lon="-2.319509983062744" lat="42.98876996152103">
        <ele>818.0</ele>
        <time>2003-04-18T14:20:53.000Z</time>
      </trkpt>
      <trkpt lon="-2.3191700130701065" lat="42.988820001482964">
        <ele>820.2000122070312</ele>
        <time>2003-04-18T14:21:13.000Z</time>
      </trkpt>
      <trkpt lon="-2.3189099226146936" lat="42.98888001590967">
        <ele>819.0</ele>
        <time>2003-04-18T14:21:30.000Z</time>
      </trkpt>
      <trkpt lon="-2.3186298832297325" lat="42.98889996483922">
        <ele>818.5999755859375</ele>
        <time>2003-04-18T14:21:47.000Z</time>
      </trkpt>
      <trkpt lon="-2.3185199964791536" lat="42.9889199975878">
        <ele>817.7999877929688</ele>
        <time>2003-04-18T14:21:52.000Z</time>
      </trkpt>
      <trkpt lon="-2.3184598982334137" lat="42.9889199975878">
        <ele>817.7999877929688</ele>
        <time>2003-04-18T14:21:56.000Z</time>
      </trkpt>
      <trkpt lon="-2.318159993737936" lat="42.988970037549734">
        <ele>816.2000122070312</ele>
        <time>2003-04-18T14:22:12.000Z</time>
      </trkpt>
      <trkpt lon="-2.3178099654614925" lat="42.98901001922786">
        <ele>815.4000244140625</ele>
        <time>2003-04-18T14:22:29.000Z</time>
      </trkpt>
      <trkpt lon="-2.317449962720275" lat="42.9891599714756">
        <ele>810.7999877929688</ele>
        <time>2003-04-18T14:22:49.000Z</time>
      </trkpt>
      <trkpt lon="-2.317019971087575" lat="42.98924001865089">
        <ele>805.4000244140625</ele>
        <time>2003-04-18T14:23:12.000Z</time>
      </trkpt>
      <trkpt lon="-2.3168898839503527" lat="42.98927002586424">
        <ele>803.7999877929688</ele>
        <time>2003-04-18T14:23:19.000Z</time>
      </trkpt>
      <trkpt lon="-2.3167400155216455" lat="42.98931000754237">
        <ele>802.2000122070312</ele>
        <time>2003-04-18T14:23:27.000Z</time>
      </trkpt>
      <trkpt lon="-2.316569946706295" lat="42.9893499892205">
        <ele>800.4000244140625</ele>
        <time>2003-04-18T14:23:37.000Z</time>
      </trkpt>
      <trkpt lon="-2.316359980031848" lat="42.98938997089863">
        <ele>798.5999755859375</ele>
        <time>2003-04-18T14:23:50.000Z</time>
      </trkpt>
      <trkpt lon="-2.3160800244659185" lat="42.98947999253869">
        <ele>796.5999755859375</ele>
        <time>2003-04-18T14:24:06.000Z</time>
      </trkpt>
      <trkpt lon="-2.315990002825856" lat="42.98950002528727">
        <ele>796.0</ele>
        <time>2003-04-18T14:24:25.000Z</time>
      </trkpt>
      <trkpt lon="-2.315929988399148" lat="42.9895400069654">
        <ele>795.7999877929688</ele>
        <time>2003-04-18T14:24:45.000Z</time>
      </trkpt>
      <trkpt lon="-2.315950021147728" lat="42.98963002860546">
        <ele>796.0</ele>
        <time>2003-04-18T14:25:55.000Z</time>
      </trkpt>
      <trkpt lon="-2.315950021147728" lat="42.98960999585688">
        <ele>796.0</ele>
        <time>2003-04-18T14:27:29.000Z</time>
      </trkpt>
      <trkpt lon="-2.315690014511347" lat="42.98971996642649">
        <ele>794.0</ele>
        <time>2003-04-18T14:27:49.000Z</time>
      </trkpt>
      <trkpt lon="-2.315449956804514" lat="42.98976003192365">
        <ele>791.4000244140625</ele>
        <time>2003-04-18T14:28:06.000Z</time>
      </trkpt>
      <trkpt lon="-2.315330011770129" lat="42.98971996642649">
        <ele>789.2000122070312</ele>
        <time>2003-04-18T14:28:21.000Z</time>
      </trkpt>
      <trkpt lon="-2.3151799757033587" lat="42.98973999917507">
        <ele>787.5999755859375</ele>
        <time>2003-04-18T14:28:31.000Z</time>
      </trkpt>
      <trkpt lon="-2.3151299357414246" lat="42.98976003192365">
        <ele>787.4000244140625</ele>
        <time>2003-04-18T14:28:35.000Z</time>
      </trkpt>
      <trkpt lon="-2.315049972385168" lat="42.98971996642649">
        <ele>785.2000122070312</ele>
        <time>2003-04-18T14:28:43.000Z</time>
      </trkpt>
      <trkpt lon="-2.3149199690669775" lat="42.98967001028359">
        <ele>781.2000122070312</ele>
        <time>2003-04-18T14:28:54.000Z</time>
      </trkpt>
      <trkpt lon="-2.3148799035698175" lat="42.98963002860546">
        <ele>778.7999877929688</ele>
        <time>2003-04-18T14:29:00.000Z</time>
      </trkpt>
      <trkpt lon="-2.314789965748787" lat="42.98963002860546">
        <ele>776.5999755859375</ele>
        <time>2003-04-18T14:29:09.000Z</time>
      </trkpt>
      <trkpt lon="-2.3146598786115646" lat="42.98967001028359">
        <ele>774.5999755859375</ele>
        <time>2003-04-18T14:29:18.000Z</time>
      </trkpt>
      <trkpt lon="-2.3143400251865387" lat="42.99010000191629">
        <ele>781.7999877929688</ele>
        <time>2003-04-18T14:29:41.000Z</time>
      </trkpt>
      <trkpt lon="-2.313460009172559" lat="42.99019002355635">
        <ele>762.5999755859375</ele>
        <time>2003-04-18T14:31:53.000Z</time>
      </trkpt>
      <trkpt lon="-2.3133098892867565" lat="42.9902099724859">
        <ele>759.5999755859375</ele>
        <time>2003-04-18T14:32:13.000Z</time>
      </trkpt>
      <trkpt lon="-2.31281996704638" lat="42.99033997580409">
        <ele>759.2000122070312</ele>
        <time>2003-04-18T14:32:43.000Z</time>
      </trkpt>
      <trkpt lon="-2.3120899870991707" lat="42.99051004461944">
        <ele>760.4000244140625</ele>
        <time>2003-04-18T14:33:23.000Z</time>
      </trkpt>
      <trkpt lon="-2.3115899227559566" lat="42.99055002629757">
        <ele>757.7999877929688</ele>
        <time>2003-04-18T14:33:47.000Z</time>
      </trkpt>
      <trkpt lon="-2.3109499644488096" lat="42.9906399641186">
        <ele>758.7999877929688</ele>
        <time>2003-04-18T14:34:17.000Z</time>
      </trkpt>
      <trkpt lon="-2.3104999400675297" lat="42.99076996743679">
        <ele>757.7999877929688</ele>
        <time>2003-04-18T14:34:40.000Z</time>
      </trkpt>
      <trkpt lon="-2.3102399334311485" lat="42.9908299818635">
        <ele>754.5999755859375</ele>
        <time>2003-04-18T14:35:05.000Z</time>
      </trkpt>
      <trkpt lon="-2.309899963438511" lat="42.99088002182543">
        <ele>747.2000122070312</ele>
        <time>2003-04-18T14:35:24.000Z</time>
      </trkpt>
      <trkpt lon="-2.309509953483939" lat="42.99092000350356">
        <ele>736.0</ele>
        <time>2003-04-18T14:35:45.000Z</time>
      </trkpt>
      <trkpt lon="-2.309269979596138" lat="42.99102997407317">
        <ele>731.4000244140625</ele>
        <time>2003-04-18T14:35:59.000Z</time>
      </trkpt>
      <trkpt lon="-2.3089699912816286" lat="42.99118001013994">
        <ele>726.2000122070312</ele>
        <time>2003-04-18T14:36:19.000Z</time>
      </trkpt>
      <trkpt lon="-2.3089299257844687" lat="42.99120004288852">
        <ele>725.4000244140625</ele>
        <time>2003-04-18T14:36:21.000Z</time>
      </trkpt>
      <trkpt lon="-2.3087399918586016" lat="42.99134999513626">
        <ele>722.7999877929688</ele>
        <time>2003-04-18T14:36:36.000Z</time>
      </trkpt>
      <trkpt lon="-2.3085499741137028" lat="42.99147999845445">
        <ele>719.2000122070312</ele>
        <time>2003-04-18T14:36:52.000Z</time>
      </trkpt>
      <trkpt lon="-2.3085499741137028" lat="42.99150003120303">
        <ele>719.5999755859375</ele>
        <time>2003-04-18T14:36:54.000Z</time>
      </trkpt>
      <trkpt lon="-2.3085199669003487" lat="42.99163003452122">
        <ele>721.0</ele>
        <time>2003-04-18T14:37:01.000Z</time>
      </trkpt>
      <trkpt lon="-2.308389963582158" lat="42.99180001951754">
        <ele>718.2000122070312</ele>
        <time>2003-04-18T14:37:20.000Z</time>
      </trkpt>
      <trkpt lon="-2.30837001465261" lat="42.99206002615392">
        <ele>719.5999755859375</ele>
        <time>2003-04-18T14:37:45.000Z</time>
      </trkpt>
      <trkpt lon="-2.3084799014031887" lat="42.99207997508347">
        <ele>723.4000244140625</ele>
        <time>2003-04-18T14:38:09.000Z</time>
      </trkpt>
      <trkpt lon="-2.308440003544092" lat="42.99226999282837">
        <ele>723.5999755859375</ele>
        <time>2003-04-18T14:38:38.000Z</time>
      </trkpt>
      <trkpt lon="-2.3082899674773216" lat="42.99252999946475">
        <ele>720.7999877929688</ele>
        <time>2003-04-18T14:38:56.000Z</time>
      </trkpt>
      <trkpt lon="-2.3082399275153875" lat="42.99255003221333">
        <ele>719.2000122070312</ele>
        <time>2003-04-18T14:39:09.000Z</time>
      </trkpt>
      <trkpt lon="-2.308140015229583" lat="42.99266000278294">
        <ele>717.2000122070312</ele>
        <time>2003-04-18T14:39:23.000Z</time>
      </trkpt>
      <trkpt lon="-2.308010011911392" lat="42.99295999109745">
        <ele>717.2000122070312</ele>
        <time>2003-04-18T14:39:46.000Z</time>
      </trkpt>
      <trkpt lon="-2.308010011911392" lat="42.99299997277558">
        <ele>717.7999877929688</ele>
        <time>2003-04-18T14:40:11.000Z</time>
      </trkpt>
      <trkpt lon="-2.30794002301991" lat="42.99302000552416">
        <ele>715.5999755859375</ele>
        <time>2003-04-18T14:40:46.000Z</time>
      </trkpt>
      <trkpt lon="-2.30794002301991" lat="42.99302000552416">
        <ele>715.5999755859375</ele>
        <time>2003-04-18T14:40:47.000Z</time>
      </trkpt>
      <trkpt lon="-2.30789995752275" lat="42.99299997277558">
        <ele>713.7999877929688</ele>
        <time>2003-04-18T14:40:50.000Z</time>
      </trkpt>
      <trkpt lon="-2.3078199103474617" lat="42.99299997277558">
        <ele>710.7999877929688</ele>
        <time>2003-04-18T14:40:55.000Z</time>
      </trkpt>
      <trkpt lon="-2.307729972526431" lat="42.99305998720229">
        <ele>708.5999755859375</ele>
        <time>2003-04-18T14:41:03.000Z</time>
      </trkpt>
      <trkpt lon="-2.307669958099723" lat="42.99312997609377">
        <ele>707.5999755859375</ele>
        <time>2003-04-18T14:41:08.000Z</time>
      </trkpt>
      <trkpt lon="-2.3075599037110806" lat="42.99324003048241">
        <ele>705.4000244140625</ele>
        <time>2003-04-18T14:41:19.000Z</time>
      </trkpt>
      <trkpt lon="-2.3074500169605017" lat="42.99338998273015">
        <ele>703.4000244140625</ele>
        <time>2003-04-18T14:41:32.000Z</time>
      </trkpt>
      <trkpt lon="-2.307279948145151" lat="42.99354001879692">
        <ele>698.2000122070312</ele>
        <time>2003-04-18T14:41:49.000Z</time>
      </trkpt>
      <trkpt lon="-2.307209959253669" lat="42.99361998215318">
        <ele>696.0</ele>
        <time>2003-04-18T14:41:54.000Z</time>
      </trkpt>
      <trkpt lon="-2.307209959253669" lat="42.99364001490176">
        <ele>696.0</ele>
        <time>2003-04-18T14:41:55.000Z</time>
      </trkpt>
      <trkpt lon="-2.3071299120783806" lat="42.99377001821995">
        <ele>693.7999877929688</ele>
        <time>2003-04-18T14:42:12.000Z</time>
      </trkpt>
      <trkpt lon="-2.3069999925792217" lat="42.9939900431782">
        <ele>690.4000244140625</ele>
        <time>2003-04-18T14:42:27.000Z</time>
      </trkpt>
      <trkpt lon="-2.3069600109010935" lat="42.99400999210775">
        <ele>689.2000122070312</ele>
        <time>2003-04-18T14:42:32.000Z</time>
      </trkpt>
      <trkpt lon="-2.3069098871201277" lat="42.99394000321627">
        <ele>688.0</ele>
        <time>2003-04-18T14:42:36.000Z</time>
      </trkpt>
      <trkpt lon="-2.306890022009611" lat="42.99394000321627">
        <ele>687.4000244140625</ele>
        <time>2003-04-18T14:42:38.000Z</time>
      </trkpt>
      <trkpt lon="-2.306849956512451" lat="42.99397001042962">
        <ele>686.4000244140625</ele>
        <time>2003-04-18T14:42:41.000Z</time>
      </trkpt>
      <trkpt lon="-2.3067399859428406" lat="42.99417997710407">
        <ele>683.5999755859375</ele>
        <time>2003-04-18T14:43:00.000Z</time>
      </trkpt>
      <trkpt lon="-2.3067199531942606" lat="42.99417997710407">
        <ele>683.0</ele>
        <time>2003-04-18T14:43:13.000Z</time>
      </trkpt>
      <trkpt lon="-2.3066798876971006" lat="42.99420000985265">
        <ele>681.4000244140625</ele>
        <time>2003-04-18T14:43:16.000Z</time>
      </trkpt>
      <trkpt lon="-2.3066798876971006" lat="42.99422004260123">
        <ele>681.0</ele>
        <time>2003-04-18T14:43:17.000Z</time>
      </trkpt>
      <trkpt lon="-2.306660022586584" lat="42.994239991530776">
        <ele>680.0</ele>
        <time>2003-04-18T14:43:19.000Z</time>
      </trkpt>
      <trkpt lon="-2.30658994987607" lat="42.994239991530776">
        <ele>678.5999755859375</ele>
        <time>2003-04-18T14:43:23.000Z</time>
      </trkpt>
      <trkpt lon="-2.3065099865198135" lat="42.99429003149271">
        <ele>675.5999755859375</ele>
        <time>2003-04-18T14:43:29.000Z</time>
      </trkpt>
      <trkpt lon="-2.3064899537712336" lat="42.99429003149271">
        <ele>675.2000122070312</ele>
        <time>2003-04-18T14:43:31.000Z</time>
      </trkpt>
      <trkpt lon="-2.306419964879751" lat="42.99429003149271">
        <ele>673.7999877929688</ele>
        <time>2003-04-18T14:43:35.000Z</time>
      </trkpt>
      <trkpt lon="-2.3063300270587206" lat="42.99434996210039">
        <ele>670.2000122070312</ele>
        <time>2003-04-18T14:43:44.000Z</time>
      </trkpt>
      <trkpt lon="-2.3063099943101406" lat="42.99434996210039">
        <ele>669.7999877929688</ele>
        <time>2003-04-18T14:43:45.000Z</time>
      </trkpt>
      <trkpt lon="-2.306140009313822" lat="42.99434996210039">
        <ele>666.2000122070312</ele>
        <time>2003-04-18T14:44:01.000Z</time>
      </trkpt>
      <trkpt lon="-2.306010005995631" lat="42.99439002759755">
        <ele>662.4000244140625</ele>
        <time>2003-04-18T14:44:11.000Z</time>
      </trkpt>
      <trkpt lon="-2.3059898894280195" lat="42.99439002759755">
        <ele>662.0</ele>
        <time>2003-04-18T14:44:13.000Z</time>
      </trkpt>
      <trkpt lon="-2.305759973824024" lat="42.99449999816716">
        <ele>653.5999755859375</ele>
        <time>2003-04-18T14:44:27.000Z</time>
      </trkpt>
      <trkpt lon="-2.305710017681122" lat="42.99449999816716">
        <ele>652.4000244140625</ele>
        <time>2003-04-18T14:44:29.000Z</time>
      </trkpt>
      <trkpt lon="-2.305459985509515" lat="42.99459001980722">
        <ele>644.0</ele>
        <time>2003-04-18T14:44:58.000Z</time>
      </trkpt>
      <trkpt lon="-2.3053699638694525" lat="42.994539979845285">
        <ele>643.4000244140625</ele>
        <time>2003-04-18T14:46:01.000Z</time>
      </trkpt>
      <trkpt lon="-2.305350014939904" lat="42.99452003091574">
        <ele>643.4000244140625</ele>
        <time>2003-04-18T14:46:07.000Z</time>
      </trkpt>
      <trkpt lon="-2.3051999788731337" lat="42.99456998705864">
        <ele>638.5999755859375</ele>
        <time>2003-04-18T14:46:19.000Z</time>
      </trkpt>
      <trkpt lon="-2.3051299061626196" lat="42.99456998705864">
        <ele>637.0</ele>
        <time>2003-04-18T14:46:23.000Z</time>
      </trkpt>
      <trkpt lon="-2.3049799539148808" lat="42.99460996873677">
        <ele>632.2000122070312</ele>
        <time>2003-04-18T14:46:34.000Z</time>
      </trkpt>
      <trkpt lon="-2.3048999067395926" lat="42.99476000480354">
        <ele>626.0</ele>
        <time>2003-04-18T14:46:50.000Z</time>
      </trkpt>
      <trkpt lon="-2.3049999866634607" lat="42.99491004087031">
        <ele>624.4000244140625</ele>
        <time>2003-04-18T14:47:12.000Z</time>
      </trkpt>
      <trkpt lon="-2.3051098734140396" lat="42.99495002254844">
        <ele>625.7999877929688</ele>
        <time>2003-04-18T14:47:19.000Z</time>
      </trkpt>
      <trkpt lon="-2.305350014939904" lat="42.995120007544756">
        <ele>625.2000122070312</ele>
        <time>2003-04-18T14:47:36.000Z</time>
      </trkpt>
      <trkpt lon="-2.305519999936223" lat="42.99531999975443">
        <ele>621.4000244140625</ele>
        <time>2003-04-18T14:47:48.000Z</time>
      </trkpt>
      <trkpt lon="-2.3056500032544136" lat="42.9954700358212">
        <ele>619.2000122070312</ele>
        <time>2003-04-18T14:48:01.000Z</time>
      </trkpt>
      <trkpt lon="-2.305929958820343" lat="42.9954700358212">
        <ele>627.2000122070312</ele>
        <time>2003-04-18T14:48:19.000Z</time>
      </trkpt>
      <trkpt lon="-2.3060599621385336" lat="42.99561998806894">
        <ele>626.4000244140625</ele>
        <time>2003-04-18T14:48:37.000Z</time>
      </trkpt>
      <trkpt lon="-2.3062899615615606" lat="42.995849987491965">
        <ele>628.0</ele>
        <time>2003-04-18T14:48:57.000Z</time>
      </trkpt>
      <trkpt lon="-2.3063300270587206" lat="42.9959000274539">
        <ele>629.7999877929688</ele>
        <time>2003-04-18T14:49:01.000Z</time>
      </trkpt>
      <trkpt lon="-2.306140009313822" lat="42.99626003019512">
        <ele>624.4000244140625</ele>
        <time>2003-04-18T14:49:25.000Z</time>
      </trkpt>
      <trkpt lon="-2.3060799948871136" lat="42.996449964120984">
        <ele>622.7999877929688</ele>
        <time>2003-04-18T14:49:45.000Z</time>
      </trkpt>
      <trkpt lon="-2.3060105089098215" lat="42.99661986529827">
        <ele>620.7999877929688</ele>
        <time>2003-04-18T14:49:58.000Z</time>
      </trkpt>
      <trkpt lon="-2.3059350717812777" lat="42.99678146839142">
        <ele>619.4000244140625</ele>
        <time>2003-04-18T14:50:14.000Z</time>
      </trkpt>
      <trkpt lon="-2.3058354947715998" lat="42.99691591411829">
        <ele>616.7999877929688</ele>
        <time>2003-04-18T14:50:26.000Z</time>
      </trkpt>
      <trkpt lon="-2.305689984932542" lat="42.99705999903381">
        <ele>613.7999877929688</ele>
        <time>2003-04-18T14:51:28.000Z</time>
      </trkpt>
      <trkpt lon="-2.305669952183962" lat="42.99705999903381">
        <ele>613.2000122070312</ele>
        <time>2003-04-18T14:51:36.000Z</time>
      </trkpt>
      <trkpt lon="-2.3056099377572536" lat="42.99708003178239">
        <ele>611.5999755859375</ele>
        <time>2003-04-18T14:51:45.000Z</time>
      </trkpt>
      <trkpt lon="-2.305459985509515" lat="42.997159995138645">
        <ele>607.7999877929688</ele>
        <time>2003-04-18T14:51:53.000Z</time>
      </trkpt>
      <trkpt lon="-2.3053410463035107" lat="42.99724607728422">
        <ele>604.7999877929688</ele>
        <time>2003-04-18T14:51:59.000Z</time>
      </trkpt>
      <trkpt lon="-2.305193105712533" lat="42.99731715582311">
        <ele>600.7999877929688</ele>
        <time>2003-04-18T14:52:06.000Z</time>
      </trkpt>
      <trkpt lon="-2.304995795711875" lat="42.99740600399673">
        <ele>595.2000122070312</ele>
        <time>2003-04-18T14:52:16.000Z</time>
      </trkpt>
      <trkpt lon="-2.3047900199890137" lat="42.997480016201735">
        <ele>591.7999877929688</ele>
        <time>2003-04-18T14:52:26.000Z</time>
      </trkpt>
      <trkpt lon="-2.304639983922243" lat="42.99755000509322">
        <ele>589.2000122070312</ele>
        <time>2003-04-18T14:52:37.000Z</time>
      </trkpt>
      <trkpt lon="-2.3044699151068926" lat="42.997610019519925">
        <ele>586.0</ele>
        <time>2003-04-18T14:52:49.000Z</time>
      </trkpt>
      <trkpt lon="-2.3043600283563137" lat="42.99762996844947">
        <ele>583.7999877929688</ele>
        <time>2003-04-18T14:52:59.000Z</time>
      </trkpt>
      <trkpt lon="-2.3043399956077337" lat="42.99762996844947">
        <ele>583.4000244140625</ele>
        <time>2003-04-18T14:53:00.000Z</time>
      </trkpt>
      <trkpt lon="-2.304207980632782" lat="42.9976443015039">
        <ele>581.0</ele>
        <time>2003-04-18T14:53:30.000Z</time>
      </trkpt>
      <trkpt lon="-2.3040364030748606" lat="42.99763424322009">
        <ele>577.4000244140625</ele>
        <time>2003-04-18T14:53:36.000Z</time>
      </trkpt>
      <trkpt lon="-2.303901454433799" lat="42.997633405029774">
        <ele>574.7999877929688</ele>
        <time>2003-04-18T14:53:45.000Z</time>
      </trkpt>
      <trkpt lon="-2.3037542682141066" lat="42.99762351438403">
        <ele>571.7999877929688</ele>
        <time>2003-04-18T14:53:49.000Z</time>
      </trkpt>
      <trkpt lon="-2.3035949282348156" lat="42.99761353991926">
        <ele>568.5999755859375</ele>
        <time>2003-04-18T14:54:01.000Z</time>
      </trkpt>
      <trkpt lon="-2.303447909653187" lat="42.997603649273515">
        <ele>565.5999755859375</ele>
        <time>2003-04-18T14:54:06.000Z</time>
      </trkpt>
      <trkpt lon="-2.3033254500478506" lat="42.99757590517402">
        <ele>563.4000244140625</ele>
        <time>2003-04-18T14:54:14.000Z</time>
      </trkpt>
      <trkpt lon="-2.303227549418807" lat="42.997557297348976">
        <ele>561.5999755859375</ele>
        <time>2003-04-18T14:54:18.000Z</time>
      </trkpt>
      <trkpt lon="-2.3031296487897635" lat="42.997538689523935">
        <ele>559.7999877929688</ele>
        <time>2003-04-18T14:54:21.000Z</time>
      </trkpt>
      <trkpt lon="-2.303009955212474" lat="42.99755000509322">
        <ele>557.4000244140625</ele>
        <time>2003-04-18T14:54:28.000Z</time>
      </trkpt>
      <trkpt lon="-2.3029699735343456" lat="42.99755000509322">
        <ele>556.5999755859375</ele>
        <time>2003-04-18T14:54:31.000Z</time>
      </trkpt>
      <trkpt lon="-2.3028798680752516" lat="42.99751002341509">
        <ele>555.2000122070312</ele>
        <time>2003-04-18T14:54:36.000Z</time>
      </trkpt>
      <trkpt lon="-2.3027499485760927" lat="42.99751002341509">
        <ele>552.7999877929688</ele>
        <time>2003-04-18T14:54:43.000Z</time>
      </trkpt>
      <trkpt lon="-2.3025399819016457" lat="42.997459983453155">
        <ele>547.7999877929688</ele>
        <time>2003-04-18T14:54:53.000Z</time>
      </trkpt>
      <trkpt lon="-2.3025199491530657" lat="42.997459983453155">
        <ele>547.4000244140625</ele>
        <time>2003-04-18T14:54:54.000Z</time>
      </trkpt>
      <trkpt lon="-2.3024498764425516" lat="42.997459983453155">
        <ele>546.4000244140625</ele>
        <time>2003-04-18T14:54:57.000Z</time>
      </trkpt>
      <trkpt lon="-2.302389945834875" lat="42.997459983453155">
        <ele>545.7999877929688</ele>
        <time>2003-04-18T14:55:00.000Z</time>
      </trkpt>
      <trkpt lon="-2.3023399896919727" lat="42.997420001775026">
        <ele>544.2000122070312</ele>
        <time>2003-04-18T14:55:03.000Z</time>
      </trkpt>
      <trkpt lon="-2.3023000080138445" lat="42.99735998734832">
        <ele>542.0</ele>
        <time>2003-04-18T14:55:08.000Z</time>
      </trkpt>
      <trkpt lon="-2.3023199569433928" lat="42.997139962390065">
        <ele>536.7999877929688</ele>
        <time>2003-04-18T14:55:25.000Z</time>
      </trkpt>
      <trkpt lon="-2.302227420732379" lat="42.99704700708389">
        <ele>533.0</ele>
        <time>2003-04-18T14:55:39.000Z</time>
      </trkpt>
      <trkpt lon="-2.3020558431744576" lat="42.99702798016369">
        <ele>529.4000244140625</ele>
        <time>2003-04-18T14:55:40.000Z</time>
      </trkpt>
      <trkpt lon="-2.3018105048686266" lat="42.99702647142112">
        <ele>525.2000122070312</ele>
        <time>2003-04-18T14:55:54.000Z</time>
      </trkpt>
      <trkpt lon="-2.301614535972476" lat="42.99700727686286">
        <ele>521.2000122070312</ele>
        <time>2003-04-18T14:56:11.000Z</time>
      </trkpt>
      <trkpt lon="-2.3015163000673056" lat="42.99700669012964">
        <ele>519.4000244140625</ele>
        <time>2003-04-18T14:56:25.000Z</time>
      </trkpt>
      <trkpt lon="-2.3012951016426086" lat="42.997041307389736">
        <ele>516.4000244140625</ele>
        <time>2003-04-18T14:56:41.000Z</time>
      </trkpt>
      <trkpt lon="-2.3010987136512995" lat="42.99705815501511">
        <ele>513.5999755859375</ele>
        <time>2003-04-18T14:56:54.000Z</time>
      </trkpt>
      <trkpt lon="-2.3009022418409586" lat="42.997075002640486">
        <ele>510.3999938964844</ele>
        <time>2003-04-18T14:56:55.000Z</time>
      </trkpt>
      <trkpt lon="-2.3006810434162617" lat="42.99710065126419">
        <ele>507.6000061035156</ele>
        <time>2003-04-18T14:57:14.000Z</time>
      </trkpt>
      <trkpt lon="-2.300521284341812" lat="42.99713568761945">
        <ele>506.0</ele>
        <time>2003-04-18T14:57:25.000Z</time>
      </trkpt>
      <trkpt lon="-2.300312239676714" lat="42.99717935733497">
        <ele>503.79998779296875</ele>
        <time>2003-04-18T14:57:37.000Z</time>
      </trkpt>
      <trkpt lon="-2.3001397401094437" lat="42.99724138341844">
        <ele>502.6000061035156</ele>
        <time>2003-04-18T14:57:38.000Z</time>
      </trkpt>
      <trkpt lon="-2.3000700026750565" lat="42.9973800200969">
        <ele>505.0</ele>
        <time>2003-04-18T14:57:51.000Z</time>
      </trkpt>
      <trkpt lon="-2.299979981034994" lat="42.9975700378418">
        <ele>506.0</ele>
        <time>2003-04-18T14:58:04.000Z</time>
      </trkpt>
      <trkpt lon="-2.299939999356866" lat="42.997780004516244">
        <ele>503.0</ele>
        <time>2003-04-18T14:58:17.000Z</time>
      </trkpt>
      <trkpt lon="-2.299939999356866" lat="42.99797999672592">
        <ele>500.79998779296875</ele>
        <time>2003-04-18T14:58:28.000Z</time>
      </trkpt>
      <trkpt lon="-2.299979981034994" lat="42.998040011152625">
        <ele>500.79998779296875</ele>
        <time>2003-04-18T14:58:42.000Z</time>
      </trkpt>
      <trkpt lon="-2.300104619935155" lat="42.99817747436464">
        <ele>501.20001220703125</ele>
        <time>2003-04-18T14:58:56.000Z</time>
      </trkpt>
      <trkpt lon="-2.3002867586910725" lat="42.99834067001939">
        <ele>501.79998779296875</ele>
        <time>2003-04-18T14:59:14.000Z</time>
      </trkpt>
      <trkpt lon="-2.3004327714443207" lat="42.99844058230519">
        <ele>499.79998779296875</ele>
        <time>2003-04-18T14:59:25.000Z</time>
      </trkpt>
      <trkpt lon="-2.3004687298089266" lat="42.99851283431053">
        <ele>497.20001220703125</ele>
        <time>2003-04-18T14:59:31.000Z</time>
      </trkpt>
      <trkpt lon="-2.3003455996513367" lat="42.99856605939567">
        <ele>493.3999938964844</ele>
        <time>2003-04-18T14:59:34.000Z</time>
      </trkpt>
      <trkpt lon="-2.3000867664813995" lat="42.998663540929556">
        <ele>486.3999938964844</ele>
        <time>2003-04-18T14:59:55.000Z</time>
      </trkpt>
      <trkpt lon="-2.2998042963445187" lat="42.998688854277134">
        <ele>482.0</ele>
        <time>2003-04-18T15:00:10.000Z</time>
      </trkpt>
      <trkpt lon="-2.2996326349675655" lat="42.99868776462972">
        <ele>480.0</ele>
        <time>2003-04-18T15:00:20.000Z</time>
      </trkpt>
      <trkpt lon="-2.2993384301662445" lat="42.99866798333824">
        <ele>477.20001220703125</ele>
        <time>2003-04-18T15:00:33.000Z</time>
      </trkpt>
      <trkpt lon="-2.2991178184747696" lat="42.99864862114191">
        <ele>474.6000061035156</ele>
        <time>2003-04-18T15:00:44.000Z</time>
      </trkpt>
      <trkpt lon="-2.2989219333976507" lat="42.99861140549183">
        <ele>471.6000061035156</ele>
        <time>2003-04-18T15:00:53.000Z</time>
      </trkpt>
      <trkpt lon="-2.29862823151052" lat="42.99855558201671">
        <ele>467.20001220703125</ele>
        <time>2003-04-18T15:01:10.000Z</time>
      </trkpt>
      <trkpt lon="-2.2984445840120316" lat="42.99851845018566">
        <ele>464.3999938964844</ele>
        <time>2003-04-18T15:01:12.000Z</time>
      </trkpt>
      <trkpt lon="-2.298261020332575" lat="42.99848131835461">
        <ele>462.0</ele>
        <time>2003-04-18T15:01:30.000Z</time>
      </trkpt>
      <trkpt lon="-2.2981632873415947" lat="42.99844468943775">
        <ele>461.3999938964844</ele>
        <time>2003-04-18T15:01:31.000Z</time>
      </trkpt>
      <trkpt lon="-2.2979671508073807" lat="42.998425494879484">
        <ele>458.3999938964844</ele>
        <time>2003-04-18T15:01:42.000Z</time>
      </trkpt>
      <trkpt lon="-2.2976370714604855" lat="42.99833346158266">
        <ele>454.6000061035156</ele>
        <time>2003-04-18T15:02:00.000Z</time>
      </trkpt>
      <trkpt lon="-2.297319984063506" lat="42.998209996148944">
        <ele>449.6000061035156</ele>
        <time>2003-04-18T15:02:17.000Z</time>
      </trkpt>
      <trkpt lon="-2.297149496152997" lat="42.9980602953583">
        <ele>447.79998779296875</ele>
        <time>2003-04-18T15:02:31.000Z</time>
      </trkpt>
      <trkpt lon="-2.296850010752678" lat="42.997849993407726">
        <ele>444.79998779296875</ele>
        <time>2003-04-18T15:02:49.000Z</time>
      </trkpt>
      <trkpt lon="-2.296829978004098" lat="42.9978100117296">
        <ele>444.79998779296875</ele>
        <time>2003-04-18T15:02:52.000Z</time>
      </trkpt>
      <trkpt lon="-2.2967399563640356" lat="42.99762996844947">
        <ele>445.6000061035156</ele>
        <time>2003-04-18T15:03:03.000Z</time>
      </trkpt>
      <trkpt lon="-2.296680025756359" lat="42.997459983453155">
        <ele>446.20001220703125</ele>
        <time>2003-04-18T15:03:15.000Z</time>
      </trkpt>
      <trkpt lon="-2.296569971367717" lat="42.99712001346052">
        <ele>443.79998779296875</ele>
        <time>2003-04-18T15:03:37.000Z</time>
      </trkpt>
      <trkpt lon="-2.2963600046932697" lat="42.99678004346788">
        <ele>441.20001220703125</ele>
        <time>2003-04-18T15:04:01.000Z</time>
      </trkpt>
      <trkpt lon="-2.2960799653083086" lat="42.99647997133434">
        <ele>437.20001220703125</ele>
        <time>2003-04-18T15:04:25.000Z</time>
      </trkpt>
      <trkpt lon="-2.2958399076014757" lat="42.99621996469796">
        <ele>433.79998779296875</ele>
        <time>2003-04-18T15:04:45.000Z</time>
      </trkpt>
      <trkpt lon="-2.2957609500736" lat="42.99611611291766">
        <ele>433.79998779296875</ele>
        <time>2003-04-18T15:05:03.000Z</time>
      </trkpt>
      <trkpt lon="-2.2953684255480766" lat="42.99610471352935">
        <ele>438.0</ele>
        <time>2003-04-18T15:05:22.000Z</time>
      </trkpt>
      <trkpt lon="-2.2951213270425797" lat="42.99625625833869">
        <ele>440.3999938964844</ele>
        <time>2003-04-18T15:05:41.000Z</time>
      </trkpt>
      <trkpt lon="-2.295120069757104" lat="42.996373269706964">
        <ele>440.20001220703125</ele>
        <time>2003-04-18T15:05:59.000Z</time>
      </trkpt>
      <trkpt lon="-2.295110011473298" lat="42.996449964120984">
        <ele>440.0</ele>
        <time>2003-04-18T15:06:21.000Z</time>
      </trkpt>
      <trkpt lon="-2.295110011473298" lat="42.99669002182782">
        <ele>439.20001220703125</ele>
        <time>2003-04-18T15:08:26.000Z</time>
      </trkpt>
      <trkpt lon="-2.295069945976138" lat="42.996839974075556">
        <ele>437.3999938964844</ele>
        <time>2003-04-18T15:08:35.000Z</time>
      </trkpt>
      <trkpt lon="-2.29502996429801" lat="42.996969977393746">
        <ele>435.6000061035156</ele>
        <time>2003-04-18T15:08:44.000Z</time>
      </trkpt>
      <trkpt lon="-2.29502996429801" lat="42.99708003178239">
        <ele>434.0</ele>
        <time>2003-04-18T15:08:52.000Z</time>
      </trkpt>
      <trkpt lon="-2.295069945976138" lat="42.997269965708256">
        <ele>431.3999938964844</ele>
        <time>2003-04-18T15:09:05.000Z</time>
      </trkpt>
      <trkpt lon="-2.2951298765838146" lat="42.997329980134964">
        <ele>430.6000061035156</ele>
        <time>2003-04-18T15:09:11.000Z</time>
      </trkpt>
      <trkpt lon="-2.2953298687934875" lat="42.997289998456836">
        <ele>431.3999938964844</ele>
        <time>2003-04-18T15:09:20.000Z</time>
      </trkpt>
      <trkpt lon="-2.2953499015420675" lat="42.997399969026446">
        <ele>430.0</ele>
        <time>2003-04-18T15:09:29.000Z</time>
      </trkpt>
      <trkpt lon="-2.2953499015420675" lat="42.997440034523606">
        <ele>429.6000061035156</ele>
        <time>2003-04-18T15:09:32.000Z</time>
      </trkpt>
      <trkpt lon="-2.295310003682971" lat="42.99751002341509">
        <ele>428.6000061035156</ele>
        <time>2003-04-18T15:09:36.000Z</time>
      </trkpt>
      <trkpt lon="-2.2951298765838146" lat="42.99765997566283">
        <ele>425.0</ele>
        <time>2003-04-18T15:09:49.000Z</time>
      </trkpt>
      <trkpt lon="-2.2949599754065275" lat="42.99783004447818">
        <ele>421.20001220703125</ele>
        <time>2003-04-18T15:10:04.000Z</time>
      </trkpt>
      <trkpt lon="-2.2947899904102087" lat="42.99795996397734">
        <ele>419.0</ele>
        <time>2003-04-18T15:10:15.000Z</time>
      </trkpt>
      <trkpt lon="-2.294659987092018" lat="42.998019978404045">
        <ele>418.0</ele>
        <time>2003-04-18T15:10:24.000Z</time>
      </trkpt>
      <trkpt lon="-2.2945500165224075" lat="42.99811000004411">
        <ele>415.79998779296875</ele>
        <time>2003-04-18T15:10:34.000Z</time>
      </trkpt>
      <trkpt lon="-2.2943399660289288" lat="42.9982400033623">
        <ele>412.20001220703125</ele>
        <time>2003-04-18T15:10:52.000Z</time>
      </trkpt>
      <trkpt lon="-2.2941299993544817" lat="42.9984300211072">
        <ele>409.20001220703125</ele>
        <time>2003-04-18T15:11:11.000Z</time>
      </trkpt>
      <trkpt lon="-2.29373998939991" lat="42.998750042170286">
        <ele>411.0</ele>
        <time>2003-04-18T15:11:36.000Z</time>
      </trkpt>
      <trkpt lon="-2.2934400010854006" lat="42.999050030484796">
        <ele>406.79998779296875</ele>
        <time>2003-04-18T15:11:56.000Z</time>
      </trkpt>
      <trkpt lon="-2.2931999433785677" lat="42.99923996441066">
        <ele>405.3999938964844</ele>
        <time>2003-04-18T15:12:14.000Z</time>
      </trkpt>
      <trkpt lon="-2.2929699439555407" lat="42.99942000769079">
        <ele>406.79998779296875</ele>
        <time>2003-04-18T15:12:30.000Z</time>
      </trkpt>
      <trkpt lon="-2.2927099373191595" lat="42.999610025435686">
        <ele>407.6000061035156</ele>
        <time>2003-04-18T15:12:50.000Z</time>
      </trkpt>
      <trkpt lon="-2.2924698796123266" lat="42.99974002875388">
        <ele>408.3999938964844</ele>
        <time>2003-04-18T15:13:04.000Z</time>
      </trkpt>
      <trkpt lon="-2.2922398801892996" lat="42.99984002485871">
        <ele>411.0</ele>
        <time>2003-04-18T15:13:26.000Z</time>
      </trkpt>
      <trkpt lon="-2.2922599129378796" lat="42.999910013750196">
        <ele>410.0</ele>
        <time>2003-04-18T15:13:33.000Z</time>
      </trkpt>
      <trkpt lon="-2.2922999784350395" lat="42.999949995428324">
        <ele>409.0</ele>
        <time>2003-04-18T15:13:36.000Z</time>
      </trkpt>
      <trkpt lon="-2.2925399523228407" lat="43.000040017068386">
        <ele>404.79998779296875</ele>
        <time>2003-04-18T15:13:54.000Z</time>
      </trkpt>
      <trkpt lon="-2.2925199195742607" lat="43.000059965997934">
        <ele>405.0</ele>
        <time>2003-04-18T15:14:02.000Z</time>
      </trkpt>
      <trkpt lon="-2.2923200111836195" lat="43.000100031495094">
        <ele>408.0</ele>
        <time>2003-04-18T15:14:20.000Z</time>
      </trkpt>
      <trkpt lon="-2.291960008442402" lat="43.00030002370477">
        <ele>414.0</ele>
        <time>2003-04-18T15:14:48.000Z</time>
      </trkpt>
      <trkpt lon="-2.2914399951696396" lat="43.000530023127794">
        <ele>409.3999938964844</ele>
        <time>2003-04-18T15:15:23.000Z</time>
      </trkpt>
      <trkpt lon="-2.290910007432103" lat="43.000939982011914">
        <ele>420.3999938964844</ele>
        <time>2003-04-18T15:16:00.000Z</time>
      </trkpt>
      <trkpt lon="-2.2905399464070797" lat="43.001369973644614">
        <ele>418.3999938964844</ele>
        <time>2003-04-18T15:16:21.000Z</time>
      </trkpt>
      <trkpt lon="-2.2905399464070797" lat="43.001540042459965">
        <ele>411.6000061035156</ele>
        <time>2003-04-18T15:16:31.000Z</time>
      </trkpt>
      <trkpt lon="-2.2905399464070797" lat="43.00158002413809">
        <ele>410.20001220703125</ele>
        <time>2003-04-18T15:16:35.000Z</time>
      </trkpt>
      <trkpt lon="-2.290480015799403" lat="43.00185997970402">
        <ele>404.20001220703125</ele>
        <time>2003-04-18T15:16:52.000Z</time>
      </trkpt>
      <trkpt lon="-2.2902398742735386" lat="43.00220003351569">
        <ele>405.6000061035156</ele>
        <time>2003-04-18T15:17:18.000Z</time>
      </trkpt>
      <trkpt lon="-2.2900098748505116" lat="43.002530029043555">
        <ele>406.20001220703125</ele>
        <time>2003-04-18T15:17:46.000Z</time>
      </trkpt>
      <trkpt lon="-2.2898098826408386" lat="43.00284996628761">
        <ele>401.3999938964844</ele>
        <time>2003-04-18T15:18:14.000Z</time>
      </trkpt>
      <trkpt lon="-2.2896199487149715" lat="43.00307996571064">
        <ele>398.20001220703125</ele>
        <time>2003-04-18T15:18:34.000Z</time>
      </trkpt>
      <trkpt lon="-2.2889498993754387" lat="43.003559997305274">
        <ele>399.79998779296875</ele>
        <time>2003-04-18T15:19:08.000Z</time>
      </trkpt>
      <trkpt lon="-2.2889799904078245" lat="43.00345002673566">
        <ele>403.6000061035156</ele>
        <time>2003-04-18T15:19:11.000Z</time>
      </trkpt>
      <trkpt lon="-2.2887599654495716" lat="43.00365999341011">
        <ele>402.79998779296875</ele>
        <time>2003-04-18T15:19:31.000Z</time>
      </trkpt>
      <trkpt lon="-2.2887399327009916" lat="43.00365999341011">
        <ele>403.6000061035156</ele>
        <time>2003-04-18T15:19:41.000Z</time>
      </trkpt>
      <trkpt lon="-2.2887198999524117" lat="43.003710033372045">
        <ele>401.79998779296875</ele>
        <time>2003-04-18T15:19:58.000Z</time>
      </trkpt>
      <trkpt lon="-2.288629962131381" lat="43.0037899967283">
        <ele>401.3999938964844</ele>
        <time>2003-04-18T15:20:18.000Z</time>
      </trkpt>
      <trkpt lon="-2.2886998672038317" lat="43.0037899967283">
        <ele>398.79998779296875</ele>
        <time>2003-04-18T15:20:40.000Z</time>
      </trkpt>
      <trkpt lon="-2.288629962131381" lat="43.00389996729791">
        <ele>396.0</ele>
        <time>2003-04-18T15:21:04.000Z</time>
      </trkpt>
      <trkpt lon="-2.288399962708354" lat="43.00408998504281">
        <ele>394.6000061035156</ele>
        <time>2003-04-18T15:21:23.000Z</time>
      </trkpt>
      <trkpt lon="-2.288440028205514" lat="43.00428997725248">
        <ele>386.0</ele>
        <time>2003-04-18T15:21:38.000Z</time>
      </trkpt>
      <trkpt lon="-2.288440028205514" lat="43.00437002442777">
        <ele>383.79998779296875</ele>
        <time>2003-04-18T15:21:44.000Z</time>
      </trkpt>
      <trkpt lon="-2.288459977135062" lat="43.00438997335732">
        <ele>382.3999938964844</ele>
        <time>2003-04-18T15:21:46.000Z</time>
      </trkpt>
      <trkpt lon="-2.288440028205514" lat="43.00447999499738">
        <ele>380.6000061035156</ele>
        <time>2003-04-18T15:21:52.000Z</time>
      </trkpt>
      <trkpt lon="-2.288399962708354" lat="43.0046499799937">
        <ele>377.3999938964844</ele>
        <time>2003-04-18T15:22:04.000Z</time>
      </trkpt>
      <trkpt lon="-2.288399962708354" lat="43.00467001274228">
        <ele>376.79998779296875</ele>
        <time>2003-04-18T15:22:05.000Z</time>
      </trkpt>
      <trkpt lon="-2.2883299738168716" lat="43.00471996888518">
        <ele>377.79998779296875</ele>
        <time>2003-04-18T15:22:11.000Z</time>
      </trkpt>
      <trkpt lon="-2.2882899083197117" lat="43.00477998331189">
        <ele>378.0</ele>
        <time>2003-04-18T15:22:19.000Z</time>
      </trkpt>
      <trkpt lon="-2.2881200071424246" lat="43.00494996830821">
        <ele>381.20001220703125</ele>
        <time>2003-04-18T15:22:36.000Z</time>
      </trkpt>
      <trkpt lon="-2.287990003824234" lat="43.00512003712356">
        <ele>384.3999938964844</ele>
        <time>2003-04-18T15:22:50.000Z</time>
      </trkpt>
      <trkpt lon="-2.287799986079335" lat="43.00555002875626">
        <ele>386.79998779296875</ele>
        <time>2003-04-18T15:23:21.000Z</time>
      </trkpt>
      <trkpt lon="-2.287799986079335" lat="43.00579000264406">
        <ele>383.6000061035156</ele>
        <time>2003-04-18T15:23:40.000Z</time>
      </trkpt>
      <trkpt lon="-2.2875999100506306" lat="43.00599996931851">
        <ele>384.3999938964844</ele>
        <time>2003-04-18T15:24:07.000Z</time>
      </trkpt>
      <trkpt lon="-2.2874499578028917" lat="43.00608999095857">
        <ele>384.6000061035156</ele>
        <time>2003-04-18T15:24:18.000Z</time>
      </trkpt>
      <trkpt lon="-2.2873699106276035" lat="43.00611002370715">
        <ele>384.6000061035156</ele>
        <time>2003-04-18T15:24:22.000Z</time>
      </trkpt>
      <trkpt lon="-2.287109987810254" lat="43.00608999095857">
        <ele>387.3999938964844</ele>
        <time>2003-04-18T15:24:34.000Z</time>
      </trkpt>
      <trkpt lon="-2.2867198940366507" lat="43.00607004202902">
        <ele>391.0</ele>
        <time>2003-04-18T15:24:51.000Z</time>
      </trkpt>
      <trkpt lon="-2.286589974537492" lat="43.00608999095857">
        <ele>391.20001220703125</ele>
        <time>2003-04-18T15:24:55.000Z</time>
      </trkpt>
      <trkpt lon="-2.2860599029809237" lat="43.00605000928044">
        <ele>395.79998779296875</ele>
        <time>2003-04-18T15:25:22.000Z</time>
      </trkpt>
      <trkpt lon="-2.2860098630189896" lat="43.00602000206709">
        <ele>396.79998779296875</ele>
        <time>2003-04-18T15:25:41.000Z</time>
      </trkpt>
      <trkpt lon="-2.2859500162303448" lat="43.00605000928044">
        <ele>396.3999938964844</ele>
        <time>2003-04-18T15:26:29.000Z</time>
      </trkpt>
      <trkpt lon="-2.2859500162303448" lat="43.00608999095857">
        <ele>395.3999938964844</ele>
        <time>2003-04-18T15:26:35.000Z</time>
      </trkpt>
      <trkpt lon="-2.285989997908473" lat="43.00617003813386">
        <ele>393.20001220703125</ele>
        <time>2003-04-18T15:26:46.000Z</time>
      </trkpt>
      <trkpt lon="-2.2858900018036366" lat="43.00650003366172">
        <ele>386.0</ele>
        <time>2003-04-18T15:27:17.000Z</time>
      </trkpt>
      <trkpt lon="-2.285820012912154" lat="43.00664998590946">
        <ele>383.79998779296875</ele>
        <time>2003-04-18T15:27:38.000Z</time>
      </trkpt>
      <trkpt lon="-2.285820012912154" lat="43.00668996758759">
        <ele>383.3999938964844</ele>
        <time>2003-04-18T15:27:42.000Z</time>
      </trkpt>
      <trkpt lon="-2.285820012912154" lat="43.00700998865068">
        <ele>381.0</ele>
        <time>2003-04-18T15:28:08.000Z</time>
      </trkpt>
      <trkpt lon="-2.285820012912154" lat="43.00735004246235">
        <ele>378.6000061035156</ele>
        <time>2003-04-18T15:28:32.000Z</time>
      </trkpt>
      <trkpt lon="-2.285759998485446" lat="43.00755003467202">
        <ele>378.3999938964844</ele>
        <time>2003-04-18T15:28:49.000Z</time>
      </trkpt>
      <trkpt lon="-2.285739965736866" lat="43.00756998360157">
        <ele>378.6000061035156</ele>
        <time>2003-04-18T15:28:52.000Z</time>
      </trkpt>
      <trkpt lon="-2.2856900095939636" lat="43.00768003799021">
        <ele>377.0</ele>
        <time>2003-04-18T15:29:05.000Z</time>
      </trkpt>
      <trkpt lon="-2.285590013489127" lat="43.00778003409505">
        <ele>377.79998779296875</ele>
        <time>2003-04-18T15:29:18.000Z</time>
      </trkpt>
      <trkpt lon="-2.2856299113482237" lat="43.00773996859789">
        <ele>377.6000061035156</ele>
        <time>2003-04-18T15:29:36.000Z</time>
      </trkpt>
      <trkpt lon="-2.2854399774223566" lat="43.00786997191608">
        <ele>380.3999938964844</ele>
        <time>2003-04-18T15:29:52.000Z</time>
      </trkpt>
      <trkpt lon="-2.2853699047118425" lat="43.00791003741324">
        <ele>381.6000061035156</ele>
        <time>2003-04-18T15:29:56.000Z</time>
      </trkpt>
      <trkpt lon="-2.285160021856427" lat="43.00799997523427">
        <ele>386.20001220703125</ele>
        <time>2003-04-18T15:30:13.000Z</time>
      </trkpt>
      <trkpt lon="-2.2850099857896566" lat="43.00805998966098">
        <ele>389.3999938964844</ele>
        <time>2003-04-18T15:30:29.000Z</time>
      </trkpt>
      <trkpt lon="-2.2849799785763025" lat="43.00808002240956">
        <ele>390.0</ele>
        <time>2003-04-18T15:31:24.000Z</time>
      </trkpt>
      <trkpt lon="-2.2849599458277225" lat="43.00811002962291">
        <ele>389.79998779296875</ele>
        <time>2003-04-18T15:31:47.000Z</time>
      </trkpt>
      <trkpt lon="-2.2847700119018555" lat="43.00815001130104">
        <ele>396.20001220703125</ele>
        <time>2003-04-18T15:32:06.000Z</time>
      </trkpt>
      <trkpt lon="-2.284470023587346" lat="43.00838001072407">
        <ele>399.3999938964844</ele>
        <time>2003-04-18T15:32:31.000Z</time>
      </trkpt>
      <trkpt lon="-2.284449990838766" lat="43.00855997018516">
        <ele>394.3999938964844</ele>
        <time>2003-04-18T15:32:44.000Z</time>
      </trkpt>
      <trkpt lon="-2.2844898886978626" lat="43.00864001736045">
        <ele>390.20001220703125</ele>
        <time>2003-04-18T15:32:51.000Z</time>
      </trkpt>
      <trkpt lon="-2.284470023587346" lat="43.00877002067864">
        <ele>386.79998779296875</ele>
        <time>2003-04-18T15:33:03.000Z</time>
      </trkpt>
      <trkpt lon="-2.2841299697756767" lat="43.00898996181786">
        <ele>394.79998779296875</ele>
        <time>2003-04-18T15:33:25.000Z</time>
      </trkpt>
      <trkpt lon="-2.2837200108915567" lat="43.00916003063321">
        <ele>405.79998779296875</ele>
        <time>2003-04-18T15:33:48.000Z</time>
      </trkpt>
      <trkpt lon="-2.2834399715065956" lat="43.00933001562953">
        <ele>412.0</ele>
        <time>2003-04-18T15:34:12.000Z</time>
      </trkpt>
      <trkpt lon="-2.2834399715065956" lat="43.00934996455908">
        <ele>411.3999938964844</ele>
        <time>2003-04-18T15:34:13.000Z</time>
      </trkpt>
      <trkpt lon="-2.283529993146658" lat="43.00969001837075">
        <ele>398.20001220703125</ele>
        <time>2003-04-18T15:34:38.000Z</time>
      </trkpt>
      <trkpt lon="-2.2834399715065956" lat="43.00989001058042">
        <ele>395.6000061035156</ele>
        <time>2003-04-18T15:34:53.000Z</time>
      </trkpt>
      <trkpt lon="-2.283309968188405" lat="43.00995002500713">
        <ele>398.20001220703125</ele>
        <time>2003-04-18T15:35:03.000Z</time>
      </trkpt>
      <trkpt lon="-2.2829899471253157" lat="43.01018999889493">
        <ele>396.3999938964844</ele>
        <time>2003-04-18T15:35:25.000Z</time>
      </trkpt>
      <trkpt lon="-2.282879976555705" lat="43.01032000221312">
        <ele>392.6000061035156</ele>
        <time>2003-04-18T15:35:36.000Z</time>
      </trkpt>
      <trkpt lon="-2.282860027626157" lat="43.0103400349617">
        <ele>392.0</ele>
        <time>2003-04-18T15:35:38.000Z</time>
      </trkpt>
      <trkpt lon="-2.2828000131994486" lat="43.01051001995802">
        <ele>384.3999938964844</ele>
        <time>2003-04-18T15:35:47.000Z</time>
      </trkpt>
      <trkpt lon="-2.2826898749917746" lat="43.01061999052763">
        <ele>380.3999938964844</ele>
        <time>2003-04-18T15:35:55.000Z</time>
      </trkpt>
      <trkpt lon="-2.2825399227440357" lat="43.01074999384582">
        <ele>375.3999938964844</ele>
        <time>2003-04-18T15:36:10.000Z</time>
      </trkpt>
      <trkpt lon="-2.2822799161076546" lat="43.01083004102111">
        <ele>372.20001220703125</ele>
        <time>2003-04-18T15:36:22.000Z</time>
      </trkpt>
      <trkpt lon="-2.281959978863597" lat="43.01094001159072">
        <ele>367.6000061035156</ele>
        <time>2003-04-18T15:36:38.000Z</time>
      </trkpt>
      <trkpt lon="-2.281769961118698" lat="43.01100002601743">
        <ele>365.3999938964844</ele>
        <time>2003-04-18T15:36:47.000Z</time>
      </trkpt>
      <trkpt lon="-2.2816800232976675" lat="43.01097999326885">
        <ele>367.0</ele>
        <time>2003-04-18T15:36:59.000Z</time>
      </trkpt>
      <trkpt lon="-2.281509954482317" lat="43.01094001159072">
        <ele>368.6000061035156</ele>
        <time>2003-04-18T15:37:11.000Z</time>
      </trkpt>
      <trkpt lon="-2.28132002055645" lat="43.01087002269924">
        <ele>371.3999938964844</ele>
        <time>2003-04-18T15:37:22.000Z</time>
      </trkpt>
      <trkpt lon="-2.2809899412095547" lat="43.01084998995066">
        <ele>370.79998779296875</ele>
        <time>2003-04-18T15:37:39.000Z</time>
      </trkpt>
      <trkpt lon="-2.2807799745351076" lat="43.01083004102111">
        <ele>371.20001220703125</ele>
        <time>2003-04-18T15:37:50.000Z</time>
      </trkpt>
      <trkpt lon="-2.2807099018245935" lat="43.01081000827253">
        <ele>372.3999938964844</ele>
        <time>2003-04-18T15:38:03.000Z</time>
      </trkpt>
      <trkpt lon="-2.2803700156509876" lat="43.0107700265944">
        <ele>375.0</ele>
        <time>2003-04-18T15:38:26.000Z</time>
      </trkpt>
      <trkpt lon="-2.279980005696416" lat="43.0109600443393">
        <ele>366.20001220703125</ele>
        <time>2003-04-18T15:38:50.000Z</time>
      </trkpt>
      <trkpt lon="-2.27970072068274" lat="43.01103346981108">
        <ele>365.3999938964844</ele>
        <time>2003-04-18T15:39:08.000Z</time>
      </trkpt>
      <trkpt lon="-2.2793922666460276" lat="43.01117562688887">
        <ele>362.20001220703125</ele>
        <time>2003-04-18T15:39:25.000Z</time>
      </trkpt>
      <trkpt lon="-2.2791206929832697" lat="43.0113088991493">
        <ele>359.20001220703125</ele>
        <time>2003-04-18T15:39:40.000Z</time>
      </trkpt>
      <trkpt lon="-2.278862027451396" lat="43.01139732822776">
        <ele>357.0</ele>
        <time>2003-04-18T15:39:53.000Z</time>
      </trkpt>
      <trkpt lon="-2.2786772064864635" lat="43.011459186673164">
        <ele>355.6000061035156</ele>
        <time>2003-04-18T15:40:07.000Z</time>
      </trkpt>
      <trkpt lon="-2.2785293497145176" lat="43.01151224412024">
        <ele>354.3999938964844</ele>
        <time>2003-04-18T15:40:10.000Z</time>
      </trkpt>
      <trkpt lon="-2.278179991990328" lat="43.01170997321606">
        <ele>349.0</ele>
        <time>2003-04-18T15:40:29.000Z</time>
      </trkpt>
      <trkpt lon="-2.2777635790407658" lat="43.01194860599935">
        <ele>344.6000061035156</ele>
        <time>2003-04-18T15:40:49.000Z</time>
      </trkpt>
      <trkpt lon="-2.2775153908878565" lat="43.01218111999333">
        <ele>342.0</ele>
        <time>2003-04-18T15:41:08.000Z</time>
      </trkpt>
      <trkpt lon="-2.277391254901886" lat="43.01230634562671">
        <ele>338.6000061035156</ele>
        <time>2003-04-18T15:41:23.000Z</time>
      </trkpt>
      <trkpt lon="-2.277169469743967" lat="43.01238597370684">
        <ele>334.6000061035156</ele>
        <time>2003-04-18T15:41:34.000Z</time>
      </trkpt>
      <trkpt lon="-2.2769967187196016" lat="43.012456968426704">
        <ele>331.3999938964844</ele>
        <time>2003-04-18T15:41:43.000Z</time>
      </trkpt>
      <trkpt lon="-2.2768126521259546" lat="43.012464763596654">
        <ele>329.20001220703125</ele>
        <time>2003-04-18T15:41:53.000Z</time>
      </trkpt>
      <trkpt lon="-2.276530349627137" lat="43.01247197203338">
        <ele>325.0</ele>
        <time>2003-04-18T15:42:08.000Z</time>
      </trkpt>
      <trkpt lon="-2.2762607876211405" lat="43.012443305924535">
        <ele>320.3999938964844</ele>
        <time>2003-04-18T15:42:21.000Z</time>
      </trkpt>
      <trkpt lon="-2.276138998568058" lat="43.01236149854958">
        <ele>319.6000061035156</ele>
        <time>2003-04-18T15:42:29.000Z</time>
      </trkpt>
      <trkpt lon="-2.2759441193193197" lat="43.012234177440405">
        <ele>318.20001220703125</ele>
        <time>2003-04-18T15:42:41.000Z</time>
      </trkpt>
      <trkpt lon="-2.2757977712899446" lat="43.01216125488281">
        <ele>317.20001220703125</ele>
        <time>2003-04-18T15:42:51.000Z</time>
      </trkpt>
      <trkpt lon="-2.275626864284277" lat="43.01208816468716">
        <ele>317.3999938964844</ele>
        <time>2003-04-18T15:43:00.000Z</time>
      </trkpt>
      <trkpt lon="-2.2753946017473936" lat="43.01201465539634">
        <ele>316.79998779296875</ele>
        <time>2003-04-18T15:43:12.000Z</time>
      </trkpt>
      <trkpt lon="-2.275308519601822" lat="43.01203208975494">
        <ele>315.79998779296875</ele>
        <time>2003-04-18T15:43:13.000Z</time>
      </trkpt>
      <trkpt lon="-2.2752829547971487" lat="43.012112975120544">
        <ele>314.20001220703125</ele>
        <time>2003-04-18T15:43:17.000Z</time>
      </trkpt>
      <trkpt lon="-2.2752599883824587" lat="43.012199979275465">
        <ele>312.6000061035156</ele>
        <time>2003-04-18T15:43:23.000Z</time>
      </trkpt>
      <trkpt lon="-2.275180025026202" lat="43.01229000091553">
        <ele>310.6000061035156</ele>
        <time>2003-04-18T15:43:39.000Z</time>
      </trkpt>
      <trkpt lon="-2.2751999739557505" lat="43.01229000091553">
        <ele>310.6000061035156</ele>
        <time>2003-04-18T15:44:17.000Z</time>
      </trkpt>
      <trkpt lon="-2.275180025026202" lat="43.01229000091553">
        <ele>310.6000061035156</ele>
        <time>2003-04-18T15:44:28.000Z</time>
      </trkpt>
      <trkpt lon="-2.2750108782202005" lat="43.012291342020035">
        <ele>309.3999938964844</ele>
        <time>2003-04-18T15:44:44.000Z</time>
      </trkpt>
      <trkpt lon="-2.274788673967123" lat="43.012415980920196">
        <ele>312.79998779296875</ele>
        <time>2003-04-18T15:45:00.000Z</time>
      </trkpt>
      <trkpt lon="-2.274663867428899" lat="43.012595269829035">
        <ele>314.3999938964844</ele>
        <time>2003-04-18T15:45:19.000Z</time>
      </trkpt>
      <trkpt lon="-2.2746005840599537" lat="43.01275687292218">
        <ele>315.3999938964844</ele>
        <time>2003-04-18T15:45:35.000Z</time>
      </trkpt>
      <trkpt lon="-2.2745999973267317" lat="43.012889977544546">
        <ele>314.79998779296875</ele>
        <time>2003-04-18T15:45:46.000Z</time>
      </trkpt>
      <trkpt lon="-2.2745599318295717" lat="43.01317001692951">
        <ele>314.3999938964844</ele>
        <time>2003-04-18T15:46:05.000Z</time>
      </trkpt>
      <trkpt lon="-2.2745098918676376" lat="43.01356002688408">
        <ele>317.0</ele>
        <time>2003-04-18T15:46:30.000Z</time>
      </trkpt>
      <trkpt lon="-2.274449961259961" lat="43.013809975236654">
        <ele>320.3999938964844</ele>
        <time>2003-04-18T15:46:51.000Z</time>
      </trkpt>
      <trkpt lon="-2.2742999251931906" lat="43.013960011303425">
        <ele>323.0</ele>
        <time>2003-04-18T15:47:09.000Z</time>
      </trkpt>
      <trkpt lon="-2.2738499008119106" lat="43.01399001851678">
        <ele>322.79998779296875</ele>
        <time>2003-04-18T15:47:31.000Z</time>
      </trkpt>
      <trkpt lon="-2.2734199091792107" lat="43.013809975236654">
        <ele>321.79998779296875</ele>
        <time>2003-04-18T15:47:54.000Z</time>
      </trkpt>
      <trkpt lon="-2.2731599025428295" lat="43.01356002688408">
        <ele>322.0</ele>
        <time>2003-04-18T15:48:15.000Z</time>
      </trkpt>
      <trkpt lon="-2.2728799469769" lat="43.01327998749912">
        <ele>322.3999938964844</ele>
        <time>2003-04-18T15:48:37.000Z</time>
      </trkpt>
      <trkpt lon="-2.2725799586623907" lat="43.01295996643603">
        <ele>323.3999938964844</ele>
        <time>2003-04-18T15:49:01.000Z</time>
      </trkpt>
      <trkpt lon="-2.2722999192774296" lat="43.012650003656745">
        <ele>321.6000061035156</ele>
        <time>2003-04-18T15:49:23.000Z</time>
      </trkpt>
      <trkpt lon="-2.271979982033372" lat="43.012329982593656">
        <ele>317.79998779296875</ele>
        <time>2003-04-18T15:49:49.000Z</time>
      </trkpt>
      <trkpt lon="-2.2717199753969908" lat="43.012029994279146">
        <ele>315.3999938964844</ele>
        <time>2003-04-18T15:50:13.000Z</time>
      </trkpt>
      <trkpt lon="-2.2716198954731226" lat="43.011899990960956">
        <ele>314.79998779296875</ele>
        <time>2003-04-18T15:54:19.000Z</time>
      </trkpt>
      <trkpt lon="-2.271676557138562" lat="43.012027060613036">
        <ele>314.79998779296875</ele>
        <time>2003-04-18T15:54:33.000Z</time>
      </trkpt>
      <trkpt lon="-2.2715294547379017" lat="43.012017169967294">
        <ele>312.0</ele>
        <time>2003-04-18T15:54:43.000Z</time>
      </trkpt>
      <trkpt lon="-2.2713942546397448" lat="43.012034269049764">
        <ele>309.3999938964844</ele>
        <time>2003-04-18T15:54:49.000Z</time>
      </trkpt>
      <trkpt lon="-2.2712467331439257" lat="43.01206033676863">
        <ele>306.3999938964844</ele>
        <time>2003-04-18T15:54:52.000Z</time>
      </trkpt>
      <trkpt lon="-2.2711106948554516" lat="43.01214952021837">
        <ele>303.20001220703125</ele>
        <time>2003-04-18T15:55:05.000Z</time>
      </trkpt>
      <trkpt lon="-2.271011034026742" lat="43.01227491348982">
        <ele>300.6000061035156</ele>
        <time>2003-04-18T15:55:15.000Z</time>
      </trkpt>
      <trkpt lon="-2.270950013771653" lat="43.01242000423372">
        <ele>298.3999938964844</ele>
        <time>2003-04-18T15:55:24.000Z</time>
      </trkpt>
      <trkpt lon="-2.2707599122077227" lat="43.01261002197862">
        <ele>295.0</ele>
        <time>2003-04-18T15:55:41.000Z</time>
      </trkpt>
      <trkpt lon="-2.270720014348626" lat="43.012650003656745">
        <ele>294.6000061035156</ele>
        <time>2003-04-18T15:55:45.000Z</time>
      </trkpt>
      <trkpt lon="-2.2704999055713415" lat="43.01282996311784">
        <ele>292.20001220703125</ele>
        <time>2003-04-18T15:56:01.000Z</time>
      </trkpt>
      <trkpt lon="-2.2701099794358015" lat="43.01314998418093">
        <ele>289.6000061035156</ele>
        <time>2003-04-18T15:56:26.000Z</time>
      </trkpt>
      <trkpt lon="-2.2698399145156145" lat="43.013379983603954">
        <ele>287.3999938964844</ele>
        <time>2003-04-18T15:56:47.000Z</time>
      </trkpt>
      <trkpt lon="-2.2694899700582027" lat="43.01357997581363">
        <ele>282.0</ele>
        <time>2003-04-18T15:57:08.000Z</time>
      </trkpt>
      <trkpt lon="-2.2692599706351757" lat="43.01370997913182">
        <ele>278.3999938964844</ele>
        <time>2003-04-18T15:57:24.000Z</time>
      </trkpt>
      <trkpt lon="-2.269039945676923" lat="43.013790026307106">
        <ele>275.6000061035156</ele>
        <time>2003-04-18T15:57:38.000Z</time>
      </trkpt>
      <trkpt lon="-2.268699975684285" lat="43.013960011303425">
        <ele>272.20001220703125</ele>
        <time>2003-04-18T15:57:57.000Z</time>
      </trkpt>
      <trkpt lon="-2.2683499474078417" lat="43.01413997076452">
        <ele>269.0</ele>
        <time>2003-04-18T15:58:18.000Z</time>
      </trkpt>
      <trkpt lon="-2.2679691575467587" lat="43.01424524746835">
        <ele>268.79998779296875</ele>
        <time>2003-04-18T15:58:40.000Z</time>
      </trkpt>
      <trkpt lon="-2.267735470086336" lat="43.01428874954581">
        <ele>268.6000061035156</ele>
        <time>2003-04-18T15:58:49.000Z</time>
      </trkpt>
      <trkpt lon="-2.267453921958804" lat="43.01423292607069">
        <ele>268.3999938964844</ele>
        <time>2003-04-18T15:59:06.000Z</time>
      </trkpt>
      <trkpt lon="-2.267036084085703" lat="43.0142842233181">
        <ele>269.20001220703125</ele>
        <time>2003-04-18T15:59:28.000Z</time>
      </trkpt>
      <trkpt lon="-2.2665081080049276" lat="43.014307860285044">
        <ele>271.20001220703125</ele>
        <time>2003-04-18T15:59:52.000Z</time>
      </trkpt>
      <trkpt lon="-2.2660784516483545" lat="43.014323115348816">
        <ele>274.3999938964844</ele>
        <time>2003-04-18T16:00:13.000Z</time>
      </trkpt>
      <trkpt lon="-2.2657226398587227" lat="43.01432085223496">
        <ele>276.79998779296875</ele>
        <time>2003-04-18T16:00:28.000Z</time>
      </trkpt>
      <trkpt lon="-2.26529348641634" lat="43.014300065115094">
        <ele>279.20001220703125</ele>
        <time>2003-04-18T16:00:48.000Z</time>
      </trkpt>
      <trkpt lon="-2.264859974384308" lat="43.014239966869354">
        <ele>281.3999938964844</ele>
        <time>2003-04-18T16:01:16.000Z</time>
      </trkpt>
      <trkpt lon="-2.2643900010734797" lat="43.014090014621615">
        <ele>282.0</ele>
        <time>2003-04-18T16:01:40.000Z</time>
      </trkpt>
      <trkpt lon="-2.2638899367302656" lat="43.0139200296253">
        <ele>282.79998779296875</ele>
        <time>2003-04-18T16:02:06.000Z</time>
      </trkpt>
      <trkpt lon="-2.2635099850594997" lat="43.013769993558526">
        <ele>284.0</ele>
        <time>2003-04-18T16:02:28.000Z</time>
      </trkpt>
      <trkpt lon="-2.2631147783249617" lat="43.013641918078065">
        <ele>284.20001220703125</ele>
        <time>2003-04-18T16:02:46.000Z</time>
      </trkpt>
      <trkpt lon="-2.2627581283450127" lat="43.01372070796788">
        <ele>285.79998779296875</ele>
        <time>2003-04-18T16:03:05.000Z</time>
      </trkpt>
      <trkpt lon="-2.2622775100171566" lat="43.013888681307435">
        <ele>289.3999938964844</ele>
        <time>2003-04-18T16:03:30.000Z</time>
      </trkpt>
      <trkpt lon="-2.2620566468685865" lat="43.01389622502029">
        <ele>290.20001220703125</ele>
        <time>2003-04-18T16:03:45.000Z</time>
      </trkpt>
      <trkpt lon="-2.261809716001153" lat="43.01402069628239">
        <ele>292.6000061035156</ele>
        <time>2003-04-18T16:06:24.000Z</time>
      </trkpt>
      <trkpt lon="-2.2614699974656105" lat="43.01418003626168">
        <ele>294.3999938964844</ele>
        <time>2003-04-18T16:06:46.000Z</time>
      </trkpt>
      <trkpt lon="-2.2610400058329105" lat="43.014220017939806">
        <ele>293.0</ele>
        <time>2003-04-18T16:07:09.000Z</time>
      </trkpt>
      <trkpt lon="-2.2608199808746576" lat="43.014369970187545">
        <ele>291.0</ele>
        <time>2003-04-18T16:07:22.000Z</time>
      </trkpt>
      <trkpt lon="-2.2605272009968758" lat="43.01456174813211">
        <ele>287.6000061035156</ele>
        <time>2003-04-18T16:07:44.000Z</time>
      </trkpt>
      <trkpt lon="-2.260328968986869" lat="43.01472251303494">
        <ele>285.3999938964844</ele>
        <time>2003-04-18T16:07:54.000Z</time>
      </trkpt>
      <trkpt lon="-2.260142220184207" lat="43.01494647748768">
        <ele>283.6000061035156</ele>
        <time>2003-04-18T16:08:12.000Z</time>
      </trkpt>
      <trkpt lon="-2.2600899171084166" lat="43.015080001205206">
        <ele>283.3999938964844</ele>
        <time>2003-04-18T16:08:18.000Z</time>
      </trkpt>
      <trkpt lon="-2.259769979864359" lat="43.015270018950105">
        <ele>282.0</ele>
        <time>2003-04-18T16:08:37.000Z</time>
      </trkpt>
      <trkpt lon="-2.2595099732279778" lat="43.01544000394642">
        <ele>280.6000061035156</ele>
        <time>2003-04-18T16:08:53.000Z</time>
      </trkpt>
      <trkpt lon="-2.259360020980239" lat="43.015530025586486">
        <ele>279.6000061035156</ele>
        <time>2003-04-18T16:09:04.000Z</time>
      </trkpt>
      <trkpt lon="-2.2590199671685696" lat="43.01573999226093">
        <ele>277.0</ele>
        <time>2003-04-18T16:09:27.000Z</time>
      </trkpt>
      <trkpt lon="-2.25869994610548" lat="43.015830013900995">
        <ele>272.79998779296875</ele>
        <time>2003-04-18T16:09:43.000Z</time>
      </trkpt>
      <trkpt lon="-2.258229972794652" lat="43.01586999557912">
        <ele>267.20001220703125</ele>
        <time>2003-04-18T16:10:05.000Z</time>
      </trkpt>
      <trkpt lon="-2.258059987798333" lat="43.01586999557912">
        <ele>266.20001220703125</ele>
        <time>2003-04-18T16:10:13.000Z</time>
      </trkpt>
      <trkpt lon="-2.257599988952279" lat="43.015960017219186">
        <ele>262.6000061035156</ele>
        <time>2003-04-18T16:10:35.000Z</time>
      </trkpt>
      <trkpt lon="-2.2572600189596415" lat="43.015999998897314">
        <ele>260.6000061035156</ele>
        <time>2003-04-18T16:10:52.000Z</time>
      </trkpt>
      <trkpt lon="-2.256879983469844" lat="43.01586999557912">
        <ele>260.3999938964844</ele>
        <time>2003-04-18T16:11:11.000Z</time>
      </trkpt>
      <trkpt lon="-2.256452087312937" lat="43.01569690927863">
        <ele>256.20001220703125</ele>
        <time>2003-04-18T16:11:31.000Z</time>
      </trkpt>
      <trkpt lon="-2.256295010447502" lat="43.01549783907831">
        <ele>251.8000030517578</ele>
        <time>2003-04-18T16:11:50.000Z</time>
      </trkpt>
      <trkpt lon="-2.256247904151678" lat="43.01533539779484">
        <ele>249.1999969482422</ele>
        <time>2003-04-18T16:12:13.000Z</time>
      </trkpt>
      <trkpt lon="-2.255547009408474" lat="43.01545693539083">
        <ele>239.1999969482422</ele>
        <time>2003-04-18T16:12:36.000Z</time>
      </trkpt>
      <trkpt lon="-2.2547581046819687" lat="43.01574896089733">
        <ele>231.0</ele>
        <time>2003-04-18T16:12:55.000Z</time>
      </trkpt>
      <trkpt lon="-2.254364239051938" lat="43.015854489058256">
        <ele>226.39999389648438</ele>
        <time>2003-04-18T16:13:14.000Z</time>
      </trkpt>
      <trkpt lon="-2.2540177311748266" lat="43.016095301136374">
        <ele>223.8000030517578</ele>
        <time>2003-04-18T16:13:28.000Z</time>
      </trkpt>
      <trkpt lon="-2.2536967042833567" lat="43.01626428030431">
        <ele>220.0</ele>
        <time>2003-04-18T16:13:48.000Z</time>
      </trkpt>
      <trkpt lon="-2.253397973254323" lat="43.0163149908185">
        <ele>215.0</ele>
        <time>2003-04-18T16:14:10.000Z</time>
      </trkpt>
      <trkpt lon="-2.2530829813331366" lat="43.01627836190164">
        <ele>211.60000610351562</ele>
        <time>2003-04-18T16:14:30.000Z</time>
      </trkpt>
      <trkpt lon="-2.2528129164129496" lat="43.01626696251333">
        <ele>209.39999389648438</ele>
        <time>2003-04-18T16:14:39.000Z</time>
      </trkpt>
      <trkpt lon="-2.2526179533451796" lat="43.016219018027186">
        <ele>207.8000030517578</ele>
        <time>2003-04-18T16:14:57.000Z</time>
      </trkpt>
      <trkpt lon="-2.252292986959219" lat="43.01612296141684">
        <ele>206.60000610351562</ele>
        <time>2003-04-18T16:15:10.000Z</time>
      </trkpt>
      <trkpt lon="-2.2520554438233376" lat="43.01601047627628">
        <ele>206.60000610351562</ele>
        <time>2003-04-18T16:15:29.000Z</time>
      </trkpt>
      <trkpt lon="-2.251748498529196" lat="43.01603545434773">
        <ele>206.1999969482422</ele>
        <time>2003-04-18T16:15:42.000Z</time>
      </trkpt>
      <trkpt lon="-2.251623021438718" lat="43.0162597540766">
        <ele>205.0</ele>
        <time>2003-04-18T16:15:53.000Z</time>
      </trkpt>
      <trkpt lon="-2.2515780106186867" lat="43.016601987183094">
        <ele>203.60000610351562</ele>
        <time>2003-04-18T16:15:54.000Z</time>
      </trkpt>
      <trkpt lon="-2.2515780106186867" lat="43.016841039061546">
        <ele>203.39999389648438</ele>
        <time>2003-04-18T16:15:58.000Z</time>
      </trkpt>
      <trkpt lon="-2.251577004790306" lat="43.017031978815794">
        <ele>203.60000610351562</ele>
        <time>2003-04-18T16:16:05.000Z</time>
      </trkpt>
      <trkpt lon="-2.251577004790306" lat="43.01712803542614">
        <ele>203.8000030517578</ele>
        <time>2003-04-18T16:16:13.000Z</time>
      </trkpt>
      <trkpt lon="-2.2514643520116806" lat="43.017195258289576">
        <ele>204.1999969482422</ele>
        <time>2003-04-18T16:18:35.000Z</time>
      </trkpt>
      <trkpt lon="-2.2513895016163588" lat="43.017302798107266">
        <ele>204.39999389648438</ele>
        <time>2003-04-18T16:19:14.000Z</time>
      </trkpt>
      <trkpt lon="-2.2512098774313927" lat="43.017700016498566">
        <ele>205.60000610351562</ele>
        <time>2003-04-18T16:19:39.000Z</time>
      </trkpt>
      <trkpt lon="-2.2509498707950115" lat="43.01806001923978">
        <ele>206.1999969482422</ele>
        <time>2003-04-18T16:20:05.000Z</time>
      </trkpt>
      <trkpt lon="-2.250739987939596" lat="43.018409963697195">
        <ele>205.39999389648438</ele>
        <time>2003-04-18T16:20:28.000Z</time>
      </trkpt>
      <trkpt lon="-2.2503699269145727" lat="43.01878999918699">
        <ele>203.60000610351562</ele>
        <time>2003-04-18T16:20:58.000Z</time>
      </trkpt>
      <trkpt lon="-2.250049989670515" lat="43.019180009141564">
        <ele>203.0</ele>
        <time>2003-04-18T16:21:26.000Z</time>
      </trkpt>
      <trkpt lon="-2.2498999536037445" lat="43.019459964707494">
        <ele>203.0</ele>
        <time>2003-04-18T16:21:46.000Z</time>
      </trkpt>
      <trkpt lon="-2.2498799208551645" lat="43.01967001520097">
        <ele>202.8000030517578</ele>
        <time>2003-04-18T16:22:08.000Z</time>
      </trkpt>
      <trkpt lon="-2.2498999536037445" lat="43.01968996413052">
        <ele>202.8000030517578</ele>
        <time>2003-04-18T16:22:10.000Z</time>
      </trkpt>
      <trkpt lon="-2.2499199863523245" lat="43.019760036841035">
        <ele>202.8000030517578</ele>
        <time>2003-04-18T16:22:16.000Z</time>
      </trkpt>
      <trkpt lon="-2.2499700263142586" lat="43.020039992406964">
        <ele>202.8000030517578</ele>
        <time>2003-04-18T16:22:38.000Z</time>
      </trkpt>
      <trkpt lon="-2.249819990247488" lat="43.020320031791925">
        <ele>202.0</ele>
        <time>2003-04-18T16:22:58.000Z</time>
      </trkpt>
      <trkpt lon="-2.2497500013560057" lat="43.02039999514818">
        <ele>201.60000610351562</ele>
        <time>2003-04-18T16:23:05.000Z</time>
      </trkpt>
      <trkpt lon="-2.2494098637253046" lat="43.02069998346269">
        <ele>200.0</ele>
        <time>2003-04-18T16:23:29.000Z</time>
      </trkpt>
      <trkpt lon="-2.2492599952965975" lat="43.02112997509539">
        <ele>200.8000030517578</ele>
        <time>2003-04-18T16:23:57.000Z</time>
      </trkpt>
      <trkpt lon="-2.2492800280451775" lat="43.021500036120415">
        <ele>202.8000030517578</ele>
        <time>2003-04-18T16:24:22.000Z</time>
      </trkpt>
      <trkpt lon="-2.249339958652854" lat="43.02186003886163">
        <ele>206.8000030517578</ele>
        <time>2003-04-18T16:24:46.000Z</time>
      </trkpt>
      <trkpt lon="-2.2492399625480175" lat="43.02216002717614">
        <ele>211.1999969482422</ele>
        <time>2003-04-18T16:25:08.000Z</time>
      </trkpt>
      <trkpt lon="-2.2492399625480175" lat="43.02233001217246">
        <ele>213.8000030517578</ele>
        <time>2003-04-18T16:25:32.000Z</time>
      </trkpt>
      <trkpt lon="-2.2492800280451775" lat="43.02246001549065">
        <ele>216.0</ele>
        <time>2003-04-18T16:26:18.000Z</time>
      </trkpt>
      <trkpt lon="-2.2492399625480175" lat="43.02265003323555">
        <ele>222.0</ele>
        <time>2003-04-18T16:26:31.000Z</time>
      </trkpt>
      <trkpt lon="-2.2492599952965975" lat="43.022680040448904">
        <ele>223.1999969482422</ele>
        <time>2003-04-18T16:26:34.000Z</time>
      </trkpt>
      <trkpt lon="-2.2492999769747257" lat="43.02276000380516">
        <ele>226.0</ele>
        <time>2003-04-18T16:26:42.000Z</time>
      </trkpt>
      <trkpt lon="-2.2492999769747257" lat="43.02278003655374">
        <ele>226.8000030517578</ele>
        <time>2003-04-18T16:26:44.000Z</time>
      </trkpt>
      <trkpt lon="-2.2492999769747257" lat="43.02282999269664">
        <ele>228.60000610351562</ele>
        <time>2003-04-18T16:26:48.000Z</time>
      </trkpt>
      <trkpt lon="-2.249339958652854" lat="43.02292998880148">
        <ele>232.0</ele>
        <time>2003-04-18T16:26:58.000Z</time>
      </trkpt>
      <trkpt lon="-2.2494899947196245" lat="43.0230999737978">
        <ele>237.0</ele>
        <time>2003-04-18T16:27:14.000Z</time>
      </trkpt>
      <trkpt lon="-2.2495200019329786" lat="43.02312998101115">
        <ele>237.8000030517578</ele>
        <time>2003-04-18T16:27:18.000Z</time>
      </trkpt>
      <trkpt lon="-2.2494899947196245" lat="43.02318999543786">
        <ele>240.0</ele>
        <time>2003-04-18T16:27:23.000Z</time>
      </trkpt>
      <trkpt lon="-2.249389998614788" lat="43.02321002818644">
        <ele>241.39999389648438</ele>
        <time>2003-04-18T16:27:31.000Z</time>
      </trkpt>
      <trkpt lon="-2.2492599952965975" lat="43.02315001375973">
        <ele>240.1999969482422</ele>
        <time>2003-04-18T16:27:47.000Z</time>
      </trkpt>
      <trkpt lon="-2.2489999048411846" lat="43.0230999737978">
        <ele>238.39999389648438</ele>
        <time>2003-04-18T16:28:05.000Z</time>
      </trkpt>
      <trkpt lon="-2.248760014772415" lat="43.02322997711599">
        <ele>242.39999389648438</ele>
        <time>2003-04-18T16:28:24.000Z</time>
      </trkpt>
      <trkpt lon="-2.248679967597127" lat="43.02334003150463">
        <ele>246.60000610351562</ele>
        <time>2003-04-18T16:28:37.000Z</time>
      </trkpt>
      <trkpt lon="-2.248489949852228" lat="43.02355997264385">
        <ele>257.6000061035156</ele>
        <time>2003-04-18T16:29:00.000Z</time>
      </trkpt>
      <trkpt lon="-2.2483599465340376" lat="43.02368000149727">
        <ele>263.79998779296875</ele>
        <time>2003-04-18T16:29:12.000Z</time>
      </trkpt>
      <trkpt lon="-2.2481799870729446" lat="43.02377002313733">
        <ele>268.6000061035156</ele>
        <time>2003-04-18T16:29:24.000Z</time>
      </trkpt>
      <trkpt lon="-2.2481599543243647" lat="43.02377002313733">
        <ele>268.6000061035156</ele>
        <time>2003-04-18T16:29:25.000Z</time>
      </trkpt>
      <trkpt lon="-2.248010002076626" lat="43.0237300414592">
        <ele>266.3999938964844</ele>
        <time>2003-04-18T16:29:34.000Z</time>
      </trkpt>
      <trkpt lon="-2.2479499876499176" lat="43.02368000149727">
        <ele>263.6000061035156</ele>
        <time>2003-04-18T16:29:39.000Z</time>
      </trkpt>
      <trkpt lon="-2.2478598821908236" lat="43.02364001981914">
        <ele>261.20001220703125</ele>
        <time>2003-04-18T16:29:45.000Z</time>
      </trkpt>
      <trkpt lon="-2.2476298827677965" lat="43.02361998707056">
        <ele>260.0</ele>
        <time>2003-04-18T16:30:00.000Z</time>
      </trkpt>
      <trkpt lon="-2.2474999632686377" lat="43.02368000149727">
        <ele>263.3999938964844</ele>
        <time>2003-04-18T16:30:11.000Z</time>
      </trkpt>
      <trkpt lon="-2.247329978272319" lat="43.02374999038875">
        <ele>267.3999938964844</ele>
        <time>2003-04-18T16:30:24.000Z</time>
      </trkpt>
      <trkpt lon="-2.2472399566322565" lat="43.02374999038875">
        <ele>267.3999938964844</ele>
        <time>2003-04-18T16:30:30.000Z</time>
      </trkpt>
      <trkpt lon="-2.2469998989254236" lat="43.02378997206688">
        <ele>270.0</ele>
        <time>2003-04-18T16:30:43.000Z</time>
      </trkpt>
      <trkpt lon="-2.246960001066327" lat="43.02383003756404">
        <ele>272.3999938964844</ele>
        <time>2003-04-18T16:30:48.000Z</time>
      </trkpt>
      <trkpt lon="-2.2468299977481365" lat="43.02403002977371">
        <ele>284.6000061035156</ele>
        <time>2003-04-18T16:31:08.000Z</time>
      </trkpt>
      <trkpt lon="-2.2468099649995565" lat="43.02413002587855">
        <ele>290.6000061035156</ele>
        <time>2003-04-18T16:31:28.000Z</time>
      </trkpt>
      <trkpt lon="-2.2467899322509766" lat="43.02413002587855">
        <ele>290.6000061035156</ele>
        <time>2003-04-18T16:31:29.000Z</time>
      </trkpt>
      <trkpt lon="-2.2467498667538166" lat="43.02421996369958">
        <ele>295.0</ele>
        <time>2003-04-18T16:31:39.000Z</time>
      </trkpt>
      <trkpt lon="-2.246679961681366" lat="43.02446002140641">
        <ele>304.3999938964844</ele>
        <time>2003-04-18T16:32:01.000Z</time>
      </trkpt>
      <trkpt lon="-2.2466199472546577" lat="43.02447997033596">
        <ele>304.6000061035156</ele>
        <time>2003-04-18T16:32:30.000Z</time>
      </trkpt>
      <trkpt lon="-2.2465999983251095" lat="43.02447997033596">
        <ele>304.3999938964844</ele>
        <time>2003-04-18T16:32:31.000Z</time>
      </trkpt>
      <trkpt lon="-2.246469995006919" lat="43.02453998476267">
        <ele>305.3999938964844</ele>
        <time>2003-04-18T16:32:40.000Z</time>
      </trkpt>
      <trkpt lon="-2.2464000061154366" lat="43.02453998476267">
        <ele>304.6000061035156</ele>
        <time>2003-04-18T16:32:44.000Z</time>
      </trkpt>
      <trkpt lon="-2.2462300211191177" lat="43.02452003583312">
        <ele>302.20001220703125</ele>
        <time>2003-04-18T16:32:56.000Z</time>
      </trkpt>
      <trkpt lon="-2.246100017800927" lat="43.02446002140641">
        <ele>299.6000061035156</ele>
        <time>2003-04-18T16:33:07.000Z</time>
      </trkpt>
      <trkpt lon="-2.245819978415966" lat="43.02443998865783">
        <ele>296.6000061035156</ele>
        <time>2003-04-18T16:33:25.000Z</time>
      </trkpt>
      <trkpt lon="-2.245670026168227" lat="43.02447997033596">
        <ele>294.6000061035156</ele>
        <time>2003-04-18T16:33:36.000Z</time>
      </trkpt>
      <trkpt lon="-2.245589978992939" lat="43.02456001751125">
        <ele>294.20001220703125</ele>
        <time>2003-04-18T16:33:45.000Z</time>
      </trkpt>
      <trkpt lon="-2.245779996737838" lat="43.0247800424695">
        <ele>301.79998779296875</ele>
        <time>2003-04-18T16:34:05.000Z</time>
      </trkpt>
      <trkpt lon="-2.2459299489855766" lat="43.02489001303911">
        <ele>306.79998779296875</ele>
        <time>2003-04-18T16:34:18.000Z</time>
      </trkpt>
      <trkpt lon="-2.246079985052347" lat="43.02512001246214">
        <ele>311.79998779296875</ele>
        <time>2003-04-18T16:34:37.000Z</time>
      </trkpt>
      <trkpt lon="-2.2461700066924095" lat="43.02525001578033">
        <ele>313.3999938964844</ele>
        <time>2003-04-18T16:34:57.000Z</time>
      </trkpt>
      <trkpt lon="-2.246249970048666" lat="43.02535998634994">
        <ele>315.20001220703125</ele>
        <time>2003-04-18T16:35:09.000Z</time>
      </trkpt>
      <trkpt lon="-2.2463799733668566" lat="43.02551002241671">
        <ele>318.6000061035156</ele>
        <time>2003-04-18T16:35:30.000Z</time>
      </trkpt>
      <trkpt lon="-2.246509976685047" lat="43.02577002905309">
        <ele>322.6000061035156</ele>
        <time>2003-04-18T16:35:52.000Z</time>
      </trkpt>
      <trkpt lon="-2.2466399800032377" lat="43.02610999904573">
        <ele>322.20001220703125</ele>
        <time>2003-04-18T16:36:21.000Z</time>
      </trkpt>
      <trkpt lon="-2.246849946677685" lat="43.02640998736024">
        <ele>321.6000061035156</ele>
        <time>2003-04-18T16:36:42.000Z</time>
      </trkpt>
      <trkpt lon="-2.246879953891039" lat="43.02644996903837">
        <ele>321.6000061035156</ele>
        <time>2003-04-18T16:36:46.000Z</time>
      </trkpt>
      <trkpt lon="-2.246939968317747" lat="43.02649003453553">
        <ele>322.0</ele>
        <time>2003-04-18T16:36:50.000Z</time>
      </trkpt>
      <trkpt lon="-2.247109953314066" lat="43.02673000842333">
        <ele>321.20001220703125</ele>
        <time>2003-04-18T16:37:07.000Z</time>
      </trkpt>
      <trkpt lon="-2.247329978272319" lat="43.02696998231113">
        <ele>323.20001220703125</ele>
        <time>2003-04-18T16:37:30.000Z</time>
      </trkpt>
      <trkpt lon="-2.2472999710589647" lat="43.0271200183779">
        <ele>321.6000061035156</ele>
        <time>2003-04-18T16:37:44.000Z</time>
      </trkpt>
      <trkpt lon="-2.2472399566322565" lat="43.02718003280461">
        <ele>320.79998779296875</ele>
        <time>2003-04-18T16:37:56.000Z</time>
      </trkpt>
      <trkpt lon="-2.2470499388873577" lat="43.02722001448274">
        <ele>319.0</ele>
        <time>2003-04-18T16:38:13.000Z</time>
      </trkpt>
      <trkpt lon="-2.246879953891039" lat="43.02718003280461">
        <ele>317.79998779296875</ele>
        <time>2003-04-18T16:38:35.000Z</time>
      </trkpt>
      <trkpt lon="-2.2465999983251095" lat="43.0273100361228">
        <ele>316.0</ele>
        <time>2003-04-18T16:38:52.000Z</time>
      </trkpt>
      <trkpt lon="-2.2464300133287907" lat="43.02745998837054">
        <ele>315.20001220703125</ele>
        <time>2003-04-18T16:39:05.000Z</time>
      </trkpt>
      <trkpt lon="-2.246059952303767" lat="43.02761002443731">
        <ele>315.0</ele>
        <time>2003-04-18T16:39:25.000Z</time>
      </trkpt>
      <trkpt lon="-2.245759963989258" lat="43.02771999500692">
        <ele>317.20001220703125</ele>
        <time>2003-04-18T16:39:43.000Z</time>
      </trkpt>
      <trkpt lon="-2.2457400150597095" lat="43.02771999500692">
        <ele>317.3999938964844</ele>
        <time>2003-04-18T16:39:44.000Z</time>
      </trkpt>
      <trkpt lon="-2.245610011741519" lat="43.02775997668505">
        <ele>318.79998779296875</ele>
        <time>2003-04-18T16:39:51.000Z</time>
      </trkpt>
      <trkpt lon="-2.245329972356558" lat="43.02780004218221">
        <ele>320.79998779296875</ele>
        <time>2003-04-18T16:40:09.000Z</time>
      </trkpt>
      <trkpt lon="-2.245329972356558" lat="43.02782996557653">
        <ele>321.6000061035156</ele>
        <time>2003-04-18T16:40:10.000Z</time>
      </trkpt>
      <trkpt lon="-2.2450899984687567" lat="43.02787003107369">
        <ele>323.3999938964844</ele>
        <time>2003-04-18T16:40:26.000Z</time>
      </trkpt>
      <trkpt lon="-2.244729995727539" lat="43.02788998000324">
        <ele>322.6000061035156</ele>
        <time>2003-04-18T16:40:46.000Z</time>
      </trkpt>
      <trkpt lon="-2.244260022416711" lat="43.027949994429946">
        <ele>321.3999938964844</ele>
        <time>2003-04-18T16:41:11.000Z</time>
      </trkpt>
      <trkpt lon="-2.244059946388006" lat="43.02800003439188">
        <ele>321.6000061035156</ele>
        <time>2003-04-18T16:41:27.000Z</time>
      </trkpt>
      <trkpt lon="-2.2439099103212357" lat="43.0279800016433">
        <ele>320.3999938964844</ele>
        <time>2003-04-18T16:41:40.000Z</time>
      </trkpt>
      <trkpt lon="-2.2437199763953686" lat="43.0279800016433">
        <ele>319.3999938964844</ele>
        <time>2003-04-18T16:41:50.000Z</time>
      </trkpt>
      <trkpt lon="-2.2436999436467886" lat="43.027949994429946">
        <ele>318.6000061035156</ele>
        <time>2003-04-18T16:41:52.000Z</time>
      </trkpt>
      <trkpt lon="-2.2435100097209215" lat="43.02800003439188">
        <ele>318.79998779296875</ele>
        <time>2003-04-18T16:42:03.000Z</time>
      </trkpt>
      <trkpt lon="-2.243399955332279" lat="43.02807999774814">
        <ele>320.0</ele>
        <time>2003-04-18T16:42:11.000Z</time>
      </trkpt>
      <trkpt lon="-2.2432899847626686" lat="43.02814998663962">
        <ele>321.0</ele>
        <time>2003-04-18T16:42:19.000Z</time>
      </trkpt>
      <trkpt lon="-2.2430099453777075" lat="43.028379986062646">
        <ele>324.20001220703125</ele>
        <time>2003-04-18T16:42:40.000Z</time>
      </trkpt>
      <trkpt lon="-2.242722027003765" lat="43.02861099131405">
        <ele>323.0</ele>
        <time>2003-04-18T16:43:03.000Z</time>
      </trkpt>
      <trkpt lon="-2.242499990388751" lat="43.028679974377155">
        <ele>322.20001220703125</ele>
        <time>2003-04-18T16:43:15.000Z</time>
      </trkpt>
      <trkpt lon="-2.2423899360001087" lat="43.028830010443926">
        <ele>322.0</ele>
        <time>2003-04-18T16:43:32.000Z</time>
      </trkpt>
      <trkpt lon="-2.2421599365770817" lat="43.0287900287658">
        <ele>322.79998779296875</ele>
        <time>2003-04-18T16:43:49.000Z</time>
      </trkpt>
      <trkpt lon="-2.241849973797798" lat="43.02870998159051">
        <ele>323.6000061035156</ele>
        <time>2003-04-18T16:44:07.000Z</time>
      </trkpt>
      <trkpt lon="-2.2414899710565805" lat="43.02863999269903">
        <ele>324.6000061035156</ele>
        <time>2003-04-18T16:44:28.000Z</time>
      </trkpt>
      <trkpt lon="-2.241169949993491" lat="43.02866002544761">
        <ele>325.79998779296875</ele>
        <time>2003-04-18T16:44:51.000Z</time>
      </trkpt>
      <trkpt lon="-2.2410599794238806" lat="43.02863999269903">
        <ele>326.20001220703125</ele>
        <time>2003-04-18T16:45:09.000Z</time>
      </trkpt>
      <trkpt lon="-2.240720009431243" lat="43.02857997827232">
        <ele>328.79998779296875</ele>
        <time>2003-04-18T16:45:31.000Z</time>
      </trkpt>
      <trkpt lon="-2.240329999476671" lat="43.028400018811226">
        <ele>335.3999938964844</ele>
        <time>2003-04-18T16:45:54.000Z</time>
      </trkpt>
      <trkpt lon="-2.24006999284029" lat="43.02823003381491">
        <ele>340.6000061035156</ele>
        <time>2003-04-18T16:46:19.000Z</time>
      </trkpt>
      <trkpt lon="-2.240030011162162" lat="43.02804001607001">
        <ele>341.3999938964844</ele>
        <time>2003-04-18T16:46:36.000Z</time>
      </trkpt>
      <trkpt lon="-2.240030011162162" lat="43.02801998332143">
        <ele>341.3999938964844</ele>
        <time>2003-04-18T16:46:37.000Z</time>
      </trkpt>
      <trkpt lon="-2.2399399895220995" lat="43.02778000943363">
        <ele>342.6000061035156</ele>
        <time>2003-04-18T16:46:55.000Z</time>
      </trkpt>
      <trkpt lon="-2.239819960668683" lat="43.0275500100106">
        <ele>343.6000061035156</ele>
        <time>2003-04-18T16:47:12.000Z</time>
      </trkpt>
      <trkpt lon="-2.239602953195572" lat="43.02726896479726">
        <ele>342.79998779296875</ele>
        <time>2003-04-18T16:47:35.000Z</time>
      </trkpt>
      <trkpt lon="-2.2394728660583496" lat="43.02707802504301">
        <ele>341.20001220703125</ele>
        <time>2003-04-18T16:47:55.000Z</time>
      </trkpt>
      <trkpt lon="-2.2393291164189577" lat="43.027110463008285">
        <ele>342.20001220703125</ele>
        <time>2003-04-18T16:48:11.000Z</time>
      </trkpt>
      <trkpt lon="-2.2391921561211348" lat="43.02727164700627">
        <ele>345.20001220703125</ele>
        <time>2003-04-18T16:48:26.000Z</time>
      </trkpt>
      <trkpt lon="-2.239117305725813" lat="43.02737021818757">
        <ele>346.79998779296875</ele>
        <time>2003-04-18T16:48:37.000Z</time>
      </trkpt>
      <trkpt lon="-2.2390820179134607" lat="43.02755596116185">
        <ele>349.0</ele>
        <time>2003-04-18T16:48:53.000Z</time>
      </trkpt>
      <trkpt lon="-2.2392340656369925" lat="43.02785720676184">
        <ele>350.3999938964844</ele>
        <time>2003-04-18T16:49:12.000Z</time>
      </trkpt>
      <trkpt lon="-2.239390891045332" lat="43.02807438187301">
        <ele>349.6000061035156</ele>
        <time>2003-04-18T16:49:54.000Z</time>
      </trkpt>
      <trkpt lon="-2.2395353112369776" lat="43.02830044180155">
        <ele>348.6000061035156</ele>
        <time>2003-04-18T16:50:17.000Z</time>
      </trkpt>
      <trkpt lon="-2.2397700045257807" lat="43.0286000110209">
        <ele>342.79998779296875</ele>
        <time>2003-04-18T16:50:38.000Z</time>
      </trkpt>
      <trkpt lon="-2.2397700045257807" lat="43.02889999933541">
        <ele>340.20001220703125</ele>
        <time>2003-04-18T16:51:04.000Z</time>
      </trkpt>
      <trkpt lon="-2.2394699323922396" lat="43.02909001708031">
        <ele>340.79998779296875</ele>
        <time>2003-04-18T16:51:23.000Z</time>
      </trkpt>
      <trkpt lon="-2.2392999473959208" lat="43.029239969328046">
        <ele>339.20001220703125</ele>
        <time>2003-04-18T16:51:40.000Z</time>
      </trkpt>
      <trkpt lon="-2.2389998752623796" lat="43.029280034825206">
        <ele>339.20001220703125</ele>
        <time>2003-04-18T16:51:54.000Z</time>
      </trkpt>
      <trkpt lon="-2.2385698836296797" lat="43.02931004203856">
        <ele>339.20001220703125</ele>
        <time>2003-04-18T16:52:15.000Z</time>
      </trkpt>
      <trkpt lon="-2.238269979134202" lat="43.02931004203856">
        <ele>339.0</ele>
        <time>2003-04-18T16:52:29.000Z</time>
      </trkpt>
      <trkpt lon="-2.2379900235682726" lat="43.029429987072945">
        <ele>335.3999938964844</ele>
        <time>2003-04-18T16:52:45.000Z</time>
      </trkpt>
      <trkpt lon="-2.2376899514347315" lat="43.02961003035307">
        <ele>332.6000061035156</ele>
        <time>2003-04-18T16:53:03.000Z</time>
      </trkpt>
      <trkpt lon="-2.237409995868802" lat="43.029819997027516">
        <ele>331.3999938964844</ele>
        <time>2003-04-18T16:53:22.000Z</time>
      </trkpt>
      <trkpt lon="-2.2370299603790045" lat="43.029840029776096">
        <ele>331.20001220703125</ele>
        <time>2003-04-18T16:53:41.000Z</time>
      </trkpt>
      <trkpt lon="-2.236729972064495" lat="43.029889985919">
        <ele>331.6000061035156</ele>
        <time>2003-04-18T16:53:58.000Z</time>
      </trkpt>
      <trkpt lon="-2.2366399504244328" lat="43.029889985919">
        <ele>331.6000061035156</ele>
        <time>2003-04-18T16:54:15.000Z</time>
      </trkpt>
      <trkpt lon="-2.2366399504244328" lat="43.029889985919">
        <ele>331.6000061035156</ele>
        <time>2003-04-18T16:54:40.000Z</time>
      </trkpt>
      <trkpt lon="-2.2365999687463045" lat="43.029859978705645">
        <ele>331.20001220703125</ele>
        <time>2003-04-18T16:55:19.000Z</time>
      </trkpt>
      <trkpt lon="-2.236099988222122" lat="43.029859978705645">
        <ele>330.79998779296875</ele>
        <time>2003-04-18T16:55:41.000Z</time>
      </trkpt>
      <trkpt lon="-2.2356498800218105" lat="43.029889985919">
        <ele>331.0</ele>
        <time>2003-04-18T16:56:01.000Z</time>
      </trkpt>
      <trkpt lon="-2.2352498956024647" lat="43.029840029776096">
        <ele>330.3999938964844</ele>
        <time>2003-04-18T16:56:22.000Z</time>
      </trkpt>
      <trkpt lon="-2.2347998712211847" lat="43.02974003367126">
        <ele>329.3999938964844</ele>
        <time>2003-04-18T16:56:46.000Z</time>
      </trkpt>
      <trkpt lon="-2.234729966148734" lat="43.02974003367126">
        <ele>329.3999938964844</ele>
        <time>2003-04-18T16:56:51.000Z</time>
      </trkpt>
      <trkpt lon="-2.2346400283277035" lat="43.02975998260081">
        <ele>330.0</ele>
        <time>2003-04-18T16:56:57.000Z</time>
      </trkpt>
      <trkpt lon="-2.234489992260933" lat="43.02991001866758">
        <ele>332.79998779296875</ele>
        <time>2003-04-18T16:57:11.000Z</time>
      </trkpt>
      <trkpt lon="-2.2343398723751307" lat="43.03010003641248">
        <ele>332.79998779296875</ele>
        <time>2003-04-18T16:57:28.000Z</time>
      </trkpt>
      <trkpt lon="-2.234320007264614" lat="43.030140018090606">
        <ele>332.0</ele>
        <time>2003-04-18T16:57:45.000Z</time>
      </trkpt>
      <trkpt lon="-2.234259992837906" lat="43.030270021408796">
        <ele>329.79998779296875</ele>
        <time>2003-04-18T16:57:53.000Z</time>
      </trkpt>
      <trkpt lon="-2.234069975093007" lat="43.03037999197841">
        <ele>328.3999938964844</ele>
        <time>2003-04-18T16:58:06.000Z</time>
      </trkpt>
      <trkpt lon="-2.2339199390262365" lat="43.03040002472699">
        <ele>329.0</ele>
        <time>2003-04-18T16:58:13.000Z</time>
      </trkpt>
      <trkpt lon="-2.2336798813194036" lat="43.030419973656535">
        <ele>330.3999938964844</ele>
        <time>2003-04-18T16:58:24.000Z</time>
      </trkpt>
      <trkpt lon="-2.233230024576187" lat="43.0305099952966">
        <ele>333.3999938964844</ele>
        <time>2003-04-18T16:58:45.000Z</time>
      </trkpt>
      <trkpt lon="-2.233189959079027" lat="43.03053002804518">
        <ele>333.79998779296875</ele>
        <time>2003-04-18T16:58:48.000Z</time>
      </trkpt>
      <trkpt lon="-2.233159951865673" lat="43.030570009723306">
        <ele>333.79998779296875</ele>
        <time>2003-04-18T16:58:52.000Z</time>
      </trkpt>
      <trkpt lon="-2.233140002936125" lat="43.03063999861479">
        <ele>333.3999938964844</ele>
        <time>2003-04-18T16:58:57.000Z</time>
      </trkpt>
      <trkpt lon="-2.2330799885094166" lat="43.030739994719625">
        <ele>333.3999938964844</ele>
        <time>2003-04-18T16:59:14.000Z</time>
      </trkpt>
      <trkpt lon="-2.2330599557608366" lat="43.03106999024749">
        <ele>333.6000061035156</ele>
        <time>2003-04-18T16:59:47.000Z</time>
      </trkpt>
      <trkpt lon="-2.232970017939806" lat="43.031299989670515">
        <ele>336.20001220703125</ele>
        <time>2003-04-18T17:00:08.000Z</time>
      </trkpt>
      <trkpt lon="-2.232889970764518" lat="43.031620010733604">
        <ele>339.0</ele>
        <time>2003-04-18T17:00:29.000Z</time>
      </trkpt>
      <trkpt lon="-2.232889970764518" lat="43.031729981303215">
        <ele>338.20001220703125</ele>
        <time>2003-04-18T17:00:41.000Z</time>
      </trkpt>
      <trkpt lon="-2.232759967446327" lat="43.032050002366304">
        <ele>335.6000061035156</ele>
        <time>2003-04-18T17:01:02.000Z</time>
      </trkpt>
      <trkpt lon="-2.232759967446327" lat="43.03210004232824">
        <ele>334.79998779296875</ele>
        <time>2003-04-18T17:01:06.000Z</time>
      </trkpt>
      <trkpt lon="-2.232540026307106" lat="43.03227002732456">
        <ele>335.79998779296875</ele>
        <time>2003-04-18T17:01:25.000Z</time>
      </trkpt>
      <trkpt lon="-2.232280019670725" lat="43.032330041751266">
        <ele>337.20001220703125</ele>
        <time>2003-04-18T17:01:41.000Z</time>
      </trkpt>
      <trkpt lon="-2.2321599069982767" lat="43.032330041751266">
        <ele>338.20001220703125</ele>
        <time>2003-04-18T17:01:47.000Z</time>
      </trkpt>
      <trkpt lon="-2.231599995866418" lat="43.032330041751266">
        <ele>342.6000061035156</ele>
        <time>2003-04-18T17:02:14.000Z</time>
      </trkpt>
      <trkpt lon="-2.2311300225555897" lat="43.032310009002686">
        <ele>345.0</ele>
        <time>2003-04-18T17:02:39.000Z</time>
      </trkpt>
      <trkpt lon="-2.230929946526885" lat="43.032310009002686">
        <ele>345.79998779296875</ele>
        <time>2003-04-18T17:02:50.000Z</time>
      </trkpt>
      <trkpt lon="-2.2306799981743097" lat="43.03254998289049">
        <ele>340.6000061035156</ele>
        <time>2003-04-18T17:03:09.000Z</time>
      </trkpt>
      <trkpt lon="-2.230570027604699" lat="43.032849971204996">
        <ele>337.20001220703125</ele>
        <time>2003-04-18T17:03:31.000Z</time>
      </trkpt>
      <trkpt lon="-2.2303499188274145" lat="43.033209973946214">
        <ele>335.20001220703125</ele>
        <time>2003-04-18T17:03:56.000Z</time>
      </trkpt>
      <trkpt lon="-2.2301799338310957" lat="43.03339999169111">
        <ele>336.6000061035156</ele>
        <time>2003-04-18T17:04:11.000Z</time>
      </trkpt>
      <trkpt lon="-2.2299899999052286" lat="43.033680031076074">
        <ele>338.79998779296875</ele>
        <time>2003-04-18T17:04:30.000Z</time>
      </trkpt>
      <trkpt lon="-2.2299699671566486" lat="43.03385001607239">
        <ele>338.20001220703125</ele>
        <time>2003-04-18T17:04:47.000Z</time>
      </trkpt>
      <trkpt lon="-2.2299699671566486" lat="43.033959986642">
        <ele>337.6000061035156</ele>
        <time>2003-04-18T17:04:54.000Z</time>
      </trkpt>
      <trkpt lon="-2.2299499344080687" lat="43.034159978851676">
        <ele>336.6000061035156</ele>
        <time>2003-04-18T17:05:12.000Z</time>
      </trkpt>
      <trkpt lon="-2.2297499421983957" lat="43.034370029345155">
        <ele>337.3999938964844</ele>
        <time>2003-04-18T17:05:30.000Z</time>
      </trkpt>
      <trkpt lon="-2.2295199427753687" lat="43.03455996327102">
        <ele>335.79998779296875</ele>
        <time>2003-04-18T17:05:48.000Z</time>
      </trkpt>
      <trkpt lon="-2.2293199505656958" lat="43.03484000265598">
        <ele>333.3999938964844</ele>
        <time>2003-04-18T17:06:08.000Z</time>
      </trkpt>
      <trkpt lon="-2.2292599361389875" lat="43.035100009292364">
        <ele>332.0</ele>
        <time>2003-04-18T17:06:25.000Z</time>
      </trkpt>
      <trkpt lon="-2.2295399755239487" lat="43.03542003035545">
        <ele>338.3999938964844</ele>
        <time>2003-04-18T17:06:49.000Z</time>
      </trkpt>
      <trkpt lon="-2.2296698950231075" lat="43.03572001866996">
        <ele>341.6000061035156</ele>
        <time>2003-04-18T17:07:11.000Z</time>
      </trkpt>
      <trkpt lon="-2.2295399755239487" lat="43.03604003973305">
        <ele>336.79998779296875</ele>
        <time>2003-04-18T17:07:33.000Z</time>
      </trkpt>
      <trkpt lon="-2.229409972205758" lat="43.0362999625504">
        <ele>333.0</ele>
        <time>2003-04-18T17:07:50.000Z</time>
      </trkpt>
      <trkpt lon="-2.22936999052763" lat="43.036370035260916">
        <ele>332.0</ele>
        <time>2003-04-18T17:07:54.000Z</time>
      </trkpt>
      <trkpt lon="-2.2292399033904076" lat="43.03660003468394">
        <ele>329.20001220703125</ele>
        <time>2003-04-18T17:08:08.000Z</time>
      </trkpt>
      <trkpt lon="-2.2290700022131205" lat="43.036840008571744">
        <ele>325.0</ele>
        <time>2003-04-18T17:08:25.000Z</time>
      </trkpt>
      <trkpt lon="-2.2290198784321547" lat="43.03690002299845">
        <ele>323.79998779296875</ele>
        <time>2003-04-18T17:08:41.000Z</time>
      </trkpt>
      <trkpt lon="-2.229000013321638" lat="43.03694000467658">
        <ele>323.20001220703125</ele>
        <time>2003-04-18T17:09:06.000Z</time>
      </trkpt>
      <trkpt lon="-2.2288299445062876" lat="43.036990044638515">
        <ele>321.0</ele>
        <time>2003-04-18T17:09:19.000Z</time>
      </trkpt>
      <trkpt lon="-2.228770013898611" lat="43.03700999356806">
        <ele>320.20001220703125</ele>
        <time>2003-04-18T17:09:36.000Z</time>
      </trkpt>
      <trkpt lon="-2.22851000726223" lat="43.03704997524619">
        <ele>317.3999938964844</ele>
        <time>2003-04-18T17:09:51.000Z</time>
      </trkpt>
      <trkpt lon="-2.228340022265911" lat="43.03707000799477">
        <ele>315.6000061035156</ele>
        <time>2003-04-18T17:09:59.000Z</time>
      </trkpt>
      <trkpt lon="-2.2279298957437277" lat="43.03716002963483">
        <ele>311.20001220703125</ele>
        <time>2003-04-18T17:10:18.000Z</time>
      </trkpt>
      <trkpt lon="-2.227839957922697" lat="43.03720001131296">
        <ele>310.6000061035156</ele>
        <time>2003-04-18T17:10:23.000Z</time>
      </trkpt>
      <trkpt lon="-2.22765002399683" lat="43.037290032953024">
        <ele>309.6000061035156</ele>
        <time>2003-04-18T17:10:33.000Z</time>
      </trkpt>
      <trkpt lon="-2.2273300029337406" lat="43.037420036271214">
        <ele>309.6000061035156</ele>
        <time>2003-04-18T17:10:50.000Z</time>
      </trkpt>
      <trkpt lon="-2.2268799785524607" lat="43.03759002126753">
        <ele>311.20001220703125</ele>
        <time>2003-04-18T17:11:13.000Z</time>
      </trkpt>
      <trkpt lon="-2.226529950276017" lat="43.03779998794198">
        <ele>314.6000061035156</ele>
        <time>2003-04-18T17:11:34.000Z</time>
      </trkpt>
      <trkpt lon="-2.2264700196683407" lat="43.03802001290023">
        <ele>318.20001220703125</ele>
        <time>2003-04-18T17:11:51.000Z</time>
      </trkpt>
      <trkpt lon="-2.226709993556142" lat="43.03834003396332">
        <ele>321.20001220703125</ele>
        <time>2003-04-18T17:12:14.000Z</time>
      </trkpt>
      <trkpt lon="-2.2269000113010406" lat="43.038580007851124">
        <ele>318.3999938964844</ele>
        <time>2003-04-18T17:12:32.000Z</time>
      </trkpt>
      <trkpt lon="-2.2270899452269077" lat="43.03884998895228">
        <ele>315.20001220703125</ele>
        <time>2003-04-18T17:12:52.000Z</time>
      </trkpt>
      <trkpt lon="-2.2271300107240677" lat="43.039160035550594">
        <ele>315.0</ele>
        <time>2003-04-18T17:13:12.000Z</time>
      </trkpt>
      <trkpt lon="-2.2271300107240677" lat="43.03943001665175">
        <ele>314.20001220703125</ele>
        <time>2003-04-18T17:13:29.000Z</time>
      </trkpt>
      <trkpt lon="-2.22719999961555" lat="43.03977996110916">
        <ele>312.3999938964844</ele>
        <time>2003-04-18T17:13:50.000Z</time>
      </trkpt>
      <trkpt lon="-2.2273300029337406" lat="43.04001004435122">
        <ele>310.79998779296875</ele>
        <time>2003-04-18T17:14:06.000Z</time>
      </trkpt>
      <trkpt lon="-2.227409966289997" lat="43.04031003266573">
        <ele>312.79998779296875</ele>
        <time>2003-04-18T17:14:26.000Z</time>
      </trkpt>
      <trkpt lon="-2.227409966289997" lat="43.04035998880863">
        <ele>313.20001220703125</ele>
        <time>2003-04-18T17:14:29.000Z</time>
      </trkpt>
      <trkpt lon="-2.227390017360449" lat="43.04052997380495">
        <ele>314.79998779296875</ele>
        <time>2003-04-18T17:14:40.000Z</time>
      </trkpt>
      <trkpt lon="-2.2273300029337406" lat="43.04082996211946">
        <ele>317.3999938964844</ele>
        <time>2003-04-18T17:15:01.000Z</time>
      </trkpt>
      <trkpt lon="-2.2272799629718065" lat="43.04091000929475">
        <ele>317.20001220703125</ele>
        <time>2003-04-18T17:15:08.000Z</time>
      </trkpt>
      <trkpt lon="-2.2270899452269077" lat="43.04105996154249">
        <ele>316.6000061035156</ele>
        <time>2003-04-18T17:15:25.000Z</time>
      </trkpt>
      <trkpt lon="-2.226939992979169" lat="43.04117001593113">
        <ele>316.20001220703125</ele>
        <time>2003-04-18T17:15:45.000Z</time>
      </trkpt>
      <trkpt lon="-2.226919960230589" lat="43.04117001593113">
        <ele>316.0</ele>
        <time>2003-04-18T17:16:24.000Z</time>
      </trkpt>
      <trkpt lon="-2.2268099058419466" lat="43.04144997149706">
        <ele>316.0</ele>
        <time>2003-04-18T17:16:42.000Z</time>
      </trkpt>
      <trkpt lon="-2.2264700196683407" lat="43.04157997481525">
        <ele>314.3999938964844</ele>
        <time>2003-04-18T17:17:00.000Z</time>
      </trkpt>
      <trkpt lon="-2.2261499147862196" lat="43.04163998924196">
        <ele>312.20001220703125</ele>
        <time>2003-04-18T17:17:16.000Z</time>
      </trkpt>
      <trkpt lon="-2.2261298820376396" lat="43.04163998924196">
        <ele>312.0</ele>
        <time>2003-04-18T17:17:17.000Z</time>
      </trkpt>
      <trkpt lon="-2.2259800136089325" lat="43.04173001088202">
        <ele>311.0</ele>
        <time>2003-04-18T17:17:27.000Z</time>
      </trkpt>
      <trkpt lon="-2.2257800213992596" lat="43.04200996644795">
        <ele>310.3999938964844</ele>
        <time>2003-04-18T17:17:45.000Z</time>
      </trkpt>
      <trkpt lon="-2.22546000033617" lat="43.04229000583291">
        <ele>313.79998779296875</ele>
        <time>2003-04-18T17:18:09.000Z</time>
      </trkpt>
      <trkpt lon="-2.225349945947528" lat="43.04231003858149">
        <ele>315.0</ele>
        <time>2003-04-18T17:18:23.000Z</time>
      </trkpt>
      <trkpt lon="-2.2252698987722397" lat="43.04235002025962">
        <ele>316.3999938964844</ele>
        <time>2003-04-18T17:18:30.000Z</time>
      </trkpt>
      <trkpt lon="-2.225220026448369" lat="43.04235002025962">
        <ele>317.0</ele>
        <time>2003-04-18T17:18:45.000Z</time>
      </trkpt>
      <trkpt lon="-2.2252999898046255" lat="43.04236996918917">
        <ele>316.6000061035156</ele>
        <time>2012-06-05T16:08:13.000Z</time>
      </trkpt>
      <trkpt lon="-2.2253099642693996" lat="43.04238002747297">
        <ele>316.6000061035156</ele>
        <time>2012-06-05T16:08:21.000Z</time>
      </trkpt>
      <trkpt lon="-2.2253299970179796" lat="43.04239000193775">
        <ele>316.6000061035156</ele>
        <time>2012-06-05T16:08:47.000Z</time>
      </trkpt>
      <trkpt lon="-2.225369978696108" lat="43.0424200091511">
        <ele>316.6000061035156</ele>
        <time>2012-06-05T16:08:51.000Z</time>
      </trkpt>
      <trkpt lon="-2.2254698909819126" lat="43.04248002357781">
        <ele>316.0</ele>
        <time>2012-06-05T16:08:57.000Z</time>
      </trkpt>
      <trkpt lon="-2.225629985332489" lat="43.042599968612194">
        <ele>315.6000061035156</ele>
        <time>2012-06-05T16:09:08.000Z</time>
      </trkpt>
      <trkpt lon="-2.2257800213992596" lat="43.042750004678965">
        <ele>316.0</ele>
        <time>2012-06-05T16:09:20.000Z</time>
      </trkpt>
      <trkpt lon="-2.2258998826146126" lat="43.04294002242386">
        <ele>317.20001220703125</ele>
        <time>2012-06-05T16:09:34.000Z</time>
      </trkpt>
      <trkpt lon="-2.2259800136089325" lat="43.04317002184689">
        <ele>319.20001220703125</ele>
        <time>2012-06-05T16:09:50.000Z</time>
      </trkpt>
      <trkpt lon="-2.226069951429963" lat="43.04334000684321">
        <ele>319.6000061035156</ele>
        <time>2012-06-05T16:10:04.000Z</time>
      </trkpt>
      <trkpt lon="-2.2261899802833796" lat="43.04350999183953">
        <ele>317.3999938964844</ele>
        <time>2012-06-05T16:10:17.000Z</time>
      </trkpt>
      <trkpt lon="-2.2262400202453136" lat="43.043609987944365">
        <ele>316.20001220703125</ele>
        <time>2012-06-05T16:10:24.000Z</time>
      </trkpt>
      <trkpt lon="-2.2262400202453136" lat="43.04383001290262">
        <ele>316.79998779296875</ele>
        <time>2012-06-05T16:10:39.000Z</time>
      </trkpt>
      <trkpt lon="-2.2261899802833796" lat="43.044020030647516">
        <ele>318.79998779296875</ele>
        <time>2012-06-05T16:10:51.000Z</time>
      </trkpt>
      <trkpt lon="-2.2261598892509937" lat="43.04407996125519">
        <ele>320.0</ele>
        <time>2012-06-05T16:10:55.000Z</time>
      </trkpt>
      <trkpt lon="-2.2259999625384808" lat="43.04423997178674">
        <ele>325.3999938964844</ele>
        <time>2012-06-05T16:11:07.000Z</time>
      </trkpt>
      <trkpt lon="-2.225839952006936" lat="43.04439000785351">
        <ele>329.6000061035156</ele>
        <time>2012-06-05T16:11:19.000Z</time>
      </trkpt>
      <trkpt lon="-2.2257899958640337" lat="43.044469971209764">
        <ele>330.0</ele>
        <time>2012-06-05T16:11:24.000Z</time>
      </trkpt>
      <trkpt lon="-2.2257899958640337" lat="43.044599974527955">
        <ele>328.79998779296875</ele>
        <time>2012-06-05T16:11:33.000Z</time>
      </trkpt>
      <trkpt lon="-2.22591002471745" lat="43.044789992272854">
        <ele>323.3999938964844</ele>
        <time>2012-06-05T16:11:46.000Z</time>
      </trkpt>
      <trkpt lon="-2.2259298898279667" lat="43.04479996673763">
        <ele>322.6000061035156</ele>
        <time>2012-06-05T16:11:47.000Z</time>
      </trkpt>
      <trkpt lon="-2.226059976965189" lat="43.04492997005582">
        <ele>316.79998779296875</ele>
        <time>2012-06-05T16:11:57.000Z</time>
      </trkpt>
      <trkpt lon="-2.2261799219995737" lat="43.04501999169588">
        <ele>312.20001220703125</ele>
        <time>2012-06-05T16:12:05.000Z</time>
      </trkpt>
      <trkpt lon="-2.22629995085299" lat="43.04505997337401">
        <ele>308.6000061035156</ele>
        <time>2012-06-05T16:12:11.000Z</time>
      </trkpt>
      <trkpt lon="-2.226510001346469" lat="43.04511998780072">
        <ele>302.79998779296875</ele>
        <time>2012-06-05T16:12:21.000Z</time>
      </trkpt>
      <trkpt lon="-2.2266700118780136" lat="43.045180002227426">
        <ele>299.20001220703125</ele>
        <time>2012-06-05T16:12:29.000Z</time>
      </trkpt>
      <trkpt lon="-2.2268399130553007" lat="43.04517002776265">
        <ele>296.3999938964844</ele>
        <time>2012-06-05T16:12:39.000Z</time>
      </trkpt>
      <trkpt lon="-2.2270198725163937" lat="43.04511998780072">
        <ele>292.3999938964844</ele>
        <time>2012-06-05T16:12:50.000Z</time>
      </trkpt>
      <trkpt lon="-2.2272398974746466" lat="43.04508000612259">
        <ele>288.0</ele>
        <time>2012-06-05T16:13:01.000Z</time>
      </trkpt>
      <trkpt lon="-2.227569976821542" lat="43.04500004276633">
        <ele>281.20001220703125</ele>
        <time>2012-06-05T16:13:15.000Z</time>
      </trkpt>
      <trkpt lon="-2.227809950709343" lat="43.04495997726917">
        <ele>277.6000061035156</ele>
        <time>2012-06-05T16:13:25.000Z</time>
      </trkpt>
      <trkpt lon="-2.2279899939894676" lat="43.044940028339624">
        <ele>275.0</ele>
        <time>2012-06-05T16:13:34.000Z</time>
      </trkpt>
      <trkpt lon="-2.228110022842884" lat="43.044919995591044">
        <ele>273.20001220703125</ele>
        <time>2012-06-05T16:13:40.000Z</time>
      </trkpt>
      <trkpt lon="-2.2281298879534006" lat="43.044919995591044">
        <ele>272.79998779296875</ele>
        <time>2012-06-05T16:13:41.000Z</time>
      </trkpt>
      <trkpt lon="-2.228289982303977" lat="43.044919995591044">
        <ele>271.0</ele>
        <time>2012-06-05T16:13:48.000Z</time>
      </trkpt>
      <trkpt lon="-2.2284299600869417" lat="43.04492997005582">
        <ele>269.20001220703125</ele>
        <time>2012-06-05T16:13:54.000Z</time>
      </trkpt>
      <trkpt lon="-2.2285999450832605" lat="43.044940028339624">
        <ele>266.79998779296875</ele>
        <time>2012-06-05T16:14:02.000Z</time>
      </trkpt>
      <trkpt lon="-2.2286299522966146" lat="43.0449500028044">
        <ele>266.6000061035156</ele>
        <time>2012-06-05T16:14:03.000Z</time>
      </trkpt>
      <trkpt lon="-2.2287000250071287" lat="43.04497003555298">
        <ele>265.79998779296875</ele>
        <time>2012-06-05T16:14:07.000Z</time>
      </trkpt>
      <trkpt lon="-2.2288299445062876" lat="43.04501999169588">
        <ele>264.79998779296875</ele>
        <time>2012-06-05T16:14:14.000Z</time>
      </trkpt>
      <trkpt lon="-2.228889958932996" lat="43.045049998909235">
        <ele>264.79998779296875</ele>
        <time>2012-06-05T16:14:17.000Z</time>
      </trkpt>
      <trkpt lon="-2.22893999889493" lat="43.04508000612259">
        <ele>265.0</ele>
        <time>2012-06-05T16:14:20.000Z</time>
      </trkpt>
      <trkpt lon="-2.229189947247505" lat="43.04510003887117">
        <ele>261.79998779296875</ele>
        <time>2012-06-05T16:14:31.000Z</time>
      </trkpt>
      <trkpt lon="-2.229209979996085" lat="43.04510003887117">
        <ele>261.6000061035156</ele>
        <time>2012-06-05T16:14:32.000Z</time>
      </trkpt>
      <trkpt lon="-2.2294699028134346" lat="43.045159969478846">
        <ele>259.3999938964844</ele>
        <time>2012-06-05T16:14:44.000Z</time>
      </trkpt>
      <trkpt lon="-2.2297199349850416" lat="43.045240016654134">
        <ele>257.79998779296875</ele>
        <time>2012-06-05T16:14:57.000Z</time>
      </trkpt>
      <trkpt lon="-2.229890003800392" lat="43.04530003108084">
        <ele>256.6000061035156</ele>
        <time>2012-06-05T16:15:06.000Z</time>
      </trkpt>
      <trkpt lon="-2.2301899921149015" lat="43.04538996890187">
        <ele>252.1999969482422</ele>
        <time>2012-06-05T16:15:21.000Z</time>
      </trkpt>
      <trkpt lon="-2.2303298860788345" lat="43.04541997611523">
        <ele>249.39999389648438</ele>
        <time>2012-06-05T16:15:28.000Z</time>
      </trkpt>
      <trkpt lon="-2.2303699515759945" lat="43.04543003439903">
        <ele>248.60000610351562</ele>
        <time>2012-06-05T16:15:30.000Z</time>
      </trkpt>
      <trkpt lon="-2.230519987642765" lat="43.04544998332858">
        <ele>245.1999969482422</ele>
        <time>2012-06-05T16:15:38.000Z</time>
      </trkpt>
      <trkpt lon="-2.2305999509990215" lat="43.04547001607716">
        <ele>243.60000610351562</ele>
        <time>2012-06-05T16:15:42.000Z</time>
      </trkpt>
      <trkpt lon="-2.230699947103858" lat="43.04548996500671">
        <ele>241.39999389648438</ele>
        <time>2012-06-05T16:15:47.000Z</time>
      </trkpt>
      <trkpt lon="-2.230759961530566" lat="43.04548996500671">
        <ele>240.0</ele>
        <time>2012-06-05T16:15:50.000Z</time>
      </trkpt>
      <trkpt lon="-2.230949979275465" lat="43.04554000496864">
        <ele>235.8000030517578</ele>
        <time>2012-06-05T16:16:00.000Z</time>
      </trkpt>
      <trkpt lon="-2.230959953740239" lat="43.04554000496864">
        <ele>235.39999389648438</ele>
        <time>2012-06-05T16:16:01.000Z</time>
      </trkpt>
      <trkpt lon="-2.2310198843479156" lat="43.045570012182">
        <ele>234.1999969482422</ele>
        <time>2012-06-05T16:16:05.000Z</time>
      </trkpt>
      <trkpt lon="-2.231179978698492" lat="43.0456199683249">
        <ele>229.8000030517578</ele>
        <time>2012-06-05T16:16:15.000Z</time>
      </trkpt>
      <trkpt lon="-2.231369996443391" lat="43.045719964429736">
        <ele>224.0</ele>
        <time>2012-06-05T16:16:25.000Z</time>
      </trkpt>
      <trkpt lon="-2.2315399814397097" lat="43.04583999328315">
        <ele>217.60000610351562</ele>
        <time>2012-06-05T16:16:36.000Z</time>
      </trkpt>
      <trkpt lon="-2.231639977544546" lat="43.045930014923215">
        <ele>215.39999389648438</ele>
        <time>2012-06-05T16:16:44.000Z</time>
      </trkpt>
      <trkpt lon="-2.2317299991846085" lat="43.046060018241405">
        <ele>215.1999969482422</ele>
        <time>2012-06-05T16:16:53.000Z</time>
      </trkpt>
      <trkpt lon="-2.2317699808627367" lat="43.046190021559596">
        <ele>216.0</ele>
        <time>2012-06-05T16:17:01.000Z</time>
      </trkpt>
      <trkpt lon="-2.231809962540865" lat="43.04628004319966">
        <ele>216.0</ele>
        <time>2012-06-05T16:17:08.000Z</time>
      </trkpt>
      <trkpt lon="-2.231839969754219" lat="43.04639001376927">
        <ele>216.1999969482422</ele>
        <time>2012-06-05T16:17:15.000Z</time>
      </trkpt>
      <trkpt lon="-2.231860002502799" lat="43.04653996601701">
        <ele>217.0</ele>
        <time>2012-06-05T16:17:24.000Z</time>
      </trkpt>
      <trkpt lon="-2.231809962540865" lat="43.04665002040565">
        <ele>219.60000610351562</ele>
        <time>2012-06-05T16:17:32.000Z</time>
      </trkpt>
      <trkpt lon="-2.2317499481141567" lat="43.04679997265339">
        <ele>218.60000610351562</ele>
        <time>2012-06-05T16:17:42.000Z</time>
      </trkpt>
      <trkpt lon="-2.2316798754036427" lat="43.04692997597158">
        <ele>217.60000610351562</ele>
        <time>2012-06-05T16:17:52.000Z</time>
      </trkpt>
      <trkpt lon="-2.2315699886530638" lat="43.04708001203835">
        <ele>216.8000030517578</ele>
        <time>2012-06-05T16:18:03.000Z</time>
      </trkpt>
      <trkpt lon="-2.2314699087291956" lat="43.04720004089177">
        <ele>216.39999389648438</ele>
        <time>2012-06-05T16:18:12.000Z</time>
      </trkpt>
      <trkpt lon="-2.2314498759806156" lat="43.047219989821315">
        <ele>216.39999389648438</ele>
        <time>2012-06-05T16:18:14.000Z</time>
      </trkpt>
      <trkpt lon="-2.231369996443391" lat="43.04734001867473">
        <ele>215.1999969482422</ele>
        <time>2012-06-05T16:18:22.000Z</time>
      </trkpt>
      <trkpt lon="-2.2312899492681026" lat="43.047459963709116">
        <ele>213.60000610351562</ele>
        <time>2012-06-05T16:18:31.000Z</time>
      </trkpt>
      <trkpt lon="-2.231200011447072" lat="43.047540010884404">
        <ele>213.60000610351562</ele>
        <time>2012-06-05T16:18:38.000Z</time>
      </trkpt>
      <trkpt lon="-2.2310198843479156" lat="43.04761997424066">
        <ele>215.8000030517578</ele>
        <time>2012-06-05T16:18:47.000Z</time>
      </trkpt>
      <trkpt lon="-2.230979986488819" lat="43.04763003252447">
        <ele>216.39999389648438</ele>
        <time>2012-06-05T16:18:49.000Z</time>
      </trkpt>
      <trkpt lon="-2.2308599576354027" lat="43.04767998866737">
        <ele>217.8000030517578</ele>
        <time>2012-06-05T16:18:55.000Z</time>
      </trkpt>
      <trkpt lon="-2.2306700237095356" lat="43.04777001030743">
        <ele>217.8000030517578</ele>
        <time>2012-06-05T16:19:05.000Z</time>
      </trkpt>
      <trkpt lon="-2.230549994856119" lat="43.04787000641227">
        <ele>216.1999969482422</ele>
        <time>2012-06-05T16:19:14.000Z</time>
      </trkpt>
      <trkpt lon="-2.230480005964637" lat="43.047990035265684">
        <ele>213.39999389648438</ele>
        <time>2012-06-05T16:19:22.000Z</time>
      </trkpt>
      <trkpt lon="-2.2304299660027027" lat="43.04817996919155">
        <ele>208.1999969482422</ele>
        <time>2012-06-05T16:19:33.000Z</time>
      </trkpt>
      <trkpt lon="-2.2303598932921886" lat="43.04830997250974">
        <ele>205.0</ele>
        <time>2012-06-05T16:19:42.000Z</time>
      </trkpt>
      <trkpt lon="-2.2302100248634815" lat="43.048399994149804">
        <ele>204.8000030517578</ele>
        <time>2012-06-05T16:19:51.000Z</time>
      </trkpt>
      <trkpt lon="-2.230050014331937" lat="43.04846998304129">
        <ele>205.39999389648438</ele>
        <time>2012-06-05T16:19:59.000Z</time>
      </trkpt>
      <trkpt lon="-2.2299699671566486" lat="43.04846000857651">
        <ele>206.1999969482422</ele>
        <time>2012-06-05T16:20:03.000Z</time>
      </trkpt>
      <trkpt lon="-2.229890003800392" lat="43.048420026898384">
        <ele>206.8000030517578</ele>
        <time>2012-06-05T16:20:07.000Z</time>
      </trkpt>
      <trkpt lon="-2.229639971628785" lat="43.04836998693645">
        <ele>207.39999389648438</ele>
        <time>2012-06-05T16:20:20.000Z</time>
      </trkpt>
      <trkpt lon="-2.229399997740984" lat="43.048379961401224">
        <ele>206.60000610351562</ele>
        <time>2012-06-05T16:20:31.000Z</time>
      </trkpt>
      <trkpt lon="-2.229189947247505" lat="43.048360012471676">
        <ele>206.60000610351562</ele>
        <time>2012-06-05T16:20:40.000Z</time>
      </trkpt>
      <trkpt lon="-2.228949973359704" lat="43.048339979723096">
        <ele>206.39999389648438</ele>
        <time>2012-06-05T16:20:51.000Z</time>
      </trkpt>
      <trkpt lon="-2.228709999471903" lat="43.04832003079355">
        <ele>206.1999969482422</ele>
        <time>2012-06-05T16:21:02.000Z</time>
      </trkpt>
      <trkpt lon="-2.228519981727004" lat="43.04819002747536">
        <ele>209.39999389648438</ele>
        <time>2012-06-05T16:21:14.000Z</time>
      </trkpt>
      <trkpt lon="-2.22848997451365" lat="43.04816999472678">
        <ele>210.0</ele>
        <time>2012-06-05T16:21:16.000Z</time>
      </trkpt>
      <trkpt lon="-2.2284100111573935" lat="43.04820000194013">
        <ele>208.8000030517578</ele>
        <time>2012-06-05T16:21:21.000Z</time>
      </trkpt>
      <trkpt lon="-2.2283499129116535" lat="43.04830997250974">
        <ele>205.60000610351562</ele>
        <time>2012-06-05T16:21:28.000Z</time>
      </trkpt>
      <trkpt lon="-2.2283298801630735" lat="43.048360012471676">
        <ele>204.60000610351562</ele>
        <time>2012-06-05T16:21:31.000Z</time>
      </trkpt>
      <trkpt lon="-2.228319989517331" lat="43.04839001968503">
        <ele>204.0</ele>
        <time>2012-06-05T16:21:34.000Z</time>
      </trkpt>
      <trkpt lon="-2.2282530181109905" lat="43.04879302158952">
        <ele>196.60000610351562</ele>
        <time>2012-06-05T16:22:00.000Z</time>
      </trkpt>
      <trkpt lon="-2.228110022842884" lat="43.04899997077882">
        <ele>193.39999389648438</ele>
        <time>2012-06-05T16:22:12.000Z</time>
      </trkpt>
      <trkpt lon="-2.2279800195246935" lat="43.04915998131037">
        <ele>191.1999969482422</ele>
        <time>2012-06-05T16:22:23.000Z</time>
      </trkpt>
      <trkpt lon="-2.2279499284923077" lat="43.049389980733395">
        <ele>188.39999389648438</ele>
        <time>2012-06-05T16:22:37.000Z</time>
      </trkpt>
      <trkpt lon="-2.2279499284923077" lat="43.04961998015642">
        <ele>185.39999389648438</ele>
        <time>2012-06-05T16:22:52.000Z</time>
      </trkpt>
      <trkpt lon="-2.2279699612408876" lat="43.049640012905">
        <ele>185.0</ele>
        <time>2012-06-05T16:22:54.000Z</time>
      </trkpt>
      <trkpt lon="-2.22805998288095" lat="43.04974000900984">
        <ele>183.60000610351562</ele>
        <time>2012-06-05T16:23:01.000Z</time>
      </trkpt>
      <trkpt lon="-2.22805998288095" lat="43.049779990687966">
        <ele>183.0</ele>
        <time>2012-06-05T16:23:04.000Z</time>
      </trkpt>
      <trkpt lon="-2.2277500201016665" lat="43.04993002675474">
        <ele>181.60000610351562</ele>
        <time>2012-06-05T16:23:21.000Z</time>
      </trkpt>
      <trkpt lon="-2.2272599302232265" lat="43.050139993429184">
        <ele>182.0</ele>
        <time>2012-06-05T16:23:47.000Z</time>
      </trkpt>
      <trkpt lon="-2.2268099058419466" lat="43.05033998563886">
        <ele>182.60000610351562</ele>
        <time>2012-06-05T16:24:11.000Z</time>
      </trkpt>
      <trkpt lon="-2.226529950276017" lat="43.05046001449227">
        <ele>182.1999969482422</ele>
        <time>2012-06-05T16:24:26.000Z</time>
      </trkpt>
      <trkpt lon="-2.2262499947100878" lat="43.05058004334569">
        <ele>182.1999969482422</ele>
        <time>2012-06-05T16:24:41.000Z</time>
      </trkpt>
      <trkpt lon="-2.2259599808603525" lat="43.050720021128654">
        <ele>182.0</ele>
        <time>2012-06-05T16:24:57.000Z</time>
      </trkpt>
      <trkpt lon="-2.2256899159401655" lat="43.05089998058975">
        <ele>181.8000030517578</ele>
        <time>2012-06-05T16:25:14.000Z</time>
      </trkpt>
      <trkpt lon="-2.225390011444688" lat="43.0511699616909">
        <ele>182.0</ele>
        <time>2012-06-05T16:25:36.000Z</time>
      </trkpt>
      <trkpt lon="-2.2250699903815985" lat="43.051470033824444">
        <ele>180.39999389648438</ele>
        <time>2012-06-05T16:25:59.000Z</time>
      </trkpt>
      <trkpt lon="-2.224719962105155" lat="43.05168000049889">
        <ele>180.1999969482422</ele>
        <time>2012-06-05T16:26:20.000Z</time>
      </trkpt>
      <trkpt lon="-2.2244299482554197" lat="43.05183003656566">
        <ele>181.1999969482422</ele>
        <time>2012-06-05T16:26:36.000Z</time>
      </trkpt>
      <trkpt lon="-2.2241899743676186" lat="43.0519300326705">
        <ele>181.39999389648438</ele>
        <time>2012-06-05T16:26:49.000Z</time>
      </trkpt>
      <trkpt lon="-2.2239298839122057" lat="43.05196003988385">
        <ele>180.8000030517578</ele>
        <time>2012-06-05T16:27:01.000Z</time>
      </trkpt>
      <trkpt lon="-2.223819997161627" lat="43.052139999344945">
        <ele>178.60000610351562</ele>
        <time>2012-06-05T16:27:13.000Z</time>
      </trkpt>
      <trkpt lon="-2.2237599827349186" lat="43.05244996212423">
        <ele>175.39999389648438</ele>
        <time>2012-06-05T16:27:32.000Z</time>
      </trkpt>
      <trkpt lon="-2.223629979416728" lat="43.0525500420481">
        <ele>175.39999389648438</ele>
        <time>2012-06-05T16:27:41.000Z</time>
      </trkpt>
      <trkpt lon="-2.2233299911022186" lat="43.052720027044415">
        <ele>176.60000610351562</ele>
        <time>2012-06-05T16:27:58.000Z</time>
      </trkpt>
      <trkpt lon="-2.2231099661439657" lat="43.05273000150919">
        <ele>176.0</ele>
        <time>2012-06-05T16:28:08.000Z</time>
      </trkpt>
      <trkpt lon="-2.2228098940104246" lat="43.052720027044415">
        <ele>175.1999969482422</ele>
        <time>2012-06-05T16:28:21.000Z</time>
      </trkpt>
      <trkpt lon="-2.2224499750882387" lat="43.05279999040067">
        <ele>175.8000030517578</ele>
        <time>2012-06-05T16:28:39.000Z</time>
      </trkpt>
      <trkpt lon="-2.222029957920313" lat="43.0528399720788">
        <ele>180.39999389648438</ele>
        <time>2012-06-05T16:28:58.000Z</time>
      </trkpt>
      <trkpt lon="-2.2216100245714188" lat="43.052780041471124">
        <ele>183.39999389648438</ele>
        <time>2012-06-05T16:29:17.000Z</time>
      </trkpt>
      <trkpt lon="-2.2212899196892977" lat="43.05266998708248">
        <ele>184.0</ele>
        <time>2012-06-05T16:29:35.000Z</time>
      </trkpt>
      <trkpt lon="-2.220979956910014" lat="43.05252003483474">
        <ele>181.0</ele>
        <time>2012-06-05T16:29:52.000Z</time>
      </trkpt>
      <trkpt lon="-2.2206499613821507" lat="43.05230000987649">
        <ele>180.60000610351562</ele>
        <time>2012-06-05T16:30:12.000Z</time>
      </trkpt>
      <trkpt lon="-2.220549965277314" lat="43.052009996026754">
        <ele>177.39999389648438</ele>
        <time>2012-06-05T16:30:30.000Z</time>
      </trkpt>
      <trkpt lon="-2.2204600274562836" lat="43.05165996775031">
        <ele>172.60000610351562</ele>
        <time>2012-06-05T16:30:52.000Z</time>
      </trkpt>
      <trkpt lon="-2.2204499691724777" lat="43.051470033824444">
        <ele>173.39999389648438</ele>
        <time>2012-06-05T16:31:06.000Z</time>
      </trkpt>
      <trkpt lon="-2.220300016924739" lat="43.05129996500909">
        <ele>173.1999969482422</ele>
        <time>2012-06-05T16:31:17.000Z</time>
      </trkpt>
      <trkpt lon="-2.2199799958616495" lat="43.05118999443948">
        <ele>171.39999389648438</ele>
        <time>2012-06-05T16:31:32.000Z</time>
      </trkpt>
      <trkpt lon="-2.2197899781167507" lat="43.05105001665652">
        <ele>171.0</ele>
        <time>2012-06-05T16:31:44.000Z</time>
      </trkpt>
      <trkpt lon="-2.2195500042289495" lat="43.05079998448491">
        <ele>171.0</ele>
        <time>2012-06-05T16:32:03.000Z</time>
      </trkpt>
      <trkpt lon="-2.2192999720573425" lat="43.05060996674001">
        <ele>172.0</ele>
        <time>2012-06-05T16:32:19.000Z</time>
      </trkpt>
      <trkpt lon="-2.2190098743885756" lat="43.050400000065565">
        <ele>171.60000610351562</ele>
        <time>2012-06-05T16:32:37.000Z</time>
      </trkpt>
      <trkpt lon="-2.2186999954283237" lat="43.05017000064254">
        <ele>171.39999389648438</ele>
        <time>2012-06-05T16:32:57.000Z</time>
      </trkpt>
      <trkpt lon="-2.2184499632567167" lat="43.04996003396809">
        <ele>170.39999389648438</ele>
        <time>2012-06-05T16:33:14.000Z</time>
      </trkpt>
      <trkpt lon="-2.2181498911231756" lat="43.04965996183455">
        <ele>170.0</ele>
        <time>2012-06-05T16:33:37.000Z</time>
      </trkpt>
      <trkpt lon="-2.2179699316620827" lat="43.04941998794675">
        <ele>170.0</ele>
        <time>2012-06-05T16:33:54.000Z</time>
      </trkpt>
      <trkpt lon="-2.217799946665764" lat="43.04912997409701">
        <ele>169.8000030517578</ele>
        <time>2012-06-05T16:34:14.000Z</time>
      </trkpt>
      <trkpt lon="-2.2176898922771215" lat="43.04885999299586">
        <ele>169.60000610351562</ele>
        <time>2012-06-05T16:34:32.000Z</time>
      </trkpt>
      <trkpt lon="-2.2176100127398968" lat="43.048529997467995">
        <ele>169.0</ele>
        <time>2012-06-05T16:34:53.000Z</time>
      </trkpt>
      <trkpt lon="-2.2175399400293827" lat="43.04823998361826">
        <ele>168.60000610351562</ele>
        <time>2012-06-05T16:35:10.000Z</time>
      </trkpt>
      <trkpt lon="-2.2174899000674486" lat="43.04796002805233">
        <ele>168.1999969482422</ele>
        <time>2012-06-05T16:35:27.000Z</time>
      </trkpt>
      <trkpt lon="-2.217399962246418" lat="43.04770002141595">
        <ele>168.60000610351562</ele>
        <time>2012-06-05T16:35:43.000Z</time>
      </trkpt>
      <trkpt lon="-2.217250009998679" lat="43.04741998203099">
        <ele>169.39999389648438</ele>
        <time>2012-06-05T16:36:02.000Z</time>
      </trkpt>
      <trkpt lon="-2.2170999739319086" lat="43.04718998260796">
        <ele>169.39999389648438</ele>
        <time>2012-06-05T16:36:17.000Z</time>
      </trkpt>
      <trkpt lon="-2.2168299090117216" lat="43.04691002704203">
        <ele>168.39999389648438</ele>
        <time>2012-06-05T16:36:38.000Z</time>
      </trkpt>
      <trkpt lon="-2.216530004516244" lat="43.04669997654855">
        <ele>167.0</ele>
        <time>2012-06-05T16:36:57.000Z</time>
      </trkpt>
      <trkpt lon="-2.2161799762398005" lat="43.04649998433888">
        <ele>167.39999389648438</ele>
        <time>2012-06-05T16:37:18.000Z</time>
      </trkpt>
      <trkpt lon="-2.215909995138645" lat="43.046339973807335">
        <ele>167.39999389648438</ele>
        <time>2012-06-05T16:37:34.000Z</time>
      </trkpt>
      <trkpt lon="-2.2157299518585205" lat="43.04613998159766">
        <ele>166.60000610351562</ele>
        <time>2012-06-05T16:37:49.000Z</time>
      </trkpt>
      <trkpt lon="-2.215649988502264" lat="43.046039985492826">
        <ele>166.1999969482422</ele>
        <time>2012-06-05T16:37:56.000Z</time>
      </trkpt>
      <trkpt lon="-2.2155599668622017" lat="43.04603001102805">
        <ele>166.39999389648438</ele>
        <time>2012-06-05T16:38:02.000Z</time>
      </trkpt>
      <trkpt lon="-2.2155499923974276" lat="43.04606999270618">
        <ele>166.60000610351562</ele>
        <time>2012-06-05T16:38:04.000Z</time>
      </trkpt>
      <trkpt lon="-2.2154999524354935" lat="43.046099999919534">
        <ele>166.8000030517578</ele>
        <time>2012-06-05T16:38:08.000Z</time>
      </trkpt>
      <trkpt lon="-2.2152799274772406" lat="43.04613000713289">
        <ele>167.39999389648438</ele>
        <time>2012-06-05T16:38:18.000Z</time>
      </trkpt>
      <trkpt lon="-2.214959990233183" lat="43.046099999919534">
        <ele>167.39999389648438</ele>
        <time>2012-06-05T16:38:32.000Z</time>
      </trkpt>
      <trkpt lon="-2.2148599103093147" lat="43.04606999270618">
        <ele>166.8000030517578</ele>
        <time>2012-06-05T16:38:38.000Z</time>
      </trkpt>
      <trkpt lon="-2.214679950848222" lat="43.04603001102805">
        <ele>165.60000610351562</ele>
        <time>2012-06-05T16:38:48.000Z</time>
      </trkpt>
      <trkpt lon="-2.2143899369984865" lat="43.046120032668114">
        <ele>164.60000610351562</ele>
        <time>2012-06-05T16:39:02.000Z</time>
      </trkpt>
      <trkpt lon="-2.2140399925410748" lat="43.046250035986304">
        <ele>163.60000610351562</ele>
        <time>2012-06-05T16:39:20.000Z</time>
      </trkpt>
      <trkpt lon="-2.213640008121729" lat="43.04639001376927">
        <ele>164.39999389648438</ele>
        <time>2012-06-05T16:39:41.000Z</time>
      </trkpt>
      <trkpt lon="-2.2132799215614796" lat="43.04649998433888">
        <ele>165.1999969482422</ele>
        <time>2012-06-05T16:39:59.000Z</time>
      </trkpt>
      <trkpt lon="-2.212950009852648" lat="43.04661003872752">
        <ele>165.1999969482422</ele>
        <time>2012-06-05T16:40:16.000Z</time>
      </trkpt>
      <trkpt lon="-2.2124699782580137" lat="43.04678002372384">
        <ele>165.0</ele>
        <time>2012-06-05T16:40:41.000Z</time>
      </trkpt>
      <trkpt lon="-2.21216001547873" lat="43.04688001982868">
        <ele>164.60000610351562</ele>
        <time>2012-06-05T16:40:56.000Z</time>
      </trkpt>
      <trkpt lon="-2.2117799799889326" lat="43.047029972076416">
        <ele>164.39999389648438</ele>
        <time>2012-06-05T16:41:16.000Z</time>
      </trkpt>
      <trkpt lon="-2.2115700133144855" lat="43.04710004478693">
        <ele>164.1999969482422</ele>
        <time>2012-06-05T16:41:27.000Z</time>
      </trkpt>
      <trkpt lon="-2.211270024999976" lat="43.047219989821315">
        <ele>163.60000610351562</ele>
        <time>2012-06-05T16:41:43.000Z</time>
      </trkpt>
      <trkpt lon="-2.2110298834741116" lat="43.04733004420996">
        <ele>162.8000030517578</ele>
        <time>2012-06-05T16:41:56.000Z</time>
      </trkpt>
      <trkpt lon="-2.210989985615015" lat="43.04733004420996">
        <ele>162.60000610351562</ele>
        <time>2012-06-05T16:41:58.000Z</time>
      </trkpt>
      <trkpt lon="-2.2108599822968245" lat="43.04733004420996">
        <ele>162.1999969482422</ele>
        <time>2012-06-05T16:42:04.000Z</time>
      </trkpt>
      <trkpt lon="-2.2107200045138597" lat="43.04747002199292">
        <ele>162.1999969482422</ele>
        <time>2012-06-05T16:42:15.000Z</time>
      </trkpt>
      <trkpt lon="-2.210360001772642" lat="43.04758996702731">
        <ele>162.60000610351562</ele>
        <time>2012-06-05T16:42:33.000Z</time>
      </trkpt>
      <trkpt lon="-2.210019947960973" lat="43.04767998866737">
        <ele>163.0</ele>
        <time>2012-06-05T16:42:49.000Z</time>
      </trkpt>
      <trkpt lon="-2.209660029038787" lat="43.04776003584266">
        <ele>161.39999389648438</ele>
        <time>2012-06-05T16:43:06.000Z</time>
      </trkpt>
      <trkpt lon="-2.2092799097299576" lat="43.04780999198556">
        <ele>160.0</ele>
        <time>2012-06-05T16:43:24.000Z</time>
      </trkpt>
      <trkpt lon="-2.209019986912608" lat="43.047779984772205">
        <ele>159.1999969482422</ele>
        <time>2012-06-05T16:43:37.000Z</time>
      </trkpt>
      <trkpt lon="-2.208589995279908" lat="43.04766003973782">
        <ele>158.0</ele>
        <time>2012-06-05T16:43:59.000Z</time>
      </trkpt>
      <trkpt lon="-2.208339963108301" lat="43.04753003641963">
        <ele>157.1999969482422</ele>
        <time>2012-06-05T16:44:14.000Z</time>
      </trkpt>
      <trkpt lon="-2.2079999931156635" lat="43.04735996760428">
        <ele>158.39999389648438</ele>
        <time>2012-06-05T16:44:33.000Z</time>
      </trkpt>
      <trkpt lon="-2.2077299281954765" lat="43.04724999703467">
        <ele>159.60000610351562</ele>
        <time>2012-06-05T16:44:47.000Z</time>
      </trkpt>
      <trkpt lon="-2.2074898704886436" lat="43.04715000092983">
        <ele>160.60000610351562</ele>
        <time>2012-06-05T16:45:00.000Z</time>
      </trkpt>
      <trkpt lon="-2.2073700092732906" lat="43.047070037573576">
        <ele>161.1999969482422</ele>
        <time>2012-06-05T16:45:08.000Z</time>
      </trkpt>
      <trkpt lon="-2.207189965993166" lat="43.04699996486306">
        <ele>161.60000610351562</ele>
        <time>2012-06-05T16:45:18.000Z</time>
      </trkpt>
      <trkpt lon="-2.206949992105365" lat="43.046980015933514">
        <ele>161.8000030517578</ele>
        <time>2012-06-05T16:45:28.000Z</time>
      </trkpt>
      <trkpt lon="-2.2067199926823378" lat="43.046959983184934">
        <ele>162.0</ele>
        <time>2012-06-05T16:45:38.000Z</time>
      </trkpt>
      <trkpt lon="-2.2064800187945366" lat="43.04692997597158">
        <ele>161.60000610351562</ele>
        <time>2012-06-05T16:45:50.000Z</time>
      </trkpt>
      <trkpt lon="-2.206309949979186" lat="43.046899968758225">
        <ele>161.0</ele>
        <time>2012-06-05T16:45:59.000Z</time>
      </trkpt>
      <trkpt lon="-2.2060399688780308" lat="43.0468599870801">
        <ele>160.1999969482422</ele>
        <time>2012-06-05T16:46:11.000Z</time>
      </trkpt>
      <trkpt lon="-2.2057398967444897" lat="43.046810030937195">
        <ele>159.39999389648438</ele>
        <time>2012-06-05T16:46:26.000Z</time>
      </trkpt>
      <trkpt lon="-2.2055499628186226" lat="43.04678002372384">
        <ele>159.60000610351562</ele>
        <time>2012-06-05T16:46:35.000Z</time>
      </trkpt>
      <trkpt lon="-2.2052999306470156" lat="43.04678002372384">
        <ele>159.8000030517578</ele>
        <time>2012-06-05T16:46:46.000Z</time>
      </trkpt>
      <trkpt lon="-2.2050899639725685" lat="43.04675001651049">
        <ele>160.0</ele>
        <time>2012-06-05T16:46:56.000Z</time>
      </trkpt>
      <trkpt lon="-2.204840015619993" lat="43.04672000929713">
        <ele>160.8000030517578</ele>
        <time>2012-06-05T16:47:08.000Z</time>
      </trkpt>
      <trkpt lon="-2.2046199068427086" lat="43.04669997654855">
        <ele>161.8000030517578</ele>
        <time>2012-06-05T16:47:18.000Z</time>
      </trkpt>
      <trkpt lon="-2.204559976235032" lat="43.04669997654855">
        <ele>162.1999969482422</ele>
        <time>2012-06-05T16:47:21.000Z</time>
      </trkpt>
      <trkpt lon="-2.2044199146330357" lat="43.046680027619004">
        <ele>162.8000030517578</ele>
        <time>2012-06-05T16:47:28.000Z</time>
      </trkpt>
      <trkpt lon="-2.204129984602332" lat="43.04665002040565">
        <ele>164.0</ele>
        <time>2012-06-05T16:47:41.000Z</time>
      </trkpt>
      <trkpt lon="-2.2039698902517557" lat="43.04661003872752">
        <ele>163.8000030517578</ele>
        <time>2012-06-05T16:47:50.000Z</time>
      </trkpt>
      <trkpt lon="-2.2037499491125345" lat="43.04662998765707">
        <ele>164.1999969482422</ele>
        <time>2012-06-05T16:48:00.000Z</time>
      </trkpt>
      <trkpt lon="-2.203460019081831" lat="43.046639962121844">
        <ele>164.60000610351562</ele>
        <time>2012-06-05T16:48:13.000Z</time>
      </trkpt>
      <trkpt lon="-2.203249968588352" lat="43.04662998765707">
        <ele>164.60000610351562</ele>
        <time>2012-06-05T16:48:23.000Z</time>
      </trkpt>
      <trkpt lon="-2.203040001913905" lat="43.04662998765707">
        <ele>164.39999389648438</ele>
        <time>2012-06-05T16:48:33.000Z</time>
      </trkpt>
      <trkpt lon="-2.202789969742298" lat="43.04662998765707">
        <ele>164.0</ele>
        <time>2012-06-05T16:48:44.000Z</time>
      </trkpt>
      <trkpt lon="-2.202499955892563" lat="43.046639962121844">
        <ele>163.8000030517578</ele>
        <time>2012-06-05T16:48:57.000Z</time>
      </trkpt>
      <trkpt lon="-2.2021999675780535" lat="43.04665002040565">
        <ele>163.1999969482422</ele>
        <time>2012-06-05T16:49:11.000Z</time>
      </trkpt>
      <trkpt lon="-2.2019999753683805" lat="43.04662998765707">
        <ele>162.60000610351562</ele>
        <time>2012-06-05T16:49:21.000Z</time>
      </trkpt>
      <trkpt lon="-2.2017799504101276" lat="43.04661003872752">
        <ele>161.8000030517578</ele>
        <time>2012-06-05T16:49:32.000Z</time>
      </trkpt>
      <trkpt lon="-2.201430005952716" lat="43.046599980443716">
        <ele>161.60000610351562</ele>
        <time>2012-06-05T16:49:48.000Z</time>
      </trkpt>
      <trkpt lon="-2.201219955459237" lat="43.046599980443716">
        <ele>161.60000610351562</ele>
        <time>2012-06-05T16:49:58.000Z</time>
      </trkpt>
      <trkpt lon="-2.2008198872208595" lat="43.04658003151417">
        <ele>161.39999389648438</ele>
        <time>2012-06-05T16:50:17.000Z</time>
      </trkpt>
      <trkpt lon="-2.200589971616864" lat="43.04659000597894">
        <ele>163.0</ele>
        <time>2012-06-05T16:50:27.000Z</time>
      </trkpt>
      <trkpt lon="-2.2002599760890007" lat="43.04658003151417">
        <ele>165.1999969482422</ele>
        <time>2012-06-05T16:50:43.000Z</time>
      </trkpt>
      <trkpt lon="-2.1999698784202337" lat="43.04655999876559">
        <ele>166.39999389648438</ele>
        <time>2012-06-05T16:50:57.000Z</time>
      </trkpt>
      <trkpt lon="-2.199690006673336" lat="43.04653996601701">
        <ele>165.39999389648438</ele>
        <time>2012-06-05T16:51:10.000Z</time>
      </trkpt>
      <trkpt lon="-2.1994200255721807" lat="43.046529991552234">
        <ele>164.39999389648438</ele>
        <time>2012-06-05T16:51:23.000Z</time>
      </trkpt>
      <trkpt lon="-2.198970001190901" lat="43.04653996601701">
        <ele>163.1999969482422</ele>
        <time>2012-06-05T16:51:43.000Z</time>
      </trkpt>
      <trkpt lon="-2.1986198890954256" lat="43.04652001708746">
        <ele>162.39999389648438</ele>
        <time>2012-06-05T16:52:00.000Z</time>
      </trkpt>
      <trkpt lon="-2.198349991813302" lat="43.04652001708746">
        <ele>162.0</ele>
        <time>2012-06-05T16:52:13.000Z</time>
      </trkpt>
      <trkpt lon="-2.1980400290340185" lat="43.04655999876559">
        <ele>161.39999389648438</ele>
        <time>2012-06-05T16:52:29.000Z</time>
      </trkpt>
      <trkpt lon="-2.1977298986166716" lat="43.046620013192296">
        <ele>160.60000610351562</ele>
        <time>2012-06-05T16:52:45.000Z</time>
      </trkpt>
      <trkpt lon="-2.197469975799322" lat="43.046680027619004">
        <ele>160.0</ele>
        <time>2012-06-05T16:52:58.000Z</time>
      </trkpt>
      <trkpt lon="-2.19737995415926" lat="43.04669000208378">
        <ele>159.60000610351562</ele>
        <time>2012-06-05T16:53:02.000Z</time>
      </trkpt>
      <trkpt lon="-2.1972798742353916" lat="43.04672000929713">
        <ele>159.39999389648438</ele>
        <time>2012-06-05T16:53:08.000Z</time>
      </trkpt>
      <trkpt lon="-2.1971199475228786" lat="43.046789998188615">
        <ele>159.39999389648438</ele>
        <time>2012-06-05T16:53:17.000Z</time>
      </trkpt>
      <trkpt lon="-2.1968498826026917" lat="43.04688001982868">
        <ele>159.39999389648438</ele>
        <time>2012-06-05T16:53:29.000Z</time>
      </trkpt>
      <trkpt lon="-2.196579985320568" lat="43.046940034255385">
        <ele>159.1999969482422</ele>
        <time>2012-06-05T16:53:41.000Z</time>
      </trkpt>
      <trkpt lon="-2.196405306458473" lat="43.047091495245695">
        <ele>160.60000610351562</ele>
        <time>2012-06-05T16:53:54.000Z</time>
      </trkpt>
      <trkpt lon="-2.19613348133862" lat="43.04722468368709">
        <ele>161.1999969482422</ele>
        <time>2012-06-05T16:54:03.000Z</time>
      </trkpt>
    </trkseg>
  </trk>
</gpx>
